<?xml version='1.0' encoding='UTF-8'?><gpx version="1.1" creator="JPX - https://github.com/jenetics/jpx" xmlns="http://www.topografix.com/GPX/1/1"><trk><trkseg><trkpt lat="36.8867429" lon="15.0720851"><ele>91.0</ele><time>2026-03-22T06:51:12.318Z</time></trkpt><trkpt lat="36.8868217" lon="15.0720717"><ele>91.0</ele><time>2026-03-22T06:51:24.345Z</time></trkpt><trkpt lat="36.8868517" lon="15.0721437"><ele>91.0</ele><time>2026-03-22T06:52:31.339Z</time></trkpt><trkpt lat="36.886795" lon="15.0721923"><ele>91.0</ele><time>2026-03-22T06:53:20.331Z</time></trkpt><trkpt lat="36.8867602" lon="15.0722635"><ele>91.0</ele><time>2026-03-22T06:53:24.347Z</time></trkpt><trkpt lat="36.8868191" lon="15.072319"><ele>91.0</ele><time>2026-03-22T06:53:31.362Z</time></trkpt><trkpt lat="36.8869011" lon="15.0723844"><ele>90.8</ele><time>2026-03-22T06:53:35.31Z</time></trkpt><trkpt lat="36.886956" lon="15.0724938"><ele>90.6</ele><time>2026-03-22T06:53:36.353Z</time></trkpt><trkpt lat="36.8869934" lon="15.0725945"><ele>90.4</ele><time>2026-03-22T06:53:37.362Z</time></trkpt><trkpt lat="36.8870091" lon="15.0727166"><ele>90.2</ele><time>2026-03-22T06:53:38.35Z</time></trkpt><trkpt lat="36.8869996" lon="15.0728409"><ele>90.0</ele><time>2026-03-22T06:53:39.35Z</time></trkpt><trkpt lat="36.8869424" lon="15.0729868"><ele>90.0</ele><time>2026-03-22T06:53:40.372Z</time></trkpt><trkpt lat="36.8868751" lon="15.0731419"><ele>90.0</ele><time>2026-03-22T06:53:41.356Z</time></trkpt><trkpt lat="36.8867986" lon="15.0732862"><ele>90.0</ele><time>2026-03-22T06:53:42.373Z</time></trkpt><trkpt lat="36.8867221" lon="15.0734245"><ele>90.0</ele><time>2026-03-22T06:53:43.309Z</time></trkpt><trkpt lat="36.8866373" lon="15.0735578"><ele>89.0</ele><time>2026-03-22T06:53:44.348Z</time></trkpt><trkpt lat="36.8865426" lon="15.0736863"><ele>88.0</ele><time>2026-03-22T06:53:45.338Z</time></trkpt><trkpt lat="36.8864411" lon="15.0738079"><ele>87.0</ele><time>2026-03-22T06:53:46.339Z</time></trkpt><trkpt lat="36.8863368" lon="15.0739269"><ele>86.0</ele><time>2026-03-22T06:53:47.356Z</time></trkpt><trkpt lat="36.886238" lon="15.0740425"><ele>86.25</ele><time>2026-03-22T06:53:48.348Z</time></trkpt><trkpt lat="36.8861374" lon="15.0741554"><ele>86.5</ele><time>2026-03-22T06:53:49.358Z</time></trkpt><trkpt lat="36.8860387" lon="15.0742682"><ele>86.75</ele><time>2026-03-22T06:53:50.35Z</time></trkpt><trkpt lat="36.8859157" lon="15.0743688"><ele>87.0</ele><time>2026-03-22T06:53:51.362Z</time></trkpt><trkpt lat="36.88578" lon="15.0744623"><ele>87.0</ele><time>2026-03-22T06:53:52.346Z</time></trkpt><trkpt lat="36.8856526" lon="15.0745588"><ele>87.0</ele><time>2026-03-22T06:53:53.335Z</time></trkpt><trkpt lat="36.8855357" lon="15.0746558"><ele>87.0</ele><time>2026-03-22T06:53:54.346Z</time></trkpt><trkpt lat="36.8854241" lon="15.0747603"><ele>87.0</ele><time>2026-03-22T06:53:55.348Z</time></trkpt><trkpt lat="36.8853337" lon="15.0748695"><ele>86.8</ele><time>2026-03-22T06:53:56.341Z</time></trkpt><trkpt lat="36.8852581" lon="15.0749679"><ele>86.6</ele><time>2026-03-22T06:53:57.37Z</time></trkpt><trkpt lat="36.8851931" lon="15.0750652"><ele>86.39999999999999</ele><time>2026-03-22T06:53:58.352Z</time></trkpt><trkpt lat="36.8851361" lon="15.075165"><ele>86.19999999999999</ele><time>2026-03-22T06:53:59.355Z</time></trkpt><trkpt lat="36.88509" lon="15.0752549"><ele>86.0</ele><time>2026-03-22T06:54:00.356Z</time></trkpt><trkpt lat="36.8850475" lon="15.0753449"><ele>86.0</ele><time>2026-03-22T06:54:01.355Z</time></trkpt><trkpt lat="36.8850076" lon="15.0754268"><ele>86.0</ele><time>2026-03-22T06:54:02.365Z</time></trkpt><trkpt lat="36.8849739" lon="15.0754986"><ele>86.0</ele><time>2026-03-22T06:54:03.332Z</time></trkpt><trkpt lat="36.8849421" lon="15.0756149"><ele>86.0</ele><time>2026-03-22T06:54:05.363Z</time></trkpt><trkpt lat="36.8850232" lon="15.0757278"><ele>86.0</ele><time>2026-03-22T06:54:07.351Z</time></trkpt><trkpt lat="36.8851012" lon="15.0757635"><ele>86.0</ele><time>2026-03-22T06:54:08.35Z</time></trkpt><trkpt lat="36.8851985" lon="15.0758081"><ele>88.5</ele><time>2026-03-22T06:54:09.346Z</time></trkpt><trkpt lat="36.8852999" lon="15.0758574"><ele>91.0</ele><time>2026-03-22T06:54:10.353Z</time></trkpt><trkpt lat="36.8854168" lon="15.0758592"><ele>93.5</ele><time>2026-03-22T06:54:11.361Z</time></trkpt><trkpt lat="36.8855474" lon="15.0758301"><ele>96.0</ele><time>2026-03-22T06:54:12.35Z</time></trkpt><trkpt lat="36.8856806" lon="15.0757891"><ele>96.8</ele><time>2026-03-22T06:54:13.36Z</time></trkpt><trkpt lat="36.885803" lon="15.0757428"><ele>97.6</ele><time>2026-03-22T06:54:14.359Z</time></trkpt><trkpt lat="36.8859177" lon="15.0757166"><ele>98.4</ele><time>2026-03-22T06:54:15.356Z</time></trkpt><trkpt lat="36.8859931" lon="15.0757029"><ele>99.2</ele><time>2026-03-22T06:54:16.357Z</time></trkpt><trkpt lat="36.8860533" lon="15.0757628"><ele>100.0</ele><time>2026-03-22T06:54:18.332Z</time></trkpt><trkpt lat="36.8860862" lon="15.0758357"><ele>100.6</ele><time>2026-03-22T06:54:19.341Z</time></trkpt><trkpt lat="36.8861295" lon="15.0759381"><ele>101.2</ele><time>2026-03-22T06:54:21.317Z</time></trkpt><trkpt lat="36.886142" lon="15.0760355"><ele>101.80000000000001</ele><time>2026-03-22T06:54:27.449Z</time></trkpt><trkpt lat="36.8861534" lon="15.0762061"><ele>102.4</ele><time>2026-03-22T06:54:29.359Z</time></trkpt><trkpt lat="36.8861686" lon="15.0762973"><ele>103.0</ele><time>2026-03-22T06:54:30.342Z</time></trkpt><trkpt lat="36.8862195" lon="15.0764044"><ele>103.0</ele><time>2026-03-22T06:54:32.344Z</time></trkpt><trkpt lat="36.8863264" lon="15.0764477"><ele>103.0</ele><time>2026-03-22T06:54:34.328Z</time></trkpt><trkpt lat="36.8864276" lon="15.0764194"><ele>103.0</ele><time>2026-03-22T06:54:35.351Z</time></trkpt><trkpt lat="36.8865361" lon="15.0763831"><ele>103.0</ele><time>2026-03-22T06:54:36.36Z</time></trkpt><trkpt lat="36.8866504" lon="15.076336"><ele>103.0</ele><time>2026-03-22T06:54:37.35Z</time></trkpt><trkpt lat="36.8867651" lon="15.0762944"><ele>103.25</ele><time>2026-03-22T06:54:38.367Z</time></trkpt><trkpt lat="36.886892" lon="15.0762624"><ele>103.5</ele><time>2026-03-22T06:54:39.359Z</time></trkpt><trkpt lat="36.8870129" lon="15.076237"><ele>103.75</ele><time>2026-03-22T06:54:40.354Z</time></trkpt><trkpt lat="36.8871406" lon="15.0762178"><ele>104.0</ele><time>2026-03-22T06:54:41.339Z</time></trkpt><trkpt lat="36.8872839" lon="15.076198"><ele>104.0</ele><time>2026-03-22T06:54:42.35Z</time></trkpt><trkpt lat="36.8874298" lon="15.0761654"><ele>104.0</ele><time>2026-03-22T06:54:43.346Z</time></trkpt><trkpt lat="36.8875749" lon="15.0761305"><ele>104.0</ele><time>2026-03-22T06:54:44.355Z</time></trkpt><trkpt lat="36.8877093" lon="15.0761108"><ele>104.0</ele><time>2026-03-22T06:54:45.348Z</time></trkpt><trkpt lat="36.8878348" lon="15.0760873"><ele>104.5</ele><time>2026-03-22T06:54:46.361Z</time></trkpt><trkpt lat="36.8879669" lon="15.0760735"><ele>105.0</ele><time>2026-03-22T06:54:47.367Z</time></trkpt><trkpt lat="36.8881056" lon="15.076063"><ele>105.5</ele><time>2026-03-22T06:54:48.352Z</time></trkpt><trkpt lat="36.8882484" lon="15.0760838"><ele>106.0</ele><time>2026-03-22T06:54:49.375Z</time></trkpt><trkpt lat="36.8883892" lon="15.0761261"><ele>106.0</ele><time>2026-03-22T06:54:50.347Z</time></trkpt><trkpt lat="36.8885245" lon="15.0761731"><ele>106.0</ele><time>2026-03-22T06:54:51.344Z</time></trkpt><trkpt lat="36.888637" lon="15.0762091"><ele>106.0</ele><time>2026-03-22T06:54:52.357Z</time></trkpt><trkpt lat="36.8887448" lon="15.076238"><ele>106.0</ele><time>2026-03-22T06:54:53.342Z</time></trkpt><trkpt lat="36.8888529" lon="15.0762801"><ele>106.0</ele><time>2026-03-22T06:54:54.315Z</time></trkpt><trkpt lat="36.8889773" lon="15.0763308"><ele>106.0</ele><time>2026-03-22T06:54:55.361Z</time></trkpt><trkpt lat="36.8891077" lon="15.076373"><ele>106.0</ele><time>2026-03-22T06:54:56.357Z</time></trkpt><trkpt lat="36.8892353" lon="15.0764061"><ele>106.0</ele><time>2026-03-22T06:54:57.359Z</time></trkpt><trkpt lat="36.8893591" lon="15.0764005"><ele>107.0</ele><time>2026-03-22T06:54:58.358Z</time></trkpt><trkpt lat="36.8894932" lon="15.0763781"><ele>108.0</ele><time>2026-03-22T06:54:59.307Z</time></trkpt><trkpt lat="36.8896291" lon="15.0763348"><ele>109.0</ele><time>2026-03-22T06:55:00.359Z</time></trkpt><trkpt lat="36.8897608" lon="15.0763"><ele>110.0</ele><time>2026-03-22T06:55:01.354Z</time></trkpt><trkpt lat="36.8898902" lon="15.0762669"><ele>110.0</ele><time>2026-03-22T06:55:02.361Z</time></trkpt><trkpt lat="36.8900145" lon="15.0762282"><ele>110.0</ele><time>2026-03-22T06:55:03.349Z</time></trkpt><trkpt lat="36.8901475" lon="15.0761888"><ele>110.0</ele><time>2026-03-22T06:55:04.345Z</time></trkpt><trkpt lat="36.8902789" lon="15.0761479"><ele>110.0</ele><time>2026-03-22T06:55:05.347Z</time></trkpt><trkpt lat="36.8904136" lon="15.0761087"><ele>111.0</ele><time>2026-03-22T06:55:06.339Z</time></trkpt><trkpt lat="36.8905386" lon="15.0760802"><ele>112.0</ele><time>2026-03-22T06:55:07.358Z</time></trkpt><trkpt lat="36.8906536" lon="15.076049"><ele>113.0</ele><time>2026-03-22T06:55:08.353Z</time></trkpt><trkpt lat="36.8907702" lon="15.0760219"><ele>114.0</ele><time>2026-03-22T06:55:09.357Z</time></trkpt><trkpt lat="36.890875" lon="15.0759858"><ele>114.6</ele><time>2026-03-22T06:55:10.321Z</time></trkpt><trkpt lat="36.8909765" lon="15.0759511"><ele>115.2</ele><time>2026-03-22T06:55:11.358Z</time></trkpt><trkpt lat="36.8910777" lon="15.0759095"><ele>115.79999999999998</ele><time>2026-03-22T06:55:12.351Z</time></trkpt><trkpt lat="36.8911452" lon="15.0758689"><ele>116.39999999999999</ele><time>2026-03-22T06:55:13.348Z</time></trkpt><trkpt lat="36.8912271" lon="15.0757962"><ele>117.0</ele><time>2026-03-22T06:55:15.357Z</time></trkpt><trkpt lat="36.8913074" lon="15.0758117"><ele>117.0</ele><time>2026-03-22T06:55:17.353Z</time></trkpt><trkpt lat="36.8914123" lon="15.0758666"><ele>116.99999999999999</ele><time>2026-03-22T06:55:19.36Z</time></trkpt><trkpt lat="36.8915152" lon="15.0758761"><ele>116.99999999999999</ele><time>2026-03-22T06:55:21.357Z</time></trkpt><trkpt lat="36.8915758" lon="15.075844"><ele>117.0</ele><time>2026-03-22T06:55:22.369Z</time></trkpt><trkpt lat="36.8916423" lon="15.0758392"><ele>117.0</ele><time>2026-03-22T06:55:23.365Z</time></trkpt><trkpt lat="36.8917358" lon="15.0758889"><ele>118.0</ele><time>2026-03-22T06:55:24.369Z</time></trkpt><trkpt lat="36.8918495" lon="15.0759645"><ele>119.0</ele><time>2026-03-22T06:55:25.351Z</time></trkpt><trkpt lat="36.8919706" lon="15.076066"><ele>120.0</ele><time>2026-03-22T06:55:26.352Z</time></trkpt><trkpt lat="36.892081" lon="15.0761759"><ele>121.0</ele><time>2026-03-22T06:55:27.345Z</time></trkpt><trkpt lat="36.8921547" lon="15.0762893"><ele>121.0</ele><time>2026-03-22T06:55:28.353Z</time></trkpt><trkpt lat="36.8922278" lon="15.0763867"><ele>121.0</ele><time>2026-03-22T06:55:29.346Z</time></trkpt><trkpt lat="36.8923015" lon="15.0764475"><ele>121.0</ele><time>2026-03-22T06:55:30.359Z</time></trkpt><trkpt lat="36.8924161" lon="15.0764821"><ele>121.0</ele><time>2026-03-22T06:55:31.356Z</time></trkpt><trkpt lat="36.8925892" lon="15.0764965"><ele>122.33333333333334</ele><time>2026-03-22T06:55:32.363Z</time></trkpt><trkpt lat="36.8927597" lon="15.076529"><ele>123.66666666666666</ele><time>2026-03-22T06:55:33.357Z</time></trkpt><trkpt lat="36.8929201" lon="15.0765667"><ele>125.0</ele><time>2026-03-22T06:55:34.358Z</time></trkpt><trkpt lat="36.893061" lon="15.0766022"><ele>121.2</ele><time>2026-03-22T06:55:35.37Z</time></trkpt><trkpt lat="36.893199" lon="15.0766581"><ele>117.4</ele><time>2026-03-22T06:55:36.354Z</time></trkpt><trkpt lat="36.8933139" lon="15.0767171"><ele>113.6</ele><time>2026-03-22T06:55:37.349Z</time></trkpt><trkpt lat="36.8933944" lon="15.0767604"><ele>109.8</ele><time>2026-03-22T06:55:38.357Z</time></trkpt><trkpt lat="36.8934629" lon="15.0768275"><ele>106.0</ele><time>2026-03-22T06:55:40.377Z</time></trkpt><trkpt lat="36.8934852" lon="15.0769196"><ele>106.00000000000001</ele><time>2026-03-22T06:55:43.372Z</time></trkpt><trkpt lat="36.893543" lon="15.0768455"><ele>106.0</ele><time>2026-03-22T06:58:05.337Z</time></trkpt><trkpt lat="36.8935864" lon="15.0769221"><ele>106.0</ele><time>2026-03-22T07:15:18.362Z</time></trkpt><trkpt lat="36.8936616" lon="15.0770352"><ele>106.0</ele><time>2026-03-22T07:15:20.342Z</time></trkpt><trkpt lat="36.8937113" lon="15.0770872"><ele>106.00000000000001</ele><time>2026-03-22T07:15:21.354Z</time></trkpt><trkpt lat="36.8937676" lon="15.0771438"><ele>106.0</ele><time>2026-03-22T07:15:22.363Z</time></trkpt><trkpt lat="36.8938239" lon="15.0771976"><ele>106.00000000000001</ele><time>2026-03-22T07:15:23.353Z</time></trkpt><trkpt lat="36.8938861" lon="15.077245"><ele>106.0</ele><time>2026-03-22T07:15:24.346Z</time></trkpt><trkpt lat="36.8939623" lon="15.0772878"><ele>106.0</ele><time>2026-03-22T07:15:25.356Z</time></trkpt><trkpt lat="36.8940341" lon="15.077323"><ele>106.0</ele><time>2026-03-22T07:15:26.348Z</time></trkpt><trkpt lat="36.8941097" lon="15.0773445"><ele>106.00000000000001</ele><time>2026-03-22T07:15:27.352Z</time></trkpt><trkpt lat="36.8941955" lon="15.0773549"><ele>106.0</ele><time>2026-03-22T07:15:28.317Z</time></trkpt><trkpt lat="36.8942934" lon="15.0773557"><ele>108.0</ele><time>2026-03-22T07:15:29.36Z</time></trkpt><trkpt lat="36.8944045" lon="15.0773616"><ele>110.0</ele><time>2026-03-22T07:15:30.353Z</time></trkpt><trkpt lat="36.8945075" lon="15.0773865"><ele>112.0</ele><time>2026-03-22T07:15:31.359Z</time></trkpt><trkpt lat="36.8945966" lon="15.0774457"><ele>114.0</ele><time>2026-03-22T07:15:32.354Z</time></trkpt><trkpt lat="36.894669" lon="15.0775201"><ele>116.0</ele><time>2026-03-22T07:15:33.353Z</time></trkpt><trkpt lat="36.8947301" lon="15.0775926"><ele>113.19999999999999</ele><time>2026-03-22T07:15:34.356Z</time></trkpt><trkpt lat="36.8947965" lon="15.0776681"><ele>110.39999999999999</ele><time>2026-03-22T07:15:35.384Z</time></trkpt><trkpt lat="36.8948716" lon="15.0777531"><ele>107.6</ele><time>2026-03-22T07:15:36.356Z</time></trkpt><trkpt lat="36.8949561" lon="15.0778366"><ele>104.8</ele><time>2026-03-22T07:15:37.382Z</time></trkpt><trkpt lat="36.895054" lon="15.077937"><ele>102.0</ele><time>2026-03-22T07:15:38.367Z</time></trkpt><trkpt lat="36.895158" lon="15.0780529"><ele>102.0</ele><time>2026-03-22T07:15:39.351Z</time></trkpt><trkpt lat="36.8952616" lon="15.0781794"><ele>102.0</ele><time>2026-03-22T07:15:40.363Z</time></trkpt><trkpt lat="36.8953822" lon="15.0783167"><ele>102.0</ele><time>2026-03-22T07:15:41.33Z</time></trkpt><trkpt lat="36.8955086" lon="15.0784562"><ele>97.66666666666667</ele><time>2026-03-22T07:15:42.347Z</time></trkpt><trkpt lat="36.8956239" lon="15.0785971"><ele>93.33333333333334</ele><time>2026-03-22T07:15:43.345Z</time></trkpt><trkpt lat="36.8957453" lon="15.0787442"><ele>89.0</ele><time>2026-03-22T07:15:44.35Z</time></trkpt><trkpt lat="36.8958788" lon="15.0788715"><ele>89.66666666666667</ele><time>2026-03-22T07:15:45.363Z</time></trkpt><trkpt lat="36.8960329" lon="15.0789707"><ele>90.33333333333333</ele><time>2026-03-22T07:15:46.348Z</time></trkpt><trkpt lat="36.8962086" lon="15.0790643"><ele>91.0</ele><time>2026-03-22T07:15:47.35Z</time></trkpt><trkpt lat="36.8963867" lon="15.0791685"><ele>91.33333333333333</ele><time>2026-03-22T07:15:48.347Z</time></trkpt><trkpt lat="36.8965436" lon="15.0792631"><ele>91.66666666666667</ele><time>2026-03-22T07:15:49.33Z</time></trkpt><trkpt lat="36.8966801" lon="15.0793445"><ele>92.0</ele><time>2026-03-22T07:15:50.337Z</time></trkpt><trkpt lat="36.896805" lon="15.079443"><ele>92.0</ele><time>2026-03-22T07:15:51.355Z</time></trkpt><trkpt lat="36.8969045" lon="15.0795538"><ele>92.0</ele><time>2026-03-22T07:15:52.353Z</time></trkpt><trkpt lat="36.8969679" lon="15.0796802"><ele>92.0</ele><time>2026-03-22T07:15:53.339Z</time></trkpt><trkpt lat="36.8970105" lon="15.079816"><ele>92.0</ele><time>2026-03-22T07:15:54.356Z</time></trkpt><trkpt lat="36.8970303" lon="15.0799614"><ele>93.5</ele><time>2026-03-22T07:15:55.359Z</time></trkpt><trkpt lat="36.8970384" lon="15.0801107"><ele>95.0</ele><time>2026-03-22T07:15:56.326Z</time></trkpt><trkpt lat="36.8970306" lon="15.0802531"><ele>96.5</ele><time>2026-03-22T07:15:57.377Z</time></trkpt><trkpt lat="36.8970123" lon="15.0804006"><ele>98.0</ele><time>2026-03-22T07:15:58.36Z</time></trkpt><trkpt lat="36.8969737" lon="15.080533"><ele>98.0</ele><time>2026-03-22T07:15:59.355Z</time></trkpt><trkpt lat="36.8969221" lon="15.0806385"><ele>98.0</ele><time>2026-03-22T07:16:00.361Z</time></trkpt><trkpt lat="36.8968729" lon="15.0807289"><ele>98.0</ele><time>2026-03-22T07:16:01.36Z</time></trkpt><trkpt lat="36.8968317" lon="15.0808375"><ele>98.0</ele><time>2026-03-22T07:16:03.36Z</time></trkpt><trkpt lat="36.8969289" lon="15.0809213"><ele>98.0</ele><time>2026-03-22T07:16:05.378Z</time></trkpt><trkpt lat="36.897013" lon="15.080962"><ele>99.75</ele><time>2026-03-22T07:16:06.36Z</time></trkpt><trkpt lat="36.8970847" lon="15.0810138"><ele>101.5</ele><time>2026-03-22T07:16:07.357Z</time></trkpt><trkpt lat="36.8971795" lon="15.0811037"><ele>103.25</ele><time>2026-03-22T07:16:08.351Z</time></trkpt><trkpt lat="36.897277" lon="15.0812266"><ele>105.0</ele><time>2026-03-22T07:16:09.348Z</time></trkpt><trkpt lat="36.8973894" lon="15.0813699"><ele>105.0</ele><time>2026-03-22T07:16:10.355Z</time></trkpt><trkpt lat="36.8975274" lon="15.0814975"><ele>105.0</ele><time>2026-03-22T07:16:11.361Z</time></trkpt><trkpt lat="36.8976765" lon="15.0815792"><ele>105.0</ele><time>2026-03-22T07:16:12.365Z</time></trkpt><trkpt lat="36.8978222" lon="15.0816492"><ele>107.25</ele><time>2026-03-22T07:16:13.366Z</time></trkpt><trkpt lat="36.8979638" lon="15.0817008"><ele>109.5</ele><time>2026-03-22T07:16:14.363Z</time></trkpt><trkpt lat="36.8980989" lon="15.0817598"><ele>111.75</ele><time>2026-03-22T07:16:15.344Z</time></trkpt><trkpt lat="36.8982332" lon="15.0818218"><ele>114.0</ele><time>2026-03-22T07:16:16.348Z</time></trkpt><trkpt lat="36.8983679" lon="15.0819024"><ele>113.33333333333334</ele><time>2026-03-22T07:16:17.353Z</time></trkpt><trkpt lat="36.8984852" lon="15.0820106"><ele>112.66666666666667</ele><time>2026-03-22T07:16:18.344Z</time></trkpt><trkpt lat="36.8985914" lon="15.0821809"><ele>112.0</ele><time>2026-03-22T07:16:19.349Z</time></trkpt><trkpt lat="36.8986767" lon="15.0823576"><ele>114.0</ele><time>2026-03-22T07:16:20.379Z</time></trkpt><trkpt lat="36.8987722" lon="15.0825304"><ele>116.0</ele><time>2026-03-22T07:16:21.36Z</time></trkpt><trkpt lat="36.8988552" lon="15.0827123"><ele>118.0</ele><time>2026-03-22T07:16:22.357Z</time></trkpt><trkpt lat="36.898933" lon="15.0828981"><ele>118.0</ele><time>2026-03-22T07:16:23.363Z</time></trkpt><trkpt lat="36.8990039" lon="15.0830834"><ele>118.0</ele><time>2026-03-22T07:16:24.356Z</time></trkpt><trkpt lat="36.8990666" lon="15.0832814"><ele>118.0</ele><time>2026-03-22T07:16:25.35Z</time></trkpt><trkpt lat="36.8991171" lon="15.0834878"><ele>122.0</ele><time>2026-03-22T07:16:26.355Z</time></trkpt><trkpt lat="36.8991581" lon="15.0836917"><ele>126.0</ele><time>2026-03-22T07:16:27.359Z</time></trkpt><trkpt lat="36.8992152" lon="15.0838823"><ele>130.0</ele><time>2026-03-22T07:16:28.362Z</time></trkpt><trkpt lat="36.8992951" lon="15.0840519"><ele>132.66666666666669</ele><time>2026-03-22T07:16:29.356Z</time></trkpt><trkpt lat="36.8994098" lon="15.0842084"><ele>135.33333333333334</ele><time>2026-03-22T07:16:30.36Z</time></trkpt><trkpt lat="36.8995376" lon="15.0843426"><ele>138.0</ele><time>2026-03-22T07:16:31.372Z</time></trkpt><trkpt lat="36.8996808" lon="15.0844549"><ele>138.0</ele><time>2026-03-22T07:16:32.363Z</time></trkpt><trkpt lat="36.8998351" lon="15.0845722"><ele>138.0</ele><time>2026-03-22T07:16:33.381Z</time></trkpt><trkpt lat="36.8999663" lon="15.0847241"><ele>138.0</ele><time>2026-03-22T07:16:34.357Z</time></trkpt><trkpt lat="36.9000805" lon="15.0848807"><ele>139.33333333333334</ele><time>2026-03-22T07:16:35.365Z</time></trkpt><trkpt lat="36.9001881" lon="15.0850312"><ele>140.66666666666669</ele><time>2026-03-22T07:16:36.362Z</time></trkpt><trkpt lat="36.9002888" lon="15.0851818"><ele>142.0</ele><time>2026-03-22T07:16:37.365Z</time></trkpt><trkpt lat="36.9003866" lon="15.0853136"><ele>142.0</ele><time>2026-03-22T07:16:38.354Z</time></trkpt><trkpt lat="36.9004825" lon="15.0854264"><ele>142.0</ele><time>2026-03-22T07:16:39.352Z</time></trkpt><trkpt lat="36.9005847" lon="15.0855249"><ele>142.0</ele><time>2026-03-22T07:16:40.368Z</time></trkpt><trkpt lat="36.9006924" lon="15.0856182"><ele>142.0</ele><time>2026-03-22T07:16:41.361Z</time></trkpt><trkpt lat="36.9007863" lon="15.0857145"><ele>140.0</ele><time>2026-03-22T07:16:42.35Z</time></trkpt><trkpt lat="36.9008835" lon="15.0857957"><ele>138.0</ele><time>2026-03-22T07:16:43.341Z</time></trkpt><trkpt lat="36.9009925" lon="15.085854"><ele>136.0</ele><time>2026-03-22T07:16:44.359Z</time></trkpt><trkpt lat="36.9010883" lon="15.0859001"><ele>134.0</ele><time>2026-03-22T07:16:45.359Z</time></trkpt><trkpt lat="36.9011989" lon="15.0859613"><ele>133.33333333333331</ele><time>2026-03-22T07:16:46.35Z</time></trkpt><trkpt lat="36.9013394" lon="15.0860129"><ele>132.66666666666666</ele><time>2026-03-22T07:16:47.373Z</time></trkpt><trkpt lat="36.901498" lon="15.0860693"><ele>132.0</ele><time>2026-03-22T07:16:48.344Z</time></trkpt><trkpt lat="36.9016445" lon="15.0861229"><ele>132.0</ele><time>2026-03-22T07:16:49.379Z</time></trkpt><trkpt lat="36.9018115" lon="15.0861921"><ele>132.0</ele><time>2026-03-22T07:16:50.35Z</time></trkpt><trkpt lat="36.901974" lon="15.0862878"><ele>132.0</ele><time>2026-03-22T07:16:51.354Z</time></trkpt><trkpt lat="36.9021467" lon="15.0864023"><ele>132.0</ele><time>2026-03-22T07:16:52.373Z</time></trkpt><trkpt lat="36.9023066" lon="15.0865018"><ele>132.0</ele><time>2026-03-22T07:16:53.358Z</time></trkpt><trkpt lat="36.9024672" lon="15.0865946"><ele>132.0</ele><time>2026-03-22T07:16:54.35Z</time></trkpt><trkpt lat="36.9026284" lon="15.0866801"><ele>129.66666666666666</ele><time>2026-03-22T07:16:55.352Z</time></trkpt><trkpt lat="36.9028024" lon="15.0867589"><ele>127.33333333333333</ele><time>2026-03-22T07:16:56.382Z</time></trkpt><trkpt lat="36.9029859" lon="15.0868381"><ele>125.0</ele><time>2026-03-22T07:16:57.36Z</time></trkpt><trkpt lat="36.9031784" lon="15.0869022"><ele>125.0</ele><time>2026-03-22T07:16:58.368Z</time></trkpt><trkpt lat="36.903361" lon="15.0869522"><ele>125.0</ele><time>2026-03-22T07:16:59.349Z</time></trkpt><trkpt lat="36.9035523" lon="15.0869946"><ele>125.0</ele><time>2026-03-22T07:17:00.372Z</time></trkpt><trkpt lat="36.9037465" lon="15.0870499"><ele>126.66666666666666</ele><time>2026-03-22T07:17:01.354Z</time></trkpt><trkpt lat="36.903932" lon="15.0871386"><ele>128.33333333333334</ele><time>2026-03-22T07:17:02.354Z</time></trkpt><trkpt lat="36.9041145" lon="15.0872616"><ele>130.0</ele><time>2026-03-22T07:17:03.33Z</time></trkpt><trkpt lat="36.9042798" lon="15.0873992"><ele>130.33333333333334</ele><time>2026-03-22T07:17:04.37Z</time></trkpt><trkpt lat="36.9044411" lon="15.0875118"><ele>130.66666666666666</ele><time>2026-03-22T07:17:05.378Z</time></trkpt><trkpt lat="36.9045854" lon="15.0876293"><ele>131.0</ele><time>2026-03-22T07:17:06.377Z</time></trkpt><trkpt lat="36.9047301" lon="15.0877444"><ele>131.0</ele><time>2026-03-22T07:17:07.37Z</time></trkpt><trkpt lat="36.9048735" lon="15.0878662"><ele>131.0</ele><time>2026-03-22T07:17:08.379Z</time></trkpt><trkpt lat="36.9050178" lon="15.0879758"><ele>131.0</ele><time>2026-03-22T07:17:09.359Z</time></trkpt><trkpt lat="36.9051585" lon="15.0880794"><ele>131.5</ele><time>2026-03-22T07:17:10.386Z</time></trkpt><trkpt lat="36.9052761" lon="15.0881837"><ele>132.0</ele><time>2026-03-22T07:17:11.358Z</time></trkpt><trkpt lat="36.9053793" lon="15.0882849"><ele>132.5</ele><time>2026-03-22T07:17:12.367Z</time></trkpt><trkpt lat="36.9054778" lon="15.0883787"><ele>133.0</ele><time>2026-03-22T07:17:13.334Z</time></trkpt><trkpt lat="36.9055691" lon="15.0884685"><ele>131.5</ele><time>2026-03-22T07:17:14.363Z</time></trkpt><trkpt lat="36.9056633" lon="15.0885507"><ele>130.0</ele><time>2026-03-22T07:17:15.369Z</time></trkpt><trkpt lat="36.9057605" lon="15.0886407"><ele>128.5</ele><time>2026-03-22T07:17:16.375Z</time></trkpt><trkpt lat="36.905868" lon="15.0887195"><ele>127.0</ele><time>2026-03-22T07:17:17.37Z</time></trkpt><trkpt lat="36.9059821" lon="15.0887882"><ele>126.8</ele><time>2026-03-22T07:17:18.375Z</time></trkpt><trkpt lat="36.9060898" lon="15.0888487"><ele>126.6</ele><time>2026-03-22T07:17:19.361Z</time></trkpt><trkpt lat="36.9061965" lon="15.0888984"><ele>126.39999999999999</ele><time>2026-03-22T07:17:20.35Z</time></trkpt><trkpt lat="36.9063035" lon="15.0889282"><ele>126.19999999999999</ele><time>2026-03-22T07:17:21.356Z</time></trkpt><trkpt lat="36.9064078" lon="15.0889536"><ele>126.0</ele><time>2026-03-22T07:17:22.327Z</time></trkpt><trkpt lat="36.9065144" lon="15.0889664"><ele>126.0</ele><time>2026-03-22T07:17:23.366Z</time></trkpt><trkpt lat="36.906621" lon="15.0889908"><ele>126.0</ele><time>2026-03-22T07:17:24.353Z</time></trkpt><trkpt lat="36.9067238" lon="15.0890395"><ele>126.0</ele><time>2026-03-22T07:17:25.366Z</time></trkpt><trkpt lat="36.9068245" lon="15.089112"><ele>126.0</ele><time>2026-03-22T07:17:26.36Z</time></trkpt><trkpt lat="36.9069257" lon="15.0891891"><ele>127.0</ele><time>2026-03-22T07:17:27.358Z</time></trkpt><trkpt lat="36.9070492" lon="15.0892657"><ele>128.0</ele><time>2026-03-22T07:17:28.349Z</time></trkpt><trkpt lat="36.9071815" lon="15.0893235"><ele>129.0</ele><time>2026-03-22T07:17:29.358Z</time></trkpt><trkpt lat="36.9073145" lon="15.0893847"><ele>130.0</ele><time>2026-03-22T07:17:30.364Z</time></trkpt><trkpt lat="36.9074565" lon="15.089451"><ele>131.0</ele><time>2026-03-22T07:17:31.355Z</time></trkpt><trkpt lat="36.9075983" lon="15.0895149"><ele>132.0</ele><time>2026-03-22T07:17:32.369Z</time></trkpt><trkpt lat="36.9077469" lon="15.089571"><ele>133.0</ele><time>2026-03-22T07:17:33.376Z</time></trkpt><trkpt lat="36.9078936" lon="15.0896208"><ele>133.0</ele><time>2026-03-22T07:17:34.31Z</time></trkpt><trkpt lat="36.9080409" lon="15.0896735"><ele>133.0</ele><time>2026-03-22T07:17:35.378Z</time></trkpt><trkpt lat="36.908194" lon="15.0897123"><ele>133.0</ele><time>2026-03-22T07:17:36.367Z</time></trkpt><trkpt lat="36.9083508" lon="15.0897426"><ele>135.33333333333334</ele><time>2026-03-22T07:17:37.357Z</time></trkpt><trkpt lat="36.9085069" lon="15.0897543"><ele>137.66666666666666</ele><time>2026-03-22T07:17:38.348Z</time></trkpt><trkpt lat="36.9086689" lon="15.0897662"><ele>140.0</ele><time>2026-03-22T07:17:39.374Z</time></trkpt><trkpt lat="36.908826" lon="15.0897794"><ele>140.0</ele><time>2026-03-22T07:17:40.361Z</time></trkpt><trkpt lat="36.9089813" lon="15.0897993"><ele>140.0</ele><time>2026-03-22T07:17:41.374Z</time></trkpt><trkpt lat="36.9091215" lon="15.0898318"><ele>140.0</ele><time>2026-03-22T07:17:42.364Z</time></trkpt><trkpt lat="36.909252" lon="15.0898729"><ele>140.0</ele><time>2026-03-22T07:17:43.365Z</time></trkpt><trkpt lat="36.909369" lon="15.0899102"><ele>141.25</ele><time>2026-03-22T07:17:44.371Z</time></trkpt><trkpt lat="36.909486" lon="15.0899526"><ele>142.5</ele><time>2026-03-22T07:17:45.354Z</time></trkpt><trkpt lat="36.9095996" lon="15.089994"><ele>143.75</ele><time>2026-03-22T07:17:46.36Z</time></trkpt><trkpt lat="36.9097093" lon="15.0900448"><ele>145.0</ele><time>2026-03-22T07:17:47.351Z</time></trkpt><trkpt lat="36.909802" lon="15.0900956"><ele>145.0</ele><time>2026-03-22T07:17:48.364Z</time></trkpt><trkpt lat="36.9098831" lon="15.0901497"><ele>145.0</ele><time>2026-03-22T07:17:49.359Z</time></trkpt><trkpt lat="36.9099547" lon="15.0902009"><ele>145.0</ele><time>2026-03-22T07:17:50.357Z</time></trkpt><trkpt lat="36.9100212" lon="15.0902461"><ele>145.0</ele><time>2026-03-22T07:17:51.366Z</time></trkpt><trkpt lat="36.9100912" lon="15.0902347"><ele>145.0</ele><time>2026-03-22T07:17:53.346Z</time></trkpt><trkpt lat="36.9101053" lon="15.0901145"><ele>145.0</ele><time>2026-03-22T07:17:56.349Z</time></trkpt><trkpt lat="36.9100974" lon="15.090013"><ele>147.0</ele><time>2026-03-22T07:17:57.347Z</time></trkpt><trkpt lat="36.9101135" lon="15.0899097"><ele>149.0</ele><time>2026-03-22T07:17:58.344Z</time></trkpt><trkpt lat="36.9101289" lon="15.0898082"><ele>151.0</ele><time>2026-03-22T07:17:59.347Z</time></trkpt><trkpt lat="36.910143" lon="15.0897203"><ele>153.0</ele><time>2026-03-22T07:18:00.36Z</time></trkpt><trkpt lat="36.9101551" lon="15.0896276"><ele>155.0</ele><time>2026-03-22T07:18:01.367Z</time></trkpt><trkpt lat="36.9101678" lon="15.0895379"><ele>157.0</ele><time>2026-03-22T07:18:02.358Z</time></trkpt><trkpt lat="36.9101806" lon="15.0894397"><ele>157.0</ele><time>2026-03-22T07:18:03.376Z</time></trkpt><trkpt lat="36.9101917" lon="15.0893518"><ele>157.0</ele><time>2026-03-22T07:18:04.357Z</time></trkpt><trkpt lat="36.9101994" lon="15.0892624"><ele>157.0</ele><time>2026-03-22T07:18:05.346Z</time></trkpt><trkpt lat="36.910215" lon="15.0891609"><ele>157.0</ele><time>2026-03-22T07:18:06.352Z</time></trkpt><trkpt lat="36.9102283" lon="15.0890663"><ele>157.0</ele><time>2026-03-22T07:18:07.352Z</time></trkpt><trkpt lat="36.9102395" lon="15.0889677"><ele>157.0</ele><time>2026-03-22T07:18:08.374Z</time></trkpt><trkpt lat="36.9102473" lon="15.0888676"><ele>157.2</ele><time>2026-03-22T07:18:09.373Z</time></trkpt><trkpt lat="36.9102628" lon="15.0887549"><ele>157.39999999999998</ele><time>2026-03-22T07:18:10.344Z</time></trkpt><trkpt lat="36.9102922" lon="15.0886303"><ele>157.60000000000002</ele><time>2026-03-22T07:18:11.354Z</time></trkpt><trkpt lat="36.9103273" lon="15.0884979"><ele>157.8</ele><time>2026-03-22T07:18:12.35Z</time></trkpt><trkpt lat="36.9103646" lon="15.0883673"><ele>158.0</ele><time>2026-03-22T07:18:13.347Z</time></trkpt><trkpt lat="36.9104072" lon="15.0882283"><ele>160.25</ele><time>2026-03-22T07:18:14.355Z</time></trkpt><trkpt lat="36.9104586" lon="15.0880772"><ele>162.5</ele><time>2026-03-22T07:18:15.329Z</time></trkpt><trkpt lat="36.9105058" lon="15.087929"><ele>164.75</ele><time>2026-03-22T07:18:16.342Z</time></trkpt><trkpt lat="36.9105517" lon="15.0877855"><ele>167.0</ele><time>2026-03-22T07:18:17.345Z</time></trkpt><trkpt lat="36.910607" lon="15.0876472"><ele>167.0</ele><time>2026-03-22T07:18:18.325Z</time></trkpt><trkpt lat="36.9106739" lon="15.0875143"><ele>167.0</ele><time>2026-03-22T07:18:19.382Z</time></trkpt><trkpt lat="36.9107446" lon="15.0873888"><ele>167.0</ele><time>2026-03-22T07:18:20.366Z</time></trkpt><trkpt lat="36.9108021" lon="15.0872724"><ele>167.0</ele><time>2026-03-22T07:18:21.375Z</time></trkpt><trkpt lat="36.9108252" lon="15.08716"><ele>169.0</ele><time>2026-03-22T07:18:22.368Z</time></trkpt><trkpt lat="36.9108413" lon="15.0870538"><ele>171.0</ele><time>2026-03-22T07:18:23.349Z</time></trkpt><trkpt lat="36.9108541" lon="15.0869349"><ele>173.0</ele><time>2026-03-22T07:18:24.361Z</time></trkpt><trkpt lat="36.9108471" lon="15.0868079"><ele>175.0</ele><time>2026-03-22T07:18:25.352Z</time></trkpt><trkpt lat="36.9108197" lon="15.0866678"><ele>177.0</ele><time>2026-03-22T07:18:26.362Z</time></trkpt><trkpt lat="36.910786" lon="15.0865159"><ele>178.75</ele><time>2026-03-22T07:18:27.358Z</time></trkpt><trkpt lat="36.9107481" lon="15.0863579"><ele>180.5</ele><time>2026-03-22T07:18:28.351Z</time></trkpt><trkpt lat="36.9107006" lon="15.0861975"><ele>182.25</ele><time>2026-03-22T07:18:29.365Z</time></trkpt><trkpt lat="36.910657" lon="15.0860388"><ele>184.0</ele><time>2026-03-22T07:18:30.345Z</time></trkpt><trkpt lat="36.9106202" lon="15.0858939"><ele>184.0</ele><time>2026-03-22T07:18:31.353Z</time></trkpt><trkpt lat="36.9105863" lon="15.0857621"><ele>184.0</ele><time>2026-03-22T07:18:32.354Z</time></trkpt><trkpt lat="36.9105714" lon="15.0856475"><ele>184.0</ele><time>2026-03-22T07:18:33.366Z</time></trkpt><trkpt lat="36.9105655" lon="15.0855401"><ele>184.0</ele><time>2026-03-22T07:18:34.357Z</time></trkpt><trkpt lat="36.9105608" lon="15.0854385"><ele>184.0</ele><time>2026-03-22T07:18:35.367Z</time></trkpt><trkpt lat="36.9105651" lon="15.085342"><ele>184.0</ele><time>2026-03-22T07:18:36.351Z</time></trkpt><trkpt lat="36.910581" lon="15.0852575"><ele>183.33333333333334</ele><time>2026-03-22T07:18:37.362Z</time></trkpt><trkpt lat="36.9106144" lon="15.0851798"><ele>182.66666666666669</ele><time>2026-03-22T07:18:38.341Z</time></trkpt><trkpt lat="36.910662" lon="15.0851022"><ele>182.0</ele><time>2026-03-22T07:18:39.374Z</time></trkpt><trkpt lat="36.9107268" lon="15.0850172"><ele>181.33333333333334</ele><time>2026-03-22T07:18:40.356Z</time></trkpt><trkpt lat="36.9107999" lon="15.084937"><ele>180.66666666666666</ele><time>2026-03-22T07:18:41.376Z</time></trkpt><trkpt lat="36.9108755" lon="15.0848689"><ele>180.0</ele><time>2026-03-22T07:18:42.364Z</time></trkpt><trkpt lat="36.9109629" lon="15.0848068"><ele>180.0</ele><time>2026-03-22T07:18:43.357Z</time></trkpt><trkpt lat="36.9110468" lon="15.0847438"><ele>180.0</ele><time>2026-03-22T07:18:44.359Z</time></trkpt><trkpt lat="36.9111181" lon="15.0846763"><ele>180.0</ele><time>2026-03-22T07:18:45.309Z</time></trkpt><trkpt lat="36.9111743" lon="15.0846086"><ele>180.0</ele><time>2026-03-22T07:18:46.332Z</time></trkpt><trkpt lat="36.9112174" lon="15.084536"><ele>180.0</ele><time>2026-03-22T07:18:47.344Z</time></trkpt><trkpt lat="36.9112621" lon="15.0844627"><ele>180.0</ele><time>2026-03-22T07:18:48.313Z</time></trkpt><trkpt lat="36.9113394" lon="15.084371"><ele>180.0</ele><time>2026-03-22T07:18:50.325Z</time></trkpt><trkpt lat="36.9114123" lon="15.084371"><ele>180.0</ele><time>2026-03-22T07:18:52.312Z</time></trkpt><trkpt lat="36.9114401" lon="15.0844438"><ele>180.0</ele><time>2026-03-22T07:18:54.329Z</time></trkpt><trkpt lat="36.9114083" lon="15.08457"><ele>180.0</ele><time>2026-03-22T07:18:56.335Z</time></trkpt><trkpt lat="36.9113717" lon="15.0847236"><ele>180.0</ele><time>2026-03-22T07:18:58.326Z</time></trkpt><trkpt lat="36.9113608" lon="15.0848401"><ele>183.5</ele><time>2026-03-22T07:18:59.325Z</time></trkpt><trkpt lat="36.9113566" lon="15.0849479"><ele>187.0</ele><time>2026-03-22T07:19:00.345Z</time></trkpt><trkpt lat="36.9113803" lon="15.0850349"><ele>190.5</ele><time>2026-03-22T07:19:02.352Z</time></trkpt><trkpt lat="36.9114379" lon="15.08511"><ele>194.0</ele><time>2026-03-22T07:19:04.318Z</time></trkpt><trkpt lat="36.9115226" lon="15.0851227"><ele>197.5</ele><time>2026-03-22T07:19:06.365Z</time></trkpt><trkpt lat="36.9116022" lon="15.0851349"><ele>201.0</ele><time>2026-03-22T07:19:08.343Z</time></trkpt><trkpt lat="36.911675" lon="15.0852428"><ele>201.0</ele><time>2026-03-22T07:19:10.357Z</time></trkpt><trkpt lat="36.911706" lon="15.0853616"><ele>201.0</ele><time>2026-03-22T07:19:12.344Z</time></trkpt><trkpt lat="36.9116455" lon="15.0854757"><ele>201.0</ele><time>2026-03-22T07:19:14.328Z</time></trkpt><trkpt lat="36.9115939" lon="15.0855354"><ele>201.0</ele><time>2026-03-22T07:19:15.332Z</time></trkpt><trkpt lat="36.9115297" lon="15.0855993"><ele>201.0</ele><time>2026-03-22T07:19:16.36Z</time></trkpt><trkpt lat="36.911482" lon="15.0856625"><ele>201.0</ele><time>2026-03-22T07:19:17.36Z</time></trkpt><trkpt lat="36.9114448" lon="15.0857464"><ele>201.0</ele><time>2026-03-22T07:19:19.36Z</time></trkpt><trkpt lat="36.9115058" lon="15.0858133"><ele>201.0</ele><time>2026-03-22T07:19:31.35Z</time></trkpt><trkpt lat="36.9115999" lon="15.0857699"><ele>201.0</ele><time>2026-03-22T07:19:33.354Z</time></trkpt><trkpt lat="36.9116623" lon="15.0857347"><ele>201.0</ele><time>2026-03-22T07:19:34.349Z</time></trkpt><trkpt lat="36.9117283" lon="15.0857114"><ele>201.0</ele><time>2026-03-22T07:19:35.351Z</time></trkpt><trkpt lat="36.9117952" lon="15.0857"><ele>201.0</ele><time>2026-03-22T07:19:36.354Z</time></trkpt><trkpt lat="36.9118669" lon="15.085687"><ele>202.83333333333334</ele><time>2026-03-22T07:19:37.355Z</time></trkpt><trkpt lat="36.9119445" lon="15.0856706"><ele>204.66666666666669</ele><time>2026-03-22T07:19:38.349Z</time></trkpt><trkpt lat="36.9120227" lon="15.0856555"><ele>206.5</ele><time>2026-03-22T07:19:39.35Z</time></trkpt><trkpt lat="36.9121075" lon="15.0856389"><ele>208.33333333333334</ele><time>2026-03-22T07:19:40.363Z</time></trkpt><trkpt lat="36.9121979" lon="15.085627"><ele>210.16666666666669</ele><time>2026-03-22T07:19:41.353Z</time></trkpt><trkpt lat="36.9122921" lon="15.0856186"><ele>212.0</ele><time>2026-03-22T07:19:42.345Z</time></trkpt><trkpt lat="36.9123851" lon="15.0856099"><ele>212.0</ele><time>2026-03-22T07:19:43.335Z</time></trkpt><trkpt lat="36.9124796" lon="15.085607"><ele>212.0</ele><time>2026-03-22T07:19:44.343Z</time></trkpt><trkpt lat="36.9125723" lon="15.0856042"><ele>212.0</ele><time>2026-03-22T07:19:45.356Z</time></trkpt><trkpt lat="36.912666" lon="15.0856017"><ele>212.0</ele><time>2026-03-22T07:19:46.353Z</time></trkpt><trkpt lat="36.9127635" lon="15.085593"><ele>212.0</ele><time>2026-03-22T07:19:47.367Z</time></trkpt><trkpt lat="36.912856" lon="15.0855798"><ele>215.0</ele><time>2026-03-22T07:19:48.363Z</time></trkpt><trkpt lat="36.9129499" lon="15.0855734"><ele>218.0</ele><time>2026-03-22T07:19:49.324Z</time></trkpt><trkpt lat="36.9130528" lon="15.0855627"><ele>221.0</ele><time>2026-03-22T07:19:50.356Z</time></trkpt><trkpt lat="36.9131599" lon="15.0855591"><ele>224.0</ele><time>2026-03-22T07:19:51.334Z</time></trkpt><trkpt lat="36.9132653" lon="15.0855427"><ele>227.0</ele><time>2026-03-22T07:19:52.361Z</time></trkpt><trkpt lat="36.9133563" lon="15.0855273"><ele>229.66666666666669</ele><time>2026-03-22T07:19:53.356Z</time></trkpt><trkpt lat="36.9134388" lon="15.0855144"><ele>232.33333333333334</ele><time>2026-03-22T07:19:54.379Z</time></trkpt><trkpt lat="36.9135068" lon="15.0855077"><ele>235.0</ele><time>2026-03-22T07:19:55.377Z</time></trkpt><trkpt lat="36.9135888" lon="15.0855133"><ele>237.66666666666669</ele><time>2026-03-22T07:19:57.362Z</time></trkpt><trkpt lat="36.9137017" lon="15.0854826"><ele>240.33333333333334</ele><time>2026-03-22T07:19:59.352Z</time></trkpt><trkpt lat="36.9137702" lon="15.0854714"><ele>243.0</ele><time>2026-03-22T07:20:00.347Z</time></trkpt><trkpt lat="36.913865" lon="15.0854255"><ele>243.0</ele><time>2026-03-22T07:20:02.347Z</time></trkpt><trkpt lat="36.9139468" lon="15.0853747"><ele>243.0</ele><time>2026-03-22T07:20:04.356Z</time></trkpt><trkpt lat="36.9140093" lon="15.0853643"><ele>243.0</ele><time>2026-03-22T07:20:07.332Z</time></trkpt><trkpt lat="36.9140612" lon="15.0853129"><ele>243.0</ele><time>2026-03-22T07:20:16.356Z</time></trkpt><trkpt lat="36.914122" lon="15.0852372"><ele>243.0</ele><time>2026-03-22T07:20:18.356Z</time></trkpt><trkpt lat="36.9141921" lon="15.0851665"><ele>243.0</ele><time>2026-03-22T07:20:20.369Z</time></trkpt><trkpt lat="36.9142659" lon="15.0851196"><ele>243.2</ele><time>2026-03-22T07:20:22.362Z</time></trkpt><trkpt lat="36.9143564" lon="15.0850659"><ele>243.4</ele><time>2026-03-22T07:20:24.348Z</time></trkpt><trkpt lat="36.9144606" lon="15.0849945"><ele>243.59999999999997</ele><time>2026-03-22T07:20:26.347Z</time></trkpt><trkpt lat="36.9145645" lon="15.0849168"><ele>243.79999999999998</ele><time>2026-03-22T07:20:28.371Z</time></trkpt><trkpt lat="36.9146566" lon="15.0848534"><ele>244.0</ele><time>2026-03-22T07:20:30.352Z</time></trkpt><trkpt lat="36.9147278" lon="15.0847773"><ele>246.79999999999998</ele><time>2026-03-22T07:20:32.348Z</time></trkpt><trkpt lat="36.9148001" lon="15.0847013"><ele>249.59999999999997</ele><time>2026-03-22T07:20:34.354Z</time></trkpt><trkpt lat="36.914874" lon="15.0846271"><ele>252.4</ele><time>2026-03-22T07:20:36.345Z</time></trkpt><trkpt lat="36.9149654" lon="15.0845349"><ele>255.2</ele><time>2026-03-22T07:20:38.353Z</time></trkpt><trkpt lat="36.9150406" lon="15.0844491"><ele>258.0</ele><time>2026-03-22T07:20:40.387Z</time></trkpt><trkpt lat="36.9151006" lon="15.0843832"><ele>260.0</ele><time>2026-03-22T07:20:43.358Z</time></trkpt><trkpt lat="36.9151658" lon="15.0843394"><ele>262.0</ele><time>2026-03-22T07:20:46.358Z</time></trkpt><trkpt lat="36.9152331" lon="15.084259"><ele>264.0</ele><time>2026-03-22T07:20:50.356Z</time></trkpt><trkpt lat="36.9153008" lon="15.0842035"><ele>266.0</ele><time>2026-03-22T07:20:53.363Z</time></trkpt><trkpt lat="36.9153862" lon="15.084125"><ele>268.0</ele><time>2026-03-22T07:20:56.346Z</time></trkpt><trkpt lat="36.9154251" lon="15.0840444"><ele>270.0</ele><time>2026-03-22T07:20:58.431Z</time></trkpt><trkpt lat="36.9154279" lon="15.0839652"><ele>272.5</ele><time>2026-03-22T07:21:00.33Z</time></trkpt><trkpt lat="36.9155074" lon="15.0839465"><ele>275.0</ele><time>2026-03-22T07:23:58.352Z</time></trkpt><trkpt lat="36.9155881" lon="15.0839144"><ele>277.5</ele><time>2026-03-22T07:24:02.343Z</time></trkpt><trkpt lat="36.9156443" lon="15.0838494"><ele>280.0</ele><time>2026-03-22T07:24:05.347Z</time></trkpt><trkpt lat="36.9156696" lon="15.0837552"><ele>282.5</ele><time>2026-03-22T07:24:08.35Z</time></trkpt><trkpt lat="36.9157143" lon="15.0836737"><ele>285.0</ele><time>2026-03-22T07:24:11.344Z</time></trkpt><trkpt lat="36.9157613" lon="15.0836019"><ele>285.0</ele><time>2026-03-22T07:24:14.347Z</time></trkpt><trkpt lat="36.9158152" lon="15.0835389"><ele>285.0</ele><time>2026-03-22T07:24:17.355Z</time></trkpt><trkpt lat="36.9158543" lon="15.0834695"><ele>285.0</ele><time>2026-03-22T07:24:19.367Z</time></trkpt><trkpt lat="36.9158973" lon="15.0834088"><ele>285.0</ele><time>2026-03-22T07:24:21.413Z</time></trkpt><trkpt lat="36.9159701" lon="15.083341"><ele>285.0</ele><time>2026-03-22T07:24:24.353Z</time></trkpt><trkpt lat="36.9160232" lon="15.0832453"><ele>285.0</ele><time>2026-03-22T07:24:27.373Z</time></trkpt><trkpt lat="36.9160581" lon="15.0831778"><ele>286.57142857142856</ele><time>2026-03-22T07:24:29.362Z</time></trkpt><trkpt lat="36.9160975" lon="15.0831051"><ele>288.14285714285717</ele><time>2026-03-22T07:24:31.368Z</time></trkpt><trkpt lat="36.9161392" lon="15.0830454"><ele>289.7142857142857</ele><time>2026-03-22T07:24:33.373Z</time></trkpt><trkpt lat="36.9162191" lon="15.0829865"><ele>291.2857142857143</ele><time>2026-03-22T07:24:36.358Z</time></trkpt><trkpt lat="36.9162709" lon="15.0829261"><ele>292.85714285714283</ele><time>2026-03-22T07:24:38.336Z</time></trkpt><trkpt lat="36.9163275" lon="15.0828906"><ele>294.42857142857144</ele><time>2026-03-22T07:24:41.346Z</time></trkpt><trkpt lat="36.9163519" lon="15.0828069"><ele>296.0</ele><time>2026-03-22T07:29:23.359Z</time></trkpt><trkpt lat="36.9164315" lon="15.0827147"><ele>296.0</ele><time>2026-03-22T07:29:25.322Z</time></trkpt><trkpt lat="36.9164881" lon="15.0826574"><ele>296.0</ele><time>2026-03-22T07:29:26.332Z</time></trkpt><trkpt lat="36.9165353" lon="15.082604"><ele>296.0</ele><time>2026-03-22T07:29:27.353Z</time></trkpt><trkpt lat="36.9165855" lon="15.0825547"><ele>296.0</ele><time>2026-03-22T07:29:28.352Z</time></trkpt><trkpt lat="36.9166462" lon="15.0825026"><ele>296.0</ele><time>2026-03-22T07:29:29.331Z</time></trkpt><trkpt lat="36.91671" lon="15.0824515"><ele>296.0</ele><time>2026-03-22T07:29:30.353Z</time></trkpt><trkpt lat="36.9167797" lon="15.082405"><ele>296.0</ele><time>2026-03-22T07:29:31.322Z</time></trkpt><trkpt lat="36.9168709" lon="15.0823614"><ele>296.6666666666667</ele><time>2026-03-22T07:29:32.315Z</time></trkpt><trkpt lat="36.9169593" lon="15.0823127"><ele>297.33333333333337</ele><time>2026-03-22T07:29:33.363Z</time></trkpt><trkpt lat="36.9170361" lon="15.0822595"><ele>298.0</ele><time>2026-03-22T07:29:34.351Z</time></trkpt><trkpt lat="36.9171057" lon="15.082199"><ele>298.6666666666667</ele><time>2026-03-22T07:29:35.358Z</time></trkpt><trkpt lat="36.9171717" lon="15.0821424"><ele>299.3333333333333</ele><time>2026-03-22T07:29:36.363Z</time></trkpt><trkpt lat="36.9172351" lon="15.0820792"><ele>300.0</ele><time>2026-03-22T07:29:37.352Z</time></trkpt><trkpt lat="36.9172914" lon="15.0820105"><ele>300.0</ele><time>2026-03-22T07:29:38.355Z</time></trkpt><trkpt lat="36.9173499" lon="15.0819433"><ele>300.0</ele><time>2026-03-22T07:29:39.355Z</time></trkpt><trkpt lat="36.9174112" lon="15.0818809"><ele>300.0</ele><time>2026-03-22T07:29:40.341Z</time></trkpt><trkpt lat="36.9174733" lon="15.0818305"><ele>300.0</ele><time>2026-03-22T07:29:41.373Z</time></trkpt><trkpt lat="36.9175408" lon="15.0817885"><ele>300.0</ele><time>2026-03-22T07:29:42.328Z</time></trkpt><trkpt lat="36.9176056" lon="15.0817565"><ele>300.0</ele><time>2026-03-22T07:29:43.386Z</time></trkpt><trkpt lat="36.9176734" lon="15.0817241"><ele>299.3333333333333</ele><time>2026-03-22T07:29:44.38Z</time></trkpt><trkpt lat="36.9177523" lon="15.0816914"><ele>298.6666666666667</ele><time>2026-03-22T07:29:45.342Z</time></trkpt><trkpt lat="36.9178321" lon="15.0816505"><ele>298.0</ele><time>2026-03-22T07:29:46.318Z</time></trkpt><trkpt lat="36.9179206" lon="15.0816261"><ele>297.33333333333337</ele><time>2026-03-22T07:29:47.38Z</time></trkpt><trkpt lat="36.9180121" lon="15.0816195"><ele>296.6666666666667</ele><time>2026-03-22T07:29:48.357Z</time></trkpt><trkpt lat="36.9181025" lon="15.0816237"><ele>296.0</ele><time>2026-03-22T07:29:49.354Z</time></trkpt><trkpt lat="36.9181971" lon="15.0816123"><ele>296.1666666666667</ele><time>2026-03-22T07:29:50.336Z</time></trkpt><trkpt lat="36.9182791" lon="15.0815927"><ele>296.33333333333337</ele><time>2026-03-22T07:29:51.493Z</time></trkpt><trkpt lat="36.9183579" lon="15.0815686"><ele>296.5</ele><time>2026-03-22T07:29:52.408Z</time></trkpt><trkpt lat="36.9184257" lon="15.0815246"><ele>296.6666666666667</ele><time>2026-03-22T07:29:53.358Z</time></trkpt><trkpt lat="36.9184843" lon="15.0814541"><ele>296.8333333333333</ele><time>2026-03-22T07:29:54.493Z</time></trkpt><trkpt lat="36.9185437" lon="15.0813593"><ele>297.0</ele><time>2026-03-22T07:29:55.459Z</time></trkpt><trkpt lat="36.9186047" lon="15.0812642"><ele>297.0</ele><time>2026-03-22T07:29:56.421Z</time></trkpt><trkpt lat="36.9186689" lon="15.0811759"><ele>297.0</ele><time>2026-03-22T07:29:57.527Z</time></trkpt><trkpt lat="36.9187798" lon="15.0810215"><ele>297.0</ele><time>2026-03-22T07:29:59.357Z</time></trkpt><trkpt lat="36.9188329" lon="15.0809593"><ele>297.0</ele><time>2026-03-22T07:30:00.359Z</time></trkpt><trkpt lat="36.9188824" lon="15.0808962"><ele>297.0</ele><time>2026-03-22T07:30:01.336Z</time></trkpt><trkpt lat="36.9189618" lon="15.080797"><ele>299.1666666666667</ele><time>2026-03-22T07:30:03.344Z</time></trkpt><trkpt lat="36.9190308" lon="15.0807097"><ele>301.3333333333333</ele><time>2026-03-22T07:30:05.367Z</time></trkpt><trkpt lat="36.9190895" lon="15.0806035"><ele>303.5</ele><time>2026-03-22T07:30:07.45Z</time></trkpt><trkpt lat="36.9191558" lon="15.0805163"><ele>305.66666666666663</ele><time>2026-03-22T07:30:09.382Z</time></trkpt><trkpt lat="36.9192141" lon="15.0804606"><ele>307.8333333333333</ele><time>2026-03-22T07:30:11.346Z</time></trkpt><trkpt lat="36.9192688" lon="15.0804064"><ele>310.0</ele><time>2026-03-22T07:30:14.365Z</time></trkpt><trkpt lat="36.9193213" lon="15.0803443"><ele>312.0</ele><time>2026-03-22T07:30:16.344Z</time></trkpt><trkpt lat="36.9193522" lon="15.0802521"><ele>314.0</ele><time>2026-03-22T07:30:20.374Z</time></trkpt><trkpt lat="36.9194116" lon="15.0802037"><ele>316.0</ele><time>2026-03-22T07:30:22.362Z</time></trkpt><trkpt lat="36.9194734" lon="15.0801725"><ele>318.0</ele><time>2026-03-22T07:30:24.367Z</time></trkpt><trkpt lat="36.9195471" lon="15.080098"><ele>320.0</ele><time>2026-03-22T07:30:27.35Z</time></trkpt><trkpt lat="36.9196012" lon="15.080027"><ele>322.0</ele><time>2026-03-22T07:30:29.361Z</time></trkpt><trkpt lat="36.9196672" lon="15.079953"><ele>324.16666666666663</ele><time>2026-03-22T07:30:31.353Z</time></trkpt><trkpt lat="36.9197419" lon="15.0798898"><ele>326.3333333333333</ele><time>2026-03-22T07:30:33.328Z</time></trkpt><trkpt lat="36.9198012" lon="15.079831"><ele>328.5</ele><time>2026-03-22T07:30:35.353Z</time></trkpt><trkpt lat="36.9198454" lon="15.0797683"><ele>330.6666666666667</ele><time>2026-03-22T07:30:37.321Z</time></trkpt><trkpt lat="36.9199029" lon="15.0797086"><ele>332.83333333333337</ele><time>2026-03-22T07:30:39.355Z</time></trkpt><trkpt lat="36.9199668" lon="15.0796365"><ele>335.0</ele><time>2026-03-22T07:30:41.449Z</time></trkpt><trkpt lat="36.9200241" lon="15.0795802"><ele>336.8</ele><time>2026-03-22T07:30:43.363Z</time></trkpt><trkpt lat="36.9200952" lon="15.0795433"><ele>338.6</ele><time>2026-03-22T07:30:46.355Z</time></trkpt><trkpt lat="36.9201568" lon="15.0794695"><ele>340.4</ele><time>2026-03-22T07:30:49.373Z</time></trkpt><trkpt lat="36.9202449" lon="15.0793736"><ele>342.2</ele><time>2026-03-22T07:30:53.344Z</time></trkpt><trkpt lat="36.9203268" lon="15.079308"><ele>344.0</ele><time>2026-03-22T07:30:55.363Z</time></trkpt><trkpt lat="36.920394" lon="15.0792475"><ele>344.0</ele><time>2026-03-22T07:30:57.527Z</time></trkpt><trkpt lat="36.9204501" lon="15.0791853"><ele>344.0</ele><time>2026-03-22T07:30:59.341Z</time></trkpt><trkpt lat="36.9205215" lon="15.079102"><ele>344.0</ele><time>2026-03-22T07:31:01.423Z</time></trkpt><trkpt lat="36.9205839" lon="15.079004"><ele>344.0</ele><time>2026-03-22T07:31:03.35Z</time></trkpt><trkpt lat="36.9206182" lon="15.078907"><ele>344.0</ele><time>2026-03-22T07:31:05.34Z</time></trkpt><trkpt lat="36.9206263" lon="15.0788042"><ele>344.0</ele><time>2026-03-22T07:31:07.346Z</time></trkpt><trkpt lat="36.9206464" lon="15.0787219"><ele>344.0</ele><time>2026-03-22T07:31:10.455Z</time></trkpt><trkpt lat="36.9206809" lon="15.0786423"><ele>344.0</ele><time>2026-03-22T07:31:52.354Z</time></trkpt><trkpt lat="36.9207054" lon="15.0785427"><ele>344.0</ele><time>2026-03-22T07:31:54.36Z</time></trkpt><trkpt lat="36.9207427" lon="15.0784225"><ele>344.0</ele><time>2026-03-22T07:31:56.355Z</time></trkpt><trkpt lat="36.9207759" lon="15.0782836"><ele>344.0</ele><time>2026-03-22T07:31:58.325Z</time></trkpt><trkpt lat="36.9208012" lon="15.0781733"><ele>340.4</ele><time>2026-03-22T07:32:00.348Z</time></trkpt><trkpt lat="36.9208753" lon="15.0781012"><ele>336.79999999999995</ele><time>2026-03-22T07:32:02.366Z</time></trkpt><trkpt lat="36.9210078" lon="15.0781164"><ele>333.20000000000005</ele><time>2026-03-22T07:32:04.355Z</time></trkpt><trkpt lat="36.9211105" lon="15.0781453"><ele>329.6</ele><time>2026-03-22T07:32:05.319Z</time></trkpt><trkpt lat="36.9212094" lon="15.0781582"><ele>326.0</ele><time>2026-03-22T07:32:06.341Z</time></trkpt><trkpt lat="36.921307" lon="15.0781781"><ele>326.0</ele><time>2026-03-22T07:32:07.36Z</time></trkpt><trkpt lat="36.9213927" lon="15.078197"><ele>326.0</ele><time>2026-03-22T07:32:08.354Z</time></trkpt><trkpt lat="36.9214663" lon="15.0782042"><ele>326.0</ele><time>2026-03-22T07:32:09.342Z</time></trkpt><trkpt lat="36.9215299" lon="15.0781989"><ele>326.0</ele><time>2026-03-22T07:32:10.367Z</time></trkpt><trkpt lat="36.9216665" lon="15.0781749"><ele>326.0</ele><time>2026-03-22T07:32:13.375Z</time></trkpt><trkpt lat="36.9217631" lon="15.0781919"><ele>327.5</ele><time>2026-03-22T07:32:16.358Z</time></trkpt><trkpt lat="36.9218295" lon="15.0782215"><ele>329.0</ele><time>2026-03-22T07:32:18.365Z</time></trkpt><trkpt lat="36.9219229" lon="15.0781984"><ele>330.5</ele><time>2026-03-22T07:32:20.314Z</time></trkpt><trkpt lat="36.9220285" lon="15.0781685"><ele>332.0</ele><time>2026-03-22T07:32:22.352Z</time></trkpt><trkpt lat="36.9220558" lon="15.0782507"><ele>333.5</ele><time>2026-03-22T07:32:24.355Z</time></trkpt><trkpt lat="36.9220042" lon="15.0783465"><ele>335.0</ele><time>2026-03-22T07:32:26.369Z</time></trkpt><trkpt lat="36.9220139" lon="15.0784432"><ele>339.83333333333337</ele><time>2026-03-22T07:32:46.331Z</time></trkpt><trkpt lat="36.922069" lon="15.0785581"><ele>344.6666666666667</ele><time>2026-03-22T07:32:48.357Z</time></trkpt><trkpt lat="36.9221195" lon="15.0786371"><ele>349.5</ele><time>2026-03-22T07:32:50.359Z</time></trkpt><trkpt lat="36.92215" lon="15.0787101"><ele>354.3333333333333</ele><time>2026-03-22T07:33:24.359Z</time></trkpt><trkpt lat="36.9221907" lon="15.0787801"><ele>359.16666666666663</ele><time>2026-03-22T07:34:52.344Z</time></trkpt><trkpt lat="36.9222576" lon="15.0787378"><ele>364.0</ele><time>2026-03-22T07:34:56.315Z</time></trkpt><trkpt lat="36.9223083" lon="15.0786832"><ele>364.0</ele><time>2026-03-22T07:35:00.336Z</time></trkpt><trkpt lat="36.9223674" lon="15.0786131"><ele>364.0</ele><time>2026-03-22T07:36:15.357Z</time></trkpt><trkpt lat="36.9224481" lon="15.0786611"><ele>364.0</ele><time>2026-03-22T07:36:19.339Z</time></trkpt><trkpt lat="36.9224832" lon="15.0787609"><ele>364.0</ele><time>2026-03-22T07:36:22.348Z</time></trkpt><trkpt lat="36.922515" lon="15.0788547"><ele>364.0</ele><time>2026-03-22T07:36:24.364Z</time></trkpt><trkpt lat="36.9225864" lon="15.0789187"><ele>364.0</ele><time>2026-03-22T07:36:27.365Z</time></trkpt><trkpt lat="36.9226723" lon="15.0789634"><ele>364.4</ele><time>2026-03-22T07:36:29.326Z</time></trkpt><trkpt lat="36.922786" lon="15.079016"><ele>364.79999999999995</ele><time>2026-03-22T07:36:31.376Z</time></trkpt><trkpt lat="36.9228894" lon="15.0790725"><ele>365.20000000000005</ele><time>2026-03-22T07:36:33.379Z</time></trkpt><trkpt lat="36.9229816" lon="15.0790807"><ele>365.6</ele><time>2026-03-22T07:36:35.382Z</time></trkpt><trkpt lat="36.9230847" lon="15.0790676"><ele>366.0</ele><time>2026-03-22T07:36:37.357Z</time></trkpt><trkpt lat="36.9231511" lon="15.079068"><ele>366.0</ele><time>2026-03-22T07:36:38.377Z</time></trkpt><trkpt lat="36.9232367" lon="15.0790726"><ele>366.0</ele><time>2026-03-22T07:36:40.325Z</time></trkpt><trkpt lat="36.9233215" lon="15.0790623"><ele>366.0</ele><time>2026-03-22T07:36:43.362Z</time></trkpt><trkpt lat="36.9234013" lon="15.0790278"><ele>366.0</ele><time>2026-03-22T07:36:45.353Z</time></trkpt><trkpt lat="36.9235117" lon="15.0789852"><ele>366.0</ele><time>2026-03-22T07:36:47.34Z</time></trkpt><trkpt lat="36.9236001" lon="15.0789612"><ele>365.1666666666667</ele><time>2026-03-22T07:36:49.33Z</time></trkpt><trkpt lat="36.9236867" lon="15.0789271"><ele>364.3333333333333</ele><time>2026-03-22T07:36:51.339Z</time></trkpt><trkpt lat="36.9237635" lon="15.0788923"><ele>363.5</ele><time>2026-03-22T07:36:53.312Z</time></trkpt><trkpt lat="36.9238359" lon="15.0788764"><ele>362.66666666666663</ele><time>2026-03-22T07:36:56.355Z</time></trkpt><trkpt lat="36.9239119" lon="15.0788613"><ele>361.8333333333333</ele><time>2026-03-22T07:37:10.345Z</time></trkpt><trkpt lat="36.9240241" lon="15.0788802"><ele>361.0</ele><time>2026-03-22T07:37:12.353Z</time></trkpt><trkpt lat="36.9240992" lon="15.0788912"><ele>361.0</ele><time>2026-03-22T07:37:13.362Z</time></trkpt><trkpt lat="36.9241721" lon="15.078918"><ele>361.0</ele><time>2026-03-22T07:37:14.342Z</time></trkpt><trkpt lat="36.9242452" lon="15.0789424"><ele>361.0</ele><time>2026-03-22T07:37:15.344Z</time></trkpt><trkpt lat="36.9243294" lon="15.0789726"><ele>361.0</ele><time>2026-03-22T07:37:16.343Z</time></trkpt><trkpt lat="36.9244219" lon="15.0789963"><ele>361.0</ele><time>2026-03-22T07:37:17.359Z</time></trkpt><trkpt lat="36.9245176" lon="15.0790141"><ele>361.0</ele><time>2026-03-22T07:37:18.339Z</time></trkpt><trkpt lat="36.9246164" lon="15.0790273"><ele>360.66666666666663</ele><time>2026-03-22T07:37:19.374Z</time></trkpt><trkpt lat="36.9247256" lon="15.0790449"><ele>360.3333333333333</ele><time>2026-03-22T07:37:20.341Z</time></trkpt><trkpt lat="36.9248127" lon="15.0790653"><ele>360.0</ele><time>2026-03-22T07:37:21.335Z</time></trkpt><trkpt lat="36.9249018" lon="15.0790873"><ele>359.6666666666667</ele><time>2026-03-22T07:37:22.377Z</time></trkpt><trkpt lat="36.924983" lon="15.0791021"><ele>359.33333333333337</ele><time>2026-03-22T07:37:23.364Z</time></trkpt><trkpt lat="36.9250552" lon="15.0791271"><ele>359.0</ele><time>2026-03-22T07:37:24.368Z</time></trkpt><trkpt lat="36.9251274" lon="15.0791528"><ele>364.33333333333337</ele><time>2026-03-22T07:37:25.366Z</time></trkpt><trkpt lat="36.9252012" lon="15.0791738"><ele>369.6666666666667</ele><time>2026-03-22T07:37:26.348Z</time></trkpt><trkpt lat="36.9252687" lon="15.0791798"><ele>375.0</ele><time>2026-03-22T07:37:27.368Z</time></trkpt><trkpt lat="36.9253435" lon="15.0791781"><ele>380.33333333333337</ele><time>2026-03-22T07:37:28.359Z</time></trkpt><trkpt lat="36.9254134" lon="15.0791679"><ele>385.6666666666667</ele><time>2026-03-22T07:37:29.385Z</time></trkpt><trkpt lat="36.9255199" lon="15.0791477"><ele>391.0</ele><time>2026-03-22T07:37:31.36Z</time></trkpt><trkpt lat="36.9255876" lon="15.0791476"><ele>391.00000000000006</ele><time>2026-03-22T07:37:34.363Z</time></trkpt><trkpt lat="36.9255917" lon="15.0792453"><ele>391.0</ele><time>2026-03-22T07:37:36.363Z</time></trkpt><trkpt lat="36.9255699" lon="15.0793771"><ele>391.0</ele><time>2026-03-22T07:37:38.353Z</time></trkpt><trkpt lat="36.9255648" lon="15.0794561"><ele>391.0</ele><time>2026-03-22T07:37:39.369Z</time></trkpt><trkpt lat="36.9255587" lon="15.0795533"><ele>391.00000000000006</ele><time>2026-03-22T07:37:40.36Z</time></trkpt><trkpt lat="36.9255584" lon="15.0796481"><ele>391.0</ele><time>2026-03-22T07:37:41.373Z</time></trkpt><trkpt lat="36.9255539" lon="15.0797597"><ele>391.00000000000006</ele><time>2026-03-22T07:37:42.365Z</time></trkpt><trkpt lat="36.9255566" lon="15.0798687"><ele>391.0</ele><time>2026-03-22T07:37:43.398Z</time></trkpt><trkpt lat="36.925561" lon="15.0799704"><ele>391.0</ele><time>2026-03-22T07:37:44.357Z</time></trkpt><trkpt lat="36.9255649" lon="15.0800629"><ele>391.0</ele><time>2026-03-22T07:37:45.371Z</time></trkpt><trkpt lat="36.925573" lon="15.0801637"><ele>391.00000000000006</ele><time>2026-03-22T07:37:46.359Z</time></trkpt><trkpt lat="36.9255781" lon="15.080261"><ele>391.0</ele><time>2026-03-22T07:37:47.345Z</time></trkpt><trkpt lat="36.9255817" lon="15.0803556"><ele>392.33333333333337</ele><time>2026-03-22T07:37:48.337Z</time></trkpt><trkpt lat="36.925582" lon="15.080456"><ele>393.6666666666667</ele><time>2026-03-22T07:37:49.369Z</time></trkpt><trkpt lat="36.9255824" lon="15.0805593"><ele>395.0</ele><time>2026-03-22T07:37:50.358Z</time></trkpt><trkpt lat="36.9255876" lon="15.0806494"><ele>396.33333333333337</ele><time>2026-03-22T07:37:51.379Z</time></trkpt><trkpt lat="36.9255947" lon="15.0807422"><ele>397.6666666666667</ele><time>2026-03-22T07:37:52.377Z</time></trkpt><trkpt lat="36.9256086" lon="15.0808334"><ele>399.0</ele><time>2026-03-22T07:37:53.372Z</time></trkpt><trkpt lat="36.9256236" lon="15.0809278"><ele>399.1666666666667</ele><time>2026-03-22T07:37:54.357Z</time></trkpt><trkpt lat="36.9256355" lon="15.0810108"><ele>399.33333333333337</ele><time>2026-03-22T07:37:55.363Z</time></trkpt><trkpt lat="36.9256549" lon="15.0811347"><ele>399.5</ele><time>2026-03-22T07:37:57.352Z</time></trkpt><trkpt lat="36.9256702" lon="15.081216"><ele>399.6666666666667</ele><time>2026-03-22T07:37:59.326Z</time></trkpt><trkpt lat="36.9256742" lon="15.0813065"><ele>399.83333333333337</ele><time>2026-03-22T07:38:02.366Z</time></trkpt><trkpt lat="36.9256884" lon="15.081401"><ele>400.0</ele><time>2026-03-22T07:38:06.367Z</time></trkpt><trkpt lat="36.9256831" lon="15.0813154"><ele>400.00000000000006</ele><time>2026-03-22T07:38:16.354Z</time></trkpt><trkpt lat="36.925678" lon="15.0812365"><ele>400.0</ele><time>2026-03-22T07:38:18.354Z</time></trkpt><trkpt lat="36.9256672" lon="15.0811513"><ele>400.0</ele><time>2026-03-22T07:38:20.365Z</time></trkpt><trkpt lat="36.9256623" lon="15.0810392"><ele>400.0</ele><time>2026-03-22T07:38:23.344Z</time></trkpt><trkpt lat="36.9256124" lon="15.0809861"><ele>400.0</ele><time>2026-03-22T07:38:26.337Z</time></trkpt><trkpt lat="36.9255573" lon="15.0809387"><ele>400.00000000000006</ele><time>2026-03-22T07:38:30.357Z</time></trkpt><trkpt lat="36.9255128" lon="15.0808627"><ele>400.0</ele><time>2026-03-22T07:38:33.356Z</time></trkpt><trkpt lat="36.9254546" lon="15.0808106"><ele>400.00000000000006</ele><time>2026-03-22T07:38:36.329Z</time></trkpt><trkpt lat="36.925386" lon="15.0807957"><ele>400.0</ele><time>2026-03-22T07:38:39.365Z</time></trkpt><trkpt lat="36.9253343" lon="15.0808644"><ele>400.0</ele><time>2026-03-22T07:38:42.351Z</time></trkpt><trkpt lat="36.9252612" lon="15.0808969"><ele>400.0</ele><time>2026-03-22T07:39:43.354Z</time></trkpt><trkpt lat="36.9251953" lon="15.0808799"><ele>400.0</ele><time>2026-03-22T07:39:47.35Z</time></trkpt><trkpt lat="36.9251991" lon="15.0807777"><ele>400.00000000000006</ele><time>2026-03-22T07:39:51.327Z</time></trkpt><trkpt lat="36.9251793" lon="15.0807001"><ele>400.0</ele><time>2026-03-22T07:39:55.354Z</time></trkpt><trkpt lat="36.9251043" lon="15.0806755"><ele>398.6666666666667</ele><time>2026-03-22T07:39:58.352Z</time></trkpt><trkpt lat="36.9249818" lon="15.080694"><ele>397.33333333333337</ele><time>2026-03-22T07:40:00.349Z</time></trkpt><trkpt lat="36.9249158" lon="15.0807121"><ele>396.0</ele><time>2026-03-22T07:40:01.365Z</time></trkpt><trkpt lat="36.9248521" lon="15.0807363"><ele>394.66666666666663</ele><time>2026-03-22T07:40:02.37Z</time></trkpt><trkpt lat="36.9247547" lon="15.0807635"><ele>393.3333333333333</ele><time>2026-03-22T07:40:04.368Z</time></trkpt><trkpt lat="36.9246882" lon="15.0808268"><ele>392.0</ele><time>2026-03-22T07:40:06.328Z</time></trkpt><trkpt lat="36.9245928" lon="15.0808794"><ele>391.3333333333333</ele><time>2026-03-22T07:40:08.358Z</time></trkpt><trkpt lat="36.9245044" lon="15.0809382"><ele>390.66666666666663</ele><time>2026-03-22T07:40:10.345Z</time></trkpt><trkpt lat="36.9244153" lon="15.0809755"><ele>390.0</ele><time>2026-03-22T07:40:12.349Z</time></trkpt><trkpt lat="36.9243405" lon="15.0809639"><ele>389.33333333333337</ele><time>2026-03-22T07:40:14.349Z</time></trkpt><trkpt lat="36.9242683" lon="15.0810257"><ele>388.6666666666667</ele><time>2026-03-22T07:40:17.346Z</time></trkpt><trkpt lat="36.9242258" lon="15.0811214"><ele>388.0</ele><time>2026-03-22T07:40:20.343Z</time></trkpt><trkpt lat="36.9241839" lon="15.0812523"><ele>387.79999999999995</ele><time>2026-03-22T07:40:22.35Z</time></trkpt><trkpt lat="36.9241529" lon="15.0813218"><ele>387.6</ele><time>2026-03-22T07:40:23.34Z</time></trkpt><trkpt lat="36.9241157" lon="15.081462"><ele>387.4</ele><time>2026-03-22T07:40:25.377Z</time></trkpt><trkpt lat="36.9240773" lon="15.0815724"><ele>387.20000000000005</ele><time>2026-03-22T07:40:27.346Z</time></trkpt><trkpt lat="36.9240315" lon="15.0816733"><ele>387.0</ele><time>2026-03-22T07:40:29.355Z</time></trkpt><trkpt lat="36.9240082" lon="15.0817768"><ele>386.1666666666667</ele><time>2026-03-22T07:40:31.353Z</time></trkpt><trkpt lat="36.9240081" lon="15.0818573"><ele>385.3333333333333</ele><time>2026-03-22T07:40:33.356Z</time></trkpt><trkpt lat="36.9239883" lon="15.081949"><ele>384.5</ele><time>2026-03-22T07:40:36.339Z</time></trkpt><trkpt lat="36.9239444" lon="15.082014"><ele>383.66666666666663</ele><time>2026-03-22T07:40:39.368Z</time></trkpt><trkpt lat="36.9238803" lon="15.0820777"><ele>382.8333333333333</ele><time>2026-03-22T07:40:41.35Z</time></trkpt><trkpt lat="36.9238194" lon="15.0821491"><ele>382.0</ele><time>2026-03-22T07:40:44.342Z</time></trkpt><trkpt lat="36.9237285" lon="15.0821589"><ele>382.0</ele><time>2026-03-22T07:40:47.346Z</time></trkpt><trkpt lat="36.9236345" lon="15.0821814"><ele>382.0</ele><time>2026-03-22T07:40:49.338Z</time></trkpt><trkpt lat="36.9235696" lon="15.0821953"><ele>382.0</ele><time>2026-03-22T07:40:51.35Z</time></trkpt><trkpt lat="36.9234672" lon="15.0822133"><ele>382.0</ele><time>2026-03-22T07:40:54.339Z</time></trkpt><trkpt lat="36.9234119" lon="15.0822599"><ele>382.0</ele><time>2026-03-22T07:40:56.346Z</time></trkpt><trkpt lat="36.9233486" lon="15.0822797"><ele>382.0</ele><time>2026-03-22T07:40:58.362Z</time></trkpt><trkpt lat="36.9232795" lon="15.0822833"><ele>381.16666666666663</ele><time>2026-03-22T07:41:01.354Z</time></trkpt><trkpt lat="36.9231989" lon="15.0822811"><ele>380.3333333333333</ele><time>2026-03-22T07:41:06.351Z</time></trkpt><trkpt lat="36.9231371" lon="15.0822581"><ele>379.5</ele><time>2026-03-22T07:41:08.337Z</time></trkpt><trkpt lat="36.923066" lon="15.0822319"><ele>378.6666666666667</ele><time>2026-03-22T07:41:10.34Z</time></trkpt><trkpt lat="36.9229869" lon="15.0822283"><ele>377.83333333333337</ele><time>2026-03-22T07:41:13.35Z</time></trkpt><trkpt lat="36.9229819" lon="15.0823273"><ele>377.0</ele><time>2026-03-22T07:41:17.336Z</time></trkpt><trkpt lat="36.9230066" lon="15.0824134"><ele>375.83333333333337</ele><time>2026-03-22T07:41:19.34Z</time></trkpt><trkpt lat="36.9229497" lon="15.0824815"><ele>374.6666666666667</ele><time>2026-03-22T07:41:23.368Z</time></trkpt><trkpt lat="36.9229024" lon="15.0825552"><ele>373.5</ele><time>2026-03-22T07:41:27.336Z</time></trkpt><trkpt lat="36.9228783" lon="15.0826483"><ele>372.3333333333333</ele><time>2026-03-22T07:41:30.357Z</time></trkpt><trkpt lat="36.922877" lon="15.0827543"><ele>371.16666666666663</ele><time>2026-03-22T07:41:32.356Z</time></trkpt><trkpt lat="36.9228544" lon="15.0828435"><ele>370.0</ele><time>2026-03-22T07:41:34.365Z</time></trkpt><trkpt lat="36.9228637" lon="15.0829592"><ele>370.0</ele><time>2026-03-22T07:41:37.357Z</time></trkpt><trkpt lat="36.922878" lon="15.0830629"><ele>370.0</ele><time>2026-03-22T07:41:40.355Z</time></trkpt><trkpt lat="36.9228348" lon="15.0831533"><ele>370.0</ele><time>2026-03-22T07:41:43.366Z</time></trkpt><trkpt lat="36.9227882" lon="15.0832427"><ele>370.0</ele><time>2026-03-22T07:41:46.354Z</time></trkpt><trkpt lat="36.9227442" lon="15.0833116"><ele>370.0</ele><time>2026-03-22T07:41:48.331Z</time></trkpt><trkpt lat="36.9227267" lon="15.0834251"><ele>370.0</ele><time>2026-03-22T07:41:51.354Z</time></trkpt><trkpt lat="36.9227148" lon="15.0835153"><ele>368.2</ele><time>2026-03-22T07:41:53.348Z</time></trkpt><trkpt lat="36.9226668" lon="15.0835903"><ele>366.4</ele><time>2026-03-22T07:41:56.339Z</time></trkpt><trkpt lat="36.92261" lon="15.0836663"><ele>364.6</ele><time>2026-03-22T07:41:58.346Z</time></trkpt><trkpt lat="36.9225392" lon="15.0837497"><ele>362.8</ele><time>2026-03-22T07:42:00.345Z</time></trkpt><trkpt lat="36.9224585" lon="15.0838316"><ele>361.0</ele><time>2026-03-22T07:42:02.358Z</time></trkpt><trkpt lat="36.9223928" lon="15.0839272"><ele>360.0</ele><time>2026-03-22T07:42:04.37Z</time></trkpt><trkpt lat="36.92233" lon="15.0840238"><ele>359.0</ele><time>2026-03-22T07:42:06.346Z</time></trkpt><trkpt lat="36.9222625" lon="15.0840839"><ele>358.0</ele><time>2026-03-22T07:42:08.342Z</time></trkpt><trkpt lat="36.9221858" lon="15.0841369"><ele>357.0</ele><time>2026-03-22T07:42:10.383Z</time></trkpt><trkpt lat="36.9221277" lon="15.0841848"><ele>356.0</ele><time>2026-03-22T07:42:12.35Z</time></trkpt><trkpt lat="36.9220559" lon="15.0842308"><ele>355.0</ele><time>2026-03-22T07:42:14.328Z</time></trkpt><trkpt lat="36.9219735" lon="15.0843077"><ele>352.66666666666663</ele><time>2026-03-22T07:42:16.361Z</time></trkpt><trkpt lat="36.9218925" lon="15.0843908"><ele>350.3333333333333</ele><time>2026-03-22T07:42:18.369Z</time></trkpt><trkpt lat="36.9217971" lon="15.0844386"><ele>348.0</ele><time>2026-03-22T07:42:20.353Z</time></trkpt><trkpt lat="36.9217248" lon="15.0844653"><ele>345.6666666666667</ele><time>2026-03-22T07:42:22.348Z</time></trkpt><trkpt lat="36.9216573" lon="15.0845302"><ele>343.33333333333337</ele><time>2026-03-22T07:42:25.358Z</time></trkpt><trkpt lat="36.9216128" lon="15.0845867"><ele>341.0</ele><time>2026-03-22T07:42:27.333Z</time></trkpt><trkpt lat="36.9215336" lon="15.0846646"><ele>340.0</ele><time>2026-03-22T07:42:29.329Z</time></trkpt><trkpt lat="36.9214554" lon="15.0847285"><ele>339.0</ele><time>2026-03-22T07:42:31.399Z</time></trkpt><trkpt lat="36.9213719" lon="15.0847776"><ele>338.0</ele><time>2026-03-22T07:42:33.352Z</time></trkpt><trkpt lat="36.9212748" lon="15.0848654"><ele>337.0</ele><time>2026-03-22T07:42:35.373Z</time></trkpt><trkpt lat="36.9212064" lon="15.0849318"><ele>336.0</ele><time>2026-03-22T07:42:37.364Z</time></trkpt><trkpt lat="36.9211517" lon="15.0849837"><ele>333.3333333333333</ele><time>2026-03-22T07:42:39.352Z</time></trkpt><trkpt lat="36.9210754" lon="15.0850209"><ele>330.6666666666667</ele><time>2026-03-22T07:42:41.344Z</time></trkpt><trkpt lat="36.921" lon="15.0850548"><ele>328.0</ele><time>2026-03-22T07:42:43.366Z</time></trkpt><trkpt lat="36.9209469" lon="15.0851"><ele>325.33333333333337</ele><time>2026-03-22T07:42:45.352Z</time></trkpt><trkpt lat="36.9208827" lon="15.0851535"><ele>322.6666666666667</ele><time>2026-03-22T07:42:47.352Z</time></trkpt><trkpt lat="36.9208304" lon="15.0852176"><ele>320.0</ele><time>2026-03-22T07:42:49.35Z</time></trkpt><trkpt lat="36.9207737" lon="15.0852765"><ele>319.33333333333337</ele><time>2026-03-22T07:42:51.347Z</time></trkpt><trkpt lat="36.9207083" lon="15.0853238"><ele>318.6666666666667</ele><time>2026-03-22T07:42:53.33Z</time></trkpt><trkpt lat="36.9206405" lon="15.0853818"><ele>318.0</ele><time>2026-03-22T07:42:56.334Z</time></trkpt><trkpt lat="36.9205913" lon="15.0854325"><ele>317.3333333333333</ele><time>2026-03-22T07:42:58.364Z</time></trkpt><trkpt lat="36.9205178" lon="15.0855029"><ele>316.66666666666663</ele><time>2026-03-22T07:43:00.355Z</time></trkpt><trkpt lat="36.9204648" lon="15.0855591"><ele>316.0</ele><time>2026-03-22T07:43:02.355Z</time></trkpt><trkpt lat="36.9204169" lon="15.0856214"><ele>316.0</ele><time>2026-03-22T07:43:04.362Z</time></trkpt><trkpt lat="36.9203566" lon="15.0856823"><ele>316.0</ele><time>2026-03-22T07:43:06.346Z</time></trkpt><trkpt lat="36.9203014" lon="15.085757"><ele>316.0</ele><time>2026-03-22T07:43:08.359Z</time></trkpt><trkpt lat="36.920239" lon="15.0858397"><ele>316.0</ele><time>2026-03-22T07:43:11.364Z</time></trkpt><trkpt lat="36.9201768" lon="15.0858961"><ele>316.0</ele><time>2026-03-22T07:43:13.35Z</time></trkpt><trkpt lat="36.9201119" lon="15.085956"><ele>316.0</ele><time>2026-03-22T07:43:15.346Z</time></trkpt><trkpt lat="36.9200462" lon="15.0860304"><ele>314.6</ele><time>2026-03-22T07:43:17.344Z</time></trkpt><trkpt lat="36.9199532" lon="15.0861108"><ele>313.20000000000005</ele><time>2026-03-22T07:43:19.368Z</time></trkpt><trkpt lat="36.9199016" lon="15.0861819"><ele>311.79999999999995</ele><time>2026-03-22T07:43:21.371Z</time></trkpt><trkpt lat="36.9198197" lon="15.0862673"><ele>310.4</ele><time>2026-03-22T07:43:24.342Z</time></trkpt><trkpt lat="36.9197384" lon="15.086339"><ele>309.0</ele><time>2026-03-22T07:43:26.349Z</time></trkpt><trkpt lat="36.9196545" lon="15.0864259"><ele>309.0</ele><time>2026-03-22T07:43:28.354Z</time></trkpt><trkpt lat="36.9195863" lon="15.0865117"><ele>309.0</ele><time>2026-03-22T07:43:31.333Z</time></trkpt><trkpt lat="36.9195326" lon="15.086577"><ele>309.0</ele><time>2026-03-22T07:43:33.36Z</time></trkpt><trkpt lat="36.9194618" lon="15.0866552"><ele>309.0</ele><time>2026-03-22T07:43:36.35Z</time></trkpt><trkpt lat="36.9193908" lon="15.0867183"><ele>309.0</ele><time>2026-03-22T07:43:38.359Z</time></trkpt><trkpt lat="36.9193374" lon="15.0867894"><ele>309.0</ele><time>2026-03-22T07:43:40.368Z</time></trkpt><trkpt lat="36.9192856" lon="15.086859"><ele>308.3333333333333</ele><time>2026-03-22T07:43:42.356Z</time></trkpt><trkpt lat="36.9192301" lon="15.0869178"><ele>307.6666666666667</ele><time>2026-03-22T07:43:44.342Z</time></trkpt><trkpt lat="36.9191796" lon="15.0869707"><ele>307.0</ele><time>2026-03-22T07:43:46.352Z</time></trkpt><trkpt lat="36.9191345" lon="15.0870354"><ele>306.33333333333337</ele><time>2026-03-22T07:43:49.36Z</time></trkpt><trkpt lat="36.9191017" lon="15.0871101"><ele>305.6666666666667</ele><time>2026-03-22T07:44:54.328Z</time></trkpt><trkpt lat="36.9190652" lon="15.0872425"><ele>305.0</ele><time>2026-03-22T07:46:46.349Z</time></trkpt><trkpt lat="36.9190028" lon="15.0872996"><ele>305.0</ele><time>2026-03-22T07:46:52.369Z</time></trkpt><trkpt lat="36.9189497" lon="15.0873504"><ele>305.0</ele><time>2026-03-22T07:47:17.416Z</time></trkpt><trkpt lat="36.9189422" lon="15.08743"><ele>305.0</ele><time>2026-03-22T07:47:21.338Z</time></trkpt><trkpt lat="36.9188951" lon="15.0874997"><ele>305.0</ele><time>2026-03-22T07:48:59.364Z</time></trkpt><trkpt lat="36.9188695" lon="15.0875747"><ele>305.0</ele><time>2026-03-22T07:49:02.34Z</time></trkpt><trkpt lat="36.9188168" lon="15.0876322"><ele>305.0</ele><time>2026-03-22T07:49:05.37Z</time></trkpt><trkpt lat="36.9187735" lon="15.0876955"><ele>305.0</ele><time>2026-03-22T07:49:08.333Z</time></trkpt><trkpt lat="36.9187493" lon="15.0877749"><ele>303.2857142857143</ele><time>2026-03-22T07:49:11.374Z</time></trkpt><trkpt lat="36.9187194" lon="15.0878446"><ele>301.57142857142856</ele><time>2026-03-22T07:49:14.372Z</time></trkpt><trkpt lat="36.9186752" lon="15.0879215"><ele>299.85714285714283</ele><time>2026-03-22T07:49:17.369Z</time></trkpt><trkpt lat="36.9186572" lon="15.0879992"><ele>298.1428571428571</ele><time>2026-03-22T07:49:20.347Z</time></trkpt><trkpt lat="36.9186163" lon="15.0880807"><ele>296.42857142857144</ele><time>2026-03-22T07:49:23.312Z</time></trkpt><trkpt lat="36.9185826" lon="15.0881748"><ele>294.71428571428567</ele><time>2026-03-22T07:49:25.342Z</time></trkpt><trkpt lat="36.9185579" lon="15.0882517"><ele>293.0</ele><time>2026-03-22T07:49:27.369Z</time></trkpt><trkpt lat="36.9185315" lon="15.0883444"><ele>288.5</ele><time>2026-03-22T07:49:30.348Z</time></trkpt><trkpt lat="36.9184532" lon="15.0884124"><ele>284.0</ele><time>2026-03-22T07:49:33.324Z</time></trkpt><trkpt lat="36.918383" lon="15.0884057"><ele>279.5</ele><time>2026-03-22T07:49:59.367Z</time></trkpt><trkpt lat="36.9183242" lon="15.0884375"><ele>275.0</ele><time>2026-03-22T07:50:03.345Z</time></trkpt><trkpt lat="36.9182769" lon="15.0885206"><ele>270.5</ele><time>2026-03-22T07:50:07.351Z</time></trkpt><trkpt lat="36.9182159" lon="15.0885714"><ele>266.0</ele><time>2026-03-22T07:50:10.366Z</time></trkpt><trkpt lat="36.9181297" lon="15.088591"><ele>266.0</ele><time>2026-03-22T07:50:13.369Z</time></trkpt><trkpt lat="36.9180637" lon="15.0886306"><ele>266.0</ele><time>2026-03-22T07:50:16.346Z</time></trkpt><trkpt lat="36.9180105" lon="15.0887007"><ele>266.0</ele><time>2026-03-22T07:50:19.362Z</time></trkpt><trkpt lat="36.9179484" lon="15.0887321"><ele>266.0</ele><time>2026-03-22T07:50:21.368Z</time></trkpt><trkpt lat="36.9178696" lon="15.0887778"><ele>266.0</ele><time>2026-03-22T07:50:23.355Z</time></trkpt><trkpt lat="36.9178041" lon="15.0888192"><ele>266.0</ele><time>2026-03-22T07:50:25.357Z</time></trkpt><trkpt lat="36.9177176" lon="15.0888716"><ele>266.0</ele><time>2026-03-22T07:50:27.338Z</time></trkpt><trkpt lat="36.9176426" lon="15.0889187"><ele>266.0</ele><time>2026-03-22T07:50:29.364Z</time></trkpt><trkpt lat="36.9175899" lon="15.0889675"><ele>266.0</ele><time>2026-03-22T07:50:31.348Z</time></trkpt><trkpt lat="36.9175571" lon="15.0890661"><ele>266.0</ele><time>2026-03-22T07:50:35.349Z</time></trkpt><trkpt lat="36.9175246" lon="15.0891415"><ele>266.0</ele><time>2026-03-22T07:50:37.352Z</time></trkpt><trkpt lat="36.9174476" lon="15.0891821"><ele>266.0</ele><time>2026-03-22T07:50:39.305Z</time></trkpt><trkpt lat="36.9173725" lon="15.0892443"><ele>262.1666666666667</ele><time>2026-03-22T07:50:41.365Z</time></trkpt><trkpt lat="36.9173162" lon="15.0892953"><ele>258.33333333333337</ele><time>2026-03-22T07:50:43.347Z</time></trkpt><trkpt lat="36.9172257" lon="15.0893155"><ele>254.5</ele><time>2026-03-22T07:50:46.352Z</time></trkpt><trkpt lat="36.9171405" lon="15.0893307"><ele>250.66666666666669</ele><time>2026-03-22T07:50:48.352Z</time></trkpt><trkpt lat="36.9171088" lon="15.0894005"><ele>246.83333333333334</ele><time>2026-03-22T07:50:50.345Z</time></trkpt><trkpt lat="36.9171311" lon="15.0895125"><ele>243.0</ele><time>2026-03-22T07:55:39.352Z</time></trkpt><trkpt lat="36.9171798" lon="15.0896525"><ele>243.0</ele><time>2026-03-22T07:55:41.348Z</time></trkpt><trkpt lat="36.9172272" lon="15.0897569"><ele>243.0</ele><time>2026-03-22T07:55:42.35Z</time></trkpt><trkpt lat="36.9172617" lon="15.0898467"><ele>243.0</ele><time>2026-03-22T07:55:43.346Z</time></trkpt><trkpt lat="36.9173068" lon="15.0899279"><ele>243.0</ele><time>2026-03-22T07:55:44.342Z</time></trkpt><trkpt lat="36.917346" lon="15.09"><ele>243.0</ele><time>2026-03-22T07:55:45.355Z</time></trkpt><trkpt lat="36.9173855" lon="15.0900676"><ele>243.0</ele><time>2026-03-22T07:55:46.348Z</time></trkpt><trkpt lat="36.9174336" lon="15.0901432"><ele>240.33333333333334</ele><time>2026-03-22T07:55:47.34Z</time></trkpt><trkpt lat="36.9174911" lon="15.0902186"><ele>237.66666666666669</ele><time>2026-03-22T07:55:48.349Z</time></trkpt><trkpt lat="36.9175495" lon="15.0902787"><ele>235.0</ele><time>2026-03-22T07:55:49.366Z</time></trkpt><trkpt lat="36.9176086" lon="15.0903278"><ele>232.33333333333334</ele><time>2026-03-22T07:55:50.368Z</time></trkpt><trkpt lat="36.9177329" lon="15.0903671"><ele>229.66666666666669</ele><time>2026-03-22T07:55:52.352Z</time></trkpt><trkpt lat="36.9178062" lon="15.0903498"><ele>227.0</ele><time>2026-03-22T07:55:53.336Z</time></trkpt><trkpt lat="36.9178818" lon="15.0903217"><ele>224.8</ele><time>2026-03-22T07:55:54.356Z</time></trkpt><trkpt lat="36.917967" lon="15.0902724"><ele>222.6</ele><time>2026-03-22T07:55:55.367Z</time></trkpt><trkpt lat="36.9180614" lon="15.0902253"><ele>220.40000000000003</ele><time>2026-03-22T07:55:56.345Z</time></trkpt><trkpt lat="36.9181571" lon="15.0901865"><ele>218.20000000000002</ele><time>2026-03-22T07:55:57.359Z</time></trkpt><trkpt lat="36.9182521" lon="15.090148"><ele>216.0</ele><time>2026-03-22T07:55:58.363Z</time></trkpt><trkpt lat="36.9183472" lon="15.090119"><ele>214.0</ele><time>2026-03-22T07:55:59.372Z</time></trkpt><trkpt lat="36.9184349" lon="15.0900939"><ele>212.0</ele><time>2026-03-22T07:56:00.344Z</time></trkpt><trkpt lat="36.918507" lon="15.0900694"><ele>210.0</ele><time>2026-03-22T07:56:01.36Z</time></trkpt><trkpt lat="36.9186076" lon="15.0900096"><ele>208.0</ele><time>2026-03-22T07:56:03.342Z</time></trkpt><trkpt lat="36.9185864" lon="15.0901062"><ele>206.0</ele><time>2026-03-22T07:56:06.413Z</time></trkpt><trkpt lat="36.9185437" lon="15.0901782"><ele>204.0</ele><time>2026-03-22T07:56:07.358Z</time></trkpt><trkpt lat="36.9185" lon="15.0902642"><ele>204.0</ele><time>2026-03-22T07:56:08.323Z</time></trkpt><trkpt lat="36.9184583" lon="15.0903599"><ele>204.0</ele><time>2026-03-22T07:56:09.35Z</time></trkpt><trkpt lat="36.9184114" lon="15.0904482"><ele>204.0</ele><time>2026-03-22T07:56:10.339Z</time></trkpt><trkpt lat="36.9183597" lon="15.0905316"><ele>204.0</ele><time>2026-03-22T07:56:11.361Z</time></trkpt><trkpt lat="36.9183042" lon="15.0906234"><ele>204.0</ele><time>2026-03-22T07:56:12.361Z</time></trkpt><trkpt lat="36.9182322" lon="15.0906943"><ele>204.0</ele><time>2026-03-22T07:56:13.33Z</time></trkpt><trkpt lat="36.9181417" lon="15.0907756"><ele>202.2</ele><time>2026-03-22T07:56:14.345Z</time></trkpt><trkpt lat="36.9180372" lon="15.0908547"><ele>200.39999999999998</ele><time>2026-03-22T07:56:15.357Z</time></trkpt><trkpt lat="36.9179479" lon="15.090925"><ele>198.6</ele><time>2026-03-22T07:56:16.359Z</time></trkpt><trkpt lat="36.9178608" lon="15.0909775"><ele>196.8</ele><time>2026-03-22T07:56:17.369Z</time></trkpt><trkpt lat="36.9177803" lon="15.0910232"><ele>195.0</ele><time>2026-03-22T07:56:18.373Z</time></trkpt><trkpt lat="36.9176958" lon="15.0910453"><ele>195.0</ele><time>2026-03-22T07:56:19.357Z</time></trkpt><trkpt lat="36.917604" lon="15.0910662"><ele>195.0</ele><time>2026-03-22T07:56:20.431Z</time></trkpt><trkpt lat="36.9175041" lon="15.0910949"><ele>195.0</ele><time>2026-03-22T07:56:21.363Z</time></trkpt><trkpt lat="36.9174067" lon="15.0911436"><ele>195.0</ele><time>2026-03-22T07:56:22.366Z</time></trkpt><trkpt lat="36.91732" lon="15.0911976"><ele>195.0</ele><time>2026-03-22T07:56:23.365Z</time></trkpt><trkpt lat="36.9172389" lon="15.0912443"><ele>196.16666666666666</ele><time>2026-03-22T07:56:24.354Z</time></trkpt><trkpt lat="36.9171577" lon="15.0912854"><ele>197.33333333333331</ele><time>2026-03-22T07:56:25.354Z</time></trkpt><trkpt lat="36.9170876" lon="15.091315"><ele>198.5</ele><time>2026-03-22T07:56:26.356Z</time></trkpt><trkpt lat="36.9170196" lon="15.0913975"><ele>199.66666666666666</ele><time>2026-03-22T07:56:28.324Z</time></trkpt><trkpt lat="36.9170574" lon="15.0915267"><ele>200.83333333333331</ele><time>2026-03-22T07:56:30.33Z</time></trkpt><trkpt lat="36.9170784" lon="15.0916018"><ele>202.0</ele><time>2026-03-22T07:56:31.357Z</time></trkpt><trkpt lat="36.9171005" lon="15.0916901"><ele>197.83333333333331</ele><time>2026-03-22T07:56:32.348Z</time></trkpt><trkpt lat="36.9171169" lon="15.0917718"><ele>193.66666666666666</ele><time>2026-03-22T07:56:33.364Z</time></trkpt><trkpt lat="36.9171477" lon="15.0918738"><ele>189.5</ele><time>2026-03-22T07:56:35.368Z</time></trkpt><trkpt lat="36.9172143" lon="15.0918772"><ele>185.33333333333331</ele><time>2026-03-22T07:56:37.319Z</time></trkpt><trkpt lat="36.917323" lon="15.0918695"><ele>181.16666666666666</ele><time>2026-03-22T07:56:39.359Z</time></trkpt><trkpt lat="36.9174233" lon="15.0918631"><ele>177.0</ele><time>2026-03-22T07:56:41.349Z</time></trkpt><trkpt lat="36.9174935" lon="15.0918654"><ele>179.5</ele><time>2026-03-22T07:56:44.327Z</time></trkpt><trkpt lat="36.9175789" lon="15.09183"><ele>182.0</ele><time>2026-03-22T07:57:29.319Z</time></trkpt><trkpt lat="36.9176611" lon="15.0918384"><ele>184.5</ele><time>2026-03-22T07:57:31.338Z</time></trkpt><trkpt lat="36.9177506" lon="15.0918213"><ele>187.0</ele><time>2026-03-22T07:57:33.351Z</time></trkpt><trkpt lat="36.9178317" lon="15.091797"><ele>189.5</ele><time>2026-03-22T07:57:36.347Z</time></trkpt><trkpt lat="36.9178884" lon="15.0917422"><ele>192.0</ele><time>2026-03-22T08:00:03.341Z</time></trkpt><trkpt lat="36.9179407" lon="15.0918359"><ele>192.0</ele><time>2026-03-22T08:00:06.343Z</time></trkpt><trkpt lat="36.9179645" lon="15.0919504"><ele>192.0</ele><time>2026-03-22T08:00:08.356Z</time></trkpt><trkpt lat="36.9179124" lon="15.0920119"><ele>192.0</ele><time>2026-03-22T08:00:29.352Z</time></trkpt><trkpt lat="36.9179573" lon="15.0920732"><ele>192.0</ele><time>2026-03-22T08:01:25.36Z</time></trkpt><trkpt lat="36.918031" lon="15.0920686"><ele>192.0</ele><time>2026-03-22T08:01:28.377Z</time></trkpt><trkpt lat="36.9181172" lon="15.0920302"><ele>192.0</ele><time>2026-03-22T08:02:09.363Z</time></trkpt><trkpt lat="36.9181587" lon="15.0919648"><ele>191.99999999999997</ele><time>2026-03-22T08:02:12.357Z</time></trkpt><trkpt lat="36.9182004" lon="15.0920265"><ele>192.0</ele><time>2026-03-22T08:03:41.348Z</time></trkpt><trkpt lat="36.9182672" lon="15.0920147"><ele>192.0</ele><time>2026-03-22T08:05:26.326Z</time></trkpt><trkpt lat="36.9183262" lon="15.0919702"><ele>192.0</ele><time>2026-03-22T08:05:31.327Z</time></trkpt><trkpt lat="36.9183438" lon="15.0920463"><ele>192.0</ele><time>2026-03-22T08:06:19.348Z</time></trkpt><trkpt lat="36.9184221" lon="15.0920583"><ele>191.99999999999997</ele><time>2026-03-22T08:06:50.343Z</time></trkpt><trkpt lat="36.9184854" lon="15.0920422"><ele>192.0</ele><time>2026-03-22T08:06:52.352Z</time></trkpt><trkpt lat="36.9185498" lon="15.0920264"><ele>191.99999999999997</ele><time>2026-03-22T08:06:54.352Z</time></trkpt><trkpt lat="36.9184881" lon="15.0920674"><ele>192.0</ele><time>2026-03-22T08:08:19.349Z</time></trkpt><trkpt lat="36.918426" lon="15.0921183"><ele>192.0</ele><time>2026-03-22T08:08:26.347Z</time></trkpt><trkpt lat="36.9183983" lon="15.0921923"><ele>192.0</ele><time>2026-03-22T08:08:32.336Z</time></trkpt><trkpt lat="36.9184709" lon="15.0921741"><ele>192.0</ele><time>2026-03-22T08:09:02.351Z</time></trkpt><trkpt lat="36.9185508" lon="15.0921878"><ele>191.99999999999997</ele><time>2026-03-22T08:09:04.357Z</time></trkpt><trkpt lat="36.9186256" lon="15.0921791"><ele>192.0</ele><time>2026-03-22T08:09:06.339Z</time></trkpt><trkpt lat="36.9186767" lon="15.09212"><ele>197.83333333333334</ele><time>2026-03-22T08:09:08.361Z</time></trkpt><trkpt lat="36.9187508" lon="15.0920756"><ele>203.66666666666669</ele><time>2026-03-22T08:09:22.376Z</time></trkpt><trkpt lat="36.9187989" lon="15.09202"><ele>209.5</ele><time>2026-03-22T08:09:25.358Z</time></trkpt><trkpt lat="36.9188848" lon="15.0919726"><ele>215.33333333333334</ele><time>2026-03-22T08:09:28.348Z</time></trkpt><trkpt lat="36.9189568" lon="15.0918964"><ele>221.16666666666669</ele><time>2026-03-22T08:09:30.344Z</time></trkpt><trkpt lat="36.9190054" lon="15.0918161"><ele>227.0</ele><time>2026-03-22T08:09:32.36Z</time></trkpt><trkpt lat="36.9190577" lon="15.0917475"><ele>227.00000000000003</ele><time>2026-03-22T08:09:34.338Z</time></trkpt><trkpt lat="36.9191175" lon="15.0916709"><ele>227.0</ele><time>2026-03-22T08:09:36.336Z</time></trkpt><trkpt lat="36.9191514" lon="15.0916043"><ele>227.0</ele><time>2026-03-22T08:09:38.34Z</time></trkpt><trkpt lat="36.9191043" lon="15.0916898"><ele>227.0</ele><time>2026-03-22T08:09:59.362Z</time></trkpt><trkpt lat="36.9191341" lon="15.0917783"><ele>227.00000000000003</ele><time>2026-03-22T08:10:13.409Z</time></trkpt><trkpt lat="36.9192102" lon="15.0917647"><ele>227.0</ele><time>2026-03-22T08:10:39.341Z</time></trkpt><trkpt lat="36.9192858" lon="15.091677"><ele>229.66666666666669</ele><time>2026-03-22T08:10:42.355Z</time></trkpt><trkpt lat="36.9193372" lon="15.0916126"><ele>232.33333333333334</ele><time>2026-03-22T08:10:44.337Z</time></trkpt><trkpt lat="36.9193803" lon="15.09154"><ele>235.0</ele><time>2026-03-22T08:10:46.35Z</time></trkpt><trkpt lat="36.9194284" lon="15.0914477"><ele>237.66666666666669</ele><time>2026-03-22T08:10:48.358Z</time></trkpt><trkpt lat="36.9194796" lon="15.0913601"><ele>240.33333333333334</ele><time>2026-03-22T08:10:53.362Z</time></trkpt><trkpt lat="36.9195143" lon="15.0912832"><ele>243.0</ele><time>2026-03-22T08:10:55.361Z</time></trkpt><trkpt lat="36.9195717" lon="15.0912172"><ele>243.0</ele><time>2026-03-22T08:10:57.352Z</time></trkpt><trkpt lat="36.9196594" lon="15.0911711"><ele>243.0</ele><time>2026-03-22T08:10:59.345Z</time></trkpt><trkpt lat="36.9197228" lon="15.0911517"><ele>243.0</ele><time>2026-03-22T08:11:01.497Z</time></trkpt><trkpt lat="36.9197902" lon="15.0911555"><ele>243.0</ele><time>2026-03-22T08:11:03.358Z</time></trkpt><trkpt lat="36.9197626" lon="15.0912392"><ele>243.0</ele><time>2026-03-22T08:11:17.527Z</time></trkpt><trkpt lat="36.9197433" lon="15.0913967"><ele>243.0</ele><time>2026-03-22T08:11:20.359Z</time></trkpt><trkpt lat="36.9196871" lon="15.0914905"><ele>243.0</ele><time>2026-03-22T08:11:23.349Z</time></trkpt><trkpt lat="36.9196383" lon="15.0915633"><ele>243.0</ele><time>2026-03-22T08:11:25.32Z</time></trkpt><trkpt lat="36.9195997" lon="15.0916399"><ele>243.0</ele><time>2026-03-22T08:11:27.358Z</time></trkpt><trkpt lat="36.9195855" lon="15.0917276"><ele>243.0</ele><time>2026-03-22T08:13:39.349Z</time></trkpt><trkpt lat="36.9195798" lon="15.0918104"><ele>243.0</ele><time>2026-03-22T08:14:13.348Z</time></trkpt><trkpt lat="36.919516" lon="15.091871"><ele>243.0</ele><time>2026-03-22T08:14:15.322Z</time></trkpt><trkpt lat="36.9194688" lon="15.0919233"><ele>243.0</ele><time>2026-03-22T08:14:16.347Z</time></trkpt><trkpt lat="36.9194122" lon="15.0919716"><ele>243.16666666666666</ele><time>2026-03-22T08:14:17.343Z</time></trkpt><trkpt lat="36.9193208" lon="15.0920686"><ele>243.33333333333331</ele><time>2026-03-22T08:14:19.51Z</time></trkpt><trkpt lat="36.9192356" lon="15.0921674"><ele>243.5</ele><time>2026-03-22T08:14:21.366Z</time></trkpt><trkpt lat="36.9191861" lon="15.0922192"><ele>243.66666666666666</ele><time>2026-03-22T08:14:22.332Z</time></trkpt><trkpt lat="36.9191362" lon="15.0922731"><ele>243.83333333333331</ele><time>2026-03-22T08:14:23.371Z</time></trkpt><trkpt lat="36.9190903" lon="15.09233"><ele>244.0</ele><time>2026-03-22T08:14:24.414Z</time></trkpt><trkpt lat="36.9190418" lon="15.0923949"><ele>241.6</ele><time>2026-03-22T08:14:25.368Z</time></trkpt><trkpt lat="36.9189904" lon="15.0924703"><ele>239.2</ele><time>2026-03-22T08:14:26.519Z</time></trkpt><trkpt lat="36.918883" lon="15.0926333"><ele>236.79999999999998</ele><time>2026-03-22T08:14:28.36Z</time></trkpt><trkpt lat="36.9188143" lon="15.0927272"><ele>234.39999999999998</ele><time>2026-03-22T08:14:29.365Z</time></trkpt><trkpt lat="36.9187613" lon="15.0928264"><ele>232.0</ele><time>2026-03-22T08:14:30.401Z</time></trkpt><trkpt lat="36.9187031" lon="15.0929106"><ele>231.99999999999997</ele><time>2026-03-22T08:14:31.36Z</time></trkpt><trkpt lat="36.9186546" lon="15.0929832"><ele>232.0</ele><time>2026-03-22T08:14:32.367Z</time></trkpt><trkpt lat="36.9186057" lon="15.0930532"><ele>232.0</ele><time>2026-03-22T08:14:33.351Z</time></trkpt><trkpt lat="36.9185593" lon="15.0931146"><ele>232.0</ele><time>2026-03-22T08:14:34.351Z</time></trkpt><trkpt lat="36.9185264" lon="15.0932365"><ele>231.99999999999997</ele><time>2026-03-22T08:14:36.347Z</time></trkpt><trkpt lat="36.9186098" lon="15.0932526"><ele>232.0</ele><time>2026-03-22T08:14:39.341Z</time></trkpt><trkpt lat="36.918674" lon="15.0932249"><ele>229.5714285714286</ele><time>2026-03-22T08:14:42.342Z</time></trkpt><trkpt lat="36.9186842" lon="15.0933183"><ele>227.14285714285717</ele><time>2026-03-22T08:14:45.352Z</time></trkpt><trkpt lat="36.9186429" lon="15.0934085"><ele>224.71428571428572</ele><time>2026-03-22T08:14:48.359Z</time></trkpt><trkpt lat="36.9186021" lon="15.0934766"><ele>222.2857142857143</ele><time>2026-03-22T08:14:52.359Z</time></trkpt><trkpt lat="36.918667" lon="15.09348"><ele>219.8571428571429</ele><time>2026-03-22T08:14:55.355Z</time></trkpt><trkpt lat="36.9187249" lon="15.0934388"><ele>217.42857142857142</ele><time>2026-03-22T08:14:58.494Z</time></trkpt><trkpt lat="36.9187878" lon="15.093413"><ele>215.0</ele><time>2026-03-22T08:15:02.328Z</time></trkpt><trkpt lat="36.9188058" lon="15.0935099"><ele>215.0</ele><time>2026-03-22T08:15:06.357Z</time></trkpt><trkpt lat="36.9187663" lon="15.0935805"><ele>215.0</ele><time>2026-03-22T08:15:13.336Z</time></trkpt><trkpt lat="36.9187403" lon="15.0936648"><ele>215.0</ele><time>2026-03-22T08:15:17.368Z</time></trkpt><trkpt lat="36.9188141" lon="15.0936877"><ele>215.0</ele><time>2026-03-22T08:15:19.34Z</time></trkpt><trkpt lat="36.9188775" lon="15.0936556"><ele>215.0</ele><time>2026-03-22T08:15:21.361Z</time></trkpt><trkpt lat="36.9189447" lon="15.0935996"><ele>215.0</ele><time>2026-03-22T08:15:23.349Z</time></trkpt><trkpt lat="36.9190093" lon="15.0935409"><ele>215.0</ele><time>2026-03-22T08:15:25.355Z</time></trkpt><trkpt lat="36.9190913" lon="15.0935083"><ele>215.00000000000003</ele><time>2026-03-22T08:15:28.351Z</time></trkpt><trkpt lat="36.9191069" lon="15.0936105"><ele>215.0</ele><time>2026-03-22T08:15:31.367Z</time></trkpt><trkpt lat="36.9190654" lon="15.0936704"><ele>215.0</ele><time>2026-03-22T08:15:33.356Z</time></trkpt><trkpt lat="36.9190117" lon="15.0937391"><ele>215.0</ele><time>2026-03-22T08:15:35.361Z</time></trkpt><trkpt lat="36.9189957" lon="15.0938348"><ele>215.00000000000003</ele><time>2026-03-22T08:15:37.35Z</time></trkpt><trkpt lat="36.9189777" lon="15.0939464"><ele>215.0</ele><time>2026-03-22T08:15:39.336Z</time></trkpt><trkpt lat="36.9189543" lon="15.094062"><ele>215.0</ele><time>2026-03-22T08:15:41.364Z</time></trkpt><trkpt lat="36.9189225" lon="15.0941571"><ele>215.0</ele><time>2026-03-22T08:15:44.361Z</time></trkpt><trkpt lat="36.9190264" lon="15.0941038"><ele>215.0</ele><time>2026-03-22T08:15:47.345Z</time></trkpt><trkpt lat="36.9190823" lon="15.0940075"><ele>215.0</ele><time>2026-03-22T08:15:49.357Z</time></trkpt><trkpt lat="36.9191392" lon="15.0939469"><ele>215.0</ele><time>2026-03-22T08:15:52.343Z</time></trkpt><trkpt lat="36.9191955" lon="15.0940688"><ele>211.16666666666669</ele><time>2026-03-22T08:15:55.344Z</time></trkpt><trkpt lat="36.9191957" lon="15.0941801"><ele>207.33333333333334</ele><time>2026-03-22T08:15:57.358Z</time></trkpt><trkpt lat="36.9191668" lon="15.0942824"><ele>203.5</ele><time>2026-03-22T08:15:59.327Z</time></trkpt><trkpt lat="36.9191463" lon="15.0943653"><ele>199.66666666666669</ele><time>2026-03-22T08:16:01.346Z</time></trkpt><trkpt lat="36.919102" lon="15.094447"><ele>195.83333333333334</ele><time>2026-03-22T08:16:04.488Z</time></trkpt><trkpt lat="36.9191374" lon="15.0945326"><ele>192.0</ele><time>2026-03-22T08:16:07.338Z</time></trkpt><trkpt lat="36.9191763" lon="15.0946444"><ele>192.0</ele><time>2026-03-22T08:16:09.343Z</time></trkpt><trkpt lat="36.9191468" lon="15.0947394"><ele>192.0</ele><time>2026-03-22T08:17:04.353Z</time></trkpt><trkpt lat="36.9190884" lon="15.0947975"><ele>192.0</ele><time>2026-03-22T08:17:07.342Z</time></trkpt><trkpt lat="36.9190227" lon="15.0948636"><ele>192.0</ele><time>2026-03-22T08:17:09.412Z</time></trkpt><trkpt lat="36.9189745" lon="15.0949341"><ele>192.0</ele><time>2026-03-22T08:17:10.365Z</time></trkpt><trkpt lat="36.9189257" lon="15.0950047"><ele>192.0</ele><time>2026-03-22T08:17:11.339Z</time></trkpt><trkpt lat="36.9188765" lon="15.0950731"><ele>188.39999999999998</ele><time>2026-03-22T08:17:12.315Z</time></trkpt><trkpt lat="36.9188111" lon="15.0951318"><ele>184.79999999999998</ele><time>2026-03-22T08:17:13.365Z</time></trkpt><trkpt lat="36.9187364" lon="15.0951871"><ele>181.2</ele><time>2026-03-22T08:17:14.348Z</time></trkpt><trkpt lat="36.9186512" lon="15.09525"><ele>177.6</ele><time>2026-03-22T08:17:15.348Z</time></trkpt><trkpt lat="36.9185631" lon="15.095317"><ele>174.0</ele><time>2026-03-22T08:17:16.364Z</time></trkpt><trkpt lat="36.9184787" lon="15.0953649"><ele>174.0</ele><time>2026-03-22T08:17:17.356Z</time></trkpt><trkpt lat="36.9184131" lon="15.0953805"><ele>174.0</ele><time>2026-03-22T08:17:18.399Z</time></trkpt><trkpt lat="36.9183299" lon="15.0953691"><ele>174.0</ele><time>2026-03-22T08:17:19.357Z</time></trkpt><trkpt lat="36.9182276" lon="15.0953442"><ele>174.0</ele><time>2026-03-22T08:17:20.353Z</time></trkpt><trkpt lat="36.9181124" lon="15.0953422"><ele>174.0</ele><time>2026-03-22T08:17:21.351Z</time></trkpt><trkpt lat="36.9179927" lon="15.0953563"><ele>174.6</ele><time>2026-03-22T08:17:22.327Z</time></trkpt><trkpt lat="36.9178779" lon="15.0953778"><ele>175.2</ele><time>2026-03-22T08:17:23.325Z</time></trkpt><trkpt lat="36.9177626" lon="15.0954036"><ele>175.79999999999998</ele><time>2026-03-22T08:17:24.329Z</time></trkpt><trkpt lat="36.9176632" lon="15.0954363"><ele>176.39999999999998</ele><time>2026-03-22T08:17:25.322Z</time></trkpt><trkpt lat="36.9175674" lon="15.0954985"><ele>177.0</ele><time>2026-03-22T08:17:26.351Z</time></trkpt><trkpt lat="36.9174734" lon="15.0955702"><ele>175.0</ele><time>2026-03-22T08:17:27.35Z</time></trkpt><trkpt lat="36.917377" lon="15.0956325"><ele>173.0</ele><time>2026-03-22T08:17:28.337Z</time></trkpt><trkpt lat="36.9172773" lon="15.0956957"><ele>171.0</ele><time>2026-03-22T08:17:29.351Z</time></trkpt><trkpt lat="36.9171612" lon="15.0957363"><ele>169.0</ele><time>2026-03-22T08:17:30.326Z</time></trkpt><trkpt lat="36.9170219" lon="15.0957849"><ele>166.25</ele><time>2026-03-22T08:17:31.319Z</time></trkpt><trkpt lat="36.9168766" lon="15.095831"><ele>163.5</ele><time>2026-03-22T08:17:32.356Z</time></trkpt><trkpt lat="36.9167394" lon="15.0958838"><ele>160.75</ele><time>2026-03-22T08:17:33.347Z</time></trkpt><trkpt lat="36.9166071" lon="15.0959237"><ele>158.0</ele><time>2026-03-22T08:17:34.35Z</time></trkpt><trkpt lat="36.9164783" lon="15.09596"><ele>157.0</ele><time>2026-03-22T08:17:35.327Z</time></trkpt><trkpt lat="36.9163566" lon="15.0959926"><ele>156.0</ele><time>2026-03-22T08:17:36.363Z</time></trkpt><trkpt lat="36.9162379" lon="15.0960286"><ele>155.0</ele><time>2026-03-22T08:17:37.324Z</time></trkpt><trkpt lat="36.9161115" lon="15.0960618"><ele>154.0</ele><time>2026-03-22T08:17:38.356Z</time></trkpt><trkpt lat="36.9159796" lon="15.0960934"><ele>152.6</ele><time>2026-03-22T08:17:39.335Z</time></trkpt><trkpt lat="36.9158562" lon="15.0961179"><ele>151.2</ele><time>2026-03-22T08:17:40.331Z</time></trkpt><trkpt lat="36.915747" lon="15.0961512"><ele>149.79999999999998</ele><time>2026-03-22T08:17:41.342Z</time></trkpt><trkpt lat="36.915645" lon="15.0961811"><ele>148.4</ele><time>2026-03-22T08:17:42.36Z</time></trkpt><trkpt lat="36.915557" lon="15.0962361"><ele>147.0</ele><time>2026-03-22T08:17:43.337Z</time></trkpt><trkpt lat="36.9154802" lon="15.0963051"><ele>147.0</ele><time>2026-03-22T08:17:44.338Z</time></trkpt><trkpt lat="36.9154148" lon="15.0963845"><ele>147.0</ele><time>2026-03-22T08:17:45.345Z</time></trkpt><trkpt lat="36.9153615" lon="15.0964878"><ele>147.0</ele><time>2026-03-22T08:17:46.354Z</time></trkpt><trkpt lat="36.9153169" lon="15.0965777"><ele>147.0</ele><time>2026-03-22T08:17:47.359Z</time></trkpt><trkpt lat="36.9152748" lon="15.0966481"><ele>147.0</ele><time>2026-03-22T08:17:48.355Z</time></trkpt><trkpt lat="36.915232" lon="15.0967544"><ele>147.0</ele><time>2026-03-22T08:17:50.365Z</time></trkpt><trkpt lat="36.9152115" lon="15.0968475"><ele>146.16666666666666</ele><time>2026-03-22T08:17:55.351Z</time></trkpt><trkpt lat="36.9151441" lon="15.0968645"><ele>145.33333333333334</ele><time>2026-03-22T08:18:00.351Z</time></trkpt><trkpt lat="36.9150765" lon="15.0968144"><ele>144.5</ele><time>2026-03-22T08:18:03.356Z</time></trkpt><trkpt lat="36.9150637" lon="15.0969335"><ele>143.66666666666669</ele><time>2026-03-22T08:18:08.358Z</time></trkpt><trkpt lat="36.9151101" lon="15.0969931"><ele>142.83333333333334</ele><time>2026-03-22T08:18:09.353Z</time></trkpt><trkpt lat="36.9151632" lon="15.097084"><ele>142.0</ele><time>2026-03-22T08:18:10.369Z</time></trkpt><trkpt lat="36.9152092" lon="15.0971988"><ele>142.0</ele><time>2026-03-22T08:18:11.363Z</time></trkpt><trkpt lat="36.9152667" lon="15.0973282"><ele>142.0</ele><time>2026-03-22T08:18:12.345Z</time></trkpt><trkpt lat="36.9153162" lon="15.0974596"><ele>142.0</ele><time>2026-03-22T08:18:13.365Z</time></trkpt><trkpt lat="36.9153682" lon="15.0975816"><ele>142.0</ele><time>2026-03-22T08:18:14.362Z</time></trkpt><trkpt lat="36.9154155" lon="15.0977132"><ele>142.2</ele><time>2026-03-22T08:18:15.358Z</time></trkpt><trkpt lat="36.9154622" lon="15.0978345"><ele>142.39999999999998</ele><time>2026-03-22T08:18:16.349Z</time></trkpt><trkpt lat="36.9155047" lon="15.0979505"><ele>142.60000000000002</ele><time>2026-03-22T08:18:17.329Z</time></trkpt><trkpt lat="36.9155463" lon="15.0980506"><ele>142.8</ele><time>2026-03-22T08:18:18.371Z</time></trkpt><trkpt lat="36.9155901" lon="15.0981457"><ele>143.0</ele><time>2026-03-22T08:18:19.365Z</time></trkpt><trkpt lat="36.9156373" lon="15.0982509"><ele>143.0</ele><time>2026-03-22T08:18:20.376Z</time></trkpt><trkpt lat="36.9156815" lon="15.0983627"><ele>143.0</ele><time>2026-03-22T08:18:21.38Z</time></trkpt><trkpt lat="36.9157352" lon="15.0984767"><ele>143.0</ele><time>2026-03-22T08:18:22.373Z</time></trkpt><trkpt lat="36.9157808" lon="15.0985925"><ele>143.0</ele><time>2026-03-22T08:18:23.356Z</time></trkpt><trkpt lat="36.9158217" lon="15.0987084"><ele>143.0</ele><time>2026-03-22T08:18:24.366Z</time></trkpt><trkpt lat="36.9158736" lon="15.0988229"><ele>143.4</ele><time>2026-03-22T08:18:25.377Z</time></trkpt><trkpt lat="36.9159316" lon="15.0989317"><ele>143.8</ele><time>2026-03-22T08:18:26.367Z</time></trkpt><trkpt lat="36.9160017" lon="15.0990346"><ele>144.2</ele><time>2026-03-22T08:18:27.371Z</time></trkpt><trkpt lat="36.916076" lon="15.0991277"><ele>144.6</ele><time>2026-03-22T08:18:28.361Z</time></trkpt><trkpt lat="36.9161461" lon="15.0992133"><ele>145.0</ele><time>2026-03-22T08:18:29.368Z</time></trkpt><trkpt lat="36.9162197" lon="15.0992957"><ele>145.0</ele><time>2026-03-22T08:18:30.364Z</time></trkpt><trkpt lat="36.9162945" lon="15.099366"><ele>145.0</ele><time>2026-03-22T08:18:31.374Z</time></trkpt><trkpt lat="36.916363" lon="15.0994278"><ele>145.0</ele><time>2026-03-22T08:18:32.361Z</time></trkpt><trkpt lat="36.9164234" lon="15.099481"><ele>145.0</ele><time>2026-03-22T08:18:33.35Z</time></trkpt><trkpt lat="36.9164872" lon="15.0995323"><ele>145.0</ele><time>2026-03-22T08:18:34.372Z</time></trkpt><trkpt lat="36.9165431" lon="15.099579"><ele>145.0</ele><time>2026-03-22T08:18:35.349Z</time></trkpt><trkpt lat="36.916597" lon="15.0996239"><ele>145.0</ele><time>2026-03-22T08:18:36.372Z</time></trkpt><trkpt lat="36.9166508" lon="15.0996691"><ele>145.0</ele><time>2026-03-22T08:18:37.375Z</time></trkpt><trkpt lat="36.9167068" lon="15.0997086"><ele>145.0</ele><time>2026-03-22T08:18:38.367Z</time></trkpt><trkpt lat="36.9168138" lon="15.0997923"><ele>145.0</ele><time>2026-03-22T08:18:40.361Z</time></trkpt><trkpt lat="36.9168705" lon="15.0998446"><ele>145.0</ele><time>2026-03-22T08:18:41.37Z</time></trkpt><trkpt lat="36.9169261" lon="15.0998983"><ele>145.0</ele><time>2026-03-22T08:18:42.368Z</time></trkpt><trkpt lat="36.9169869" lon="15.0999641"><ele>144.83333333333334</ele><time>2026-03-22T08:18:43.368Z</time></trkpt><trkpt lat="36.9170468" lon="15.1000235"><ele>144.66666666666669</ele><time>2026-03-22T08:18:44.363Z</time></trkpt><trkpt lat="36.9171086" lon="15.1000817"><ele>144.5</ele><time>2026-03-22T08:18:45.358Z</time></trkpt><trkpt lat="36.9171684" lon="15.1001317"><ele>144.33333333333334</ele><time>2026-03-22T08:18:46.357Z</time></trkpt><trkpt lat="36.9172281" lon="15.1001873"><ele>144.16666666666666</ele><time>2026-03-22T08:18:47.362Z</time></trkpt><trkpt lat="36.9172918" lon="15.1002418"><ele>144.0</ele><time>2026-03-22T08:18:48.334Z</time></trkpt><trkpt lat="36.9173581" lon="15.1002969"><ele>144.0</ele><time>2026-03-22T08:18:49.36Z</time></trkpt><trkpt lat="36.9174227" lon="15.1003576"><ele>144.0</ele><time>2026-03-22T08:18:50.357Z</time></trkpt><trkpt lat="36.9174898" lon="15.1004162"><ele>144.0</ele><time>2026-03-22T08:18:51.343Z</time></trkpt><trkpt lat="36.9175583" lon="15.1004851"><ele>144.0</ele><time>2026-03-22T08:18:52.352Z</time></trkpt><trkpt lat="36.9176322" lon="15.100569"><ele>144.0</ele><time>2026-03-22T08:18:53.358Z</time></trkpt><trkpt lat="36.917708" lon="15.1006594"><ele>143.4</ele><time>2026-03-22T08:18:54.36Z</time></trkpt><trkpt lat="36.9177779" lon="15.1007573"><ele>142.8</ele><time>2026-03-22T08:18:55.361Z</time></trkpt><trkpt lat="36.9178385" lon="15.1008725"><ele>142.2</ele><time>2026-03-22T08:18:56.33Z</time></trkpt><trkpt lat="36.9178954" lon="15.1009954"><ele>141.6</ele><time>2026-03-22T08:18:57.351Z</time></trkpt><trkpt lat="36.917935" lon="15.1011286"><ele>141.0</ele><time>2026-03-22T08:18:58.369Z</time></trkpt><trkpt lat="36.9179636" lon="15.1012678"><ele>141.0</ele><time>2026-03-22T08:18:59.364Z</time></trkpt><trkpt lat="36.9179762" lon="15.1014092"><ele>141.0</ele><time>2026-03-22T08:19:00.358Z</time></trkpt><trkpt lat="36.9179719" lon="15.1015444"><ele>141.0</ele><time>2026-03-22T08:19:01.369Z</time></trkpt><trkpt lat="36.9179526" lon="15.1016876"><ele>141.0</ele><time>2026-03-22T08:19:02.333Z</time></trkpt><trkpt lat="36.9179127" lon="15.1018273"><ele>140.0</ele><time>2026-03-22T08:19:03.357Z</time></trkpt><trkpt lat="36.9178556" lon="15.1019637"><ele>139.0</ele><time>2026-03-22T08:19:04.324Z</time></trkpt><trkpt lat="36.917796" lon="15.1020938"><ele>138.0</ele><time>2026-03-22T08:19:05.377Z</time></trkpt><trkpt lat="36.9177409" lon="15.1022181"><ele>137.0</ele><time>2026-03-22T08:19:06.353Z</time></trkpt><trkpt lat="36.917682" lon="15.1023427"><ele>137.0</ele><time>2026-03-22T08:19:07.359Z</time></trkpt><trkpt lat="36.9176264" lon="15.1024661"><ele>137.0</ele><time>2026-03-22T08:19:08.341Z</time></trkpt><trkpt lat="36.9175686" lon="15.1025845"><ele>137.0</ele><time>2026-03-22T08:19:09.37Z</time></trkpt><trkpt lat="36.9175306" lon="15.102702"><ele>137.0</ele><time>2026-03-22T08:19:10.359Z</time></trkpt><trkpt lat="36.9175144" lon="15.1028249"><ele>137.0</ele><time>2026-03-22T08:19:11.367Z</time></trkpt><trkpt lat="36.9175174" lon="15.102956"><ele>137.0</ele><time>2026-03-22T08:19:12.365Z</time></trkpt><trkpt lat="36.9175246" lon="15.1030936"><ele>137.0</ele><time>2026-03-22T08:19:13.354Z</time></trkpt><trkpt lat="36.9175288" lon="15.1032379"><ele>137.0</ele><time>2026-03-22T08:19:14.346Z</time></trkpt><trkpt lat="36.9175183" lon="15.1033962"><ele>137.0</ele><time>2026-03-22T08:19:15.357Z</time></trkpt><trkpt lat="36.9174962" lon="15.1035631"><ele>134.66666666666666</ele><time>2026-03-22T08:19:16.343Z</time></trkpt><trkpt lat="36.9174445" lon="15.1037461"><ele>132.33333333333334</ele><time>2026-03-22T08:19:17.356Z</time></trkpt><trkpt lat="36.9173814" lon="15.1039213"><ele>130.0</ele><time>2026-03-22T08:19:18.334Z</time></trkpt><trkpt lat="36.9173081" lon="15.1040803"><ele>128.66666666666669</ele><time>2026-03-22T08:19:19.356Z</time></trkpt><trkpt lat="36.9172207" lon="15.1042401"><ele>127.33333333333334</ele><time>2026-03-22T08:19:20.358Z</time></trkpt><trkpt lat="36.9171202" lon="15.104407"><ele>126.0</ele><time>2026-03-22T08:19:21.366Z</time></trkpt><trkpt lat="36.9170365" lon="15.1045784"><ele>126.0</ele><time>2026-03-22T08:19:22.363Z</time></trkpt><trkpt lat="36.916987" lon="15.1047634"><ele>126.0</ele><time>2026-03-22T08:19:23.366Z</time></trkpt><trkpt lat="36.9169399" lon="15.1049291"><ele>126.0</ele><time>2026-03-22T08:19:24.366Z</time></trkpt><trkpt lat="36.9168718" lon="15.1050757"><ele>126.0</ele><time>2026-03-22T08:19:25.37Z</time></trkpt><trkpt lat="36.9167797" lon="15.1051933"><ele>127.25</ele><time>2026-03-22T08:19:26.362Z</time></trkpt><trkpt lat="36.9166709" lon="15.1053004"><ele>128.5</ele><time>2026-03-22T08:19:27.378Z</time></trkpt><trkpt lat="36.9165437" lon="15.1054064"><ele>129.75</ele><time>2026-03-22T08:19:28.349Z</time></trkpt><trkpt lat="36.916433" lon="15.105545"><ele>131.0</ele><time>2026-03-22T08:19:29.362Z</time></trkpt><trkpt lat="36.9163523" lon="15.1057205"><ele>128.0</ele><time>2026-03-22T08:19:30.35Z</time></trkpt><trkpt lat="36.9162931" lon="15.1059085"><ele>125.0</ele><time>2026-03-22T08:19:31.369Z</time></trkpt><trkpt lat="36.9162426" lon="15.1060974"><ele>122.0</ele><time>2026-03-22T08:19:32.355Z</time></trkpt><trkpt lat="36.9161933" lon="15.1062717"><ele>122.0</ele><time>2026-03-22T08:19:33.354Z</time></trkpt><trkpt lat="36.9161456" lon="15.1064447"><ele>122.0</ele><time>2026-03-22T08:19:34.353Z</time></trkpt><trkpt lat="36.9160998" lon="15.1066126"><ele>122.0</ele><time>2026-03-22T08:19:35.353Z</time></trkpt><trkpt lat="36.9160459" lon="15.1067799"><ele>122.0</ele><time>2026-03-22T08:19:36.353Z</time></trkpt><trkpt lat="36.9159895" lon="15.1069423"><ele>122.5</ele><time>2026-03-22T08:19:37.35Z</time></trkpt><trkpt lat="36.9159127" lon="15.1070904"><ele>123.0</ele><time>2026-03-22T08:19:38.358Z</time></trkpt><trkpt lat="36.9158227" lon="15.1072396"><ele>123.5</ele><time>2026-03-22T08:19:39.342Z</time></trkpt><trkpt lat="36.9157285" lon="15.1073875"><ele>124.0</ele><time>2026-03-22T08:19:40.347Z</time></trkpt><trkpt lat="36.9156337" lon="15.1075408"><ele>121.33333333333334</ele><time>2026-03-22T08:19:41.36Z</time></trkpt><trkpt lat="36.9155436" lon="15.1077002"><ele>118.66666666666666</ele><time>2026-03-22T08:19:42.362Z</time></trkpt><trkpt lat="36.9154614" lon="15.1078712"><ele>116.0</ele><time>2026-03-22T08:19:43.355Z</time></trkpt><trkpt lat="36.9153891" lon="15.1080505"><ele>116.0</ele><time>2026-03-22T08:19:44.33Z</time></trkpt><trkpt lat="36.9153313" lon="15.1082341"><ele>116.0</ele><time>2026-03-22T08:19:45.369Z</time></trkpt><trkpt lat="36.9152846" lon="15.1084342"><ele>116.0</ele><time>2026-03-22T08:19:46.347Z</time></trkpt><trkpt lat="36.9152589" lon="15.1086539"><ele>114.0</ele><time>2026-03-22T08:19:47.347Z</time></trkpt><trkpt lat="36.9152394" lon="15.1088694"><ele>112.0</ele><time>2026-03-22T08:19:48.333Z</time></trkpt><trkpt lat="36.915221" lon="15.109082"><ele>110.0</ele><time>2026-03-22T08:19:49.347Z</time></trkpt><trkpt lat="36.915206" lon="15.1092876"><ele>109.66666666666666</ele><time>2026-03-22T08:19:50.356Z</time></trkpt><trkpt lat="36.9151896" lon="15.1094902"><ele>109.33333333333334</ele><time>2026-03-22T08:19:51.337Z</time></trkpt><trkpt lat="36.9151675" lon="15.1096785"><ele>109.0</ele><time>2026-03-22T08:19:52.361Z</time></trkpt><trkpt lat="36.9151468" lon="15.109859"><ele>108.25</ele><time>2026-03-22T08:19:53.35Z</time></trkpt><trkpt lat="36.9151358" lon="15.1100361"><ele>107.5</ele><time>2026-03-22T08:19:54.352Z</time></trkpt><trkpt lat="36.9151439" lon="15.1102007"><ele>106.75</ele><time>2026-03-22T08:19:55.352Z</time></trkpt><trkpt lat="36.9151731" lon="15.1103485"><ele>106.0</ele><time>2026-03-22T08:19:56.345Z</time></trkpt><trkpt lat="36.9152433" lon="15.1104831"><ele>106.0</ele><time>2026-03-22T08:19:57.354Z</time></trkpt><trkpt lat="36.9153324" lon="15.1106127"><ele>106.0</ele><time>2026-03-22T08:19:58.348Z</time></trkpt><trkpt lat="36.9154142" lon="15.1107375"><ele>106.0</ele><time>2026-03-22T08:19:59.339Z</time></trkpt><trkpt lat="36.9154929" lon="15.1108556"><ele>106.0</ele><time>2026-03-22T08:20:00.352Z</time></trkpt><trkpt lat="36.9155531" lon="15.1109892"><ele>104.6</ele><time>2026-03-22T08:20:01.341Z</time></trkpt><trkpt lat="36.9155919" lon="15.1111317"><ele>103.19999999999999</ele><time>2026-03-22T08:20:02.341Z</time></trkpt><trkpt lat="36.9156136" lon="15.1112595"><ele>101.80000000000001</ele><time>2026-03-22T08:20:03.353Z</time></trkpt><trkpt lat="36.9156328" lon="15.1113741"><ele>100.4</ele><time>2026-03-22T08:20:04.339Z</time></trkpt><trkpt lat="36.9156578" lon="15.111472"><ele>99.0</ele><time>2026-03-22T08:20:05.358Z</time></trkpt><trkpt lat="36.9156688" lon="15.1115718"><ele>99.0</ele><time>2026-03-22T08:20:06.35Z</time></trkpt><trkpt lat="36.9156817" lon="15.1116717"><ele>99.0</ele><time>2026-03-22T08:20:07.356Z</time></trkpt><trkpt lat="36.9156935" lon="15.1117613"><ele>99.0</ele><time>2026-03-22T08:20:08.333Z</time></trkpt><trkpt lat="36.9157225" lon="15.1116596"><ele>99.0</ele><time>2026-03-22T08:20:14.368Z</time></trkpt><trkpt lat="36.9156984" lon="15.1115538"><ele>99.0</ele><time>2026-03-22T08:20:15.357Z</time></trkpt><trkpt lat="36.9156895" lon="15.1114441"><ele>99.0</ele><time>2026-03-22T08:20:16.349Z</time></trkpt><trkpt lat="36.9156741" lon="15.1113474"><ele>99.0</ele><time>2026-03-22T08:20:17.352Z</time></trkpt><trkpt lat="36.9156675" lon="15.1112163"><ele>99.0</ele><time>2026-03-22T08:20:19.358Z</time></trkpt><trkpt lat="36.9156874" lon="15.1111098"><ele>99.0</ele><time>2026-03-22T08:20:21.367Z</time></trkpt><trkpt lat="36.915763" lon="15.1110498"><ele>99.0</ele><time>2026-03-22T08:20:23.336Z</time></trkpt><trkpt lat="36.9158523" lon="15.1110605"><ele>99.0</ele><time>2026-03-22T08:20:25.338Z</time></trkpt><trkpt lat="36.9159363" lon="15.1111005"><ele>100.16666666666667</ele><time>2026-03-22T08:20:27.334Z</time></trkpt><trkpt lat="36.915992" lon="15.1111379"><ele>101.33333333333334</ele><time>2026-03-22T08:20:29.355Z</time></trkpt><trkpt lat="36.9160554" lon="15.1111777"><ele>102.5</ele><time>2026-03-22T08:20:31.364Z</time></trkpt><trkpt lat="36.9161441" lon="15.111222"><ele>103.66666666666667</ele><time>2026-03-22T08:20:33.345Z</time></trkpt><trkpt lat="36.9162426" lon="15.1112531"><ele>104.83333333333334</ele><time>2026-03-22T08:20:35.358Z</time></trkpt><trkpt lat="36.916336" lon="15.1112898"><ele>106.0</ele><time>2026-03-22T08:20:37.38Z</time></trkpt><trkpt lat="36.916406" lon="15.1113405"><ele>106.0</ele><time>2026-03-22T08:20:39.363Z</time></trkpt><trkpt lat="36.9164949" lon="15.1113905"><ele>106.0</ele><time>2026-03-22T08:20:41.345Z</time></trkpt><trkpt lat="36.9165876" lon="15.1114347"><ele>106.0</ele><time>2026-03-22T08:20:43.359Z</time></trkpt><trkpt lat="36.9166917" lon="15.1114404"><ele>106.0</ele><time>2026-03-22T08:20:45.371Z</time></trkpt><trkpt lat="36.9167977" lon="15.1114591"><ele>106.0</ele><time>2026-03-22T08:20:47.372Z</time></trkpt><trkpt lat="36.9168835" lon="15.1114959"><ele>106.00000000000001</ele><time>2026-03-22T08:20:49.354Z</time></trkpt><trkpt lat="36.9169584" lon="15.1115278"><ele>106.0</ele><time>2026-03-22T08:20:51.339Z</time></trkpt><trkpt lat="36.9170351" lon="15.1115719"><ele>106.0</ele><time>2026-03-22T08:20:53.349Z</time></trkpt><trkpt lat="36.9170988" lon="15.1115968"><ele>106.0</ele><time>2026-03-22T08:20:55.36Z</time></trkpt><trkpt lat="36.917164" lon="15.1116072"><ele>106.00000000000001</ele><time>2026-03-22T08:20:57.35Z</time></trkpt><trkpt lat="36.9172489" lon="15.1115827"><ele>106.0</ele><time>2026-03-22T08:21:00.327Z</time></trkpt><trkpt lat="36.9173029" lon="15.1115331"><ele>106.66666666666667</ele><time>2026-03-22T08:21:02.347Z</time></trkpt><trkpt lat="36.9173778" lon="15.1114826"><ele>107.33333333333334</ele><time>2026-03-22T08:21:04.363Z</time></trkpt><trkpt lat="36.9174674" lon="15.1114009"><ele>108.0</ele><time>2026-03-22T08:21:06.319Z</time></trkpt><trkpt lat="36.9175295" lon="15.1113644"><ele>108.66666666666666</ele><time>2026-03-22T08:21:07.368Z</time></trkpt><trkpt lat="36.9176161" lon="15.1112738"><ele>109.33333333333333</ele><time>2026-03-22T08:21:09.364Z</time></trkpt><trkpt lat="36.9176639" lon="15.1112213"><ele>110.0</ele><time>2026-03-22T08:21:10.34Z</time></trkpt><trkpt lat="36.9177554" lon="15.1111316"><ele>110.0</ele><time>2026-03-22T08:21:12.323Z</time></trkpt><trkpt lat="36.9178542" lon="15.1110582"><ele>110.0</ele><time>2026-03-22T08:21:14.344Z</time></trkpt><trkpt lat="36.9179471" lon="15.1110017"><ele>110.0</ele><time>2026-03-22T08:21:16.368Z</time></trkpt><trkpt lat="36.9180416" lon="15.1109592"><ele>110.0</ele><time>2026-03-22T08:21:18.362Z</time></trkpt><trkpt lat="36.918127" lon="15.1109376"><ele>110.0</ele><time>2026-03-22T08:21:20.341Z</time></trkpt><trkpt lat="36.9182096" lon="15.1109206"><ele>110.0</ele><time>2026-03-22T08:21:22.321Z</time></trkpt><trkpt lat="36.9183161" lon="15.1109039"><ele>110.0</ele><time>2026-03-22T08:21:24.351Z</time></trkpt><trkpt lat="36.91841" lon="15.1109038"><ele>110.0</ele><time>2026-03-22T08:21:26.355Z</time></trkpt><trkpt lat="36.9185031" lon="15.1109106"><ele>110.0</ele><time>2026-03-22T08:21:28.352Z</time></trkpt><trkpt lat="36.9185851" lon="15.110919"><ele>110.0</ele><time>2026-03-22T08:21:30.364Z</time></trkpt><trkpt lat="36.9186413" lon="15.1109893"><ele>109.83333333333333</ele><time>2026-03-22T08:21:33.353Z</time></trkpt><trkpt lat="36.9186545" lon="15.1110787"><ele>109.66666666666666</ele><time>2026-03-22T08:21:35.355Z</time></trkpt><trkpt lat="36.9186753" lon="15.1111887"><ele>109.5</ele><time>2026-03-22T08:21:38.324Z</time></trkpt><trkpt lat="36.9186888" lon="15.1112913"><ele>109.33333333333334</ele><time>2026-03-22T08:21:42.337Z</time></trkpt><trkpt lat="36.9186978" lon="15.111391"><ele>109.16666666666667</ele><time>2026-03-22T08:21:45.341Z</time></trkpt><trkpt lat="36.9186856" lon="15.1114968"><ele>109.0</ele><time>2026-03-22T08:21:48.316Z</time></trkpt><trkpt lat="36.9187049" lon="15.1115829"><ele>109.0</ele><time>2026-03-22T08:21:51.342Z</time></trkpt><trkpt lat="36.9187542" lon="15.1116453"><ele>109.0</ele><time>2026-03-22T08:21:55.345Z</time></trkpt><trkpt lat="36.9188327" lon="15.1117109"><ele>109.0</ele><time>2026-03-22T08:21:58.336Z</time></trkpt><trkpt lat="36.9189359" lon="15.111771"><ele>109.0</ele><time>2026-03-22T08:22:00.346Z</time></trkpt><trkpt lat="36.9190186" lon="15.1118174"><ele>109.0</ele><time>2026-03-22T08:22:02.362Z</time></trkpt><trkpt lat="36.9191162" lon="15.1118528"><ele>109.0</ele><time>2026-03-22T08:22:04.328Z</time></trkpt><trkpt lat="36.9192152" lon="15.1119073"><ele>109.0</ele><time>2026-03-22T08:22:06.361Z</time></trkpt><trkpt lat="36.9193255" lon="15.111945"><ele>109.0</ele><time>2026-03-22T08:22:08.341Z</time></trkpt><trkpt lat="36.9194231" lon="15.1119728"><ele>109.0</ele><time>2026-03-22T08:22:10.35Z</time></trkpt><trkpt lat="36.9195223" lon="15.1119812"><ele>109.0</ele><time>2026-03-22T08:22:12.328Z</time></trkpt><trkpt lat="36.9195917" lon="15.1119777"><ele>110.0</ele><time>2026-03-22T08:22:13.335Z</time></trkpt><trkpt lat="36.919672" lon="15.1119559"><ele>111.0</ele><time>2026-03-22T08:22:15.346Z</time></trkpt><trkpt lat="36.9197412" lon="15.1119387"><ele>112.0</ele><time>2026-03-22T08:22:33.347Z</time></trkpt><trkpt lat="36.9197433" lon="15.1120619"><ele>113.0</ele><time>2026-03-22T08:22:37.353Z</time></trkpt><trkpt lat="36.9197532" lon="15.1122296"><ele>114.0</ele><time>2026-03-22T08:22:39.344Z</time></trkpt><trkpt lat="36.9197663" lon="15.1123304"><ele>113.83333333333333</ele><time>2026-03-22T08:22:40.341Z</time></trkpt><trkpt lat="36.9197861" lon="15.1124264"><ele>113.66666666666666</ele><time>2026-03-22T08:22:41.353Z</time></trkpt><trkpt lat="36.9197988" lon="15.1125102"><ele>113.5</ele><time>2026-03-22T08:22:42.351Z</time></trkpt><trkpt lat="36.9198111" lon="15.1126009"><ele>113.33333333333333</ele><time>2026-03-22T08:22:43.339Z</time></trkpt><trkpt lat="36.9198237" lon="15.112755"><ele>113.16666666666666</ele><time>2026-03-22T08:22:45.349Z</time></trkpt><trkpt lat="36.9198741" lon="15.1128218"><ele>113.0</ele><time>2026-03-22T08:22:48.345Z</time></trkpt><trkpt lat="36.9201059" lon="15.112832"><ele>115.25</ele><time>2026-03-22T08:22:51.354Z</time></trkpt><trkpt lat="36.9202294" lon="15.1128199"><ele>117.5</ele><time>2026-03-22T08:22:52.344Z</time></trkpt><trkpt lat="36.920364" lon="15.1127992"><ele>119.75</ele><time>2026-03-22T08:22:53.346Z</time></trkpt><trkpt lat="36.9204998" lon="15.1127705"><ele>122.0</ele><time>2026-03-22T08:22:54.364Z</time></trkpt><trkpt lat="36.9206425" lon="15.1127321"><ele>122.0</ele><time>2026-03-22T08:22:55.417Z</time></trkpt><trkpt lat="36.9207957" lon="15.1127001"><ele>122.0</ele><time>2026-03-22T08:22:56.349Z</time></trkpt><trkpt lat="36.9209271" lon="15.1126739"><ele>122.0</ele><time>2026-03-22T08:22:57.373Z</time></trkpt><trkpt lat="36.9210535" lon="15.1126557"><ele>122.0</ele><time>2026-03-22T08:22:58.331Z</time></trkpt><trkpt lat="36.9211852" lon="15.1126498"><ele>123.25</ele><time>2026-03-22T08:22:59.367Z</time></trkpt><trkpt lat="36.9213172" lon="15.1126708"><ele>124.5</ele><time>2026-03-22T08:23:00.346Z</time></trkpt><trkpt lat="36.9214426" lon="15.1127052"><ele>125.75</ele><time>2026-03-22T08:23:01.353Z</time></trkpt><trkpt lat="36.9215447" lon="15.1127558"><ele>127.0</ele><time>2026-03-22T08:23:02.339Z</time></trkpt><trkpt lat="36.9216158" lon="15.1128208"><ele>127.0</ele><time>2026-03-22T08:23:03.351Z</time></trkpt><trkpt lat="36.9216762" lon="15.1129081"><ele>127.0</ele><time>2026-03-22T08:23:04.507Z</time></trkpt><trkpt lat="36.9217446" lon="15.1131513"><ele>127.0</ele><time>2026-03-22T08:23:06.337Z</time></trkpt><trkpt lat="36.9217673" lon="15.1132767"><ele>127.0</ele><time>2026-03-22T08:23:07.339Z</time></trkpt><trkpt lat="36.9217879" lon="15.1133978"><ele>128.2</ele><time>2026-03-22T08:23:08.439Z</time></trkpt><trkpt lat="36.9218205" lon="15.1134777"><ele>129.39999999999998</ele><time>2026-03-22T08:23:09.369Z</time></trkpt><trkpt lat="36.9218776" lon="15.1135193"><ele>130.60000000000002</ele><time>2026-03-22T08:23:10.347Z</time></trkpt><trkpt lat="36.9219782" lon="15.1135414"><ele>131.8</ele><time>2026-03-22T08:23:11.329Z</time></trkpt><trkpt lat="36.9220968" lon="15.1135717"><ele>133.0</ele><time>2026-03-22T08:23:12.353Z</time></trkpt><trkpt lat="36.9222187" lon="15.113609"><ele>133.0</ele><time>2026-03-22T08:23:13.367Z</time></trkpt><trkpt lat="36.9223416" lon="15.1136549"><ele>133.0</ele><time>2026-03-22T08:23:14.369Z</time></trkpt><trkpt lat="36.9224751" lon="15.1136721"><ele>133.0</ele><time>2026-03-22T08:23:15.359Z</time></trkpt><trkpt lat="36.9226038" lon="15.1136786"><ele>133.0</ele><time>2026-03-22T08:23:16.334Z</time></trkpt><trkpt lat="36.9227166" lon="15.1136758"><ele>133.25</ele><time>2026-03-22T08:23:17.356Z</time></trkpt><trkpt lat="36.9228348" lon="15.1136973"><ele>133.5</ele><time>2026-03-22T08:23:18.355Z</time></trkpt><trkpt lat="36.922945" lon="15.1137357"><ele>133.75</ele><time>2026-03-22T08:23:19.358Z</time></trkpt><trkpt lat="36.9230586" lon="15.1137803"><ele>134.0</ele><time>2026-03-22T08:23:20.354Z</time></trkpt><trkpt lat="36.9231691" lon="15.1138259"><ele>134.0</ele><time>2026-03-22T08:23:21.347Z</time></trkpt><trkpt lat="36.9232908" lon="15.113879"><ele>134.0</ele><time>2026-03-22T08:23:22.374Z</time></trkpt><trkpt lat="36.9234151" lon="15.1139311"><ele>134.0</ele><time>2026-03-22T08:23:23.339Z</time></trkpt><trkpt lat="36.9235491" lon="15.1139937"><ele>134.0</ele><time>2026-03-22T08:23:24.358Z</time></trkpt><trkpt lat="36.9236859" lon="15.1140542"><ele>132.75</ele><time>2026-03-22T08:23:25.356Z</time></trkpt><trkpt lat="36.9238249" lon="15.1141118"><ele>131.5</ele><time>2026-03-22T08:23:26.377Z</time></trkpt><trkpt lat="36.9239505" lon="15.1141654"><ele>130.25</ele><time>2026-03-22T08:23:27.359Z</time></trkpt><trkpt lat="36.9240493" lon="15.1142263"><ele>129.0</ele><time>2026-03-22T08:23:28.356Z</time></trkpt><trkpt lat="36.9241368" lon="15.1142918"><ele>129.0</ele><time>2026-03-22T08:23:29.368Z</time></trkpt><trkpt lat="36.9242212" lon="15.1143532"><ele>129.0</ele><time>2026-03-22T08:23:30.341Z</time></trkpt><trkpt lat="36.9242888" lon="15.1144178"><ele>129.0</ele><time>2026-03-22T08:23:31.368Z</time></trkpt><trkpt lat="36.9243401" lon="15.114482"><ele>129.0</ele><time>2026-03-22T08:23:32.362Z</time></trkpt><trkpt lat="36.924382" lon="15.1145496"><ele>129.0</ele><time>2026-03-22T08:23:33.352Z</time></trkpt><trkpt lat="36.9244242" lon="15.1146408"><ele>129.0</ele><time>2026-03-22T08:23:37.36Z</time></trkpt><trkpt lat="36.9244895" lon="15.1147293"><ele>129.4</ele><time>2026-03-22T08:23:39.348Z</time></trkpt><trkpt lat="36.9245608" lon="15.1147699"><ele>129.8</ele><time>2026-03-22T08:23:40.349Z</time></trkpt><trkpt lat="36.9246753" lon="15.114802"><ele>130.2</ele><time>2026-03-22T08:23:41.321Z</time></trkpt><trkpt lat="36.9247911" lon="15.1148375"><ele>130.6</ele><time>2026-03-22T08:23:42.335Z</time></trkpt><trkpt lat="36.9249131" lon="15.1148815"><ele>131.0</ele><time>2026-03-22T08:23:43.359Z</time></trkpt><trkpt lat="36.9250294" lon="15.1149304"><ele>132.5</ele><time>2026-03-22T08:23:44.34Z</time></trkpt><trkpt lat="36.9251441" lon="15.1150007"><ele>134.0</ele><time>2026-03-22T08:23:45.35Z</time></trkpt><trkpt lat="36.9252575" lon="15.1150786"><ele>135.5</ele><time>2026-03-22T08:23:46.363Z</time></trkpt><trkpt lat="36.9253536" lon="15.1151575"><ele>137.0</ele><time>2026-03-22T08:23:47.355Z</time></trkpt><trkpt lat="36.9254508" lon="15.1152406"><ele>137.0</ele><time>2026-03-22T08:23:48.352Z</time></trkpt><trkpt lat="36.9255706" lon="15.1153094"><ele>137.0</ele><time>2026-03-22T08:23:49.354Z</time></trkpt><trkpt lat="36.9256763" lon="15.1153778"><ele>137.0</ele><time>2026-03-22T08:23:50.359Z</time></trkpt><trkpt lat="36.9257825" lon="15.1154441"><ele>137.0</ele><time>2026-03-22T08:23:51.358Z</time></trkpt><trkpt lat="36.9258873" lon="15.1155137"><ele>137.0</ele><time>2026-03-22T08:23:52.328Z</time></trkpt><trkpt lat="36.9259737" lon="15.1155819"><ele>137.0</ele><time>2026-03-22T08:23:53.367Z</time></trkpt><trkpt lat="36.926043" lon="15.1156462"><ele>137.0</ele><time>2026-03-22T08:23:54.36Z</time></trkpt><trkpt lat="36.9261036" lon="15.1156997"><ele>137.0</ele><time>2026-03-22T08:23:55.364Z</time></trkpt><trkpt lat="36.926179" lon="15.1156952"><ele>137.0</ele><time>2026-03-22T08:23:56.336Z</time></trkpt><trkpt lat="36.9262697" lon="15.1156187"><ele>137.0</ele><time>2026-03-22T08:23:57.343Z</time></trkpt><trkpt lat="36.9263488" lon="15.1155571"><ele>137.0</ele><time>2026-03-22T08:23:58.351Z</time></trkpt><trkpt lat="36.9264098" lon="15.1155366"><ele>137.0</ele><time>2026-03-22T08:23:59.363Z</time></trkpt><trkpt lat="36.9264952" lon="15.1156736"><ele>137.0</ele><time>2026-03-22T08:24:01.354Z</time></trkpt><trkpt lat="36.9265266" lon="15.1157724"><ele>137.0</ele><time>2026-03-22T08:24:02.373Z</time></trkpt><trkpt lat="36.9265375" lon="15.1158594"><ele>137.0</ele><time>2026-03-22T08:24:03.328Z</time></trkpt><trkpt lat="36.9265267" lon="15.1159451"><ele>137.0</ele><time>2026-03-22T08:24:04.432Z</time></trkpt><trkpt lat="36.9264884" lon="15.1160395"><ele>135.5</ele><time>2026-03-22T08:24:05.361Z</time></trkpt><trkpt lat="36.9264043" lon="15.1161298"><ele>134.0</ele><time>2026-03-22T08:24:06.346Z</time></trkpt><trkpt lat="36.926313" lon="15.1162228"><ele>132.5</ele><time>2026-03-22T08:24:07.362Z</time></trkpt><trkpt lat="36.9261978" lon="15.1162884"><ele>131.0</ele><time>2026-03-22T08:24:08.36Z</time></trkpt><trkpt lat="36.9260891" lon="15.1163513"><ele>131.0</ele><time>2026-03-22T08:24:09.323Z</time></trkpt><trkpt lat="36.9260054" lon="15.1164262"><ele>131.0</ele><time>2026-03-22T08:24:10.343Z</time></trkpt><trkpt lat="36.9259371" lon="15.1165102"><ele>131.0</ele><time>2026-03-22T08:24:11.34Z</time></trkpt><trkpt lat="36.9258809" lon="15.1166151"><ele>131.0</ele><time>2026-03-22T08:24:12.314Z</time></trkpt><trkpt lat="36.9258364" lon="15.1167149"><ele>131.0</ele><time>2026-03-22T08:24:13.313Z</time></trkpt><trkpt lat="36.9257969" lon="15.1168125"><ele>130.83333333333331</ele><time>2026-03-22T08:24:14.339Z</time></trkpt><trkpt lat="36.9257563" lon="15.116907"><ele>130.66666666666666</ele><time>2026-03-22T08:24:15.352Z</time></trkpt><trkpt lat="36.9257151" lon="15.1169981"><ele>130.5</ele><time>2026-03-22T08:24:16.366Z</time></trkpt><trkpt lat="36.9256889" lon="15.1170826"><ele>130.33333333333334</ele><time>2026-03-22T08:24:17.344Z</time></trkpt><trkpt lat="36.9256651" lon="15.1171739"><ele>130.16666666666669</ele><time>2026-03-22T08:24:18.348Z</time></trkpt><trkpt lat="36.9256382" lon="15.1172815"><ele>130.0</ele><time>2026-03-22T08:24:19.361Z</time></trkpt><trkpt lat="36.9256142" lon="15.1174025"><ele>130.0</ele><time>2026-03-22T08:24:20.331Z</time></trkpt><trkpt lat="36.9255931" lon="15.117522"><ele>130.0</ele><time>2026-03-22T08:24:21.342Z</time></trkpt><trkpt lat="36.9255719" lon="15.1176377"><ele>130.0</ele><time>2026-03-22T08:24:22.354Z</time></trkpt><trkpt lat="36.9255538" lon="15.1177413"><ele>130.0</ele><time>2026-03-22T08:24:23.332Z</time></trkpt><trkpt lat="36.9255385" lon="15.1178437"><ele>130.0</ele><time>2026-03-22T08:24:24.356Z</time></trkpt><trkpt lat="36.9255183" lon="15.1179415"><ele>130.0</ele><time>2026-03-22T08:24:25.351Z</time></trkpt><trkpt lat="36.9255032" lon="15.118043"><ele>130.0</ele><time>2026-03-22T08:24:26.34Z</time></trkpt><trkpt lat="36.9254894" lon="15.1181412"><ele>130.0</ele><time>2026-03-22T08:24:27.353Z</time></trkpt><trkpt lat="36.9254766" lon="15.1182554"><ele>130.0</ele><time>2026-03-22T08:24:28.342Z</time></trkpt><trkpt lat="36.9254665" lon="15.1183745"><ele>130.0</ele><time>2026-03-22T08:24:29.34Z</time></trkpt><trkpt lat="36.9254577" lon="15.1184974"><ele>130.0</ele><time>2026-03-22T08:24:30.364Z</time></trkpt><trkpt lat="36.9254447" lon="15.1186078"><ele>130.0</ele><time>2026-03-22T08:24:31.357Z</time></trkpt><trkpt lat="36.9254338" lon="15.1187149"><ele>130.0</ele><time>2026-03-22T08:24:32.378Z</time></trkpt><trkpt lat="36.9254071" lon="15.1188259"><ele>130.0</ele><time>2026-03-22T08:24:33.35Z</time></trkpt><trkpt lat="36.9253649" lon="15.1189257"><ele>130.0</ele><time>2026-03-22T08:24:34.36Z</time></trkpt><trkpt lat="36.9253248" lon="15.1190189"><ele>130.0</ele><time>2026-03-22T08:24:35.367Z</time></trkpt><trkpt lat="36.9252836" lon="15.11911"><ele>130.0</ele><time>2026-03-22T08:24:36.368Z</time></trkpt><trkpt lat="36.9252536" lon="15.1192051"><ele>128.6</ele><time>2026-03-22T08:24:37.366Z</time></trkpt><trkpt lat="36.9252349" lon="15.1192871"><ele>127.2</ele><time>2026-03-22T08:24:38.366Z</time></trkpt><trkpt lat="36.9252329" lon="15.1193955"><ele>125.80000000000001</ele><time>2026-03-22T08:24:40.366Z</time></trkpt><trkpt lat="36.9252426" lon="15.1195218"><ele>124.4</ele><time>2026-03-22T08:24:42.351Z</time></trkpt><trkpt lat="36.9252553" lon="15.1196967"><ele>123.0</ele><time>2026-03-22T08:24:44.347Z</time></trkpt><trkpt lat="36.9252665" lon="15.119803"><ele>122.42857142857144</ele><time>2026-03-22T08:24:45.366Z</time></trkpt><trkpt lat="36.9252769" lon="15.1199003"><ele>121.85714285714286</ele><time>2026-03-22T08:24:46.328Z</time></trkpt><trkpt lat="36.9252879" lon="15.120004"><ele>121.28571428571429</ele><time>2026-03-22T08:24:47.363Z</time></trkpt><trkpt lat="36.9253029" lon="15.1200943"><ele>120.71428571428572</ele><time>2026-03-22T08:24:48.345Z</time></trkpt><trkpt lat="36.9253088" lon="15.1201843"><ele>120.14285714285714</ele><time>2026-03-22T08:24:49.355Z</time></trkpt><trkpt lat="36.9253081" lon="15.1202665"><ele>119.57142857142857</ele><time>2026-03-22T08:24:50.369Z</time></trkpt><trkpt lat="36.9253082" lon="15.1203534"><ele>119.0</ele><time>2026-03-22T08:24:51.348Z</time></trkpt><trkpt lat="36.9253236" lon="15.1205066"><ele>118.99999999999999</ele><time>2026-03-22T08:24:53.36Z</time></trkpt><trkpt lat="36.9253298" lon="15.1205865"><ele>119.0</ele><time>2026-03-22T08:24:54.354Z</time></trkpt><trkpt lat="36.9253381" lon="15.1206679"><ele>119.0</ele><time>2026-03-22T08:24:55.362Z</time></trkpt><trkpt lat="36.925348" lon="15.1207517"><ele>119.0</ele><time>2026-03-22T08:24:56.325Z</time></trkpt><trkpt lat="36.9253689" lon="15.1208476"><ele>118.99999999999999</ele><time>2026-03-22T08:24:57.357Z</time></trkpt><trkpt lat="36.9254012" lon="15.1209456"><ele>119.0</ele><time>2026-03-22T08:24:58.377Z</time></trkpt><trkpt lat="36.9254511" lon="15.1210437"><ele>118.80000000000001</ele><time>2026-03-22T08:24:59.355Z</time></trkpt><trkpt lat="36.9255081" lon="15.1211505"><ele>118.60000000000001</ele><time>2026-03-22T08:25:00.35Z</time></trkpt><trkpt lat="36.9255594" lon="15.1212584"><ele>118.4</ele><time>2026-03-22T08:25:01.349Z</time></trkpt><trkpt lat="36.9256198" lon="15.1213772"><ele>118.2</ele><time>2026-03-22T08:25:02.367Z</time></trkpt><trkpt lat="36.9256818" lon="15.1215061"><ele>118.0</ele><time>2026-03-22T08:25:03.364Z</time></trkpt><trkpt lat="36.9257481" lon="15.1216337"><ele>118.0</ele><time>2026-03-22T08:25:04.354Z</time></trkpt><trkpt lat="36.9258097" lon="15.1217556"><ele>118.0</ele><time>2026-03-22T08:25:05.368Z</time></trkpt><trkpt lat="36.9258672" lon="15.1218848"><ele>118.0</ele><time>2026-03-22T08:25:06.356Z</time></trkpt><trkpt lat="36.9259172" lon="15.1220226"><ele>118.0</ele><time>2026-03-22T08:25:07.359Z</time></trkpt><trkpt lat="36.9259545" lon="15.1221609"><ele>119.5</ele><time>2026-03-22T08:25:08.369Z</time></trkpt><trkpt lat="36.9259895" lon="15.1222953"><ele>121.0</ele><time>2026-03-22T08:25:09.357Z</time></trkpt><trkpt lat="36.9260344" lon="15.1224342"><ele>122.5</ele><time>2026-03-22T08:25:10.378Z</time></trkpt><trkpt lat="36.926085" lon="15.1225664"><ele>124.0</ele><time>2026-03-22T08:25:11.36Z</time></trkpt><trkpt lat="36.9261496" lon="15.1226904"><ele>124.0</ele><time>2026-03-22T08:25:12.357Z</time></trkpt><trkpt lat="36.9262142" lon="15.1227932"><ele>124.0</ele><time>2026-03-22T08:25:13.366Z</time></trkpt><trkpt lat="36.9262888" lon="15.1228705"><ele>124.0</ele><time>2026-03-22T08:25:14.349Z</time></trkpt><trkpt lat="36.9263774" lon="15.1229343"><ele>124.0</ele><time>2026-03-22T08:25:15.352Z</time></trkpt><trkpt lat="36.9264819" lon="15.1229912"><ele>124.0</ele><time>2026-03-22T08:25:16.37Z</time></trkpt><trkpt lat="36.9265794" lon="15.1230632"><ele>124.0</ele><time>2026-03-22T08:25:17.357Z</time></trkpt><trkpt lat="36.9266717" lon="15.1231467"><ele>124.0</ele><time>2026-03-22T08:25:18.364Z</time></trkpt><trkpt lat="36.9267626" lon="15.1232408"><ele>124.0</ele><time>2026-03-22T08:25:19.365Z</time></trkpt><trkpt lat="36.9268377" lon="15.1233305"><ele>124.0</ele><time>2026-03-22T08:25:20.351Z</time></trkpt><trkpt lat="36.9268944" lon="15.1234106"><ele>124.0</ele><time>2026-03-22T08:25:21.362Z</time></trkpt><trkpt lat="36.9269376" lon="15.123477"><ele>124.50000000000001</ele><time>2026-03-22T08:25:22.365Z</time></trkpt><trkpt lat="36.9269749" lon="15.123541"><ele>125.0</ele><time>2026-03-22T08:25:23.353Z</time></trkpt><trkpt lat="36.9270278" lon="15.1235936"><ele>125.5</ele><time>2026-03-22T08:25:24.358Z</time></trkpt><trkpt lat="36.9270978" lon="15.1236162"><ele>126.0</ele><time>2026-03-22T08:25:25.352Z</time></trkpt><trkpt lat="36.927166" lon="15.1236249"><ele>126.50000000000001</ele><time>2026-03-22T08:25:26.355Z</time></trkpt><trkpt lat="36.9272527" lon="15.1236306"><ele>127.0</ele><time>2026-03-22T08:25:27.357Z</time></trkpt><trkpt lat="36.9273446" lon="15.1236281"><ele>127.00000000000001</ele><time>2026-03-22T08:25:28.363Z</time></trkpt><trkpt lat="36.9274321" lon="15.1236317"><ele>127.0</ele><time>2026-03-22T08:25:29.364Z</time></trkpt><trkpt lat="36.9275239" lon="15.1236277"><ele>127.0</ele><time>2026-03-22T08:25:30.371Z</time></trkpt><trkpt lat="36.9276099" lon="15.1236111"><ele>127.0</ele><time>2026-03-22T08:25:31.364Z</time></trkpt><trkpt lat="36.9276937" lon="15.1236035"><ele>127.00000000000001</ele><time>2026-03-22T08:25:32.361Z</time></trkpt><trkpt lat="36.9277848" lon="15.1235897"><ele>127.0</ele><time>2026-03-22T08:25:33.351Z</time></trkpt><trkpt lat="36.9278794" lon="15.1235704"><ele>128.33333333333334</ele><time>2026-03-22T08:25:34.359Z</time></trkpt><trkpt lat="36.9279724" lon="15.1235504"><ele>129.66666666666669</ele><time>2026-03-22T08:25:35.366Z</time></trkpt><trkpt lat="36.9280609" lon="15.1235357"><ele>131.0</ele><time>2026-03-22T08:25:36.36Z</time></trkpt><trkpt lat="36.9281337" lon="15.1235205"><ele>132.33333333333334</ele><time>2026-03-22T08:25:37.345Z</time></trkpt><trkpt lat="36.9282028" lon="15.1235096"><ele>133.66666666666666</ele><time>2026-03-22T08:25:38.367Z</time></trkpt><trkpt lat="36.9282661" lon="15.1235188"><ele>135.0</ele><time>2026-03-22T08:25:39.371Z</time></trkpt><trkpt lat="36.9283288" lon="15.1235372"><ele>138.0</ele><time>2026-03-22T08:25:40.375Z</time></trkpt><trkpt lat="36.9284087" lon="15.1235307"><ele>141.0</ele><time>2026-03-22T08:25:42.369Z</time></trkpt><trkpt lat="36.9284603" lon="15.1234553"><ele>144.0</ele><time>2026-03-22T08:25:45.345Z</time></trkpt><trkpt lat="36.9285342" lon="15.1233649"><ele>147.0</ele><time>2026-03-22T08:30:58.321Z</time></trkpt><trkpt lat="36.9286224" lon="15.1233212"><ele>150.0</ele><time>2026-03-22T08:31:00.327Z</time></trkpt><trkpt lat="36.9287253" lon="15.1232863"><ele>150.0</ele><time>2026-03-22T08:31:02.355Z</time></trkpt><trkpt lat="36.9288112" lon="15.1232469"><ele>150.0</ele><time>2026-03-22T08:31:04.323Z</time></trkpt><trkpt lat="36.9288789" lon="15.1231956"><ele>150.0</ele><time>2026-03-22T08:31:06.331Z</time></trkpt><trkpt lat="36.9289513" lon="15.1231556"><ele>150.0</ele><time>2026-03-22T08:31:09.344Z</time></trkpt><trkpt lat="36.9289776" lon="15.123084"><ele>150.0</ele><time>2026-03-22T08:31:11.357Z</time></trkpt><trkpt lat="36.9290383" lon="15.1230029"><ele>150.0</ele><time>2026-03-22T08:31:13.345Z</time></trkpt><trkpt lat="36.9291047" lon="15.1229918"><ele>152.14285714285714</ele><time>2026-03-22T08:31:16.335Z</time></trkpt><trkpt lat="36.9291651" lon="15.1229617"><ele>154.28571428571428</ele><time>2026-03-22T08:31:19.365Z</time></trkpt><trkpt lat="36.9292687" lon="15.1229399"><ele>156.42857142857144</ele><time>2026-03-22T08:33:02.351Z</time></trkpt><trkpt lat="36.9293049" lon="15.1228694"><ele>158.57142857142856</ele><time>2026-03-22T08:39:18.328Z</time></trkpt><trkpt lat="36.929376" lon="15.1228355"><ele>160.71428571428572</ele><time>2026-03-22T08:39:50.345Z</time></trkpt><trkpt lat="36.9294272" lon="15.1228833"><ele>162.85714285714286</ele><time>2026-03-22T08:41:39.347Z</time></trkpt><trkpt lat="36.9294376" lon="15.122805"><ele>165.0</ele><time>2026-03-22T08:42:03.346Z</time></trkpt><trkpt lat="36.9294898" lon="15.1227586"><ele>168.85714285714286</ele><time>2026-03-22T08:42:40.345Z</time></trkpt><trkpt lat="36.9295455" lon="15.122717"><ele>172.71428571428572</ele><time>2026-03-22T08:43:15.332Z</time></trkpt><trkpt lat="36.9296082" lon="15.1227097"><ele>176.57142857142856</ele><time>2026-03-22T08:43:24.341Z</time></trkpt><trkpt lat="36.9296613" lon="15.1226554"><ele>180.42857142857144</ele><time>2026-03-22T08:44:08.344Z</time></trkpt><trkpt lat="36.9297183" lon="15.1226104"><ele>184.28571428571428</ele><time>2026-03-22T08:45:52.336Z</time></trkpt><trkpt lat="36.9297837" lon="15.1225758"><ele>188.14285714285714</ele><time>2026-03-22T08:46:32.356Z</time></trkpt><trkpt lat="36.9298433" lon="15.1225489"><ele>192.0</ele><time>2026-03-22T08:47:09.339Z</time></trkpt><trkpt lat="36.9298965" lon="15.1224959"><ele>191.99999999999997</ele><time>2026-03-22T08:48:33.319Z</time></trkpt><trkpt lat="36.9299571" lon="15.1224551"><ele>192.0</ele><time>2026-03-22T08:50:38.355Z</time></trkpt><trkpt lat="36.9300211" lon="15.1224295"><ele>192.0</ele><time>2026-03-22T08:51:10.348Z</time></trkpt><trkpt lat="36.9300542" lon="15.1223531"><ele>192.0</ele><time>2026-03-22T08:51:15.335Z</time></trkpt><trkpt lat="36.9300292" lon="15.1222758"><ele>192.0</ele><time>2026-03-22T08:51:21.337Z</time></trkpt><trkpt lat="36.9300338" lon="15.122195"><ele>191.99999999999997</ele><time>2026-03-22T08:51:33.332Z</time></trkpt><trkpt lat="36.9300682" lon="15.1221099"><ele>192.0</ele><time>2026-03-22T08:52:18.362Z</time></trkpt><trkpt lat="36.9301058" lon="15.122041"><ele>195.8</ele><time>2026-03-22T08:53:49.353Z</time></trkpt><trkpt lat="36.9301908" lon="15.1220239"><ele>199.6</ele><time>2026-03-22T09:05:55.337Z</time></trkpt><trkpt lat="36.9302914" lon="15.1220151"><ele>203.4</ele><time>2026-03-22T09:05:57.356Z</time></trkpt><trkpt lat="36.9304223" lon="15.1220074"><ele>207.20000000000002</ele><time>2026-03-22T09:05:59.366Z</time></trkpt><trkpt lat="36.9304964" lon="15.1219864"><ele>211.0</ele><time>2026-03-22T09:06:00.338Z</time></trkpt><trkpt lat="36.9306031" lon="15.121947"><ele>210.99999999999997</ele><time>2026-03-22T09:06:02.362Z</time></trkpt><trkpt lat="36.9307062" lon="15.1219259"><ele>211.0</ele><time>2026-03-22T09:06:04.342Z</time></trkpt><trkpt lat="36.9307936" lon="15.1219259"><ele>211.0</ele><time>2026-03-22T09:06:06.346Z</time></trkpt><trkpt lat="36.930865" lon="15.1219159"><ele>211.0</ele><time>2026-03-22T09:06:08.319Z</time></trkpt><trkpt lat="36.9309464" lon="15.1219275"><ele>210.99999999999997</ele><time>2026-03-22T09:06:10.315Z</time></trkpt><trkpt lat="36.9310382" lon="15.1219463"><ele>211.0</ele><time>2026-03-22T09:06:13.358Z</time></trkpt><trkpt lat="36.9311017" lon="15.1219566"><ele>214.14285714285714</ele><time>2026-03-22T09:06:15.34Z</time></trkpt><trkpt lat="36.9311668" lon="15.1219695"><ele>217.28571428571428</ele><time>2026-03-22T09:06:18.352Z</time></trkpt><trkpt lat="36.9311908" lon="15.1218799"><ele>220.42857142857144</ele><time>2026-03-22T09:06:22.343Z</time></trkpt><trkpt lat="36.9312506" lon="15.1218496"><ele>223.57142857142856</ele><time>2026-03-22T09:06:39.328Z</time></trkpt><trkpt lat="36.9313147" lon="15.1218441"><ele>226.7142857142857</ele><time>2026-03-22T09:06:41.355Z</time></trkpt><trkpt lat="36.9313927" lon="15.1218523"><ele>229.85714285714286</ele><time>2026-03-22T09:06:44.341Z</time></trkpt><trkpt lat="36.9314651" lon="15.1218504"><ele>233.0</ele><time>2026-03-22T09:06:55.348Z</time></trkpt><trkpt lat="36.9315323" lon="15.1218444"><ele>233.0</ele><time>2026-03-22T09:06:58.351Z</time></trkpt><trkpt lat="36.9316001" lon="15.121815"><ele>233.0</ele><time>2026-03-22T09:07:01.357Z</time></trkpt><trkpt lat="36.9316568" lon="15.1217668"><ele>233.0</ele><time>2026-03-22T09:07:03.346Z</time></trkpt><trkpt lat="36.9317255" lon="15.121683"><ele>233.0</ele><time>2026-03-22T09:07:05.342Z</time></trkpt><trkpt lat="36.931796" lon="15.1216485"><ele>233.0</ele><time>2026-03-22T09:07:07.365Z</time></trkpt><trkpt lat="36.9318601" lon="15.1216387"><ele>233.0</ele><time>2026-03-22T09:07:09.354Z</time></trkpt><trkpt lat="36.9319184" lon="15.1215959"><ele>233.0</ele><time>2026-03-22T09:07:12.353Z</time></trkpt><trkpt lat="36.9319831" lon="15.1215286"><ele>234.83333333333334</ele><time>2026-03-22T09:07:15.35Z</time></trkpt><trkpt lat="36.9320375" lon="15.121488"><ele>236.66666666666669</ele><time>2026-03-22T09:07:17.356Z</time></trkpt><trkpt lat="36.9321197" lon="15.121449"><ele>238.5</ele><time>2026-03-22T09:07:19.354Z</time></trkpt><trkpt lat="36.9321981" lon="15.1214258"><ele>240.33333333333331</ele><time>2026-03-22T09:07:21.373Z</time></trkpt><trkpt lat="36.9322804" lon="15.1214485"><ele>242.16666666666666</ele><time>2026-03-22T09:07:24.351Z</time></trkpt><trkpt lat="36.9323561" lon="15.1214362"><ele>244.0</ele><time>2026-03-22T09:07:27.332Z</time></trkpt><trkpt lat="36.9324234" lon="15.1214303"><ele>243.99999999999997</ele><time>2026-03-22T09:07:31.352Z</time></trkpt><trkpt lat="36.932483" lon="15.121401"><ele>244.0</ele><time>2026-03-22T09:07:54.353Z</time></trkpt><trkpt lat="36.9325523" lon="15.1214082"><ele>243.99999999999997</ele><time>2026-03-22T09:08:24.357Z</time></trkpt><trkpt lat="36.9326206" lon="15.1214106"><ele>243.99999999999997</ele><time>2026-03-22T09:08:49.356Z</time></trkpt><trkpt lat="36.9326999" lon="15.1213848"><ele>244.0</ele><time>2026-03-22T09:08:53.349Z</time></trkpt><trkpt lat="36.9327634" lon="15.121393"><ele>243.99999999999997</ele><time>2026-03-22T09:08:56.345Z</time></trkpt><trkpt lat="36.9328403" lon="15.1214002"><ele>243.99999999999997</ele><time>2026-03-22T09:08:59.353Z</time></trkpt><trkpt lat="36.9329132" lon="15.1214361"><ele>249.71428571428567</ele><time>2026-03-22T09:09:02.362Z</time></trkpt><trkpt lat="36.9329823" lon="15.1214408"><ele>255.42857142857142</ele><time>2026-03-22T09:09:04.346Z</time></trkpt><trkpt lat="36.9330509" lon="15.1214434"><ele>261.1428571428571</ele><time>2026-03-22T09:09:06.361Z</time></trkpt><trkpt lat="36.9331213" lon="15.1214217"><ele>266.85714285714283</ele><time>2026-03-22T09:09:09.432Z</time></trkpt><trkpt lat="36.9331895" lon="15.1214029"><ele>272.57142857142856</ele><time>2026-03-22T09:09:12.351Z</time></trkpt><trkpt lat="36.9332527" lon="15.1213787"><ele>278.2857142857143</ele><time>2026-03-22T09:09:16.344Z</time></trkpt><trkpt lat="36.9333097" lon="15.1213098"><ele>284.0</ele><time>2026-03-22T09:09:47.342Z</time></trkpt><trkpt lat="36.9333749" lon="15.1212579"><ele>286.1428571428571</ele><time>2026-03-22T09:09:51.354Z</time></trkpt><trkpt lat="36.9334447" lon="15.1212068"><ele>288.2857142857143</ele><time>2026-03-22T09:09:54.339Z</time></trkpt><trkpt lat="36.9335088" lon="15.1211693"><ele>290.42857142857144</ele><time>2026-03-22T09:09:57.32Z</time></trkpt><trkpt lat="36.9335848" lon="15.1211275"><ele>292.57142857142856</ele><time>2026-03-22T09:10:00.357Z</time></trkpt><trkpt lat="36.933649" lon="15.1211334"><ele>294.7142857142857</ele><time>2026-03-22T09:10:03.369Z</time></trkpt><trkpt lat="36.9337041" lon="15.1210868"><ele>296.85714285714283</ele><time>2026-03-22T09:10:05.354Z</time></trkpt><trkpt lat="36.9337627" lon="15.1210513"><ele>299.0</ele><time>2026-03-22T09:10:07.34Z</time></trkpt><trkpt lat="36.9338113" lon="15.1209814"><ele>299.0</ele><time>2026-03-22T09:10:10.321Z</time></trkpt><trkpt lat="36.9338566" lon="15.120903"><ele>299.0</ele><time>2026-03-22T09:10:13.308Z</time></trkpt><trkpt lat="36.9339184" lon="15.1208526"><ele>299.0</ele><time>2026-03-22T09:10:15.337Z</time></trkpt><trkpt lat="36.933981" lon="15.1208006"><ele>299.0</ele><time>2026-03-22T09:10:17.359Z</time></trkpt><trkpt lat="36.9340335" lon="15.1207459"><ele>299.0</ele><time>2026-03-22T09:10:19.367Z</time></trkpt><trkpt lat="36.9340763" lon="15.1206625"><ele>299.0</ele><time>2026-03-22T09:10:21.346Z</time></trkpt><trkpt lat="36.9341328" lon="15.120584"><ele>299.83333333333337</ele><time>2026-03-22T09:10:23.356Z</time></trkpt><trkpt lat="36.9341803" lon="15.1204959"><ele>300.6666666666667</ele><time>2026-03-22T09:10:25.392Z</time></trkpt><trkpt lat="36.9342298" lon="15.1204117"><ele>301.5</ele><time>2026-03-22T09:10:28.369Z</time></trkpt><trkpt lat="36.9342813" lon="15.1203455"><ele>302.3333333333333</ele><time>2026-03-22T09:10:31.354Z</time></trkpt><trkpt lat="36.9343531" lon="15.1202971"><ele>303.16666666666663</ele><time>2026-03-22T09:10:33.378Z</time></trkpt><trkpt lat="36.934403" lon="15.1202282"><ele>304.0</ele><time>2026-03-22T09:10:35.362Z</time></trkpt><trkpt lat="36.9344751" lon="15.1201551"><ele>306.5</ele><time>2026-03-22T09:10:38.35Z</time></trkpt><trkpt lat="36.9345239" lon="15.1200885"><ele>309.0</ele><time>2026-03-22T09:10:40.353Z</time></trkpt><trkpt lat="36.9345794" lon="15.1200016"><ele>311.5</ele><time>2026-03-22T09:10:43.37Z</time></trkpt><trkpt lat="36.9346455" lon="15.1199287"><ele>314.0</ele><time>2026-03-22T09:10:46.339Z</time></trkpt><trkpt lat="36.9346895" lon="15.1198685"><ele>316.5</ele><time>2026-03-22T09:10:49.364Z</time></trkpt><trkpt lat="36.9347502" lon="15.1198007"><ele>319.0</ele><time>2026-03-22T09:10:52.352Z</time></trkpt><trkpt lat="36.9348035" lon="15.1197125"><ele>320.14285714285717</ele><time>2026-03-22T09:10:55.352Z</time></trkpt><trkpt lat="36.9348367" lon="15.1196338"><ele>321.2857142857143</ele><time>2026-03-22T09:10:58.346Z</time></trkpt><trkpt lat="36.9348613" lon="15.119554"><ele>322.42857142857144</ele><time>2026-03-22T09:11:01.349Z</time></trkpt><trkpt lat="36.9349194" lon="15.119513"><ele>323.57142857142856</ele><time>2026-03-22T09:11:03.351Z</time></trkpt><trkpt lat="36.9349767" lon="15.11945"><ele>324.7142857142857</ele><time>2026-03-22T09:11:05.352Z</time></trkpt><trkpt lat="36.9350222" lon="15.1193789"><ele>325.85714285714283</ele><time>2026-03-22T09:11:07.312Z</time></trkpt><trkpt lat="36.9350704" lon="15.1193148"><ele>327.0</ele><time>2026-03-22T09:11:10.347Z</time></trkpt><trkpt lat="36.9351193" lon="15.1192313"><ele>329.8333333333333</ele><time>2026-03-22T09:11:39.352Z</time></trkpt><trkpt lat="36.9351545" lon="15.1191415"><ele>332.6666666666667</ele><time>2026-03-22T09:11:42.345Z</time></trkpt><trkpt lat="36.9351975" lon="15.1190716"><ele>335.5</ele><time>2026-03-22T09:11:44.35Z</time></trkpt><trkpt lat="36.9352693" lon="15.1189914"><ele>338.33333333333337</ele><time>2026-03-22T09:11:47.314Z</time></trkpt><trkpt lat="36.9353233" lon="15.1189105"><ele>341.1666666666667</ele><time>2026-03-22T09:11:49.346Z</time></trkpt><trkpt lat="36.9353618" lon="15.118824"><ele>344.0</ele><time>2026-03-22T09:11:51.331Z</time></trkpt><trkpt lat="36.9354017" lon="15.1187147"><ele>346.0</ele><time>2026-03-22T09:11:53.362Z</time></trkpt><trkpt lat="36.9354437" lon="15.1186257"><ele>348.0</ele><time>2026-03-22T09:11:55.354Z</time></trkpt><trkpt lat="36.9354672" lon="15.1185192"><ele>350.0</ele><time>2026-03-22T09:11:57.332Z</time></trkpt><trkpt lat="36.9355279" lon="15.1184833"><ele>352.0</ele><time>2026-03-22T09:11:59.347Z</time></trkpt><trkpt lat="36.9356067" lon="15.1184315"><ele>354.0</ele><time>2026-03-22T09:12:02.352Z</time></trkpt><trkpt lat="36.9356767" lon="15.1183668"><ele>356.0</ele><time>2026-03-22T09:12:05.334Z</time></trkpt><trkpt lat="36.9357135" lon="15.1182827"><ele>355.83333333333337</ele><time>2026-03-22T09:12:07.355Z</time></trkpt><trkpt lat="36.9357451" lon="15.1181921"><ele>355.6666666666667</ele><time>2026-03-22T09:12:09.371Z</time></trkpt><trkpt lat="36.9357947" lon="15.1181183"><ele>355.5</ele><time>2026-03-22T09:12:13.347Z</time></trkpt><trkpt lat="36.9358578" lon="15.1180651"><ele>355.3333333333333</ele><time>2026-03-22T09:12:35.348Z</time></trkpt><trkpt lat="36.9359249" lon="15.1180062"><ele>355.16666666666663</ele><time>2026-03-22T09:12:39.355Z</time></trkpt><trkpt lat="36.9359864" lon="15.1179238"><ele>355.0</ele><time>2026-03-22T09:12:43.37Z</time></trkpt><trkpt lat="36.9360268" lon="15.1178606"><ele>359.0</ele><time>2026-03-22T09:12:45.353Z</time></trkpt><trkpt lat="36.9360521" lon="15.1177757"><ele>363.0</ele><time>2026-03-22T09:12:47.386Z</time></trkpt><trkpt lat="36.9360916" lon="15.1177007"><ele>367.0</ele><time>2026-03-22T09:12:49.363Z</time></trkpt><trkpt lat="36.9361444" lon="15.1176448"><ele>371.0</ele><time>2026-03-22T09:12:51.358Z</time></trkpt><trkpt lat="36.9362183" lon="15.1176719"><ele>375.0</ele><time>2026-03-22T09:12:55.348Z</time></trkpt><trkpt lat="36.9362008" lon="15.1177665"><ele>379.0</ele><time>2026-03-22T09:12:58.351Z</time></trkpt><trkpt lat="36.9362467" lon="15.1176963"><ele>383.0</ele><time>2026-03-22T09:13:06.345Z</time></trkpt><trkpt lat="36.9362722" lon="15.1176144"><ele>383.0</ele><time>2026-03-22T09:13:09.349Z</time></trkpt><trkpt lat="36.9362869" lon="15.1175295"><ele>383.0</ele><time>2026-03-22T09:13:13.361Z</time></trkpt><trkpt lat="36.9363398" lon="15.1174701"><ele>383.0</ele><time>2026-03-22T09:13:57.344Z</time></trkpt><trkpt lat="36.9363158" lon="15.1175656"><ele>383.0</ele><time>2026-03-22T09:16:45.357Z</time></trkpt><trkpt lat="36.9362605" lon="15.1176477"><ele>383.0</ele><time>2026-03-22T09:16:49.337Z</time></trkpt><trkpt lat="36.9362365" lon="15.1177401"><ele>383.0</ele><time>2026-03-22T09:16:53.344Z</time></trkpt><trkpt lat="36.936261" lon="15.1176672"><ele>383.0</ele><time>2026-03-22T09:17:01.335Z</time></trkpt><trkpt lat="36.9362897" lon="15.1175966"><ele>383.0</ele><time>2026-03-22T09:17:05.33Z</time></trkpt><trkpt lat="36.9362745" lon="15.1175188"><ele>383.0</ele><time>2026-03-22T09:17:45.348Z</time></trkpt><trkpt lat="36.9363372" lon="15.1174598"><ele>383.0</ele><time>2026-03-22T09:17:51.345Z</time></trkpt><trkpt lat="36.9362823" lon="15.1175174"><ele>383.0</ele><time>2026-03-22T09:19:54.334Z</time></trkpt><trkpt lat="36.9362751" lon="15.1176026"><ele>383.0</ele><time>2026-03-22T09:19:57.376Z</time></trkpt><trkpt lat="36.9362837" lon="15.1175229"><ele>383.0</ele><time>2026-03-22T09:20:12.377Z</time></trkpt><trkpt lat="36.9363381" lon="15.1174704"><ele>383.0</ele><time>2026-03-22T09:20:52.347Z</time></trkpt><trkpt lat="36.9364056" lon="15.1174508"><ele>383.0</ele><time>2026-03-22T09:21:00.354Z</time></trkpt><trkpt lat="36.9364772" lon="15.1174093"><ele>383.0</ele><time>2026-03-22T09:23:01.368Z</time></trkpt><trkpt lat="36.9365172" lon="15.1173337"><ele>383.0</ele><time>2026-03-22T09:23:05.347Z</time></trkpt><trkpt lat="36.93657" lon="15.1172634"><ele>383.0</ele><time>2026-03-22T09:23:07.327Z</time></trkpt><trkpt lat="36.9366581" lon="15.1172009"><ele>383.0</ele><time>2026-03-22T09:23:09.338Z</time></trkpt><trkpt lat="36.9367563" lon="15.1171388"><ele>383.0</ele><time>2026-03-22T09:23:11.362Z</time></trkpt><trkpt lat="36.9368676" lon="15.1170957"><ele>384.59999999999997</ele><time>2026-03-22T09:23:13.337Z</time></trkpt><trkpt lat="36.9369838" lon="15.117063"><ele>386.2</ele><time>2026-03-22T09:23:15.344Z</time></trkpt><trkpt lat="36.9370495" lon="15.1170495"><ele>387.8</ele><time>2026-03-22T09:23:16.359Z</time></trkpt><trkpt lat="36.9371156" lon="15.1170546"><ele>389.4</ele><time>2026-03-22T09:23:17.361Z</time></trkpt><trkpt lat="36.9372166" lon="15.117051"><ele>391.0</ele><time>2026-03-22T09:23:19.322Z</time></trkpt><trkpt lat="36.9373141" lon="15.1170129"><ele>391.0</ele><time>2026-03-22T09:23:21.338Z</time></trkpt><trkpt lat="36.9374009" lon="15.1169133"><ele>391.0</ele><time>2026-03-22T09:23:23.34Z</time></trkpt><trkpt lat="36.9374938" lon="15.1168277"><ele>391.0</ele><time>2026-03-22T09:23:25.352Z</time></trkpt><trkpt lat="36.9375887" lon="15.1167413"><ele>391.0</ele><time>2026-03-22T09:23:27.376Z</time></trkpt><trkpt lat="36.9376527" lon="15.1166651"><ele>391.0</ele><time>2026-03-22T09:23:29.365Z</time></trkpt><trkpt lat="36.9377073" lon="15.1165686"><ele>394.20000000000005</ele><time>2026-03-22T09:23:31.343Z</time></trkpt><trkpt lat="36.937771" lon="15.1164858"><ele>397.40000000000003</ele><time>2026-03-22T09:23:33.365Z</time></trkpt><trkpt lat="36.9378146" lon="15.1163878"><ele>400.6</ele><time>2026-03-22T09:23:35.33Z</time></trkpt><trkpt lat="36.9378723" lon="15.1162833"><ele>403.8</ele><time>2026-03-22T09:23:37.363Z</time></trkpt><trkpt lat="36.9379333" lon="15.1162035"><ele>407.0</ele><time>2026-03-22T09:23:39.342Z</time></trkpt><trkpt lat="36.937997" lon="15.1161244"><ele>407.0</ele><time>2026-03-22T09:23:41.349Z</time></trkpt><trkpt lat="36.938101" lon="15.1160294"><ele>407.0</ele><time>2026-03-22T09:23:43.368Z</time></trkpt><trkpt lat="36.9381542" lon="15.1159825"><ele>407.0</ele><time>2026-03-22T09:23:44.342Z</time></trkpt><trkpt lat="36.9382328" lon="15.1159028"><ele>407.0</ele><time>2026-03-22T09:23:46.365Z</time></trkpt><trkpt lat="36.9383078" lon="15.1158334"><ele>407.0</ele><time>2026-03-22T09:23:48.335Z</time></trkpt><trkpt lat="36.9383914" lon="15.1157632"><ele>408.3333333333333</ele><time>2026-03-22T09:23:50.354Z</time></trkpt><trkpt lat="36.9384685" lon="15.1157196"><ele>409.66666666666663</ele><time>2026-03-22T09:23:52.358Z</time></trkpt><trkpt lat="36.9385416" lon="15.1157003"><ele>411.0</ele><time>2026-03-22T09:23:54.358Z</time></trkpt><trkpt lat="36.9386127" lon="15.1156696"><ele>412.33333333333337</ele><time>2026-03-22T09:23:56.352Z</time></trkpt><trkpt lat="36.9386906" lon="15.1156204"><ele>413.6666666666667</ele><time>2026-03-22T09:23:59.334Z</time></trkpt><trkpt lat="36.9387825" lon="15.1155762"><ele>415.0</ele><time>2026-03-22T09:24:01.36Z</time></trkpt><trkpt lat="36.9388969" lon="15.1155203"><ele>415.0</ele><time>2026-03-22T09:24:03.352Z</time></trkpt><trkpt lat="36.93896" lon="15.1154828"><ele>415.0</ele><time>2026-03-22T09:24:04.35Z</time></trkpt><trkpt lat="36.939027" lon="15.1154485"><ele>415.0</ele><time>2026-03-22T09:24:05.344Z</time></trkpt><trkpt lat="36.9390936" lon="15.1154104"><ele>415.0</ele><time>2026-03-22T09:24:06.356Z</time></trkpt><trkpt lat="36.9391571" lon="15.1153662"><ele>415.0</ele><time>2026-03-22T09:24:07.366Z</time></trkpt><trkpt lat="36.939227" lon="15.1153224"><ele>415.0</ele><time>2026-03-22T09:24:08.343Z</time></trkpt><trkpt lat="36.9392913" lon="15.1152787"><ele>415.0</ele><time>2026-03-22T09:24:09.357Z</time></trkpt><trkpt lat="36.9393633" lon="15.1152379"><ele>416.1666666666667</ele><time>2026-03-22T09:24:10.371Z</time></trkpt><trkpt lat="36.9394344" lon="15.115192"><ele>417.33333333333337</ele><time>2026-03-22T09:24:11.362Z</time></trkpt><trkpt lat="36.9395066" lon="15.1151499"><ele>418.5</ele><time>2026-03-22T09:24:12.363Z</time></trkpt><trkpt lat="36.9395781" lon="15.1151077"><ele>419.66666666666663</ele><time>2026-03-22T09:24:13.368Z</time></trkpt><trkpt lat="36.939648" lon="15.1150629"><ele>420.8333333333333</ele><time>2026-03-22T09:24:14.371Z</time></trkpt><trkpt lat="36.9397172" lon="15.1150177"><ele>422.0</ele><time>2026-03-22T09:24:15.34Z</time></trkpt><trkpt lat="36.9397868" lon="15.1149747"><ele>421.99999999999994</ele><time>2026-03-22T09:24:16.345Z</time></trkpt><trkpt lat="36.9398539" lon="15.1149303"><ele>422.0</ele><time>2026-03-22T09:24:17.356Z</time></trkpt><trkpt lat="36.939918" lon="15.114893"><ele>422.0</ele><time>2026-03-22T09:24:18.359Z</time></trkpt><trkpt lat="36.9399864" lon="15.1148513"><ele>422.0</ele><time>2026-03-22T09:24:19.366Z</time></trkpt><trkpt lat="36.9400512" lon="15.11482"><ele>421.99999999999994</ele><time>2026-03-22T09:24:20.361Z</time></trkpt><trkpt lat="36.9401207" lon="15.114783"><ele>422.0</ele><time>2026-03-22T09:24:21.358Z</time></trkpt><trkpt lat="36.9401939" lon="15.1147356"><ele>423.99999999999994</ele><time>2026-03-22T09:24:22.361Z</time></trkpt><trkpt lat="36.9402682" lon="15.1146935"><ele>426.0</ele><time>2026-03-22T09:24:23.377Z</time></trkpt><trkpt lat="36.9403473" lon="15.1146443"><ele>428.0</ele><time>2026-03-22T09:24:24.372Z</time></trkpt><trkpt lat="36.9404238" lon="15.1145969"><ele>430.0</ele><time>2026-03-22T09:24:25.376Z</time></trkpt><trkpt lat="36.9405014" lon="15.1145483"><ele>431.99999999999994</ele><time>2026-03-22T09:24:26.366Z</time></trkpt><trkpt lat="36.9405769" lon="15.1144991"><ele>434.0</ele><time>2026-03-22T09:24:27.361Z</time></trkpt><trkpt lat="36.9406486" lon="15.1144502"><ele>433.99999999999994</ele><time>2026-03-22T09:24:28.368Z</time></trkpt><trkpt lat="36.9407225" lon="15.1144041"><ele>434.0</ele><time>2026-03-22T09:24:29.327Z</time></trkpt><trkpt lat="36.9407944" lon="15.1143558"><ele>434.0</ele><time>2026-03-22T09:24:30.338Z</time></trkpt><trkpt lat="36.9408568" lon="15.1143152"><ele>434.0</ele><time>2026-03-22T09:24:31.325Z</time></trkpt><trkpt lat="36.9409209" lon="15.1142737"><ele>433.99999999999994</ele><time>2026-03-22T09:24:32.353Z</time></trkpt><trkpt lat="36.940991" lon="15.1142213"><ele>434.0</ele><time>2026-03-22T09:24:33.339Z</time></trkpt><trkpt lat="36.9410697" lon="15.1141684"><ele>435.3333333333333</ele><time>2026-03-22T09:24:34.352Z</time></trkpt><trkpt lat="36.9411584" lon="15.1141099"><ele>436.66666666666663</ele><time>2026-03-22T09:24:35.36Z</time></trkpt><trkpt lat="36.9412464" lon="15.1140544"><ele>438.0</ele><time>2026-03-22T09:24:36.379Z</time></trkpt><trkpt lat="36.9413238" lon="15.1140192"><ele>439.33333333333337</ele><time>2026-03-22T09:24:37.355Z</time></trkpt><trkpt lat="36.9413888" lon="15.1139714"><ele>440.6666666666667</ele><time>2026-03-22T09:24:38.361Z</time></trkpt><trkpt lat="36.9414421" lon="15.113928"><ele>442.0</ele><time>2026-03-22T09:24:39.404Z</time></trkpt><trkpt lat="36.9415084" lon="15.1138764"><ele>442.00000000000006</ele><time>2026-03-22T09:24:40.365Z</time></trkpt><trkpt lat="36.9415781" lon="15.1138242"><ele>442.0</ele><time>2026-03-22T09:24:41.351Z</time></trkpt><trkpt lat="36.9416547" lon="15.1137673"><ele>442.0</ele><time>2026-03-22T09:24:42.327Z</time></trkpt><trkpt lat="36.9417359" lon="15.1137088"><ele>442.0</ele><time>2026-03-22T09:24:43.347Z</time></trkpt><trkpt lat="36.9418146" lon="15.1136478"><ele>442.00000000000006</ele><time>2026-03-22T09:24:44.371Z</time></trkpt><trkpt lat="36.9418842" lon="15.1135924"><ele>442.0</ele><time>2026-03-22T09:24:45.341Z</time></trkpt><trkpt lat="36.9419525" lon="15.1135435"><ele>442.0</ele><time>2026-03-22T09:24:46.364Z</time></trkpt><trkpt lat="36.9420185" lon="15.1134937"><ele>442.00000000000006</ele><time>2026-03-22T09:24:47.353Z</time></trkpt><trkpt lat="36.9420902" lon="15.1134374"><ele>442.00000000000006</ele><time>2026-03-22T09:24:48.367Z</time></trkpt><trkpt lat="36.9421736" lon="15.1133765"><ele>442.0</ele><time>2026-03-22T09:24:49.359Z</time></trkpt><trkpt lat="36.9422664" lon="15.1133181"><ele>442.0</ele><time>2026-03-22T09:24:50.367Z</time></trkpt><trkpt lat="36.942359" lon="15.1132623"><ele>442.8</ele><time>2026-03-22T09:24:51.324Z</time></trkpt><trkpt lat="36.9424526" lon="15.1132097"><ele>443.6</ele><time>2026-03-22T09:24:52.346Z</time></trkpt><trkpt lat="36.9425514" lon="15.1131585"><ele>444.40000000000003</ele><time>2026-03-22T09:24:53.343Z</time></trkpt><trkpt lat="36.9426449" lon="15.1131088"><ele>445.20000000000005</ele><time>2026-03-22T09:24:54.378Z</time></trkpt><trkpt lat="36.9427342" lon="15.1130565"><ele>446.0</ele><time>2026-03-22T09:24:55.381Z</time></trkpt><trkpt lat="36.9428345" lon="15.1130002"><ele>446.75</ele><time>2026-03-22T09:24:56.366Z</time></trkpt><trkpt lat="36.9429387" lon="15.1129447"><ele>447.5</ele><time>2026-03-22T09:24:57.374Z</time></trkpt><trkpt lat="36.9430485" lon="15.1128859"><ele>448.25</ele><time>2026-03-22T09:24:58.352Z</time></trkpt><trkpt lat="36.9431594" lon="15.1128256"><ele>449.0</ele><time>2026-03-22T09:24:59.386Z</time></trkpt><trkpt lat="36.9432836" lon="15.1127658"><ele>451.5</ele><time>2026-03-22T09:25:00.373Z</time></trkpt><trkpt lat="36.9434117" lon="15.1127015"><ele>454.0</ele><time>2026-03-22T09:25:01.372Z</time></trkpt><trkpt lat="36.9435417" lon="15.1126405"><ele>456.5</ele><time>2026-03-22T09:25:02.375Z</time></trkpt><trkpt lat="36.9436672" lon="15.1125729"><ele>459.0</ele><time>2026-03-22T09:25:03.385Z</time></trkpt><trkpt lat="36.9437886" lon="15.1125107"><ele>459.0</ele><time>2026-03-22T09:25:04.366Z</time></trkpt><trkpt lat="36.9439046" lon="15.1124478"><ele>459.0</ele><time>2026-03-22T09:25:05.364Z</time></trkpt><trkpt lat="36.9440214" lon="15.1123879"><ele>459.0</ele><time>2026-03-22T09:25:06.372Z</time></trkpt><trkpt lat="36.9441341" lon="15.1123309"><ele>459.0</ele><time>2026-03-22T09:25:07.358Z</time></trkpt><trkpt lat="36.9442405" lon="15.112279"><ele>461.0</ele><time>2026-03-22T09:25:08.316Z</time></trkpt><trkpt lat="36.9443513" lon="15.1122227"><ele>463.0</ele><time>2026-03-22T09:25:09.354Z</time></trkpt><trkpt lat="36.9444556" lon="15.1121699"><ele>465.0</ele><time>2026-03-22T09:25:10.371Z</time></trkpt><trkpt lat="36.9445629" lon="15.1121107"><ele>467.0</ele><time>2026-03-22T09:25:11.371Z</time></trkpt><trkpt lat="36.944669" lon="15.1120585"><ele>467.0</ele><time>2026-03-22T09:25:12.365Z</time></trkpt><trkpt lat="36.9447752" lon="15.112011"><ele>467.0</ele><time>2026-03-22T09:25:13.329Z</time></trkpt><trkpt lat="36.9448855" lon="15.1119609"><ele>467.0</ele><time>2026-03-22T09:25:14.359Z</time></trkpt><trkpt lat="36.9449854" lon="15.1119087"><ele>467.0</ele><time>2026-03-22T09:25:15.367Z</time></trkpt><trkpt lat="36.9450884" lon="15.1118509"><ele>468.25</ele><time>2026-03-22T09:25:16.338Z</time></trkpt><trkpt lat="36.9451944" lon="15.1117854"><ele>469.5</ele><time>2026-03-22T09:25:17.348Z</time></trkpt><trkpt lat="36.9452989" lon="15.1117096"><ele>470.75</ele><time>2026-03-22T09:25:18.359Z</time></trkpt><trkpt lat="36.9454026" lon="15.1116482"><ele>472.0</ele><time>2026-03-22T09:25:19.361Z</time></trkpt><trkpt lat="36.9455061" lon="15.1115626"><ele>472.5</ele><time>2026-03-22T09:25:20.369Z</time></trkpt><trkpt lat="36.9456112" lon="15.1114648"><ele>473.0</ele><time>2026-03-22T09:25:21.35Z</time></trkpt><trkpt lat="36.9457243" lon="15.1113658"><ele>473.5</ele><time>2026-03-22T09:25:22.345Z</time></trkpt><trkpt lat="36.9458393" lon="15.1112465"><ele>474.0</ele><time>2026-03-22T09:25:23.374Z</time></trkpt><trkpt lat="36.9459488" lon="15.1111131"><ele>474.0</ele><time>2026-03-22T09:25:24.355Z</time></trkpt><trkpt lat="36.9460368" lon="15.110974"><ele>474.0</ele><time>2026-03-22T09:25:25.368Z</time></trkpt><trkpt lat="36.9461188" lon="15.110837"><ele>474.0</ele><time>2026-03-22T09:25:26.332Z</time></trkpt><trkpt lat="36.9462006" lon="15.1106933"><ele>474.0</ele><time>2026-03-22T09:25:27.349Z</time></trkpt><trkpt lat="36.9462689" lon="15.1105506"><ele>475.0</ele><time>2026-03-22T09:25:28.363Z</time></trkpt><trkpt lat="36.9463415" lon="15.1104021"><ele>476.0</ele><time>2026-03-22T09:25:29.351Z</time></trkpt><trkpt lat="36.9464184" lon="15.11023"><ele>477.0</ele><time>2026-03-22T09:25:30.345Z</time></trkpt><trkpt lat="36.946489" lon="15.1100369"><ele>477.0</ele><time>2026-03-22T09:25:31.35Z</time></trkpt><trkpt lat="36.9465594" lon="15.1098319"><ele>477.0</ele><time>2026-03-22T09:25:32.365Z</time></trkpt><trkpt lat="36.9466386" lon="15.109633"><ele>477.0</ele><time>2026-03-22T09:25:33.368Z</time></trkpt><trkpt lat="36.9467233" lon="15.1094491"><ele>478.33333333333337</ele><time>2026-03-22T09:25:34.355Z</time></trkpt><trkpt lat="36.9468166" lon="15.1092736"><ele>479.6666666666667</ele><time>2026-03-22T09:25:35.359Z</time></trkpt><trkpt lat="36.9469075" lon="15.109113"><ele>481.0</ele><time>2026-03-22T09:25:36.376Z</time></trkpt><trkpt lat="36.947002" lon="15.1089671"><ele>481.25</ele><time>2026-03-22T09:25:37.346Z</time></trkpt><trkpt lat="36.9471029" lon="15.1088428"><ele>481.5</ele><time>2026-03-22T09:25:38.373Z</time></trkpt><trkpt lat="36.9472271" lon="15.1087702"><ele>481.75</ele><time>2026-03-22T09:25:39.353Z</time></trkpt><trkpt lat="36.9473498" lon="15.1087186"><ele>482.0</ele><time>2026-03-22T09:25:40.367Z</time></trkpt><trkpt lat="36.9475043" lon="15.1086718"><ele>482.3333333333333</ele><time>2026-03-22T09:25:41.368Z</time></trkpt><trkpt lat="36.9476665" lon="15.1086282"><ele>482.66666666666663</ele><time>2026-03-22T09:25:42.338Z</time></trkpt><trkpt lat="36.9478392" lon="15.1085655"><ele>483.0</ele><time>2026-03-22T09:25:43.371Z</time></trkpt><trkpt lat="36.9480137" lon="15.1084961"><ele>483.0</ele><time>2026-03-22T09:25:44.362Z</time></trkpt><trkpt lat="36.9481961" lon="15.1083939"><ele>483.0</ele><time>2026-03-22T09:25:45.356Z</time></trkpt><trkpt lat="36.9483728" lon="15.1082842"><ele>483.0</ele><time>2026-03-22T09:25:46.325Z</time></trkpt><trkpt lat="36.9485409" lon="15.1081664"><ele>482.33333333333337</ele><time>2026-03-22T09:25:47.331Z</time></trkpt><trkpt lat="36.9487047" lon="15.10805"><ele>481.6666666666667</ele><time>2026-03-22T09:25:48.353Z</time></trkpt><trkpt lat="36.9488569" lon="15.1079329"><ele>481.0</ele><time>2026-03-22T09:25:49.353Z</time></trkpt><trkpt lat="36.9490047" lon="15.107809"><ele>481.0</ele><time>2026-03-22T09:25:50.356Z</time></trkpt><trkpt lat="36.9491518" lon="15.1076797"><ele>481.0</ele><time>2026-03-22T09:25:51.345Z</time></trkpt><trkpt lat="36.9492846" lon="15.1075409"><ele>481.0</ele><time>2026-03-22T09:25:52.329Z</time></trkpt><trkpt lat="36.9494015" lon="15.1073828"><ele>478.0</ele><time>2026-03-22T09:25:53.339Z</time></trkpt><trkpt lat="36.9495194" lon="15.1071883"><ele>475.0</ele><time>2026-03-22T09:25:54.367Z</time></trkpt><trkpt lat="36.9496311" lon="15.1069956"><ele>472.0</ele><time>2026-03-22T09:25:55.365Z</time></trkpt><trkpt lat="36.94975" lon="15.1068051"><ele>472.0</ele><time>2026-03-22T09:25:56.365Z</time></trkpt><trkpt lat="36.9498704" lon="15.1066271"><ele>472.0</ele><time>2026-03-22T09:25:57.355Z</time></trkpt><trkpt lat="36.9499836" lon="15.1064665"><ele>472.0</ele><time>2026-03-22T09:25:58.37Z</time></trkpt><trkpt lat="36.9500826" lon="15.1063334"><ele>473.20000000000005</ele><time>2026-03-22T09:25:59.366Z</time></trkpt><trkpt lat="36.9501689" lon="15.1062157"><ele>474.40000000000003</ele><time>2026-03-22T09:26:00.374Z</time></trkpt><trkpt lat="36.9502352" lon="15.1061254"><ele>475.59999999999997</ele><time>2026-03-22T09:26:01.342Z</time></trkpt><trkpt lat="36.9502824" lon="15.106063"><ele>476.79999999999995</ele><time>2026-03-22T09:26:02.334Z</time></trkpt><trkpt lat="36.9503574" lon="15.1059107"><ele>478.0</ele><time>2026-03-22T09:26:04.375Z</time></trkpt><trkpt lat="36.9504068" lon="15.1057937"><ele>479.0</ele><time>2026-03-22T09:26:05.369Z</time></trkpt><trkpt lat="36.9504683" lon="15.105653"><ele>480.0</ele><time>2026-03-22T09:26:06.367Z</time></trkpt><trkpt lat="36.9505421" lon="15.1055035"><ele>481.0</ele><time>2026-03-22T09:26:07.354Z</time></trkpt><trkpt lat="36.9506404" lon="15.1053269"><ele>482.0</ele><time>2026-03-22T09:26:08.348Z</time></trkpt><trkpt lat="36.950744" lon="15.1051535"><ele>482.0</ele><time>2026-03-22T09:26:09.344Z</time></trkpt><trkpt lat="36.9508416" lon="15.1050007"><ele>482.0</ele><time>2026-03-22T09:26:10.352Z</time></trkpt><trkpt lat="36.9509164" lon="15.1048482"><ele>482.0</ele><time>2026-03-22T09:26:11.346Z</time></trkpt><trkpt lat="36.950985" lon="15.1046991"><ele>482.0</ele><time>2026-03-22T09:26:12.348Z</time></trkpt><trkpt lat="36.9510378" lon="15.1045588"><ele>484.0</ele><time>2026-03-22T09:26:13.369Z</time></trkpt><trkpt lat="36.9510858" lon="15.1044191"><ele>486.0</ele><time>2026-03-22T09:26:14.373Z</time></trkpt><trkpt lat="36.9511282" lon="15.104275"><ele>488.0</ele><time>2026-03-22T09:26:15.348Z</time></trkpt><trkpt lat="36.9511684" lon="15.1041392"><ele>490.0</ele><time>2026-03-22T09:26:16.356Z</time></trkpt><trkpt lat="36.9512207" lon="15.1039956"><ele>490.5</ele><time>2026-03-22T09:26:17.361Z</time></trkpt><trkpt lat="36.9512771" lon="15.1038516"><ele>491.0</ele><time>2026-03-22T09:26:18.359Z</time></trkpt><trkpt lat="36.9513428" lon="15.1037029"><ele>491.5</ele><time>2026-03-22T09:26:19.355Z</time></trkpt><trkpt lat="36.9514143" lon="15.1035554"><ele>492.0</ele><time>2026-03-22T09:26:20.36Z</time></trkpt><trkpt lat="36.951499" lon="15.1034056"><ele>492.0</ele><time>2026-03-22T09:26:21.344Z</time></trkpt><trkpt lat="36.9516048" lon="15.1032516"><ele>492.0</ele><time>2026-03-22T09:26:22.36Z</time></trkpt><trkpt lat="36.9517298" lon="15.1031033"><ele>492.0</ele><time>2026-03-22T09:26:23.368Z</time></trkpt><trkpt lat="36.9518635" lon="15.1029818"><ele>492.0</ele><time>2026-03-22T09:26:24.352Z</time></trkpt><trkpt lat="36.9519648" lon="15.1028759"><ele>492.0</ele><time>2026-03-22T09:26:25.353Z</time></trkpt><trkpt lat="36.9520352" lon="15.1027186"><ele>492.0</ele><time>2026-03-22T09:26:26.346Z</time></trkpt><trkpt lat="36.9520613" lon="15.1025316"><ele>492.0</ele><time>2026-03-22T09:26:27.361Z</time></trkpt><trkpt lat="36.952098" lon="15.1023369"><ele>492.0</ele><time>2026-03-22T09:26:28.359Z</time></trkpt><trkpt lat="36.9521531" lon="15.1021774"><ele>492.0</ele><time>2026-03-22T09:26:29.342Z</time></trkpt><trkpt lat="36.9522176" lon="15.1020289"><ele>492.0</ele><time>2026-03-22T09:26:30.358Z</time></trkpt><trkpt lat="36.9522882" lon="15.1019078"><ele>492.0</ele><time>2026-03-22T09:26:31.349Z</time></trkpt><trkpt lat="36.952375" lon="15.1017996"><ele>492.0</ele><time>2026-03-22T09:26:32.366Z</time></trkpt><trkpt lat="36.9524828" lon="15.1017037"><ele>492.0</ele><time>2026-03-22T09:26:33.358Z</time></trkpt><trkpt lat="36.9525857" lon="15.1016213"><ele>492.0</ele><time>2026-03-22T09:26:34.364Z</time></trkpt><trkpt lat="36.952685" lon="15.1015384"><ele>492.0</ele><time>2026-03-22T09:26:35.334Z</time></trkpt><trkpt lat="36.9527998" lon="15.1014598"><ele>491.75</ele><time>2026-03-22T09:26:36.36Z</time></trkpt><trkpt lat="36.9529187" lon="15.1013751"><ele>491.5</ele><time>2026-03-22T09:26:37.359Z</time></trkpt><trkpt lat="36.9530277" lon="15.1012923"><ele>491.25</ele><time>2026-03-22T09:26:38.36Z</time></trkpt><trkpt lat="36.9531432" lon="15.1012091"><ele>491.0</ele><time>2026-03-22T09:26:39.372Z</time></trkpt><trkpt lat="36.9532609" lon="15.1011292"><ele>491.20000000000005</ele><time>2026-03-22T09:26:40.354Z</time></trkpt><trkpt lat="36.9533814" lon="15.1010579"><ele>491.40000000000003</ele><time>2026-03-22T09:26:41.344Z</time></trkpt><trkpt lat="36.9534796" lon="15.1009905"><ele>491.6</ele><time>2026-03-22T09:26:42.32Z</time></trkpt><trkpt lat="36.9535337" lon="15.1009024"><ele>491.8</ele><time>2026-03-22T09:26:43.351Z</time></trkpt><trkpt lat="36.9535582" lon="15.1008005"><ele>492.0</ele><time>2026-03-22T09:26:44.333Z</time></trkpt><trkpt lat="36.9535766" lon="15.1007028"><ele>492.0</ele><time>2026-03-22T09:26:45.358Z</time></trkpt><trkpt lat="36.9536461" lon="15.100635"><ele>492.0</ele><time>2026-03-22T09:26:47.354Z</time></trkpt><trkpt lat="36.9537099" lon="15.1006545"><ele>492.0</ele><time>2026-03-22T09:26:48.377Z</time></trkpt><trkpt lat="36.9537791" lon="15.1006901"><ele>492.0</ele><time>2026-03-22T09:26:49.343Z</time></trkpt><trkpt lat="36.9538716" lon="15.1007292"><ele>492.0</ele><time>2026-03-22T09:26:50.339Z</time></trkpt><trkpt lat="36.9539551" lon="15.1007244"><ele>492.0</ele><time>2026-03-22T09:26:51.345Z</time></trkpt><trkpt lat="36.9540725" lon="15.1006727"><ele>492.0</ele><time>2026-03-22T09:26:52.355Z</time></trkpt><trkpt lat="36.9541956" lon="15.1006166"><ele>492.00000000000006</ele><time>2026-03-22T09:26:53.347Z</time></trkpt><trkpt lat="36.9542967" lon="15.1005905"><ele>492.00000000000006</ele><time>2026-03-22T09:26:54.323Z</time></trkpt><trkpt lat="36.9543752" lon="15.1006052"><ele>492.0</ele><time>2026-03-22T09:26:55.359Z</time></trkpt><trkpt lat="36.9544468" lon="15.1006596"><ele>492.0</ele><time>2026-03-22T09:26:56.355Z</time></trkpt><trkpt lat="36.9545276" lon="15.1007617"><ele>493.33333333333337</ele><time>2026-03-22T09:26:57.358Z</time></trkpt><trkpt lat="36.9546302" lon="15.1008979"><ele>494.6666666666667</ele><time>2026-03-22T09:26:58.355Z</time></trkpt><trkpt lat="36.9547634" lon="15.1010585"><ele>496.0</ele><time>2026-03-22T09:26:59.351Z</time></trkpt><trkpt lat="36.9549016" lon="15.1012203"><ele>495.33333333333337</ele><time>2026-03-22T09:27:00.35Z</time></trkpt><trkpt lat="36.9550499" lon="15.1013808"><ele>494.66666666666663</ele><time>2026-03-22T09:27:01.322Z</time></trkpt><trkpt lat="36.9551857" lon="15.1015461"><ele>494.0</ele><time>2026-03-22T09:27:02.336Z</time></trkpt><trkpt lat="36.9553156" lon="15.1016976"><ele>493.0</ele><time>2026-03-22T09:27:03.346Z</time></trkpt><trkpt lat="36.9554154" lon="15.1018109"><ele>492.0</ele><time>2026-03-22T09:27:04.335Z</time></trkpt><trkpt lat="36.9555052" lon="15.1018995"><ele>491.0</ele><time>2026-03-22T09:27:05.318Z</time></trkpt><trkpt lat="36.9555925" lon="15.1019899"><ele>490.0</ele><time>2026-03-22T09:27:06.337Z</time></trkpt><trkpt lat="36.9556595" lon="15.1020774"><ele>490.0</ele><time>2026-03-22T09:27:07.318Z</time></trkpt><trkpt lat="36.9557241" lon="15.1021528"><ele>490.0</ele><time>2026-03-22T09:27:08.361Z</time></trkpt><trkpt lat="36.9558302" lon="15.1021664"><ele>490.0</ele><time>2026-03-22T09:27:10.35Z</time></trkpt><trkpt lat="36.9559019" lon="15.1020414"><ele>490.0</ele><time>2026-03-22T09:27:12.36Z</time></trkpt><trkpt lat="36.9559581" lon="15.1019375"><ele>490.0</ele><time>2026-03-22T09:27:13.332Z</time></trkpt><trkpt lat="36.9560379" lon="15.1018115"><ele>489.6666666666667</ele><time>2026-03-22T09:27:14.337Z</time></trkpt><trkpt lat="36.9561306" lon="15.1016609"><ele>489.33333333333337</ele><time>2026-03-22T09:27:15.347Z</time></trkpt><trkpt lat="36.9562334" lon="15.1014944"><ele>489.0</ele><time>2026-03-22T09:27:16.345Z</time></trkpt><trkpt lat="36.9563373" lon="15.1013363"><ele>488.75</ele><time>2026-03-22T09:27:17.349Z</time></trkpt><trkpt lat="36.9564364" lon="15.1011979"><ele>488.5</ele><time>2026-03-22T09:27:18.375Z</time></trkpt><trkpt lat="36.9565328" lon="15.1010706"><ele>488.25</ele><time>2026-03-22T09:27:19.37Z</time></trkpt><trkpt lat="36.9566384" lon="15.1009326"><ele>488.0</ele><time>2026-03-22T09:27:20.347Z</time></trkpt><trkpt lat="36.956759" lon="15.1007767"><ele>488.25</ele><time>2026-03-22T09:27:21.349Z</time></trkpt><trkpt lat="36.9568676" lon="15.1006237"><ele>488.5</ele><time>2026-03-22T09:27:22.345Z</time></trkpt><trkpt lat="36.9569561" lon="15.1004827"><ele>488.75</ele><time>2026-03-22T09:27:23.362Z</time></trkpt><trkpt lat="36.9570335" lon="15.1003668"><ele>489.0</ele><time>2026-03-22T09:27:24.374Z</time></trkpt><trkpt lat="36.9570858" lon="15.1002704"><ele>489.0</ele><time>2026-03-22T09:27:25.352Z</time></trkpt><trkpt lat="36.9571286" lon="15.1002118"><ele>489.0</ele><time>2026-03-22T09:27:26.358Z</time></trkpt><trkpt lat="36.9572368" lon="15.1002497"><ele>489.0</ele><time>2026-03-22T09:27:28.343Z</time></trkpt><trkpt lat="36.9572946" lon="15.1003209"><ele>489.0</ele><time>2026-03-22T09:27:29.368Z</time></trkpt><trkpt lat="36.9573802" lon="15.10042"><ele>489.0</ele><time>2026-03-22T09:27:30.359Z</time></trkpt><trkpt lat="36.9574725" lon="15.1005301"><ele>487.5</ele><time>2026-03-22T09:27:31.353Z</time></trkpt><trkpt lat="36.9575559" lon="15.1006411"><ele>486.0</ele><time>2026-03-22T09:27:32.358Z</time></trkpt><trkpt lat="36.957635" lon="15.1007535"><ele>484.5</ele><time>2026-03-22T09:27:33.337Z</time></trkpt><trkpt lat="36.9577416" lon="15.1008487"><ele>483.0</ele><time>2026-03-22T09:27:34.348Z</time></trkpt><trkpt lat="36.9578561" lon="15.1009359"><ele>482.0</ele><time>2026-03-22T09:27:35.361Z</time></trkpt><trkpt lat="36.9579783" lon="15.1010181"><ele>481.0</ele><time>2026-03-22T09:27:36.341Z</time></trkpt><trkpt lat="36.9580988" lon="15.1010941"><ele>480.0</ele><time>2026-03-22T09:27:37.363Z</time></trkpt><trkpt lat="36.9582213" lon="15.1011688"><ele>479.0</ele><time>2026-03-22T09:27:38.34Z</time></trkpt><trkpt lat="36.9583355" lon="15.1012501"><ele>479.5</ele><time>2026-03-22T09:27:39.333Z</time></trkpt><trkpt lat="36.9584342" lon="15.1013441"><ele>480.0</ele><time>2026-03-22T09:27:40.348Z</time></trkpt><trkpt lat="36.9585242" lon="15.1014437"><ele>480.5</ele><time>2026-03-22T09:27:41.352Z</time></trkpt><trkpt lat="36.9586021" lon="15.1015605"><ele>481.0</ele><time>2026-03-22T09:27:42.337Z</time></trkpt><trkpt lat="36.9586872" lon="15.1016987"><ele>481.6666666666667</ele><time>2026-03-22T09:27:43.353Z</time></trkpt><trkpt lat="36.958784" lon="15.1018313"><ele>482.33333333333337</ele><time>2026-03-22T09:27:44.337Z</time></trkpt><trkpt lat="36.9589017" lon="15.1019739"><ele>483.0</ele><time>2026-03-22T09:27:45.363Z</time></trkpt><trkpt lat="36.9590084" lon="15.1021141"><ele>483.0</ele><time>2026-03-22T09:27:46.365Z</time></trkpt><trkpt lat="36.9591112" lon="15.1022372"><ele>483.0</ele><time>2026-03-22T09:27:47.356Z</time></trkpt><trkpt lat="36.9591949" lon="15.1023506"><ele>483.0</ele><time>2026-03-22T09:27:48.366Z</time></trkpt><trkpt lat="36.9592767" lon="15.1024682"><ele>483.0</ele><time>2026-03-22T09:27:49.354Z</time></trkpt><trkpt lat="36.9593568" lon="15.1025891"><ele>483.25</ele><time>2026-03-22T09:27:50.329Z</time></trkpt><trkpt lat="36.9594304" lon="15.1027106"><ele>483.5</ele><time>2026-03-22T09:27:51.359Z</time></trkpt><trkpt lat="36.9594938" lon="15.1028446"><ele>483.75</ele><time>2026-03-22T09:27:52.363Z</time></trkpt><trkpt lat="36.959559" lon="15.102959"><ele>484.0</ele><time>2026-03-22T09:27:53.368Z</time></trkpt><trkpt lat="36.9596277" lon="15.1030521"><ele>484.0</ele><time>2026-03-22T09:27:54.363Z</time></trkpt><trkpt lat="36.9596927" lon="15.1031443"><ele>484.0</ele><time>2026-03-22T09:27:55.356Z</time></trkpt><trkpt lat="36.9597659" lon="15.10325"><ele>484.0</ele><time>2026-03-22T09:27:56.339Z</time></trkpt><trkpt lat="36.9598478" lon="15.1033571"><ele>484.0</ele><time>2026-03-22T09:27:57.353Z</time></trkpt><trkpt lat="36.9599299" lon="15.1034775"><ele>482.75</ele><time>2026-03-22T09:27:58.327Z</time></trkpt><trkpt lat="36.9600129" lon="15.1035934"><ele>481.5</ele><time>2026-03-22T09:27:59.353Z</time></trkpt><trkpt lat="36.9600997" lon="15.1037014"><ele>480.25</ele><time>2026-03-22T09:28:00.328Z</time></trkpt><trkpt lat="36.9601864" lon="15.1038012"><ele>479.0</ele><time>2026-03-22T09:28:01.364Z</time></trkpt><trkpt lat="36.9602691" lon="15.1038966"><ele>478.5</ele><time>2026-03-22T09:28:02.331Z</time></trkpt><trkpt lat="36.9603437" lon="15.1040008"><ele>478.0</ele><time>2026-03-22T09:28:03.361Z</time></trkpt><trkpt lat="36.960405" lon="15.1041141"><ele>477.5</ele><time>2026-03-22T09:28:04.354Z</time></trkpt><trkpt lat="36.9604673" lon="15.1042372"><ele>477.0</ele><time>2026-03-22T09:28:05.336Z</time></trkpt><trkpt lat="36.9605285" lon="15.1043629"><ele>476.20000000000005</ele><time>2026-03-22T09:28:06.327Z</time></trkpt><trkpt lat="36.9605883" lon="15.104487"><ele>475.40000000000003</ele><time>2026-03-22T09:28:07.351Z</time></trkpt><trkpt lat="36.9606597" lon="15.1045971"><ele>474.59999999999997</ele><time>2026-03-22T09:28:08.343Z</time></trkpt><trkpt lat="36.9607312" lon="15.1046912"><ele>473.79999999999995</ele><time>2026-03-22T09:28:09.363Z</time></trkpt><trkpt lat="36.9608049" lon="15.1047819"><ele>473.0</ele><time>2026-03-22T09:28:10.362Z</time></trkpt><trkpt lat="36.960877" lon="15.1048748"><ele>471.2</ele><time>2026-03-22T09:28:11.352Z</time></trkpt><trkpt lat="36.9609503" lon="15.1049541"><ele>469.4</ele><time>2026-03-22T09:28:12.35Z</time></trkpt><trkpt lat="36.9610267" lon="15.1050342"><ele>467.59999999999997</ele><time>2026-03-22T09:28:13.367Z</time></trkpt><trkpt lat="36.9610947" lon="15.1051185"><ele>465.79999999999995</ele><time>2026-03-22T09:28:14.341Z</time></trkpt><trkpt lat="36.9611633" lon="15.1052037"><ele>464.0</ele><time>2026-03-22T09:28:15.359Z</time></trkpt><trkpt lat="36.9612286" lon="15.1052842"><ele>463.99999999999994</ele><time>2026-03-22T09:28:16.379Z</time></trkpt><trkpt lat="36.961283" lon="15.1053652"><ele>464.0</ele><time>2026-03-22T09:28:17.348Z</time></trkpt><trkpt lat="36.9613288" lon="15.1054497"><ele>464.0</ele><time>2026-03-22T09:28:18.354Z</time></trkpt><trkpt lat="36.9613589" lon="15.1055481"><ele>464.0</ele><time>2026-03-22T09:28:19.368Z</time></trkpt><trkpt lat="36.9613898" lon="15.1056421"><ele>463.99999999999994</ele><time>2026-03-22T09:28:20.354Z</time></trkpt><trkpt lat="36.9614199" lon="15.1057226"><ele>464.0</ele><time>2026-03-22T09:28:21.371Z</time></trkpt><trkpt lat="36.961434" lon="15.1058658"><ele>463.99999999999994</ele><time>2026-03-22T09:28:23.354Z</time></trkpt><trkpt lat="36.961423" lon="15.1059542"><ele>464.0</ele><time>2026-03-22T09:28:24.367Z</time></trkpt><trkpt lat="36.9614194" lon="15.1060495"><ele>464.0</ele><time>2026-03-22T09:28:25.361Z</time></trkpt><trkpt lat="36.9614296" lon="15.1061432"><ele>464.0</ele><time>2026-03-22T09:28:26.361Z</time></trkpt><trkpt lat="36.961443" lon="15.1062446"><ele>463.99999999999994</ele><time>2026-03-22T09:28:27.352Z</time></trkpt><trkpt lat="36.9614568" lon="15.1063428"><ele>464.0</ele><time>2026-03-22T09:28:28.359Z</time></trkpt><trkpt lat="36.9614787" lon="15.1064453"><ele>464.0</ele><time>2026-03-22T09:28:29.357Z</time></trkpt><trkpt lat="36.9615081" lon="15.1065529"><ele>464.0</ele><time>2026-03-22T09:28:30.357Z</time></trkpt><trkpt lat="36.961541" lon="15.1066623"><ele>464.0</ele><time>2026-03-22T09:28:31.353Z</time></trkpt><trkpt lat="36.9615744" lon="15.1067683"><ele>464.0</ele><time>2026-03-22T09:28:32.352Z</time></trkpt><trkpt lat="36.9616143" lon="15.1068848"><ele>464.0</ele><time>2026-03-22T09:28:33.351Z</time></trkpt><trkpt lat="36.9616492" lon="15.107013"><ele>465.0</ele><time>2026-03-22T09:28:34.35Z</time></trkpt><trkpt lat="36.9616905" lon="15.1071498"><ele>466.0</ele><time>2026-03-22T09:28:35.346Z</time></trkpt><trkpt lat="36.9617285" lon="15.1073036"><ele>467.0</ele><time>2026-03-22T09:28:36.353Z</time></trkpt><trkpt lat="36.9617523" lon="15.1074572"><ele>468.0</ele><time>2026-03-22T09:28:37.356Z</time></trkpt><trkpt lat="36.9617594" lon="15.1075962"><ele>470.0</ele><time>2026-03-22T09:28:38.352Z</time></trkpt><trkpt lat="36.9617676" lon="15.1077406"><ele>472.0</ele><time>2026-03-22T09:28:39.349Z</time></trkpt><trkpt lat="36.9617756" lon="15.1078882"><ele>474.0</ele><time>2026-03-22T09:28:40.356Z</time></trkpt><trkpt lat="36.9617901" lon="15.1080392"><ele>476.0</ele><time>2026-03-22T09:28:41.376Z</time></trkpt><trkpt lat="36.9618061" lon="15.1081915"><ele>476.75</ele><time>2026-03-22T09:28:42.339Z</time></trkpt><trkpt lat="36.9618231" lon="15.1083449"><ele>477.5</ele><time>2026-03-22T09:28:43.356Z</time></trkpt><trkpt lat="36.9618381" lon="15.108525"><ele>478.25</ele><time>2026-03-22T09:28:44.365Z</time></trkpt><trkpt lat="36.9618553" lon="15.1087322"><ele>479.0</ele><time>2026-03-22T09:28:45.364Z</time></trkpt><trkpt lat="36.9618753" lon="15.1089461"><ele>477.0</ele><time>2026-03-22T09:28:46.362Z</time></trkpt><trkpt lat="36.9619062" lon="15.1091326"><ele>475.0</ele><time>2026-03-22T09:28:47.342Z</time></trkpt><trkpt lat="36.9619225" lon="15.1092944"><ele>473.0</ele><time>2026-03-22T09:28:48.326Z</time></trkpt><trkpt lat="36.9619235" lon="15.1094352"><ele>471.0</ele><time>2026-03-22T09:28:49.37Z</time></trkpt><trkpt lat="36.9619149" lon="15.1095563"><ele>471.0</ele><time>2026-03-22T09:28:50.38Z</time></trkpt><trkpt lat="36.961897" lon="15.1096599"><ele>471.0</ele><time>2026-03-22T09:28:51.398Z</time></trkpt><trkpt lat="36.9618803" lon="15.1097849"><ele>471.0</ele><time>2026-03-22T09:28:53.356Z</time></trkpt><trkpt lat="36.9619271" lon="15.1098459"><ele>471.0</ele><time>2026-03-22T09:28:55.334Z</time></trkpt><trkpt lat="36.9620647" lon="15.1098615"><ele>471.0</ele><time>2026-03-22T09:28:57.337Z</time></trkpt><trkpt lat="36.9621989" lon="15.1098647"><ele>471.0</ele><time>2026-03-22T09:28:58.356Z</time></trkpt><trkpt lat="36.9623636" lon="15.1098624"><ele>471.0</ele><time>2026-03-22T09:28:59.359Z</time></trkpt><trkpt lat="36.9625559" lon="15.1098726"><ele>471.0</ele><time>2026-03-22T09:29:00.356Z</time></trkpt><trkpt lat="36.9627646" lon="15.1098891"><ele>471.0</ele><time>2026-03-22T09:29:01.355Z</time></trkpt><trkpt lat="36.9629436" lon="15.1098907"><ele>471.0</ele><time>2026-03-22T09:29:02.355Z</time></trkpt><trkpt lat="36.9630878" lon="15.1099045"><ele>471.0</ele><time>2026-03-22T09:29:03.35Z</time></trkpt><trkpt lat="36.9631916" lon="15.1099306"><ele>471.0</ele><time>2026-03-22T09:29:04.351Z</time></trkpt><trkpt lat="36.9632622" lon="15.1099331"><ele>471.20000000000005</ele><time>2026-03-22T09:29:05.361Z</time></trkpt><trkpt lat="36.9633449" lon="15.10989"><ele>471.40000000000003</ele><time>2026-03-22T09:29:07.352Z</time></trkpt><trkpt lat="36.963336" lon="15.1097136"><ele>471.6</ele><time>2026-03-22T09:29:09.361Z</time></trkpt><trkpt lat="36.9633095" lon="15.1096012"><ele>471.8</ele><time>2026-03-22T09:29:10.352Z</time></trkpt><trkpt lat="36.9633034" lon="15.1094909"><ele>472.0</ele><time>2026-03-22T09:29:11.356Z</time></trkpt><trkpt lat="36.9633077" lon="15.1093902"><ele>472.0</ele><time>2026-03-22T09:29:12.344Z</time></trkpt><trkpt lat="36.9633193" lon="15.1092791"><ele>472.0</ele><time>2026-03-22T09:29:13.353Z</time></trkpt><trkpt lat="36.9633574" lon="15.1091477"><ele>472.0</ele><time>2026-03-22T09:29:14.35Z</time></trkpt><trkpt lat="36.9634217" lon="15.1090117"><ele>472.0</ele><time>2026-03-22T09:29:15.361Z</time></trkpt><trkpt lat="36.963484" lon="15.1088717"><ele>473.5</ele><time>2026-03-22T09:29:16.323Z</time></trkpt><trkpt lat="36.963535" lon="15.1087281"><ele>475.0</ele><time>2026-03-22T09:29:17.37Z</time></trkpt><trkpt lat="36.963581" lon="15.1085822"><ele>476.5</ele><time>2026-03-22T09:29:18.352Z</time></trkpt><trkpt lat="36.9636255" lon="15.1084389"><ele>478.0</ele><time>2026-03-22T09:29:19.367Z</time></trkpt><trkpt lat="36.963656" lon="15.108281"><ele>477.33333333333337</ele><time>2026-03-22T09:29:20.331Z</time></trkpt><trkpt lat="36.963691" lon="15.108077"><ele>476.66666666666663</ele><time>2026-03-22T09:29:21.388Z</time></trkpt><trkpt lat="36.9637333" lon="15.1078595"><ele>476.0</ele><time>2026-03-22T09:29:22.325Z</time></trkpt><trkpt lat="36.9637974" lon="15.1076245"><ele>476.5</ele><time>2026-03-22T09:29:23.372Z</time></trkpt><trkpt lat="36.9638733" lon="15.1073627"><ele>477.0</ele><time>2026-03-22T09:29:24.366Z</time></trkpt><trkpt lat="36.963975" lon="15.1070953"><ele>477.0</ele><time>2026-03-22T09:29:25.365Z</time></trkpt><trkpt lat="36.9640825" lon="15.1068291"><ele>477.0</ele><time>2026-03-22T09:29:26.413Z</time></trkpt><trkpt lat="36.9641692" lon="15.1065792"><ele>480.33333333333337</ele><time>2026-03-22T09:29:27.374Z</time></trkpt><trkpt lat="36.9642209" lon="15.1063481"><ele>483.6666666666667</ele><time>2026-03-22T09:29:28.365Z</time></trkpt><trkpt lat="36.9642655" lon="15.1061239"><ele>487.0</ele><time>2026-03-22T09:29:29.351Z</time></trkpt><trkpt lat="36.9643095" lon="15.1059107"><ele>488.0</ele><time>2026-03-22T09:29:30.349Z</time></trkpt><trkpt lat="36.9643577" lon="15.1057003"><ele>489.0</ele><time>2026-03-22T09:29:31.358Z</time></trkpt><trkpt lat="36.9644051" lon="15.1054932"><ele>490.0</ele><time>2026-03-22T09:29:32.347Z</time></trkpt><trkpt lat="36.9644348" lon="15.1052891"><ele>490.0</ele><time>2026-03-22T09:29:33.349Z</time></trkpt><trkpt lat="36.9644422" lon="15.10509"><ele>490.0</ele><time>2026-03-22T09:29:34.344Z</time></trkpt><trkpt lat="36.9644253" lon="15.1048747"><ele>490.0</ele><time>2026-03-22T09:29:35.357Z</time></trkpt><trkpt lat="36.9644098" lon="15.1046748"><ele>490.25</ele><time>2026-03-22T09:29:36.372Z</time></trkpt><trkpt lat="36.964395" lon="15.1044931"><ele>490.5</ele><time>2026-03-22T09:29:37.362Z</time></trkpt><trkpt lat="36.9643973" lon="15.1043473"><ele>490.75</ele><time>2026-03-22T09:29:38.353Z</time></trkpt><trkpt lat="36.9644258" lon="15.1041973"><ele>491.0</ele><time>2026-03-22T09:29:39.362Z</time></trkpt><trkpt lat="36.964472" lon="15.1040287"><ele>491.66666666666663</ele><time>2026-03-22T09:29:40.36Z</time></trkpt><trkpt lat="36.9645056" lon="15.1038414"><ele>492.33333333333337</ele><time>2026-03-22T09:29:41.353Z</time></trkpt><trkpt lat="36.9645291" lon="15.1036345"><ele>493.0</ele><time>2026-03-22T09:29:42.333Z</time></trkpt><trkpt lat="36.9645457" lon="15.1034097"><ele>493.5</ele><time>2026-03-22T09:29:43.35Z</time></trkpt><trkpt lat="36.9645502" lon="15.1032298"><ele>494.0</ele><time>2026-03-22T09:29:44.375Z</time></trkpt><trkpt lat="36.9645703" lon="15.1031074"><ele>494.5</ele><time>2026-03-22T09:29:45.36Z</time></trkpt><trkpt lat="36.9645976" lon="15.1029847"><ele>495.0</ele><time>2026-03-22T09:29:46.367Z</time></trkpt><trkpt lat="36.9646493" lon="15.102871"><ele>495.0</ele><time>2026-03-22T09:29:47.364Z</time></trkpt><trkpt lat="36.964719" lon="15.1027533"><ele>495.0</ele><time>2026-03-22T09:29:48.377Z</time></trkpt><trkpt lat="36.9647863" lon="15.1026401"><ele>495.0</ele><time>2026-03-22T09:29:49.35Z</time></trkpt><trkpt lat="36.9648461" lon="15.1025333"><ele>495.0</ele><time>2026-03-22T09:29:50.353Z</time></trkpt><trkpt lat="36.9649037" lon="15.1024277"><ele>495.0</ele><time>2026-03-22T09:29:51.362Z</time></trkpt><trkpt lat="36.9649649" lon="15.1023376"><ele>495.1666666666667</ele><time>2026-03-22T09:29:52.369Z</time></trkpt><trkpt lat="36.9650164" lon="15.102268"><ele>495.33333333333337</ele><time>2026-03-22T09:29:53.346Z</time></trkpt><trkpt lat="36.965062" lon="15.1021987"><ele>495.5</ele><time>2026-03-22T09:29:54.349Z</time></trkpt><trkpt lat="36.9651136" lon="15.1021215"><ele>495.6666666666667</ele><time>2026-03-22T09:29:55.326Z</time></trkpt><trkpt lat="36.9651629" lon="15.1020335"><ele>495.83333333333337</ele><time>2026-03-22T09:29:56.343Z</time></trkpt><trkpt lat="36.9652241" lon="15.101946"><ele>496.0</ele><time>2026-03-22T09:29:57.356Z</time></trkpt><trkpt lat="36.9653022" lon="15.101847"><ele>497.75</ele><time>2026-03-22T09:29:58.35Z</time></trkpt><trkpt lat="36.9653944" lon="15.1017383"><ele>499.5</ele><time>2026-03-22T09:29:59.347Z</time></trkpt><trkpt lat="36.9654864" lon="15.1016143"><ele>501.25</ele><time>2026-03-22T09:30:00.336Z</time></trkpt><trkpt lat="36.9655907" lon="15.1014955"><ele>503.0</ele><time>2026-03-22T09:30:01.367Z</time></trkpt><trkpt lat="36.965702" lon="15.1013834"><ele>503.0</ele><time>2026-03-22T09:30:02.361Z</time></trkpt><trkpt lat="36.9658301" lon="15.1012615"><ele>503.0</ele><time>2026-03-22T09:30:03.354Z</time></trkpt><trkpt lat="36.9659547" lon="15.1011278"><ele>503.0</ele><time>2026-03-22T09:30:04.349Z</time></trkpt><trkpt lat="36.9660615" lon="15.1009968"><ele>503.25</ele><time>2026-03-22T09:30:05.373Z</time></trkpt><trkpt lat="36.9661478" lon="15.1008704"><ele>503.5</ele><time>2026-03-22T09:30:06.345Z</time></trkpt><trkpt lat="36.9662226" lon="15.1007067"><ele>503.75</ele><time>2026-03-22T09:30:07.352Z</time></trkpt><trkpt lat="36.9662921" lon="15.1005216"><ele>504.0</ele><time>2026-03-22T09:30:08.349Z</time></trkpt><trkpt lat="36.9663683" lon="15.1003238"><ele>503.25</ele><time>2026-03-22T09:30:09.352Z</time></trkpt><trkpt lat="36.9664329" lon="15.1001455"><ele>502.5</ele><time>2026-03-22T09:30:10.361Z</time></trkpt><trkpt lat="36.9664739" lon="15.0999753"><ele>501.75</ele><time>2026-03-22T09:30:11.357Z</time></trkpt><trkpt lat="36.9665053" lon="15.0998085"><ele>501.0</ele><time>2026-03-22T09:30:12.344Z</time></trkpt><trkpt lat="36.9665363" lon="15.0996382"><ele>499.5</ele><time>2026-03-22T09:30:13.331Z</time></trkpt><trkpt lat="36.9665618" lon="15.0994639"><ele>498.0</ele><time>2026-03-22T09:30:14.346Z</time></trkpt><trkpt lat="36.9665871" lon="15.0992956"><ele>496.5</ele><time>2026-03-22T09:30:15.352Z</time></trkpt><trkpt lat="36.9666125" lon="15.0991253"><ele>495.0</ele><time>2026-03-22T09:30:16.369Z</time></trkpt><trkpt lat="36.9666376" lon="15.0989616"><ele>494.5</ele><time>2026-03-22T09:30:17.348Z</time></trkpt><trkpt lat="36.9666619" lon="15.0987955"><ele>494.0</ele><time>2026-03-22T09:30:18.35Z</time></trkpt><trkpt lat="36.9666897" lon="15.0986197"><ele>493.5</ele><time>2026-03-22T09:30:19.353Z</time></trkpt><trkpt lat="36.9667177" lon="15.0984394"><ele>493.0</ele><time>2026-03-22T09:30:20.358Z</time></trkpt><trkpt lat="36.9667507" lon="15.0982443"><ele>483.6666666666667</ele><time>2026-03-22T09:30:21.357Z</time></trkpt><trkpt lat="36.9667823" lon="15.0980376"><ele>474.33333333333337</ele><time>2026-03-22T09:30:22.347Z</time></trkpt><trkpt lat="36.9667943" lon="15.0978416"><ele>465.0</ele><time>2026-03-22T09:30:23.368Z</time></trkpt><trkpt lat="36.9668047" lon="15.0976744"><ele>465.0</ele><time>2026-03-22T09:30:24.313Z</time></trkpt><trkpt lat="36.966812" lon="15.0975165"><ele>465.0</ele><time>2026-03-22T09:30:25.366Z</time></trkpt><trkpt lat="36.9668176" lon="15.0973568"><ele>465.0</ele><time>2026-03-22T09:30:26.367Z</time></trkpt><trkpt lat="36.9668286" lon="15.0971945"><ele>465.0</ele><time>2026-03-22T09:30:27.364Z</time></trkpt><trkpt lat="36.9668366" lon="15.0970142"><ele>462.75</ele><time>2026-03-22T09:30:28.329Z</time></trkpt><trkpt lat="36.9668389" lon="15.0968383"><ele>460.5</ele><time>2026-03-22T09:30:29.355Z</time></trkpt><trkpt lat="36.9668467" lon="15.0966725"><ele>458.25</ele><time>2026-03-22T09:30:30.355Z</time></trkpt><trkpt lat="36.9668535" lon="15.0965063"><ele>456.0</ele><time>2026-03-22T09:30:31.353Z</time></trkpt><trkpt lat="36.966857" lon="15.0963527"><ele>456.0</ele><time>2026-03-22T09:30:32.365Z</time></trkpt><trkpt lat="36.9668563" lon="15.0962097"><ele>456.0</ele><time>2026-03-22T09:30:33.349Z</time></trkpt><trkpt lat="36.9668641" lon="15.0960761"><ele>456.0</ele><time>2026-03-22T09:30:34.325Z</time></trkpt><trkpt lat="36.9668959" lon="15.0959633"><ele>456.0</ele><time>2026-03-22T09:30:35.353Z</time></trkpt><trkpt lat="36.9669381" lon="15.0958561"><ele>456.0</ele><time>2026-03-22T09:30:36.365Z</time></trkpt><trkpt lat="36.9669833" lon="15.0957507"><ele>461.4</ele><time>2026-03-22T09:30:37.377Z</time></trkpt><trkpt lat="36.9670382" lon="15.0956456"><ele>466.8</ele><time>2026-03-22T09:30:38.361Z</time></trkpt><trkpt lat="36.9670957" lon="15.095531"><ele>472.19999999999993</ele><time>2026-03-22T09:30:39.356Z</time></trkpt><trkpt lat="36.967156" lon="15.0954235"><ele>477.59999999999997</ele><time>2026-03-22T09:30:40.35Z</time></trkpt><trkpt lat="36.9672112" lon="15.0953192"><ele>483.0</ele><time>2026-03-22T09:30:41.352Z</time></trkpt><trkpt lat="36.967257" lon="15.0952248"><ele>483.0</ele><time>2026-03-22T09:30:42.331Z</time></trkpt><trkpt lat="36.9672854" lon="15.0951487"><ele>483.0</ele><time>2026-03-22T09:30:43.344Z</time></trkpt><trkpt lat="36.9673355" lon="15.0950043"><ele>483.0</ele><time>2026-03-22T09:30:45.35Z</time></trkpt><trkpt lat="36.9673425" lon="15.0948775"><ele>483.0</ele><time>2026-03-22T09:30:47.363Z</time></trkpt><trkpt lat="36.9672907" lon="15.0948006"><ele>483.0</ele><time>2026-03-22T09:30:49.335Z</time></trkpt><trkpt lat="36.9672249" lon="15.0947735"><ele>483.0</ele><time>2026-03-22T09:30:54.336Z</time></trkpt><trkpt lat="36.9671563" lon="15.0947284"><ele>486.59999999999997</ele><time>2026-03-22T09:31:02.361Z</time></trkpt><trkpt lat="36.9670461" lon="15.0947075"><ele>490.19999999999993</ele><time>2026-03-22T09:31:05.363Z</time></trkpt><trkpt lat="36.9669229" lon="15.0946761"><ele>493.8</ele><time>2026-03-22T09:31:07.364Z</time></trkpt><trkpt lat="36.9668477" lon="15.0946655"><ele>497.4</ele><time>2026-03-22T09:31:08.359Z</time></trkpt><trkpt lat="36.9667686" lon="15.0946417"><ele>501.0</ele><time>2026-03-22T09:31:09.365Z</time></trkpt><trkpt lat="36.9666792" lon="15.0946236"><ele>501.4</ele><time>2026-03-22T09:31:10.37Z</time></trkpt><trkpt lat="36.9665813" lon="15.0946016"><ele>501.8</ele><time>2026-03-22T09:31:11.358Z</time></trkpt><trkpt lat="36.9664729" lon="15.0945692"><ele>502.19999999999993</ele><time>2026-03-22T09:31:12.351Z</time></trkpt><trkpt lat="36.9663715" lon="15.0945262"><ele>502.59999999999997</ele><time>2026-03-22T09:31:13.366Z</time></trkpt><trkpt lat="36.9662578" lon="15.0944864"><ele>503.0</ele><time>2026-03-22T09:31:14.335Z</time></trkpt><trkpt lat="36.9661189" lon="15.0944173"><ele>503.0</ele><time>2026-03-22T09:31:15.357Z</time></trkpt><trkpt lat="36.9659738" lon="15.0943693"><ele>503.0</ele><time>2026-03-22T09:31:16.359Z</time></trkpt><trkpt lat="36.9658309" lon="15.094336"><ele>503.0</ele><time>2026-03-22T09:31:17.333Z</time></trkpt><trkpt lat="36.9656897" lon="15.0943041"><ele>503.0</ele><time>2026-03-22T09:31:18.369Z</time></trkpt><trkpt lat="36.9655441" lon="15.0942672"><ele>501.25</ele><time>2026-03-22T09:31:19.368Z</time></trkpt><trkpt lat="36.9654075" lon="15.0942186"><ele>499.5</ele><time>2026-03-22T09:31:20.362Z</time></trkpt><trkpt lat="36.9652688" lon="15.0941633"><ele>497.75</ele><time>2026-03-22T09:31:21.362Z</time></trkpt><trkpt lat="36.9651216" lon="15.094106"><ele>496.0</ele><time>2026-03-22T09:31:22.364Z</time></trkpt><trkpt lat="36.9649721" lon="15.0940521"><ele>494.25</ele><time>2026-03-22T09:31:23.375Z</time></trkpt><trkpt lat="36.9648325" lon="15.0939933"><ele>492.5</ele><time>2026-03-22T09:31:24.368Z</time></trkpt><trkpt lat="36.964699" lon="15.0939575"><ele>490.75</ele><time>2026-03-22T09:31:25.367Z</time></trkpt><trkpt lat="36.9645643" lon="15.0939569"><ele>489.0</ele><time>2026-03-22T09:31:26.365Z</time></trkpt><trkpt lat="36.9644383" lon="15.0940001"><ele>489.0</ele><time>2026-03-22T09:31:27.37Z</time></trkpt><trkpt lat="36.9643118" lon="15.0940436"><ele>489.0</ele><time>2026-03-22T09:31:28.358Z</time></trkpt><trkpt lat="36.9641914" lon="15.0940543"><ele>489.0</ele><time>2026-03-22T09:31:29.369Z</time></trkpt><trkpt lat="36.964087" lon="15.0939992"><ele>489.0</ele><time>2026-03-22T09:31:30.356Z</time></trkpt><trkpt lat="36.9640052" lon="15.0939146"><ele>490.0</ele><time>2026-03-22T09:31:31.359Z</time></trkpt><trkpt lat="36.9639294" lon="15.0937893"><ele>491.0</ele><time>2026-03-22T09:31:32.326Z</time></trkpt><trkpt lat="36.9638645" lon="15.0936552"><ele>492.0</ele><time>2026-03-22T09:31:33.362Z</time></trkpt><trkpt lat="36.9638281" lon="15.093526"><ele>493.0</ele><time>2026-03-22T09:31:34.362Z</time></trkpt><trkpt lat="36.9638184" lon="15.0934237"><ele>494.0</ele><time>2026-03-22T09:31:35.353Z</time></trkpt><trkpt lat="36.9638272" lon="15.0933202"><ele>494.5</ele><time>2026-03-22T09:31:36.356Z</time></trkpt><trkpt lat="36.9638344" lon="15.0932137"><ele>495.0</ele><time>2026-03-22T09:31:37.367Z</time></trkpt><trkpt lat="36.9638704" lon="15.0930967"><ele>495.5</ele><time>2026-03-22T09:31:38.342Z</time></trkpt><trkpt lat="36.9639431" lon="15.092958"><ele>496.0</ele><time>2026-03-22T09:31:39.332Z</time></trkpt><trkpt lat="36.9640331" lon="15.0927973"><ele>496.0</ele><time>2026-03-22T09:31:40.362Z</time></trkpt><trkpt lat="36.9641124" lon="15.0926336"><ele>496.0</ele><time>2026-03-22T09:31:41.365Z</time></trkpt><trkpt lat="36.9641857" lon="15.092467"><ele>496.0</ele><time>2026-03-22T09:31:42.363Z</time></trkpt><trkpt lat="36.9642446" lon="15.0923003"><ele>496.33333333333337</ele><time>2026-03-22T09:31:43.356Z</time></trkpt><trkpt lat="36.9642918" lon="15.0921244"><ele>496.66666666666663</ele><time>2026-03-22T09:31:44.338Z</time></trkpt><trkpt lat="36.9643049" lon="15.0919213"><ele>497.0</ele><time>2026-03-22T09:31:45.36Z</time></trkpt><trkpt lat="36.9643333" lon="15.0917212"><ele>498.3333333333333</ele><time>2026-03-22T09:31:46.335Z</time></trkpt><trkpt lat="36.9643808" lon="15.0915235"><ele>499.66666666666663</ele><time>2026-03-22T09:31:47.372Z</time></trkpt><trkpt lat="36.9644504" lon="15.0913473"><ele>501.0</ele><time>2026-03-22T09:31:48.334Z</time></trkpt><trkpt lat="36.9645233" lon="15.0911741"><ele>501.0</ele><time>2026-03-22T09:31:49.348Z</time></trkpt><trkpt lat="36.9646055" lon="15.0910174"><ele>501.0</ele><time>2026-03-22T09:31:50.36Z</time></trkpt><trkpt lat="36.9646789" lon="15.090868"><ele>501.0</ele><time>2026-03-22T09:31:51.361Z</time></trkpt><trkpt lat="36.9647554" lon="15.0907238"><ele>501.0</ele><time>2026-03-22T09:31:52.334Z</time></trkpt><trkpt lat="36.9648226" lon="15.0905796"><ele>501.5</ele><time>2026-03-22T09:31:53.372Z</time></trkpt><trkpt lat="36.964892" lon="15.0904476"><ele>502.0</ele><time>2026-03-22T09:31:54.345Z</time></trkpt><trkpt lat="36.9649596" lon="15.0903106"><ele>502.5</ele><time>2026-03-22T09:31:55.366Z</time></trkpt><trkpt lat="36.9650221" lon="15.0901514"><ele>503.0</ele><time>2026-03-22T09:31:56.345Z</time></trkpt><trkpt lat="36.9650557" lon="15.0899682"><ele>502.0</ele><time>2026-03-22T09:31:57.359Z</time></trkpt><trkpt lat="36.9650637" lon="15.0897559"><ele>501.0</ele><time>2026-03-22T09:31:58.372Z</time></trkpt><trkpt lat="36.9650636" lon="15.0895358"><ele>500.0</ele><time>2026-03-22T09:31:59.366Z</time></trkpt><trkpt lat="36.9650612" lon="15.0893318"><ele>500.0</ele><time>2026-03-22T09:32:00.362Z</time></trkpt><trkpt lat="36.9650632" lon="15.089132"><ele>500.0</ele><time>2026-03-22T09:32:01.353Z</time></trkpt><trkpt lat="36.9650674" lon="15.0889289"><ele>500.0</ele><time>2026-03-22T09:32:02.343Z</time></trkpt><trkpt lat="36.9650735" lon="15.0887293"><ele>500.0</ele><time>2026-03-22T09:32:03.344Z</time></trkpt><trkpt lat="36.9650795" lon="15.0885335"><ele>500.0</ele><time>2026-03-22T09:32:04.35Z</time></trkpt><trkpt lat="36.9650764" lon="15.0883337"><ele>500.0</ele><time>2026-03-22T09:32:05.351Z</time></trkpt><trkpt lat="36.9650785" lon="15.0881405"><ele>501.0</ele><time>2026-03-22T09:32:06.361Z</time></trkpt><trkpt lat="36.965091" lon="15.0879585"><ele>502.0</ele><time>2026-03-22T09:32:07.361Z</time></trkpt><trkpt lat="36.9651215" lon="15.0877976"><ele>503.0</ele><time>2026-03-22T09:32:08.363Z</time></trkpt><trkpt lat="36.965167" lon="15.0876734"><ele>504.0</ele><time>2026-03-22T09:32:09.343Z</time></trkpt><trkpt lat="36.965241" lon="15.0875784"><ele>504.0</ele><time>2026-03-22T09:32:10.357Z</time></trkpt><trkpt lat="36.9653504" lon="15.0874963"><ele>504.0</ele><time>2026-03-22T09:32:11.356Z</time></trkpt><trkpt lat="36.9654619" lon="15.0873869"><ele>504.0</ele><time>2026-03-22T09:32:12.364Z</time></trkpt><trkpt lat="36.9655588" lon="15.0872564"><ele>504.0</ele><time>2026-03-22T09:32:13.373Z</time></trkpt><trkpt lat="36.9655971" lon="15.0870999"><ele>503.0</ele><time>2026-03-22T09:32:14.352Z</time></trkpt><trkpt lat="36.9655949" lon="15.0868926"><ele>502.0</ele><time>2026-03-22T09:32:15.36Z</time></trkpt><trkpt lat="36.965597" lon="15.0866893"><ele>501.0</ele><time>2026-03-22T09:32:16.363Z</time></trkpt><trkpt lat="36.9656102" lon="15.0865028"><ele>499.0</ele><time>2026-03-22T09:32:17.354Z</time></trkpt><trkpt lat="36.9656182" lon="15.0863072"><ele>497.0</ele><time>2026-03-22T09:32:18.354Z</time></trkpt><trkpt lat="36.9656274" lon="15.0861095"><ele>495.0</ele><time>2026-03-22T09:32:19.362Z</time></trkpt><trkpt lat="36.9656296" lon="15.0859209"><ele>495.5</ele><time>2026-03-22T09:32:20.341Z</time></trkpt><trkpt lat="36.9656338" lon="15.0857343"><ele>496.0</ele><time>2026-03-22T09:32:21.368Z</time></trkpt><trkpt lat="36.9656312" lon="15.0855589"><ele>496.5</ele><time>2026-03-22T09:32:22.354Z</time></trkpt><trkpt lat="36.9656228" lon="15.0853819"><ele>497.0</ele><time>2026-03-22T09:32:23.333Z</time></trkpt><trkpt lat="36.9656114" lon="15.0852023"><ele>497.0</ele><time>2026-03-22T09:32:24.354Z</time></trkpt><trkpt lat="36.9655957" lon="15.085027"><ele>497.0</ele><time>2026-03-22T09:32:25.346Z</time></trkpt><trkpt lat="36.9655863" lon="15.0848541"><ele>497.0</ele><time>2026-03-22T09:32:26.349Z</time></trkpt><trkpt lat="36.9655763" lon="15.0846842"><ele>497.0</ele><time>2026-03-22T09:32:27.377Z</time></trkpt><trkpt lat="36.9655762" lon="15.0845154"><ele>497.0</ele><time>2026-03-22T09:32:28.367Z</time></trkpt><trkpt lat="36.9655906" lon="15.0843405"><ele>497.0</ele><time>2026-03-22T09:32:29.331Z</time></trkpt><trkpt lat="36.9656165" lon="15.0841716"><ele>497.0</ele><time>2026-03-22T09:32:30.374Z</time></trkpt><trkpt lat="36.9656504" lon="15.0840029"><ele>497.0</ele><time>2026-03-22T09:32:31.36Z</time></trkpt><trkpt lat="36.9656843" lon="15.0838203"><ele>497.0</ele><time>2026-03-22T09:32:32.364Z</time></trkpt><trkpt lat="36.9657075" lon="15.0836356"><ele>497.0</ele><time>2026-03-22T09:32:33.358Z</time></trkpt><trkpt lat="36.9657196" lon="15.083439"><ele>497.0</ele><time>2026-03-22T09:32:34.344Z</time></trkpt><trkpt lat="36.9656969" lon="15.0832391"><ele>494.0</ele><time>2026-03-22T09:32:35.36Z</time></trkpt><trkpt lat="36.9656549" lon="15.0830289"><ele>491.0</ele><time>2026-03-22T09:32:36.364Z</time></trkpt><trkpt lat="36.9655962" lon="15.0828288"><ele>488.0</ele><time>2026-03-22T09:32:37.369Z</time></trkpt><trkpt lat="36.9655232" lon="15.0826265"><ele>488.0</ele><time>2026-03-22T09:32:38.368Z</time></trkpt><trkpt lat="36.9654573" lon="15.0824335"><ele>488.0</ele><time>2026-03-22T09:32:39.365Z</time></trkpt><trkpt lat="36.965395" lon="15.0822438"><ele>488.0</ele><time>2026-03-22T09:32:40.376Z</time></trkpt><trkpt lat="36.9653421" lon="15.0820522"><ele>484.66666666666663</ele><time>2026-03-22T09:32:41.36Z</time></trkpt><trkpt lat="36.9652962" lon="15.081855"><ele>481.33333333333337</ele><time>2026-03-22T09:32:42.365Z</time></trkpt><trkpt lat="36.9652608" lon="15.0816521"><ele>478.0</ele><time>2026-03-22T09:32:43.363Z</time></trkpt><trkpt lat="36.9652362" lon="15.0814462"><ele>475.33333333333337</ele><time>2026-03-22T09:32:44.329Z</time></trkpt><trkpt lat="36.9652195" lon="15.0812394"><ele>472.66666666666663</ele><time>2026-03-22T09:32:45.327Z</time></trkpt><trkpt lat="36.9652069" lon="15.0810384"><ele>470.0</ele><time>2026-03-22T09:32:46.368Z</time></trkpt><trkpt lat="36.9652017" lon="15.0808535"><ele>469.25</ele><time>2026-03-22T09:32:47.346Z</time></trkpt><trkpt lat="36.9651935" lon="15.080666"><ele>468.5</ele><time>2026-03-22T09:32:48.328Z</time></trkpt><trkpt lat="36.9651802" lon="15.0804791"><ele>467.75</ele><time>2026-03-22T09:32:49.332Z</time></trkpt><trkpt lat="36.9651605" lon="15.0802961"><ele>467.0</ele><time>2026-03-22T09:32:50.358Z</time></trkpt><trkpt lat="36.96513" lon="15.0801171"><ele>467.0</ele><time>2026-03-22T09:32:51.339Z</time></trkpt><trkpt lat="36.9650918" lon="15.0799371"><ele>467.0</ele><time>2026-03-22T09:32:52.341Z</time></trkpt><trkpt lat="36.9650439" lon="15.079748"><ele>467.0</ele><time>2026-03-22T09:32:53.393Z</time></trkpt><trkpt lat="36.9649936" lon="15.0795556"><ele>466.3333333333333</ele><time>2026-03-22T09:32:54.364Z</time></trkpt><trkpt lat="36.9649442" lon="15.0793668"><ele>465.66666666666663</ele><time>2026-03-22T09:32:55.318Z</time></trkpt><trkpt lat="36.9648962" lon="15.0791832"><ele>465.0</ele><time>2026-03-22T09:32:56.359Z</time></trkpt><trkpt lat="36.9648438" lon="15.0789977"><ele>465.0</ele><time>2026-03-22T09:32:57.365Z</time></trkpt><trkpt lat="36.9647961" lon="15.078821"><ele>465.0</ele><time>2026-03-22T09:32:58.359Z</time></trkpt><trkpt lat="36.9647511" lon="15.078643"><ele>465.0</ele><time>2026-03-22T09:32:59.363Z</time></trkpt><trkpt lat="36.9647015" lon="15.0784736"><ele>465.0</ele><time>2026-03-22T09:33:00.351Z</time></trkpt><trkpt lat="36.9646456" lon="15.0783043"><ele>464.5</ele><time>2026-03-22T09:33:01.356Z</time></trkpt><trkpt lat="36.9645758" lon="15.0781523"><ele>464.0</ele><time>2026-03-22T09:33:02.367Z</time></trkpt><trkpt lat="36.9644877" lon="15.0780089"><ele>463.5</ele><time>2026-03-22T09:33:03.348Z</time></trkpt><trkpt lat="36.9643969" lon="15.0778761"><ele>463.0</ele><time>2026-03-22T09:33:04.323Z</time></trkpt><trkpt lat="36.9643075" lon="15.0777519"><ele>463.0</ele><time>2026-03-22T09:33:05.339Z</time></trkpt><trkpt lat="36.9642328" lon="15.0776323"><ele>462.99999999999994</ele><time>2026-03-22T09:33:06.333Z</time></trkpt><trkpt lat="36.9641694" lon="15.0775137"><ele>462.99999999999994</ele><time>2026-03-22T09:33:07.358Z</time></trkpt><trkpt lat="36.9641262" lon="15.0773859"><ele>463.0</ele><time>2026-03-22T09:33:08.332Z</time></trkpt><trkpt lat="36.9641051" lon="15.0772639"><ele>463.0</ele><time>2026-03-22T09:33:09.353Z</time></trkpt><trkpt lat="36.9641057" lon="15.0771185"><ele>461.79999999999995</ele><time>2026-03-22T09:33:10.356Z</time></trkpt><trkpt lat="36.9641056" lon="15.0769631"><ele>460.59999999999997</ele><time>2026-03-22T09:33:11.342Z</time></trkpt><trkpt lat="36.9640901" lon="15.0768193"><ele>459.40000000000003</ele><time>2026-03-22T09:33:12.362Z</time></trkpt><trkpt lat="36.9640834" lon="15.0766955"><ele>458.20000000000005</ele><time>2026-03-22T09:33:13.373Z</time></trkpt><trkpt lat="36.9640775" lon="15.0765965"><ele>457.0</ele><time>2026-03-22T09:33:14.36Z</time></trkpt><trkpt lat="36.9640748" lon="15.0765161"><ele>456.0</ele><time>2026-03-22T09:33:15.371Z</time></trkpt><trkpt lat="36.9640508" lon="15.076366"><ele>455.00000000000006</ele><time>2026-03-22T09:33:17.358Z</time></trkpt><trkpt lat="36.9640235" lon="15.0762717"><ele>454.00000000000006</ele><time>2026-03-22T09:33:18.357Z</time></trkpt><trkpt lat="36.96399" lon="15.0761711"><ele>453.0</ele><time>2026-03-22T09:33:19.356Z</time></trkpt><trkpt lat="36.9639504" lon="15.0760718"><ele>452.0</ele><time>2026-03-22T09:33:20.34Z</time></trkpt><trkpt lat="36.9639158" lon="15.075979"><ele>452.0</ele><time>2026-03-22T09:33:21.371Z</time></trkpt><trkpt lat="36.9638885" lon="15.0758849"><ele>452.00000000000006</ele><time>2026-03-22T09:33:22.367Z</time></trkpt><trkpt lat="36.9638516" lon="15.0757811"><ele>452.00000000000006</ele><time>2026-03-22T09:33:24.37Z</time></trkpt><trkpt lat="36.9638228" lon="15.075668"><ele>452.0</ele><time>2026-03-22T09:33:26.352Z</time></trkpt><trkpt lat="36.9637815" lon="15.0755444"><ele>452.0</ele><time>2026-03-22T09:33:28.357Z</time></trkpt><trkpt lat="36.963735" lon="15.0754156"><ele>452.40000000000003</ele><time>2026-03-22T09:33:30.345Z</time></trkpt><trkpt lat="36.9636778" lon="15.0752876"><ele>452.80000000000007</ele><time>2026-03-22T09:33:32.349Z</time></trkpt><trkpt lat="36.963643" lon="15.0751728"><ele>453.2</ele><time>2026-03-22T09:33:34.355Z</time></trkpt><trkpt lat="36.9636037" lon="15.0750552"><ele>453.6</ele><time>2026-03-22T09:33:36.362Z</time></trkpt><trkpt lat="36.963577" lon="15.0749233"><ele>454.0</ele><time>2026-03-22T09:33:38.346Z</time></trkpt><trkpt lat="36.9635907" lon="15.0747914"><ele>454.79999999999995</ele><time>2026-03-22T09:33:40.342Z</time></trkpt><trkpt lat="36.963602" lon="15.0746591"><ele>455.59999999999997</ele><time>2026-03-22T09:33:42.352Z</time></trkpt><trkpt lat="36.9636208" lon="15.074539"><ele>456.4</ele><time>2026-03-22T09:33:44.354Z</time></trkpt><trkpt lat="36.9636599" lon="15.0744541"><ele>457.2</ele><time>2026-03-22T09:33:57.344Z</time></trkpt><trkpt lat="36.9636714" lon="15.0743737"><ele>458.0</ele><time>2026-03-22T09:33:59.352Z</time></trkpt><trkpt lat="36.9637153" lon="15.0742577"><ele>458.0</ele><time>2026-03-22T09:34:01.349Z</time></trkpt><trkpt lat="36.9637968" lon="15.0741085"><ele>457.99999999999994</ele><time>2026-03-22T09:34:03.357Z</time></trkpt><trkpt lat="36.9638456" lon="15.0740196"><ele>457.99999999999994</ele><time>2026-03-22T09:34:04.347Z</time></trkpt><trkpt lat="36.9638933" lon="15.0739296"><ele>458.0</ele><time>2026-03-22T09:34:05.349Z</time></trkpt><trkpt lat="36.9639393" lon="15.0738398"><ele>458.0</ele><time>2026-03-22T09:34:06.356Z</time></trkpt><trkpt lat="36.963976" lon="15.0737485"><ele>458.0</ele><time>2026-03-22T09:34:07.354Z</time></trkpt><trkpt lat="36.9640044" lon="15.0736523"><ele>457.99999999999994</ele><time>2026-03-22T09:34:08.353Z</time></trkpt><trkpt lat="36.9640321" lon="15.0735473"><ele>457.99999999999994</ele><time>2026-03-22T09:34:09.353Z</time></trkpt><trkpt lat="36.9640573" lon="15.0734386"><ele>458.0</ele><time>2026-03-22T09:34:10.346Z</time></trkpt><trkpt lat="36.9640838" lon="15.0733212"><ele>458.0</ele><time>2026-03-22T09:34:11.343Z</time></trkpt><trkpt lat="36.9641091" lon="15.0732102"><ele>458.0</ele><time>2026-03-22T09:34:12.344Z</time></trkpt><trkpt lat="36.9641266" lon="15.0731016"><ele>457.99999999999994</ele><time>2026-03-22T09:34:13.374Z</time></trkpt><trkpt lat="36.9641417" lon="15.0729922"><ele>457.99999999999994</ele><time>2026-03-22T09:34:14.375Z</time></trkpt><trkpt lat="36.9641518" lon="15.0728755"><ele>458.0</ele><time>2026-03-22T09:34:15.368Z</time></trkpt><trkpt lat="36.9641587" lon="15.0727566"><ele>458.0</ele><time>2026-03-22T09:34:16.347Z</time></trkpt><trkpt lat="36.9641719" lon="15.0726185"><ele>458.0</ele><time>2026-03-22T09:34:17.352Z</time></trkpt><trkpt lat="36.9641735" lon="15.072497"><ele>457.99999999999994</ele><time>2026-03-22T09:34:18.361Z</time></trkpt><trkpt lat="36.9641735" lon="15.0723739"><ele>457.99999999999994</ele><time>2026-03-22T09:34:19.366Z</time></trkpt><trkpt lat="36.964174" lon="15.0722553"><ele>458.0</ele><time>2026-03-22T09:34:20.356Z</time></trkpt><trkpt lat="36.9641633" lon="15.0721528"><ele>458.0</ele><time>2026-03-22T09:34:21.355Z</time></trkpt><trkpt lat="36.9641334" lon="15.0720598"><ele>457.99999999999994</ele><time>2026-03-22T09:34:22.321Z</time></trkpt><trkpt lat="36.9640987" lon="15.071965"><ele>458.0</ele><time>2026-03-22T09:34:23.355Z</time></trkpt><trkpt lat="36.9640714" lon="15.0718602"><ele>458.0</ele><time>2026-03-22T09:34:24.357Z</time></trkpt><trkpt lat="36.9640571" lon="15.0717567"><ele>458.0</ele><time>2026-03-22T09:34:25.354Z</time></trkpt><trkpt lat="36.9640538" lon="15.071649"><ele>457.99999999999994</ele><time>2026-03-22T09:34:26.367Z</time></trkpt><trkpt lat="36.9640609" lon="15.071535"><ele>458.0</ele><time>2026-03-22T09:34:27.362Z</time></trkpt><trkpt lat="36.964067" lon="15.071423"><ele>458.16666666666663</ele><time>2026-03-22T09:34:28.359Z</time></trkpt><trkpt lat="36.9640812" lon="15.0713039"><ele>458.3333333333333</ele><time>2026-03-22T09:34:29.35Z</time></trkpt><trkpt lat="36.9640865" lon="15.0711945"><ele>458.5</ele><time>2026-03-22T09:34:30.349Z</time></trkpt><trkpt lat="36.9640906" lon="15.0710776"><ele>458.66666666666663</ele><time>2026-03-22T09:34:31.364Z</time></trkpt><trkpt lat="36.9641007" lon="15.070965"><ele>458.8333333333333</ele><time>2026-03-22T09:34:32.362Z</time></trkpt><trkpt lat="36.9640998" lon="15.0708648"><ele>459.0</ele><time>2026-03-22T09:34:33.347Z</time></trkpt><trkpt lat="36.9640976" lon="15.0707654"><ele>458.4</ele><time>2026-03-22T09:34:34.373Z</time></trkpt><trkpt lat="36.9640952" lon="15.0706775"><ele>457.79999999999995</ele><time>2026-03-22T09:34:35.366Z</time></trkpt><trkpt lat="36.9640848" lon="15.0705988"><ele>457.20000000000005</ele><time>2026-03-22T09:34:36.36Z</time></trkpt><trkpt lat="36.9640777" lon="15.0704685"><ele>456.6</ele><time>2026-03-22T09:34:38.358Z</time></trkpt><trkpt lat="36.9640641" lon="15.0703523"><ele>456.0</ele><time>2026-03-22T09:34:40.347Z</time></trkpt><trkpt lat="36.9640325" lon="15.0702032"><ele>456.0</ele><time>2026-03-22T09:34:42.363Z</time></trkpt><trkpt lat="36.9640116" lon="15.070111"><ele>456.0</ele><time>2026-03-22T09:34:43.356Z</time></trkpt><trkpt lat="36.9639826" lon="15.0700126"><ele>456.0</ele><time>2026-03-22T09:34:44.353Z</time></trkpt><trkpt lat="36.9639564" lon="15.0699351"><ele>456.0</ele><time>2026-03-22T09:34:45.356Z</time></trkpt><trkpt lat="36.9639301" lon="15.0698522"><ele>456.0</ele><time>2026-03-22T09:34:46.356Z</time></trkpt><trkpt lat="36.9639147" lon="15.0697636"><ele>456.0</ele><time>2026-03-22T09:34:47.361Z</time></trkpt><trkpt lat="36.9638945" lon="15.0696668"><ele>456.4</ele><time>2026-03-22T09:34:48.364Z</time></trkpt><trkpt lat="36.9638669" lon="15.0695732"><ele>456.8</ele><time>2026-03-22T09:34:49.353Z</time></trkpt><trkpt lat="36.9638204" lon="15.0694668"><ele>457.19999999999993</ele><time>2026-03-22T09:34:50.368Z</time></trkpt><trkpt lat="36.9637645" lon="15.0693449"><ele>457.59999999999997</ele><time>2026-03-22T09:34:51.368Z</time></trkpt><trkpt lat="36.9636944" lon="15.0692102"><ele>458.0</ele><time>2026-03-22T09:34:52.35Z</time></trkpt><trkpt lat="36.9636196" lon="15.0690937"><ele>458.4</ele><time>2026-03-22T09:34:53.358Z</time></trkpt><trkpt lat="36.9635545" lon="15.0689912"><ele>458.79999999999995</ele><time>2026-03-22T09:34:54.343Z</time></trkpt><trkpt lat="36.9634942" lon="15.0689201"><ele>459.2</ele><time>2026-03-22T09:34:55.358Z</time></trkpt><trkpt lat="36.9634228" lon="15.0688359"><ele>459.6</ele><time>2026-03-22T09:34:56.368Z</time></trkpt><trkpt lat="36.9633568" lon="15.0687681"><ele>460.0</ele><time>2026-03-22T09:34:57.363Z</time></trkpt><trkpt lat="36.9633014" lon="15.0686955"><ele>460.0</ele><time>2026-03-22T09:34:58.351Z</time></trkpt><trkpt lat="36.9632537" lon="15.0686409"><ele>460.0</ele><time>2026-03-22T09:34:59.354Z</time></trkpt><trkpt lat="36.9631667" lon="15.0685466"><ele>460.0</ele><time>2026-03-22T09:35:01.36Z</time></trkpt><trkpt lat="36.9630818" lon="15.0684432"><ele>460.0</ele><time>2026-03-22T09:35:03.37Z</time></trkpt><trkpt lat="36.962996" lon="15.0683242"><ele>460.0</ele><time>2026-03-22T09:35:05.355Z</time></trkpt><trkpt lat="36.9629348" lon="15.0682303"><ele>460.6</ele><time>2026-03-22T09:35:06.363Z</time></trkpt><trkpt lat="36.962873" lon="15.0681156"><ele>461.2</ele><time>2026-03-22T09:35:07.351Z</time></trkpt><trkpt lat="36.9628155" lon="15.0680146"><ele>461.79999999999995</ele><time>2026-03-22T09:35:08.341Z</time></trkpt><trkpt lat="36.9627767" lon="15.06792"><ele>462.4</ele><time>2026-03-22T09:35:09.351Z</time></trkpt><trkpt lat="36.962735" lon="15.0678394"><ele>463.0</ele><time>2026-03-22T09:35:10.33Z</time></trkpt><trkpt lat="36.9626713" lon="15.0677435"><ele>463.00000000000006</ele><time>2026-03-22T09:35:12.348Z</time></trkpt><trkpt lat="36.962699" lon="15.0676456"><ele>463.0</ele><time>2026-03-22T09:35:15.338Z</time></trkpt><trkpt lat="36.9627593" lon="15.0675369"><ele>463.0</ele><time>2026-03-22T09:35:17.362Z</time></trkpt><trkpt lat="36.962786" lon="15.067462"><ele>463.0</ele><time>2026-03-22T09:35:18.355Z</time></trkpt><trkpt lat="36.9628141" lon="15.0673863"><ele>463.00000000000006</ele><time>2026-03-22T09:35:19.356Z</time></trkpt><trkpt lat="36.9628469" lon="15.0673074"><ele>463.0</ele><time>2026-03-22T09:35:20.354Z</time></trkpt><trkpt lat="36.9628756" lon="15.0672285"><ele>462.6666666666667</ele><time>2026-03-22T09:35:21.359Z</time></trkpt><trkpt lat="36.9629024" lon="15.0671477"><ele>462.33333333333337</ele><time>2026-03-22T09:35:22.358Z</time></trkpt><trkpt lat="36.9629202" lon="15.0670683"><ele>462.0</ele><time>2026-03-22T09:35:23.344Z</time></trkpt><trkpt lat="36.9629683" lon="15.0669247"><ele>461.66666666666663</ele><time>2026-03-22T09:35:25.355Z</time></trkpt><trkpt lat="36.9629834" lon="15.0668396"><ele>461.3333333333333</ele><time>2026-03-22T09:35:26.35Z</time></trkpt><trkpt lat="36.9629945" lon="15.0667601"><ele>461.0</ele><time>2026-03-22T09:35:27.354Z</time></trkpt><trkpt lat="36.9630116" lon="15.0666765"><ele>460.3333333333333</ele><time>2026-03-22T09:35:28.352Z</time></trkpt><trkpt lat="36.9630295" lon="15.0665803"><ele>459.66666666666663</ele><time>2026-03-22T09:35:29.351Z</time></trkpt><trkpt lat="36.9630484" lon="15.0664791"><ele>459.0</ele><time>2026-03-22T09:35:30.349Z</time></trkpt><trkpt lat="36.9630714" lon="15.0663739"><ele>458.33333333333337</ele><time>2026-03-22T09:35:31.347Z</time></trkpt><trkpt lat="36.9630927" lon="15.0662678"><ele>457.6666666666667</ele><time>2026-03-22T09:35:32.338Z</time></trkpt><trkpt lat="36.9631137" lon="15.0661588"><ele>457.0</ele><time>2026-03-22T09:35:33.354Z</time></trkpt><trkpt lat="36.9631393" lon="15.066039"><ele>457.0</ele><time>2026-03-22T09:35:34.353Z</time></trkpt><trkpt lat="36.9631645" lon="15.0659223"><ele>457.00000000000006</ele><time>2026-03-22T09:35:35.357Z</time></trkpt><trkpt lat="36.9631854" lon="15.0658205"><ele>457.00000000000006</ele><time>2026-03-22T09:35:36.361Z</time></trkpt><trkpt lat="36.9632171" lon="15.0657173"><ele>457.0</ele><time>2026-03-22T09:35:37.343Z</time></trkpt><trkpt lat="36.963252" lon="15.0656126"><ele>457.0</ele><time>2026-03-22T09:35:38.333Z</time></trkpt><trkpt lat="36.9632768" lon="15.0654999"><ele>456.1666666666667</ele><time>2026-03-22T09:35:39.347Z</time></trkpt><trkpt lat="36.9633042" lon="15.0653991"><ele>455.33333333333337</ele><time>2026-03-22T09:35:40.345Z</time></trkpt><trkpt lat="36.963321" lon="15.0652986"><ele>454.5</ele><time>2026-03-22T09:35:41.367Z</time></trkpt><trkpt lat="36.9633291" lon="15.0651975"><ele>453.66666666666663</ele><time>2026-03-22T09:35:42.346Z</time></trkpt><trkpt lat="36.9633351" lon="15.065086"><ele>452.8333333333333</ele><time>2026-03-22T09:35:43.32Z</time></trkpt><trkpt lat="36.9633391" lon="15.0649735"><ele>452.0</ele><time>2026-03-22T09:35:44.353Z</time></trkpt><trkpt lat="36.9633402" lon="15.064882"><ele>451.8</ele><time>2026-03-22T09:35:45.359Z</time></trkpt><trkpt lat="36.9633566" lon="15.064776"><ele>451.6</ele><time>2026-03-22T09:35:47.323Z</time></trkpt><trkpt lat="36.96336" lon="15.0646869"><ele>451.40000000000003</ele><time>2026-03-22T09:35:49.341Z</time></trkpt><trkpt lat="36.9633755" lon="15.0645811"><ele>451.20000000000005</ele><time>2026-03-22T09:35:51.351Z</time></trkpt><trkpt lat="36.9634143" lon="15.0644263"><ele>451.0</ele><time>2026-03-22T09:35:53.358Z</time></trkpt><trkpt lat="36.9634348" lon="15.0643257"><ele>451.8</ele><time>2026-03-22T09:35:54.356Z</time></trkpt><trkpt lat="36.9634605" lon="15.0642245"><ele>452.6</ele><time>2026-03-22T09:35:55.319Z</time></trkpt><trkpt lat="36.9634898" lon="15.064123"><ele>453.4</ele><time>2026-03-22T09:35:56.354Z</time></trkpt><trkpt lat="36.9635216" lon="15.0640296"><ele>454.2</ele><time>2026-03-22T09:35:57.345Z</time></trkpt><trkpt lat="36.963574" lon="15.0639284"><ele>455.0</ele><time>2026-03-22T09:35:58.347Z</time></trkpt><trkpt lat="36.9636378" lon="15.0638228"><ele>455.0</ele><time>2026-03-22T09:35:59.355Z</time></trkpt><trkpt lat="36.9637078" lon="15.0637117"><ele>455.0</ele><time>2026-03-22T09:36:00.356Z</time></trkpt><trkpt lat="36.9637827" lon="15.0635946"><ele>455.0</ele><time>2026-03-22T09:36:01.361Z</time></trkpt><trkpt lat="36.9638413" lon="15.0634784"><ele>455.0</ele><time>2026-03-22T09:36:02.352Z</time></trkpt><trkpt lat="36.9639023" lon="15.0633684"><ele>455.99999999999994</ele><time>2026-03-22T09:36:03.353Z</time></trkpt><trkpt lat="36.9639566" lon="15.0632586"><ele>457.0</ele><time>2026-03-22T09:36:04.344Z</time></trkpt><trkpt lat="36.9640031" lon="15.0631614"><ele>458.0</ele><time>2026-03-22T09:36:05.356Z</time></trkpt><trkpt lat="36.9640474" lon="15.0630685"><ele>459.0</ele><time>2026-03-22T09:36:06.359Z</time></trkpt><trkpt lat="36.964091" lon="15.0629829"><ele>459.99999999999994</ele><time>2026-03-22T09:36:07.357Z</time></trkpt><trkpt lat="36.9641412" lon="15.0629059"><ele>461.0</ele><time>2026-03-22T09:36:08.365Z</time></trkpt><trkpt lat="36.9642022" lon="15.0628449"><ele>461.3333333333333</ele><time>2026-03-22T09:36:09.364Z</time></trkpt><trkpt lat="36.9642748" lon="15.0627964"><ele>461.66666666666663</ele><time>2026-03-22T09:36:10.342Z</time></trkpt><trkpt lat="36.9643417" lon="15.06275"><ele>462.0</ele><time>2026-03-22T09:36:11.348Z</time></trkpt><trkpt lat="36.9643956" lon="15.0626882"><ele>462.33333333333337</ele><time>2026-03-22T09:36:12.347Z</time></trkpt><trkpt lat="36.9644183" lon="15.062596"><ele>462.6666666666667</ele><time>2026-03-22T09:36:13.353Z</time></trkpt><trkpt lat="36.9644334" lon="15.062496"><ele>463.0</ele><time>2026-03-22T09:36:14.362Z</time></trkpt><trkpt lat="36.9644568" lon="15.0623871"><ele>463.79999999999995</ele><time>2026-03-22T09:36:15.352Z</time></trkpt><trkpt lat="36.9644846" lon="15.0622749"><ele>464.59999999999997</ele><time>2026-03-22T09:36:16.359Z</time></trkpt><trkpt lat="36.9645268" lon="15.0621554"><ele>465.40000000000003</ele><time>2026-03-22T09:36:17.356Z</time></trkpt><trkpt lat="36.964591" lon="15.062037"><ele>466.20000000000005</ele><time>2026-03-22T09:36:18.346Z</time></trkpt><trkpt lat="36.9646559" lon="15.0619043"><ele>467.0</ele><time>2026-03-22T09:36:19.368Z</time></trkpt><trkpt lat="36.9647175" lon="15.0617718"><ele>467.0</ele><time>2026-03-22T09:36:20.362Z</time></trkpt><trkpt lat="36.9647829" lon="15.0616418"><ele>467.0</ele><time>2026-03-22T09:36:21.356Z</time></trkpt><trkpt lat="36.9648481" lon="15.0615074"><ele>467.0</ele><time>2026-03-22T09:36:22.355Z</time></trkpt><trkpt lat="36.9649172" lon="15.0613656"><ele>467.0</ele><time>2026-03-22T09:36:23.353Z</time></trkpt><trkpt lat="36.9649848" lon="15.0612254"><ele>467.75</ele><time>2026-03-22T09:36:24.381Z</time></trkpt><trkpt lat="36.9650571" lon="15.0610658"><ele>468.5</ele><time>2026-03-22T09:36:25.351Z</time></trkpt><trkpt lat="36.9651288" lon="15.0609039"><ele>469.25</ele><time>2026-03-22T09:36:26.361Z</time></trkpt><trkpt lat="36.9652032" lon="15.0607426"><ele>470.0</ele><time>2026-03-22T09:36:27.363Z</time></trkpt><trkpt lat="36.9652668" lon="15.0605968"><ele>470.0</ele><time>2026-03-22T09:36:28.356Z</time></trkpt><trkpt lat="36.9653204" lon="15.0604636"><ele>470.0</ele><time>2026-03-22T09:36:29.367Z</time></trkpt><trkpt lat="36.9653824" lon="15.0603326"><ele>470.0</ele><time>2026-03-22T09:36:30.377Z</time></trkpt><trkpt lat="36.9654586" lon="15.0602114"><ele>470.0</ele><time>2026-03-22T09:36:31.365Z</time></trkpt><trkpt lat="36.9655414" lon="15.0600901"><ele>470.0</ele><time>2026-03-22T09:36:32.364Z</time></trkpt><trkpt lat="36.965629" lon="15.0599729"><ele>470.0</ele><time>2026-03-22T09:36:33.354Z</time></trkpt><trkpt lat="36.9657173" lon="15.0598544"><ele>470.0</ele><time>2026-03-22T09:36:34.342Z</time></trkpt><trkpt lat="36.9657969" lon="15.0597414"><ele>470.0</ele><time>2026-03-22T09:36:35.359Z</time></trkpt><trkpt lat="36.9658675" lon="15.0596268"><ele>470.25</ele><time>2026-03-22T09:36:36.373Z</time></trkpt><trkpt lat="36.965935" lon="15.0595007"><ele>470.5</ele><time>2026-03-22T09:36:37.376Z</time></trkpt><trkpt lat="36.9659946" lon="15.0593707"><ele>470.75</ele><time>2026-03-22T09:36:38.318Z</time></trkpt><trkpt lat="36.9660477" lon="15.0592348"><ele>471.0</ele><time>2026-03-22T09:36:39.37Z</time></trkpt><trkpt lat="36.9660912" lon="15.0590898"><ele>470.5</ele><time>2026-03-22T09:36:40.348Z</time></trkpt><trkpt lat="36.96613" lon="15.0589272"><ele>470.0</ele><time>2026-03-22T09:36:41.337Z</time></trkpt><trkpt lat="36.9661545" lon="15.0587506"><ele>469.5</ele><time>2026-03-22T09:36:42.36Z</time></trkpt><trkpt lat="36.9661673" lon="15.0585836"><ele>469.0</ele><time>2026-03-22T09:36:43.353Z</time></trkpt><trkpt lat="36.9661614" lon="15.0584204"><ele>468.25</ele><time>2026-03-22T09:36:44.364Z</time></trkpt><trkpt lat="36.9661589" lon="15.0582669"><ele>467.5</ele><time>2026-03-22T09:36:45.368Z</time></trkpt><trkpt lat="36.9661571" lon="15.0581025"><ele>466.75</ele><time>2026-03-22T09:36:46.353Z</time></trkpt><trkpt lat="36.9661547" lon="15.0579457"><ele>466.0</ele><time>2026-03-22T09:36:47.355Z</time></trkpt><trkpt lat="36.966159" lon="15.0578077"><ele>466.0</ele><time>2026-03-22T09:36:48.373Z</time></trkpt><trkpt lat="36.9661797" lon="15.0576789"><ele>466.0</ele><time>2026-03-22T09:36:49.345Z</time></trkpt><trkpt lat="36.9662139" lon="15.0575453"><ele>466.0</ele><time>2026-03-22T09:36:50.354Z</time></trkpt><trkpt lat="36.9662505" lon="15.057416"><ele>466.0</ele><time>2026-03-22T09:36:51.403Z</time></trkpt><trkpt lat="36.9662877" lon="15.0572877"><ele>466.0</ele><time>2026-03-22T09:36:52.359Z</time></trkpt><trkpt lat="36.9663208" lon="15.0571587"><ele>464.75</ele><time>2026-03-22T09:36:53.354Z</time></trkpt><trkpt lat="36.9663519" lon="15.0570126"><ele>463.5</ele><time>2026-03-22T09:36:54.355Z</time></trkpt><trkpt lat="36.966376" lon="15.0568567"><ele>462.25</ele><time>2026-03-22T09:36:55.372Z</time></trkpt><trkpt lat="36.9664017" lon="15.0566801"><ele>461.0</ele><time>2026-03-22T09:36:56.355Z</time></trkpt><trkpt lat="36.966424" lon="15.056499"><ele>460.0</ele><time>2026-03-22T09:36:57.368Z</time></trkpt><trkpt lat="36.9664402" lon="15.0563272"><ele>459.0</ele><time>2026-03-22T09:36:58.38Z</time></trkpt><trkpt lat="36.966446" lon="15.0561574"><ele>458.0</ele><time>2026-03-22T09:36:59.362Z</time></trkpt><trkpt lat="36.9664404" lon="15.0559996"><ele>457.0</ele><time>2026-03-22T09:37:00.361Z</time></trkpt><trkpt lat="36.966433" lon="15.0558526"><ele>455.75</ele><time>2026-03-22T09:37:01.373Z</time></trkpt><trkpt lat="36.9664302" lon="15.0557002"><ele>454.5</ele><time>2026-03-22T09:37:02.36Z</time></trkpt><trkpt lat="36.9664303" lon="15.0555476"><ele>453.25</ele><time>2026-03-22T09:37:03.372Z</time></trkpt><trkpt lat="36.9664355" lon="15.0553992"><ele>452.0</ele><time>2026-03-22T09:37:04.367Z</time></trkpt><trkpt lat="36.9664519" lon="15.055263"><ele>452.0</ele><time>2026-03-22T09:37:05.375Z</time></trkpt><trkpt lat="36.9664699" lon="15.0551343"><ele>452.00000000000006</ele><time>2026-03-22T09:37:06.353Z</time></trkpt><trkpt lat="36.9664967" lon="15.0550101"><ele>452.00000000000006</ele><time>2026-03-22T09:37:07.377Z</time></trkpt><trkpt lat="36.9665186" lon="15.0548809"><ele>452.0</ele><time>2026-03-22T09:37:08.345Z</time></trkpt><trkpt lat="36.9665484" lon="15.0547463"><ele>452.0</ele><time>2026-03-22T09:37:09.368Z</time></trkpt><trkpt lat="36.966586" lon="15.0546018"><ele>451.5</ele><time>2026-03-22T09:37:10.36Z</time></trkpt><trkpt lat="36.9666174" lon="15.0544408"><ele>451.0</ele><time>2026-03-22T09:37:11.365Z</time></trkpt><trkpt lat="36.9666503" lon="15.054274"><ele>450.5</ele><time>2026-03-22T09:37:12.35Z</time></trkpt><trkpt lat="36.966686" lon="15.0541081"><ele>450.0</ele><time>2026-03-22T09:37:13.359Z</time></trkpt><trkpt lat="36.9667189" lon="15.0539299"><ele>450.0</ele><time>2026-03-22T09:37:14.373Z</time></trkpt><trkpt lat="36.9667503" lon="15.0537475"><ele>450.0</ele><time>2026-03-22T09:37:15.328Z</time></trkpt><trkpt lat="36.9667835" lon="15.0535669"><ele>450.0</ele><time>2026-03-22T09:37:16.347Z</time></trkpt><trkpt lat="36.9668088" lon="15.053386"><ele>450.0</ele><time>2026-03-22T09:37:17.309Z</time></trkpt><trkpt lat="36.9668257" lon="15.0532078"><ele>450.0</ele><time>2026-03-22T09:37:18.362Z</time></trkpt><trkpt lat="36.9668263" lon="15.0530447"><ele>450.0</ele><time>2026-03-22T09:37:19.364Z</time></trkpt><trkpt lat="36.9668112" lon="15.0528884"><ele>450.0</ele><time>2026-03-22T09:37:20.349Z</time></trkpt><trkpt lat="36.9667988" lon="15.0527323"><ele>450.0</ele><time>2026-03-22T09:37:21.347Z</time></trkpt><trkpt lat="36.9667876" lon="15.0525773"><ele>448.75</ele><time>2026-03-22T09:37:22.371Z</time></trkpt><trkpt lat="36.9667565" lon="15.0524264"><ele>447.5</ele><time>2026-03-22T09:37:23.356Z</time></trkpt><trkpt lat="36.9667085" lon="15.0522899"><ele>446.25</ele><time>2026-03-22T09:37:24.354Z</time></trkpt><trkpt lat="36.9666523" lon="15.0521499"><ele>445.0</ele><time>2026-03-22T09:37:25.364Z</time></trkpt><trkpt lat="36.9665914" lon="15.0520192"><ele>443.0</ele><time>2026-03-22T09:37:26.353Z</time></trkpt><trkpt lat="36.9665305" lon="15.0518905"><ele>441.0</ele><time>2026-03-22T09:37:27.376Z</time></trkpt><trkpt lat="36.9664781" lon="15.0517615"><ele>439.0</ele><time>2026-03-22T09:37:28.356Z</time></trkpt><trkpt lat="36.9664419" lon="15.0516208"><ele>437.0</ele><time>2026-03-22T09:37:29.34Z</time></trkpt><trkpt lat="36.9664113" lon="15.0514672"><ele>436.25</ele><time>2026-03-22T09:37:30.383Z</time></trkpt><trkpt lat="36.9663756" lon="15.0513188"><ele>435.5</ele><time>2026-03-22T09:37:31.363Z</time></trkpt><trkpt lat="36.9663426" lon="15.0511682"><ele>434.75</ele><time>2026-03-22T09:37:32.354Z</time></trkpt><trkpt lat="36.9663008" lon="15.0510154"><ele>434.0</ele><time>2026-03-22T09:37:33.343Z</time></trkpt><trkpt lat="36.9662571" lon="15.0508669"><ele>431.6</ele><time>2026-03-22T09:37:34.369Z</time></trkpt><trkpt lat="36.9662077" lon="15.0507121"><ele>429.2</ele><time>2026-03-22T09:37:35.354Z</time></trkpt><trkpt lat="36.9661722" lon="15.0505758"><ele>426.8</ele><time>2026-03-22T09:37:36.354Z</time></trkpt><trkpt lat="36.9661461" lon="15.0504689"><ele>424.40000000000003</ele><time>2026-03-22T09:37:37.363Z</time></trkpt><trkpt lat="36.9661249" lon="15.0503403"><ele>422.0</ele><time>2026-03-22T09:37:39.384Z</time></trkpt><trkpt lat="36.9662283" lon="15.0503936"><ele>422.0</ele><time>2026-03-22T09:38:27.359Z</time></trkpt><trkpt lat="36.9663183" lon="15.0504909"><ele>422.0</ele><time>2026-03-22T09:38:29.34Z</time></trkpt><trkpt lat="36.966389" lon="15.0505516"><ele>422.0</ele><time>2026-03-22T09:38:30.361Z</time></trkpt><trkpt lat="36.9664716" lon="15.0505997"><ele>422.0</ele><time>2026-03-22T09:38:31.357Z</time></trkpt><trkpt lat="36.9665659" lon="15.0506485"><ele>422.0</ele><time>2026-03-22T09:38:32.336Z</time></trkpt><trkpt lat="36.9666594" lon="15.0506962"><ele>422.6</ele><time>2026-03-22T09:38:33.349Z</time></trkpt><trkpt lat="36.9667419" lon="15.0507583"><ele>423.20000000000005</ele><time>2026-03-22T09:38:34.346Z</time></trkpt><trkpt lat="36.9668152" lon="15.0508251"><ele>423.8</ele><time>2026-03-22T09:38:35.359Z</time></trkpt><trkpt lat="36.9669026" lon="15.0509042"><ele>424.4</ele><time>2026-03-22T09:38:36.367Z</time></trkpt><trkpt lat="36.9670143" lon="15.0510126"><ele>425.0</ele><time>2026-03-22T09:38:37.37Z</time></trkpt><trkpt lat="36.9671414" lon="15.0511395"><ele>429.3333333333333</ele><time>2026-03-22T09:38:38.367Z</time></trkpt><trkpt lat="36.9672623" lon="15.0512658"><ele>433.66666666666663</ele><time>2026-03-22T09:38:39.367Z</time></trkpt><trkpt lat="36.9673914" lon="15.0513773"><ele>438.0</ele><time>2026-03-22T09:38:40.364Z</time></trkpt><trkpt lat="36.9675261" lon="15.0514652"><ele>437.4</ele><time>2026-03-22T09:38:41.382Z</time></trkpt><trkpt lat="36.967633" lon="15.0515391"><ele>436.79999999999995</ele><time>2026-03-22T09:38:42.378Z</time></trkpt><trkpt lat="36.9677105" lon="15.0516015"><ele>436.2</ele><time>2026-03-22T09:38:43.371Z</time></trkpt><trkpt lat="36.9677855" lon="15.0516658"><ele>435.6</ele><time>2026-03-22T09:38:44.374Z</time></trkpt><trkpt lat="36.9678567" lon="15.0517286"><ele>435.0</ele><time>2026-03-22T09:38:45.368Z</time></trkpt><trkpt lat="36.9679228" lon="15.0517913"><ele>436.3333333333333</ele><time>2026-03-22T09:38:46.358Z</time></trkpt><trkpt lat="36.9679822" lon="15.0518577"><ele>437.66666666666663</ele><time>2026-03-22T09:38:47.368Z</time></trkpt><trkpt lat="36.9680356" lon="15.0519321"><ele>439.0</ele><time>2026-03-22T09:38:48.349Z</time></trkpt><trkpt lat="36.9680952" lon="15.052003"><ele>440.3333333333333</ele><time>2026-03-22T09:38:49.345Z</time></trkpt><trkpt lat="36.9681489" lon="15.0520677"><ele>441.66666666666663</ele><time>2026-03-22T09:38:50.386Z</time></trkpt><trkpt lat="36.9682059" lon="15.0521266"><ele>443.0</ele><time>2026-03-22T09:38:51.38Z</time></trkpt><trkpt lat="36.9682742" lon="15.0521785"><ele>442.99999999999994</ele><time>2026-03-22T09:38:52.38Z</time></trkpt><trkpt lat="36.9683512" lon="15.0522279"><ele>443.0</ele><time>2026-03-22T09:38:53.373Z</time></trkpt><trkpt lat="36.9684251" lon="15.0522769"><ele>443.0</ele><time>2026-03-22T09:38:54.357Z</time></trkpt><trkpt lat="36.9684891" lon="15.0523272"><ele>443.0</ele><time>2026-03-22T09:38:55.358Z</time></trkpt><trkpt lat="36.9685481" lon="15.052378"><ele>442.99999999999994</ele><time>2026-03-22T09:38:56.36Z</time></trkpt><trkpt lat="36.9686" lon="15.0524291"><ele>443.0</ele><time>2026-03-22T09:38:57.362Z</time></trkpt><trkpt lat="36.9686548" lon="15.0524849"><ele>443.8333333333333</ele><time>2026-03-22T09:38:58.367Z</time></trkpt><trkpt lat="36.9687102" lon="15.0525292"><ele>444.66666666666663</ele><time>2026-03-22T09:38:59.361Z</time></trkpt><trkpt lat="36.9687828" lon="15.0525836"><ele>445.5</ele><time>2026-03-22T09:39:00.349Z</time></trkpt><trkpt lat="36.9688531" lon="15.0526334"><ele>446.33333333333337</ele><time>2026-03-22T09:39:01.331Z</time></trkpt><trkpt lat="36.968924" lon="15.0526866"><ele>447.1666666666667</ele><time>2026-03-22T09:39:02.35Z</time></trkpt><trkpt lat="36.9689953" lon="15.0527487"><ele>448.0</ele><time>2026-03-22T09:39:03.372Z</time></trkpt><trkpt lat="36.9690819" lon="15.0528177"><ele>448.0</ele><time>2026-03-22T09:39:04.353Z</time></trkpt><trkpt lat="36.9691667" lon="15.0528922"><ele>447.99999999999994</ele><time>2026-03-22T09:39:05.357Z</time></trkpt><trkpt lat="36.9692478" lon="15.0529596"><ele>447.99999999999994</ele><time>2026-03-22T09:39:06.363Z</time></trkpt><trkpt lat="36.9693278" lon="15.0530195"><ele>448.0</ele><time>2026-03-22T09:39:07.374Z</time></trkpt><trkpt lat="36.9694004" lon="15.0530847"><ele>448.0</ele><time>2026-03-22T09:39:08.348Z</time></trkpt><trkpt lat="36.9694791" lon="15.0531483"><ele>448.79999999999995</ele><time>2026-03-22T09:39:09.372Z</time></trkpt><trkpt lat="36.9695607" lon="15.0532196"><ele>449.59999999999997</ele><time>2026-03-22T09:39:10.359Z</time></trkpt><trkpt lat="36.9696409" lon="15.0532824"><ele>450.40000000000003</ele><time>2026-03-22T09:39:11.353Z</time></trkpt><trkpt lat="36.9697319" lon="15.0533476"><ele>451.20000000000005</ele><time>2026-03-22T09:39:12.35Z</time></trkpt><trkpt lat="36.9698203" lon="15.0534051"><ele>452.0</ele><time>2026-03-22T09:39:13.365Z</time></trkpt><trkpt lat="36.9699031" lon="15.0534604"><ele>453.3333333333333</ele><time>2026-03-22T09:39:14.369Z</time></trkpt><trkpt lat="36.9699629" lon="15.0534987"><ele>454.66666666666663</ele><time>2026-03-22T09:39:15.342Z</time></trkpt><trkpt lat="36.9700604" lon="15.053489"><ele>456.0</ele><time>2026-03-22T09:39:17.331Z</time></trkpt><trkpt lat="36.9701122" lon="15.0534387"><ele>457.33333333333337</ele><time>2026-03-22T09:39:18.365Z</time></trkpt><trkpt lat="36.9701824" lon="15.0533793"><ele>458.6666666666667</ele><time>2026-03-22T09:39:19.342Z</time></trkpt><trkpt lat="36.9702946" lon="15.0533007"><ele>460.0</ele><time>2026-03-22T09:39:20.364Z</time></trkpt><trkpt lat="36.9703875" lon="15.0532242"><ele>460.4</ele><time>2026-03-22T09:39:21.345Z</time></trkpt><trkpt lat="36.9704521" lon="15.0531544"><ele>460.8</ele><time>2026-03-22T09:39:22.371Z</time></trkpt><trkpt lat="36.9704893" lon="15.053082"><ele>461.20000000000005</ele><time>2026-03-22T09:39:23.358Z</time></trkpt><trkpt lat="36.9705704" lon="15.0529931"><ele>461.6</ele><time>2026-03-22T09:39:25.361Z</time></trkpt><trkpt lat="36.9706565" lon="15.0529571"><ele>462.0</ele><time>2026-03-22T09:39:27.349Z</time></trkpt><trkpt lat="36.9707636" lon="15.0529714"><ele>464.0</ele><time>2026-03-22T09:39:29.354Z</time></trkpt><trkpt lat="36.9708709" lon="15.0530198"><ele>466.00000000000006</ele><time>2026-03-22T09:39:31.362Z</time></trkpt><trkpt lat="36.970993" lon="15.0530777"><ele>468.00000000000006</ele><time>2026-03-22T09:39:33.372Z</time></trkpt><trkpt lat="36.9710532" lon="15.0531084"><ele>470.0</ele><time>2026-03-22T09:39:34.363Z</time></trkpt><trkpt lat="36.9711239" lon="15.0531349"><ele>472.0</ele><time>2026-03-22T09:39:35.362Z</time></trkpt><trkpt lat="36.9712016" lon="15.0531773"><ele>472.0</ele><time>2026-03-22T09:39:36.359Z</time></trkpt><trkpt lat="36.9712809" lon="15.0532125"><ele>472.0</ele><time>2026-03-22T09:39:37.348Z</time></trkpt><trkpt lat="36.971363" lon="15.0532553"><ele>472.0</ele><time>2026-03-22T09:39:38.36Z</time></trkpt><trkpt lat="36.9714267" lon="15.0532917"><ele>472.0</ele><time>2026-03-22T09:39:39.336Z</time></trkpt><trkpt lat="36.9714861" lon="15.0533187"><ele>472.0</ele><time>2026-03-22T09:39:40.366Z</time></trkpt><trkpt lat="36.9715523" lon="15.0533508"><ele>472.0</ele><time>2026-03-22T09:39:41.327Z</time></trkpt><trkpt lat="36.9716128" lon="15.0533798"><ele>472.0</ele><time>2026-03-22T09:39:42.376Z</time></trkpt><trkpt lat="36.9716677" lon="15.0534184"><ele>474.00000000000006</ele><time>2026-03-22T09:39:43.389Z</time></trkpt><trkpt lat="36.9717468" lon="15.053431"><ele>476.0</ele><time>2026-03-22T09:39:45.365Z</time></trkpt><trkpt lat="36.9717988" lon="15.0533619"><ele>478.0</ele><time>2026-03-22T09:39:51.348Z</time></trkpt><trkpt lat="36.9718456" lon="15.0532915"><ele>480.0</ele><time>2026-03-22T09:39:52.373Z</time></trkpt><trkpt lat="36.9719017" lon="15.0532163"><ele>482.00000000000006</ele><time>2026-03-22T09:39:53.325Z</time></trkpt><trkpt lat="36.971949" lon="15.0531398"><ele>484.0</ele><time>2026-03-22T09:39:54.353Z</time></trkpt><trkpt lat="36.9720032" lon="15.0530588"><ele>484.00000000000006</ele><time>2026-03-22T09:39:55.385Z</time></trkpt><trkpt lat="36.9720532" lon="15.0529722"><ele>484.0</ele><time>2026-03-22T09:39:56.366Z</time></trkpt><trkpt lat="36.9720954" lon="15.0528919"><ele>484.0</ele><time>2026-03-22T09:39:57.36Z</time></trkpt><trkpt lat="36.972131" lon="15.0528158"><ele>484.0</ele><time>2026-03-22T09:39:58.349Z</time></trkpt><trkpt lat="36.9721646" lon="15.0527309"><ele>484.00000000000006</ele><time>2026-03-22T09:39:59.354Z</time></trkpt><trkpt lat="36.9721999" lon="15.0526371"><ele>484.0</ele><time>2026-03-22T09:40:00.342Z</time></trkpt><trkpt lat="36.9722298" lon="15.052531"><ele>483.2</ele><time>2026-03-22T09:40:01.371Z</time></trkpt><trkpt lat="36.9722583" lon="15.0524179"><ele>482.4</ele><time>2026-03-22T09:40:02.358Z</time></trkpt><trkpt lat="36.972288" lon="15.0522914"><ele>481.6</ele><time>2026-03-22T09:40:03.373Z</time></trkpt><trkpt lat="36.9723144" lon="15.0521524"><ele>480.8</ele><time>2026-03-22T09:40:04.357Z</time></trkpt><trkpt lat="36.9723414" lon="15.0520083"><ele>480.0</ele><time>2026-03-22T09:40:05.362Z</time></trkpt><trkpt lat="36.9723701" lon="15.0518554"><ele>480.0</ele><time>2026-03-22T09:40:06.365Z</time></trkpt><trkpt lat="36.9723928" lon="15.051708"><ele>480.0</ele><time>2026-03-22T09:40:07.377Z</time></trkpt><trkpt lat="36.9724158" lon="15.0515535"><ele>480.0</ele><time>2026-03-22T09:40:08.367Z</time></trkpt><trkpt lat="36.9724427" lon="15.0513932"><ele>480.0</ele><time>2026-03-22T09:40:09.354Z</time></trkpt><trkpt lat="36.9724663" lon="15.0512222"><ele>479.25</ele><time>2026-03-22T09:40:10.336Z</time></trkpt><trkpt lat="36.9724898" lon="15.0510465"><ele>478.5</ele><time>2026-03-22T09:40:11.398Z</time></trkpt><trkpt lat="36.972517" lon="15.0508667"><ele>477.75</ele><time>2026-03-22T09:40:12.369Z</time></trkpt><trkpt lat="36.9725456" lon="15.0506825"><ele>477.0</ele><time>2026-03-22T09:40:13.383Z</time></trkpt><trkpt lat="36.9725751" lon="15.050504"><ele>478.75</ele><time>2026-03-22T09:40:14.381Z</time></trkpt><trkpt lat="36.9726051" lon="15.0503358"><ele>480.5</ele><time>2026-03-22T09:40:15.345Z</time></trkpt><trkpt lat="36.9726308" lon="15.0501774"><ele>482.25</ele><time>2026-03-22T09:40:16.367Z</time></trkpt><trkpt lat="36.9726502" lon="15.0500284"><ele>484.0</ele><time>2026-03-22T09:40:17.348Z</time></trkpt><trkpt lat="36.9726749" lon="15.0498862"><ele>484.0</ele><time>2026-03-22T09:40:18.359Z</time></trkpt><trkpt lat="36.9726958" lon="15.0497436"><ele>484.0</ele><time>2026-03-22T09:40:19.425Z</time></trkpt><trkpt lat="36.9727196" lon="15.0496033"><ele>484.0</ele><time>2026-03-22T09:40:20.351Z</time></trkpt><trkpt lat="36.9727414" lon="15.0494517"><ele>484.0</ele><time>2026-03-22T09:40:21.364Z</time></trkpt><trkpt lat="36.972755" lon="15.0492993"><ele>484.0</ele><time>2026-03-22T09:40:22.356Z</time></trkpt><trkpt lat="36.9727371" lon="15.049134"><ele>484.0</ele><time>2026-03-22T09:40:23.377Z</time></trkpt><trkpt lat="36.9727048" lon="15.0489782"><ele>484.0</ele><time>2026-03-22T09:40:24.363Z</time></trkpt><trkpt lat="36.9726543" lon="15.0488372"><ele>484.0</ele><time>2026-03-22T09:40:25.347Z</time></trkpt><trkpt lat="36.9726001" lon="15.0486987"><ele>482.25</ele><time>2026-03-22T09:40:26.371Z</time></trkpt><trkpt lat="36.9725496" lon="15.04856"><ele>480.5</ele><time>2026-03-22T09:40:27.359Z</time></trkpt><trkpt lat="36.9725094" lon="15.0484237"><ele>478.75</ele><time>2026-03-22T09:40:28.363Z</time></trkpt><trkpt lat="36.9724784" lon="15.0482758"><ele>477.0</ele><time>2026-03-22T09:40:29.355Z</time></trkpt><trkpt lat="36.9724666" lon="15.0481601"><ele>474.40000000000003</ele><time>2026-03-22T09:40:30.355Z</time></trkpt><trkpt lat="36.9724869" lon="15.0480596"><ele>471.80000000000007</ele><time>2026-03-22T09:40:31.342Z</time></trkpt><trkpt lat="36.9725389" lon="15.0479724"><ele>469.2</ele><time>2026-03-22T09:40:32.36Z</time></trkpt><trkpt lat="36.9726214" lon="15.047896"><ele>466.6</ele><time>2026-03-22T09:40:33.342Z</time></trkpt><trkpt lat="36.9727133" lon="15.047812"><ele>464.0</ele><time>2026-03-22T09:40:34.37Z</time></trkpt><trkpt lat="36.9728091" lon="15.0477212"><ele>464.0</ele><time>2026-03-22T09:40:35.361Z</time></trkpt><trkpt lat="36.9729044" lon="15.047626"><ele>464.0</ele><time>2026-03-22T09:40:36.361Z</time></trkpt><trkpt lat="36.9729955" lon="15.0475205"><ele>464.0</ele><time>2026-03-22T09:40:37.35Z</time></trkpt><trkpt lat="36.9730815" lon="15.0473985"><ele>464.0</ele><time>2026-03-22T09:40:38.356Z</time></trkpt><trkpt lat="36.9731605" lon="15.0472648"><ele>464.0</ele><time>2026-03-22T09:40:39.355Z</time></trkpt><trkpt lat="36.9732375" lon="15.0471224"><ele>464.0</ele><time>2026-03-22T09:40:40.359Z</time></trkpt><trkpt lat="36.9733069" lon="15.0469921"><ele>464.0</ele><time>2026-03-22T09:40:41.36Z</time></trkpt><trkpt lat="36.973366" lon="15.0468585"><ele>464.0</ele><time>2026-03-22T09:40:42.364Z</time></trkpt><trkpt lat="36.9734106" lon="15.0467164"><ele>461.25</ele><time>2026-03-22T09:40:43.364Z</time></trkpt><trkpt lat="36.973441" lon="15.0465698"><ele>458.5</ele><time>2026-03-22T09:40:44.356Z</time></trkpt><trkpt lat="36.9734723" lon="15.046415"><ele>455.75</ele><time>2026-03-22T09:40:45.362Z</time></trkpt><trkpt lat="36.973503" lon="15.0462608"><ele>453.0</ele><time>2026-03-22T09:40:46.353Z</time></trkpt><trkpt lat="36.9735374" lon="15.0461054"><ele>453.0</ele><time>2026-03-22T09:40:47.333Z</time></trkpt><trkpt lat="36.9735727" lon="15.0459495"><ele>453.0</ele><time>2026-03-22T09:40:48.353Z</time></trkpt><trkpt lat="36.9736099" lon="15.0457886"><ele>453.0</ele><time>2026-03-22T09:40:49.364Z</time></trkpt><trkpt lat="36.9736533" lon="15.0456296"><ele>453.0</ele><time>2026-03-22T09:40:50.359Z</time></trkpt><trkpt lat="36.9737028" lon="15.0454666"><ele>450.66666666666663</ele><time>2026-03-22T09:40:51.355Z</time></trkpt><trkpt lat="36.9737618" lon="15.0452884"><ele>448.3333333333333</ele><time>2026-03-22T09:40:52.36Z</time></trkpt><trkpt lat="36.9738273" lon="15.0451143"><ele>446.0</ele><time>2026-03-22T09:40:53.357Z</time></trkpt><trkpt lat="36.9738919" lon="15.0449317"><ele>444.66666666666663</ele><time>2026-03-22T09:40:54.374Z</time></trkpt><trkpt lat="36.9739605" lon="15.0447424"><ele>443.33333333333337</ele><time>2026-03-22T09:40:55.353Z</time></trkpt><trkpt lat="36.9740341" lon="15.0445333"><ele>442.0</ele><time>2026-03-22T09:40:56.36Z</time></trkpt><trkpt lat="36.9741055" lon="15.0442814"><ele>439.0</ele><time>2026-03-22T09:40:57.357Z</time></trkpt><trkpt lat="36.9741946" lon="15.0440043"><ele>436.0</ele><time>2026-03-22T09:40:58.369Z</time></trkpt><trkpt lat="36.9742958" lon="15.0437095"><ele>436.0</ele><time>2026-03-22T09:40:59.341Z</time></trkpt><trkpt lat="36.974397" lon="15.0434057"><ele>436.0</ele><time>2026-03-22T09:41:00.36Z</time></trkpt><trkpt lat="36.9744857" lon="15.0431093"><ele>434.0</ele><time>2026-03-22T09:41:01.36Z</time></trkpt><trkpt lat="36.9745518" lon="15.0428236"><ele>432.0</ele><time>2026-03-22T09:41:02.36Z</time></trkpt><trkpt lat="36.9746199" lon="15.042566"><ele>431.0</ele><time>2026-03-22T09:41:03.38Z</time></trkpt><trkpt lat="36.9746786" lon="15.042327"><ele>430.0</ele><time>2026-03-22T09:41:04.381Z</time></trkpt><trkpt lat="36.9747422" lon="15.0421087"><ele>429.0</ele><time>2026-03-22T09:41:05.345Z</time></trkpt><trkpt lat="36.9748029" lon="15.0418961"><ele>429.0</ele><time>2026-03-22T09:41:06.381Z</time></trkpt><trkpt lat="36.9748576" lon="15.0416878"><ele>429.0</ele><time>2026-03-22T09:41:07.355Z</time></trkpt><trkpt lat="36.9749095" lon="15.0414876"><ele>429.0</ele><time>2026-03-22T09:41:08.342Z</time></trkpt><trkpt lat="36.9749642" lon="15.0412809"><ele>429.33333333333337</ele><time>2026-03-22T09:41:09.346Z</time></trkpt><trkpt lat="36.9750181" lon="15.0410792"><ele>429.6666666666667</ele><time>2026-03-22T09:41:10.36Z</time></trkpt><trkpt lat="36.9750777" lon="15.0408734"><ele>430.0</ele><time>2026-03-22T09:41:11.362Z</time></trkpt><trkpt lat="36.9751382" lon="15.0406733"><ele>428.0</ele><time>2026-03-22T09:41:12.369Z</time></trkpt><trkpt lat="36.9752024" lon="15.0404613"><ele>426.0</ele><time>2026-03-22T09:41:13.373Z</time></trkpt><trkpt lat="36.9752791" lon="15.0402529"><ele>424.0</ele><time>2026-03-22T09:41:14.38Z</time></trkpt><trkpt lat="36.9753682" lon="15.0400422"><ele>425.6666666666667</ele><time>2026-03-22T09:41:15.39Z</time></trkpt><trkpt lat="36.975459" lon="15.039839"><ele>427.33333333333337</ele><time>2026-03-22T09:41:16.363Z</time></trkpt><trkpt lat="36.9755495" lon="15.0396404"><ele>429.0</ele><time>2026-03-22T09:41:17.359Z</time></trkpt><trkpt lat="36.9756463" lon="15.039444"><ele>429.0</ele><time>2026-03-22T09:41:18.379Z</time></trkpt><trkpt lat="36.9757416" lon="15.0392402"><ele>429.0</ele><time>2026-03-22T09:41:19.344Z</time></trkpt><trkpt lat="36.9758329" lon="15.0390423"><ele>429.0</ele><time>2026-03-22T09:41:20.342Z</time></trkpt><trkpt lat="36.9759232" lon="15.0388527"><ele>426.0</ele><time>2026-03-22T09:41:21.373Z</time></trkpt><trkpt lat="36.9760032" lon="15.0386722"><ele>423.0</ele><time>2026-03-22T09:41:22.355Z</time></trkpt><trkpt lat="36.9760785" lon="15.0385036"><ele>420.0</ele><time>2026-03-22T09:41:23.376Z</time></trkpt><trkpt lat="36.9761509" lon="15.038356"><ele>423.33333333333337</ele><time>2026-03-22T09:41:24.362Z</time></trkpt><trkpt lat="36.9762439" lon="15.0382096"><ele>426.6666666666667</ele><time>2026-03-22T09:41:25.343Z</time></trkpt><trkpt lat="36.9763607" lon="15.0380651"><ele>430.0</ele><time>2026-03-22T09:41:26.361Z</time></trkpt><trkpt lat="36.9764862" lon="15.0379183"><ele>430.0</ele><time>2026-03-22T09:41:27.366Z</time></trkpt><trkpt lat="36.9766293" lon="15.0377598"><ele>430.0</ele><time>2026-03-22T09:41:28.358Z</time></trkpt><trkpt lat="36.9767839" lon="15.0376025"><ele>430.0</ele><time>2026-03-22T09:41:29.368Z</time></trkpt><trkpt lat="36.9769329" lon="15.0374583"><ele>429.6666666666667</ele><time>2026-03-22T09:41:30.37Z</time></trkpt><trkpt lat="36.9770779" lon="15.0373179"><ele>429.33333333333337</ele><time>2026-03-22T09:41:31.373Z</time></trkpt><trkpt lat="36.9772184" lon="15.0371778"><ele>429.0</ele><time>2026-03-22T09:41:32.363Z</time></trkpt><trkpt lat="36.9773568" lon="15.0370368"><ele>429.0</ele><time>2026-03-22T09:41:33.376Z</time></trkpt><trkpt lat="36.9775009" lon="15.0368867"><ele>429.0</ele><time>2026-03-22T09:41:34.378Z</time></trkpt><trkpt lat="36.9776322" lon="15.0367357"><ele>429.0</ele><time>2026-03-22T09:41:35.383Z</time></trkpt><trkpt lat="36.9777646" lon="15.0365858"><ele>427.66666666666663</ele><time>2026-03-22T09:41:36.354Z</time></trkpt><trkpt lat="36.9779015" lon="15.0364381"><ele>426.3333333333333</ele><time>2026-03-22T09:41:37.371Z</time></trkpt><trkpt lat="36.9780231" lon="15.0362834"><ele>425.0</ele><time>2026-03-22T09:41:38.37Z</time></trkpt><trkpt lat="36.9781314" lon="15.0361071"><ele>425.0</ele><time>2026-03-22T09:41:39.365Z</time></trkpt><trkpt lat="36.9782278" lon="15.0359026"><ele>425.0</ele><time>2026-03-22T09:41:40.365Z</time></trkpt><trkpt lat="36.9783266" lon="15.0356955"><ele>425.0</ele><time>2026-03-22T09:41:41.361Z</time></trkpt><trkpt lat="36.9784159" lon="15.0354934"><ele>424.66666666666663</ele><time>2026-03-22T09:41:42.372Z</time></trkpt><trkpt lat="36.9785097" lon="15.0352987"><ele>424.33333333333337</ele><time>2026-03-22T09:41:43.353Z</time></trkpt><trkpt lat="36.9786077" lon="15.0351053"><ele>424.0</ele><time>2026-03-22T09:41:44.377Z</time></trkpt><trkpt lat="36.9787048" lon="15.034921"><ele>425.6666666666667</ele><time>2026-03-22T09:41:45.369Z</time></trkpt><trkpt lat="36.9788043" lon="15.0347382"><ele>427.33333333333337</ele><time>2026-03-22T09:41:46.361Z</time></trkpt><trkpt lat="36.9789128" lon="15.034562"><ele>429.0</ele><time>2026-03-22T09:41:47.364Z</time></trkpt><trkpt lat="36.9790199" lon="15.0343837"><ele>429.0</ele><time>2026-03-22T09:41:48.389Z</time></trkpt><trkpt lat="36.9791211" lon="15.0341974"><ele>429.0</ele><time>2026-03-22T09:41:49.371Z</time></trkpt><trkpt lat="36.9792195" lon="15.0340196"><ele>429.0</ele><time>2026-03-22T09:41:50.369Z</time></trkpt><trkpt lat="36.9793127" lon="15.0338521"><ele>429.0</ele><time>2026-03-22T09:41:51.38Z</time></trkpt><trkpt lat="36.9794007" lon="15.0336798"><ele>429.0</ele><time>2026-03-22T09:41:52.356Z</time></trkpt><trkpt lat="36.9794698" lon="15.0334944"><ele>429.0</ele><time>2026-03-22T09:41:53.369Z</time></trkpt><trkpt lat="36.9795322" lon="15.0332876"><ele>429.0</ele><time>2026-03-22T09:41:54.37Z</time></trkpt><trkpt lat="36.9795781" lon="15.0330857"><ele>429.0</ele><time>2026-03-22T09:41:55.374Z</time></trkpt><trkpt lat="36.9796077" lon="15.032877"><ele>429.0</ele><time>2026-03-22T09:41:56.375Z</time></trkpt><trkpt lat="36.9796229" lon="15.0326614"><ele>430.33333333333337</ele><time>2026-03-22T09:41:57.375Z</time></trkpt><trkpt lat="36.9796384" lon="15.0324395"><ele>431.6666666666667</ele><time>2026-03-22T09:41:58.365Z</time></trkpt><trkpt lat="36.9796648" lon="15.0322299"><ele>433.0</ele><time>2026-03-22T09:41:59.361Z</time></trkpt><trkpt lat="36.9796899" lon="15.0320341"><ele>433.0</ele><time>2026-03-22T09:42:00.359Z</time></trkpt><trkpt lat="36.9797104" lon="15.0318477"><ele>433.0</ele><time>2026-03-22T09:42:01.369Z</time></trkpt><trkpt lat="36.9797275" lon="15.0316637"><ele>433.0</ele><time>2026-03-22T09:42:02.364Z</time></trkpt><trkpt lat="36.9797537" lon="15.0314851"><ele>433.0</ele><time>2026-03-22T09:42:03.369Z</time></trkpt><trkpt lat="36.9797828" lon="15.0313232"><ele>433.79999999999995</ele><time>2026-03-22T09:42:04.363Z</time></trkpt><trkpt lat="36.9798142" lon="15.0311789"><ele>434.59999999999997</ele><time>2026-03-22T09:42:05.363Z</time></trkpt><trkpt lat="36.9798365" lon="15.0310554"><ele>435.40000000000003</ele><time>2026-03-22T09:42:06.357Z</time></trkpt><trkpt lat="36.9798672" lon="15.0309428"><ele>436.20000000000005</ele><time>2026-03-22T09:42:08.358Z</time></trkpt><trkpt lat="36.9799148" lon="15.0308356"><ele>437.0</ele><time>2026-03-22T09:42:12.347Z</time></trkpt><trkpt lat="36.9799795" lon="15.0307707"><ele>437.0</ele><time>2026-03-22T09:42:13.351Z</time></trkpt><trkpt lat="36.9800664" lon="15.0307013"><ele>437.0</ele><time>2026-03-22T09:42:14.35Z</time></trkpt><trkpt lat="36.9801574" lon="15.0306423"><ele>437.0</ele><time>2026-03-22T09:42:15.367Z</time></trkpt><trkpt lat="36.9802669" lon="15.030571"><ele>437.0</ele><time>2026-03-22T09:42:16.331Z</time></trkpt><trkpt lat="36.9803881" lon="15.0304948"><ele>437.0</ele><time>2026-03-22T09:42:17.366Z</time></trkpt><trkpt lat="36.9805079" lon="15.0304192"><ele>437.0</ele><time>2026-03-22T09:42:18.359Z</time></trkpt><trkpt lat="36.9806278" lon="15.0303402"><ele>437.0</ele><time>2026-03-22T09:42:19.352Z</time></trkpt><trkpt lat="36.9807505" lon="15.0302681"><ele>437.0</ele><time>2026-03-22T09:42:20.345Z</time></trkpt><trkpt lat="36.9808781" lon="15.0301943"><ele>436.5</ele><time>2026-03-22T09:42:21.36Z</time></trkpt><trkpt lat="36.9810021" lon="15.0301236"><ele>436.0</ele><time>2026-03-22T09:42:22.33Z</time></trkpt><trkpt lat="36.9811261" lon="15.0300388"><ele>435.5</ele><time>2026-03-22T09:42:23.356Z</time></trkpt><trkpt lat="36.9812507" lon="15.0299466"><ele>435.0</ele><time>2026-03-22T09:42:24.359Z</time></trkpt><trkpt lat="36.981373" lon="15.0298596"><ele>435.0</ele><time>2026-03-22T09:42:25.361Z</time></trkpt><trkpt lat="36.9814974" lon="15.0297741"><ele>435.0</ele><time>2026-03-22T09:42:26.372Z</time></trkpt><trkpt lat="36.9816197" lon="15.0296967"><ele>435.0</ele><time>2026-03-22T09:42:27.36Z</time></trkpt><trkpt lat="36.9817463" lon="15.0296138"><ele>435.0</ele><time>2026-03-22T09:42:28.379Z</time></trkpt><trkpt lat="36.9818889" lon="15.0295203"><ele>434.33333333333337</ele><time>2026-03-22T09:42:29.375Z</time></trkpt><trkpt lat="36.9820299" lon="15.0294256"><ele>433.6666666666667</ele><time>2026-03-22T09:42:30.345Z</time></trkpt><trkpt lat="36.9821684" lon="15.0293308"><ele>433.0</ele><time>2026-03-22T09:42:31.361Z</time></trkpt><trkpt lat="36.9823041" lon="15.0292392"><ele>433.0</ele><time>2026-03-22T09:42:32.313Z</time></trkpt><trkpt lat="36.982439" lon="15.0291493"><ele>433.0</ele><time>2026-03-22T09:42:33.36Z</time></trkpt><trkpt lat="36.9825663" lon="15.0290655"><ele>433.0</ele><time>2026-03-22T09:42:34.443Z</time></trkpt><trkpt lat="36.982691" lon="15.0289924"><ele>433.0</ele><time>2026-03-22T09:42:35.366Z</time></trkpt><trkpt lat="36.9828117" lon="15.0289263"><ele>433.33333333333337</ele><time>2026-03-22T09:42:36.369Z</time></trkpt><trkpt lat="36.9829431" lon="15.0288642"><ele>433.66666666666663</ele><time>2026-03-22T09:42:37.366Z</time></trkpt><trkpt lat="36.9830858" lon="15.0288025"><ele>434.0</ele><time>2026-03-22T09:42:38.364Z</time></trkpt><trkpt lat="36.9832389" lon="15.0287394"><ele>433.66666666666663</ele><time>2026-03-22T09:42:39.346Z</time></trkpt><trkpt lat="36.9833994" lon="15.0286705"><ele>433.33333333333337</ele><time>2026-03-22T09:42:40.333Z</time></trkpt><trkpt lat="36.9835647" lon="15.0286139"><ele>433.0</ele><time>2026-03-22T09:42:41.365Z</time></trkpt><trkpt lat="36.9837334" lon="15.0285604"><ele>433.0</ele><time>2026-03-22T09:42:42.356Z</time></trkpt><trkpt lat="36.9839094" lon="15.0285099"><ele>433.0</ele><time>2026-03-22T09:42:43.368Z</time></trkpt><trkpt lat="36.984088" lon="15.0284521"><ele>433.0</ele><time>2026-03-22T09:42:44.367Z</time></trkpt><trkpt lat="36.9842647" lon="15.028392"><ele>433.33333333333337</ele><time>2026-03-22T09:42:45.386Z</time></trkpt><trkpt lat="36.9844342" lon="15.0283373"><ele>433.66666666666663</ele><time>2026-03-22T09:42:46.374Z</time></trkpt><trkpt lat="36.9846053" lon="15.0282761"><ele>434.0</ele><time>2026-03-22T09:42:47.374Z</time></trkpt><trkpt lat="36.9847831" lon="15.0282104"><ele>434.0</ele><time>2026-03-22T09:42:48.368Z</time></trkpt><trkpt lat="36.9849672" lon="15.0281477"><ele>434.0</ele><time>2026-03-22T09:42:49.354Z</time></trkpt><trkpt lat="36.9851416" lon="15.0280822"><ele>434.0</ele><time>2026-03-22T09:42:50.377Z</time></trkpt><trkpt lat="36.985314" lon="15.0280122"><ele>431.66666666666663</ele><time>2026-03-22T09:42:51.372Z</time></trkpt><trkpt lat="36.9854779" lon="15.0279277"><ele>429.33333333333337</ele><time>2026-03-22T09:42:52.362Z</time></trkpt><trkpt lat="36.9856327" lon="15.027784"><ele>427.0</ele><time>2026-03-22T09:42:53.374Z</time></trkpt><trkpt lat="36.9857758" lon="15.0275811"><ele>424.6666666666667</ele><time>2026-03-22T09:42:54.37Z</time></trkpt><trkpt lat="36.9858816" lon="15.0273837"><ele>422.33333333333337</ele><time>2026-03-22T09:42:55.374Z</time></trkpt><trkpt lat="36.9859638" lon="15.0271665"><ele>420.0</ele><time>2026-03-22T09:42:56.372Z</time></trkpt><trkpt lat="36.9860265" lon="15.0269736"><ele>420.0</ele><time>2026-03-22T09:42:57.373Z</time></trkpt><trkpt lat="36.9860787" lon="15.0268007"><ele>420.0</ele><time>2026-03-22T09:42:58.345Z</time></trkpt><trkpt lat="36.9861382" lon="15.026663"><ele>420.0</ele><time>2026-03-22T09:42:59.365Z</time></trkpt><trkpt lat="36.9862009" lon="15.0265616"><ele>420.0</ele><time>2026-03-22T09:43:00.392Z</time></trkpt><trkpt lat="36.9862664" lon="15.0264971"><ele>419.6</ele><time>2026-03-22T09:43:01.372Z</time></trkpt><trkpt lat="36.9863479" lon="15.0264743"><ele>419.2</ele><time>2026-03-22T09:43:02.354Z</time></trkpt><trkpt lat="36.986418" lon="15.0264828"><ele>418.79999999999995</ele><time>2026-03-22T09:43:03.348Z</time></trkpt><trkpt lat="36.9865312" lon="15.0264705"><ele>418.4</ele><time>2026-03-22T09:43:05.367Z</time></trkpt><trkpt lat="36.9866109" lon="15.0263464"><ele>418.0</ele><time>2026-03-22T09:43:07.363Z</time></trkpt><trkpt lat="36.9866381" lon="15.0262485"><ele>418.00000000000006</ele><time>2026-03-22T09:43:08.364Z</time></trkpt><trkpt lat="36.9866604" lon="15.0261329"><ele>418.0</ele><time>2026-03-22T09:43:09.36Z</time></trkpt><trkpt lat="36.9866785" lon="15.0260282"><ele>418.0</ele><time>2026-03-22T09:43:10.368Z</time></trkpt><trkpt lat="36.9866837" lon="15.0259441"><ele>418.0</ele><time>2026-03-22T09:43:11.355Z</time></trkpt><trkpt lat="36.98664" lon="15.0257955"><ele>418.00000000000006</ele><time>2026-03-22T09:43:13.349Z</time></trkpt><trkpt lat="36.9866069" lon="15.0257114"><ele>418.0</ele><time>2026-03-22T09:43:14.362Z</time></trkpt><trkpt lat="36.9865868" lon="15.0256197"><ele>417.83333333333337</ele><time>2026-03-22T09:43:15.345Z</time></trkpt><trkpt lat="36.9865748" lon="15.025528"><ele>417.6666666666667</ele><time>2026-03-22T09:43:16.351Z</time></trkpt><trkpt lat="36.9865804" lon="15.0254215"><ele>417.5</ele><time>2026-03-22T09:43:17.33Z</time></trkpt><trkpt lat="36.9866031" lon="15.0253188"><ele>417.33333333333337</ele><time>2026-03-22T09:43:18.348Z</time></trkpt><trkpt lat="36.9866208" lon="15.0252171"><ele>417.1666666666667</ele><time>2026-03-22T09:43:19.348Z</time></trkpt><trkpt lat="36.9866502" lon="15.0251257"><ele>417.0</ele><time>2026-03-22T09:43:20.359Z</time></trkpt><trkpt lat="36.9866773" lon="15.0250472"><ele>415.8333333333333</ele><time>2026-03-22T09:43:21.35Z</time></trkpt><trkpt lat="36.9867057" lon="15.0249603"><ele>414.66666666666663</ele><time>2026-03-22T09:43:22.345Z</time></trkpt><trkpt lat="36.9867333" lon="15.0248774"><ele>413.5</ele><time>2026-03-22T09:43:23.358Z</time></trkpt><trkpt lat="36.9867668" lon="15.0248025"><ele>412.3333333333333</ele><time>2026-03-22T09:43:24.36Z</time></trkpt><trkpt lat="36.9868178" lon="15.0246676"><ele>411.16666666666663</ele><time>2026-03-22T09:43:26.33Z</time></trkpt><trkpt lat="36.9868716" lon="15.0245894"><ele>410.0</ele><time>2026-03-22T09:43:29.365Z</time></trkpt><trkpt lat="36.9869421" lon="15.0246355"><ele>409.99999999999994</ele><time>2026-03-22T09:43:33.35Z</time></trkpt><trkpt lat="36.9869425" lon="15.0247546"><ele>410.0</ele><time>2026-03-22T09:43:36.344Z</time></trkpt><trkpt lat="36.9869067" lon="15.0248412"><ele>410.0</ele><time>2026-03-22T09:43:38.351Z</time></trkpt><trkpt lat="36.9868529" lon="15.0248902"><ele>410.0</ele><time>2026-03-22T09:43:40.351Z</time></trkpt><trkpt lat="36.9867897" lon="15.0249546"><ele>409.99999999999994</ele><time>2026-03-22T09:43:42.326Z</time></trkpt><trkpt lat="36.986741" lon="15.0250648"><ele>410.0</ele><time>2026-03-22T09:43:44.512Z</time></trkpt><trkpt lat="36.9866717" lon="15.0251708"><ele>409.49999999999994</ele><time>2026-03-22T09:43:46.338Z</time></trkpt><trkpt lat="36.9866212" lon="15.0252764"><ele>409.0</ele><time>2026-03-22T09:43:48.363Z</time></trkpt><trkpt lat="36.986615" lon="15.0253556"><ele>408.5</ele><time>2026-03-22T09:43:50.343Z</time></trkpt><trkpt lat="36.9866671" lon="15.0254089"><ele>408.0</ele><time>2026-03-22T09:43:53.341Z</time></trkpt><trkpt lat="36.9867585" lon="15.0254561"><ele>407.49999999999994</ele><time>2026-03-22T09:43:56.541Z</time></trkpt><trkpt lat="36.9868394" lon="15.0255319"><ele>407.0</ele><time>2026-03-22T09:43:59.352Z</time></trkpt><trkpt lat="36.9869208" lon="15.0255796"><ele>406.99999999999994</ele><time>2026-03-22T09:44:02.365Z</time></trkpt><trkpt lat="36.9870319" lon="15.0255854"><ele>407.0</ele><time>2026-03-22T09:44:20.334Z</time></trkpt><trkpt lat="36.9870631" lon="15.0255036"><ele>407.0</ele><time>2026-03-22T09:44:30.351Z</time></trkpt><trkpt lat="36.9870889" lon="15.0254223"><ele>407.0</ele><time>2026-03-22T09:44:39.402Z</time></trkpt><trkpt lat="36.9871241" lon="15.025347"><ele>406.99999999999994</ele><time>2026-03-22T09:44:43.34Z</time></trkpt><trkpt lat="36.987217" lon="15.0253564"><ele>407.0</ele><time>2026-03-22T09:44:46.498Z</time></trkpt><trkpt lat="36.9872846" lon="15.0253415"><ele>407.0</ele><time>2026-03-22T09:44:48.357Z</time></trkpt><trkpt lat="36.9873214" lon="15.0252618"><ele>407.0</ele><time>2026-03-22T09:44:52.399Z</time></trkpt><trkpt lat="36.9872892" lon="15.0251483"><ele>407.0</ele><time>2026-03-22T09:44:54.354Z</time></trkpt><trkpt lat="36.9872664" lon="15.0250653"><ele>407.0</ele><time>2026-03-22T09:44:56.352Z</time></trkpt><trkpt lat="36.9872844" lon="15.0249556"><ele>407.0</ele><time>2026-03-22T09:44:58.357Z</time></trkpt><trkpt lat="36.9873675" lon="15.0247937"><ele>407.16666666666663</ele><time>2026-03-22T09:45:00.34Z</time></trkpt><trkpt lat="36.9874252" lon="15.0247164"><ele>407.3333333333333</ele><time>2026-03-22T09:45:01.411Z</time></trkpt><trkpt lat="36.9874831" lon="15.0246444"><ele>407.5</ele><time>2026-03-22T09:45:02.349Z</time></trkpt><trkpt lat="36.9875423" lon="15.0245848"><ele>407.66666666666663</ele><time>2026-03-22T09:45:03.348Z</time></trkpt><trkpt lat="36.9876047" lon="15.0245328"><ele>407.8333333333333</ele><time>2026-03-22T09:45:04.37Z</time></trkpt><trkpt lat="36.9876745" lon="15.0244829"><ele>408.0</ele><time>2026-03-22T09:45:05.372Z</time></trkpt><trkpt lat="36.9877683" lon="15.024447"><ele>408.0</ele><time>2026-03-22T09:45:06.369Z</time></trkpt><trkpt lat="36.987875" lon="15.0243899"><ele>408.0</ele><time>2026-03-22T09:45:07.346Z</time></trkpt><trkpt lat="36.9879769" lon="15.0243205"><ele>408.0</ele><time>2026-03-22T09:45:08.366Z</time></trkpt><trkpt lat="36.9880737" lon="15.024251"><ele>408.0</ele><time>2026-03-22T09:45:09.359Z</time></trkpt><trkpt lat="36.988159" lon="15.0241915"><ele>408.0</ele><time>2026-03-22T09:45:10.36Z</time></trkpt><trkpt lat="36.9882361" lon="15.0241368"><ele>409.5</ele><time>2026-03-22T09:45:11.34Z</time></trkpt><trkpt lat="36.9883089" lon="15.0240848"><ele>411.0</ele><time>2026-03-22T09:45:12.336Z</time></trkpt><trkpt lat="36.988368" lon="15.0240261"><ele>412.5</ele><time>2026-03-22T09:45:13.368Z</time></trkpt><trkpt lat="36.988423" lon="15.0239755"><ele>414.0</ele><time>2026-03-22T09:45:14.359Z</time></trkpt><trkpt lat="36.9884928" lon="15.0239322"><ele>415.5</ele><time>2026-03-22T09:45:15.372Z</time></trkpt><trkpt lat="36.9885708" lon="15.0239069"><ele>417.0</ele><time>2026-03-22T09:45:16.352Z</time></trkpt><trkpt lat="36.9886805" lon="15.023833"><ele>417.0</ele><time>2026-03-22T09:45:18.33Z</time></trkpt><trkpt lat="36.988739" lon="15.023796"><ele>417.0</ele><time>2026-03-22T09:45:19.324Z</time></trkpt><trkpt lat="36.9887989" lon="15.0237659"><ele>417.0</ele><time>2026-03-22T09:45:20.342Z</time></trkpt><trkpt lat="36.9888642" lon="15.0237492"><ele>417.0</ele><time>2026-03-22T09:45:21.349Z</time></trkpt><trkpt lat="36.98893" lon="15.0237356"><ele>417.0</ele><time>2026-03-22T09:45:22.352Z</time></trkpt><trkpt lat="36.9889927" lon="15.0237166"><ele>417.0</ele><time>2026-03-22T09:45:23.348Z</time></trkpt><trkpt lat="36.9890558" lon="15.023695"><ele>417.0</ele><time>2026-03-22T09:45:24.353Z</time></trkpt><trkpt lat="36.9891213" lon="15.023681"><ele>417.1666666666667</ele><time>2026-03-22T09:45:25.337Z</time></trkpt><trkpt lat="36.9891878" lon="15.0236693"><ele>417.33333333333337</ele><time>2026-03-22T09:45:26.338Z</time></trkpt><trkpt lat="36.9892799" lon="15.0236656"><ele>417.5</ele><time>2026-03-22T09:45:28.366Z</time></trkpt><trkpt lat="36.9893756" lon="15.0236698"><ele>417.6666666666667</ele><time>2026-03-22T09:45:30.358Z</time></trkpt><trkpt lat="36.9894621" lon="15.0236728"><ele>417.83333333333337</ele><time>2026-03-22T09:45:32.335Z</time></trkpt><trkpt lat="36.98953" lon="15.0236947"><ele>418.0</ele><time>2026-03-22T09:45:35.366Z</time></trkpt><trkpt lat="36.9895928" lon="15.0237107"><ele>418.00000000000006</ele><time>2026-03-22T09:45:39.329Z</time></trkpt><trkpt lat="36.9896565" lon="15.0237091"><ele>418.0</ele><time>2026-03-22T09:45:52.358Z</time></trkpt><trkpt lat="36.9897249" lon="15.0237367"><ele>418.0</ele><time>2026-03-22T09:45:56.369Z</time></trkpt><trkpt lat="36.9897872" lon="15.0237647"><ele>418.0</ele><time>2026-03-22T09:45:59.358Z</time></trkpt><trkpt lat="36.9898726" lon="15.0237757"><ele>418.00000000000006</ele><time>2026-03-22T09:46:18.339Z</time></trkpt><trkpt lat="36.989939" lon="15.0238609"><ele>418.0</ele><time>2026-03-22T09:46:21.355Z</time></trkpt><trkpt lat="36.9900053" lon="15.0239818"><ele>418.33333333333337</ele><time>2026-03-22T09:46:23.376Z</time></trkpt><trkpt lat="36.9901122" lon="15.0240771"><ele>418.6666666666667</ele><time>2026-03-22T09:46:25.36Z</time></trkpt><trkpt lat="36.9901724" lon="15.0241283"><ele>419.0</ele><time>2026-03-22T09:46:26.363Z</time></trkpt><trkpt lat="36.9902433" lon="15.0241723"><ele>419.33333333333337</ele><time>2026-03-22T09:46:27.35Z</time></trkpt><trkpt lat="36.9903136" lon="15.0241973"><ele>419.6666666666667</ele><time>2026-03-22T09:46:28.359Z</time></trkpt><trkpt lat="36.9903894" lon="15.0241897"><ele>420.0</ele><time>2026-03-22T09:46:29.351Z</time></trkpt><trkpt lat="36.9904733" lon="15.0241889"><ele>419.3333333333333</ele><time>2026-03-22T09:46:30.341Z</time></trkpt><trkpt lat="36.9905543" lon="15.0241849"><ele>418.66666666666663</ele><time>2026-03-22T09:46:31.354Z</time></trkpt><trkpt lat="36.9906343" lon="15.0241825"><ele>418.0</ele><time>2026-03-22T09:46:32.341Z</time></trkpt><trkpt lat="36.9907336" lon="15.0241646"><ele>417.3333333333333</ele><time>2026-03-22T09:46:34.375Z</time></trkpt><trkpt lat="36.9908153" lon="15.024159"><ele>416.66666666666663</ele><time>2026-03-22T09:46:36.33Z</time></trkpt><trkpt lat="36.9908873" lon="15.0241201"><ele>416.0</ele><time>2026-03-22T09:46:38.365Z</time></trkpt><trkpt lat="36.9909776" lon="15.0240801"><ele>415.99999999999994</ele><time>2026-03-22T09:46:40.349Z</time></trkpt><trkpt lat="36.9910629" lon="15.0240992"><ele>416.0</ele><time>2026-03-22T09:46:42.368Z</time></trkpt><trkpt lat="36.9911325" lon="15.0240798"><ele>416.0</ele><time>2026-03-22T09:46:45.354Z</time></trkpt><trkpt lat="36.9912054" lon="15.0240497"><ele>416.0</ele><time>2026-03-22T09:47:07.345Z</time></trkpt><trkpt lat="36.9912809" lon="15.0240527"><ele>415.99999999999994</ele><time>2026-03-22T09:47:09.421Z</time></trkpt><trkpt lat="36.9913734" lon="15.0240355"><ele>416.0</ele><time>2026-03-22T09:47:11.342Z</time></trkpt><trkpt lat="36.9914965" lon="15.0240105"><ele>415.99999999999994</ele><time>2026-03-22T09:47:13.33Z</time></trkpt><trkpt lat="36.9915682" lon="15.0239833"><ele>416.0</ele><time>2026-03-22T09:47:14.367Z</time></trkpt><trkpt lat="36.9916349" lon="15.0239434"><ele>416.0</ele><time>2026-03-22T09:47:15.357Z</time></trkpt><trkpt lat="36.9916883" lon="15.0238922"><ele>416.0</ele><time>2026-03-22T09:47:16.358Z</time></trkpt><trkpt lat="36.9917485" lon="15.023772"><ele>415.99999999999994</ele><time>2026-03-22T09:47:18.345Z</time></trkpt><trkpt lat="36.9917963" lon="15.0236698"><ele>416.0</ele><time>2026-03-22T09:47:20.363Z</time></trkpt><trkpt lat="36.9918664" lon="15.0236153"><ele>415.4285714285714</ele><time>2026-03-22T09:47:22.371Z</time></trkpt><trkpt lat="36.9918539" lon="15.0235308"><ele>414.8571428571429</ele><time>2026-03-22T09:47:25.372Z</time></trkpt><trkpt lat="36.9918264" lon="15.0234597"><ele>414.2857142857143</ele><time>2026-03-22T09:47:31.383Z</time></trkpt><trkpt lat="36.9918031" lon="15.0233705"><ele>413.71428571428567</ele><time>2026-03-22T09:47:34.363Z</time></trkpt><trkpt lat="36.9917575" lon="15.0233033"><ele>413.1428571428571</ele><time>2026-03-22T09:47:38.478Z</time></trkpt><trkpt lat="36.9917187" lon="15.0232341"><ele>412.57142857142856</ele><time>2026-03-22T09:47:42.374Z</time></trkpt><trkpt lat="36.9917444" lon="15.023141"><ele>412.0</ele><time>2026-03-22T09:48:11.357Z</time></trkpt><trkpt lat="36.9917236" lon="15.0230428"><ele>412.00000000000006</ele><time>2026-03-22T09:48:46.343Z</time></trkpt><trkpt lat="36.9917064" lon="15.022947"><ele>412.0</ele><time>2026-03-22T09:48:49.361Z</time></trkpt><trkpt lat="36.9916953" lon="15.0228634"><ele>412.0</ele><time>2026-03-22T09:48:57.336Z</time></trkpt><trkpt lat="36.9917523" lon="15.0227986"><ele>412.0</ele><time>2026-03-22T09:49:13.364Z</time></trkpt><trkpt lat="36.9917176" lon="15.0227286"><ele>412.00000000000006</ele><time>2026-03-22T09:50:43.337Z</time></trkpt><trkpt lat="36.9917422" lon="15.0226176"><ele>412.0</ele><time>2026-03-22T09:52:54.346Z</time></trkpt><trkpt lat="36.9917631" lon="15.0225341"><ele>413.1428571428571</ele><time>2026-03-22T09:53:00.442Z</time></trkpt><trkpt lat="36.991758" lon="15.0224389"><ele>414.2857142857143</ele><time>2026-03-22T09:53:10.37Z</time></trkpt><trkpt lat="36.9917484" lon="15.0223588"><ele>415.42857142857144</ele><time>2026-03-22T09:53:14.349Z</time></trkpt><trkpt lat="36.9917492" lon="15.0222754"><ele>416.57142857142856</ele><time>2026-03-22T09:53:24.353Z</time></trkpt><trkpt lat="36.991707" lon="15.0222142"><ele>417.7142857142857</ele><time>2026-03-22T09:53:34.353Z</time></trkpt><trkpt lat="36.9917304" lon="15.0221366"><ele>418.85714285714283</ele><time>2026-03-22T09:53:38.334Z</time></trkpt><trkpt lat="36.9917537" lon="15.0220552"><ele>420.0</ele><time>2026-03-22T09:53:42.37Z</time></trkpt><trkpt lat="36.9917784" lon="15.0219449"><ele>420.0</ele><time>2026-03-22T09:53:45.376Z</time></trkpt><trkpt lat="36.9917701" lon="15.0218651"><ele>420.0</ele><time>2026-03-22T09:53:47.36Z</time></trkpt><trkpt lat="36.9917446" lon="15.0217751"><ele>420.0</ele><time>2026-03-22T09:53:49.354Z</time></trkpt><trkpt lat="36.9917249" lon="15.0216916"><ele>420.0</ele><time>2026-03-22T09:53:52.366Z</time></trkpt><trkpt lat="36.9916851" lon="15.0215735"><ele>420.0</ele><time>2026-03-22T09:54:40.33Z</time></trkpt><trkpt lat="36.9916477" lon="15.0214938"><ele>420.0</ele><time>2026-03-22T09:54:52.353Z</time></trkpt><trkpt lat="36.9915808" lon="15.0214725"><ele>421.0</ele><time>2026-03-22T09:54:56.365Z</time></trkpt><trkpt lat="36.9914945" lon="15.0214413"><ele>422.0</ele><time>2026-03-22T09:55:28.343Z</time></trkpt><trkpt lat="36.9914738" lon="15.0215212"><ele>423.0</ele><time>2026-03-22T09:56:08.351Z</time></trkpt><trkpt lat="36.9915397" lon="15.0215261"><ele>424.0</ele><time>2026-03-22T09:56:20.36Z</time></trkpt><trkpt lat="36.9915962" lon="15.0214665"><ele>425.0</ele><time>2026-03-22T09:56:24.359Z</time></trkpt><trkpt lat="36.9916113" lon="15.0213777"><ele>426.0</ele><time>2026-03-22T09:57:07.366Z</time></trkpt><trkpt lat="36.9915356" lon="15.0213623"><ele>427.0</ele><time>2026-03-22T09:57:14.325Z</time></trkpt><trkpt lat="36.9914725" lon="15.021369"><ele>427.0</ele><time>2026-03-22T09:57:23.344Z</time></trkpt><trkpt lat="36.991522" lon="15.0213044"><ele>427.0</ele><time>2026-03-22T09:58:07.337Z</time></trkpt><trkpt lat="36.9915849" lon="15.0212853"><ele>427.0</ele><time>2026-03-22T09:58:17.354Z</time></trkpt><trkpt lat="36.9915889" lon="15.021366"><ele>427.0</ele><time>2026-03-22T09:58:21.36Z</time></trkpt><trkpt lat="36.9915865" lon="15.0214631"><ele>427.0</ele><time>2026-03-22T09:58:24.336Z</time></trkpt><trkpt lat="36.9916114" lon="15.021374"><ele>427.0</ele><time>2026-03-22T09:59:06.373Z</time></trkpt><trkpt lat="36.9916522" lon="15.0212975"><ele>427.0</ele><time>2026-03-22T10:01:30.342Z</time></trkpt><trkpt lat="36.9916538" lon="15.021203"><ele>427.0</ele><time>2026-03-22T10:01:33.337Z</time></trkpt><trkpt lat="36.9916525" lon="15.0211113"><ele>427.0</ele><time>2026-03-22T10:01:39.375Z</time></trkpt><trkpt lat="36.9916521" lon="15.0210198"><ele>427.0</ele><time>2026-03-22T10:01:43.364Z</time></trkpt><trkpt lat="36.9916639" lon="15.0209295"><ele>427.0</ele><time>2026-03-22T10:01:46.366Z</time></trkpt><trkpt lat="36.9916162" lon="15.0208488"><ele>427.0</ele><time>2026-03-22T10:01:49.368Z</time></trkpt><trkpt lat="36.9916229" lon="15.0207658"><ele>427.0</ele><time>2026-03-22T10:01:51.382Z</time></trkpt><trkpt lat="36.9916478" lon="15.0206849"><ele>427.0</ele><time>2026-03-22T10:01:54.361Z</time></trkpt><trkpt lat="36.9916422" lon="15.0205944"><ele>427.00000000000006</ele><time>2026-03-22T10:01:57.364Z</time></trkpt><trkpt lat="36.991626" lon="15.0205137"><ele>427.0</ele><time>2026-03-22T10:02:00.334Z</time></trkpt><trkpt lat="36.991677" lon="15.0204116"><ele>427.0</ele><time>2026-03-22T10:02:14.362Z</time></trkpt><trkpt lat="36.9916678" lon="15.0203277"><ele>427.0</ele><time>2026-03-22T10:02:26.362Z</time></trkpt><trkpt lat="36.991649" lon="15.0202368"><ele>427.00000000000006</ele><time>2026-03-22T10:02:30.337Z</time></trkpt><trkpt lat="36.9916585" lon="15.0201331"><ele>427.0</ele><time>2026-03-22T10:02:34.378Z</time></trkpt><trkpt lat="36.9916618" lon="15.020051"><ele>427.00000000000006</ele><time>2026-03-22T10:02:37.371Z</time></trkpt><trkpt lat="36.9916407" lon="15.0199577"><ele>427.0</ele><time>2026-03-22T10:02:41.359Z</time></trkpt><trkpt lat="36.9916174" lon="15.0198349"><ele>427.0</ele><time>2026-03-22T10:02:51.359Z</time></trkpt><trkpt lat="36.9916039" lon="15.0197424"><ele>427.0</ele><time>2026-03-22T10:03:00.379Z</time></trkpt><trkpt lat="36.9915337" lon="15.0196838"><ele>427.00000000000006</ele><time>2026-03-22T10:03:07.347Z</time></trkpt><trkpt lat="36.9915131" lon="15.0196026"><ele>427.0</ele><time>2026-03-22T10:03:11.366Z</time></trkpt><trkpt lat="36.9915116" lon="15.0195108"><ele>427.00000000000006</ele><time>2026-03-22T10:03:18.355Z</time></trkpt><trkpt lat="36.9915495" lon="15.0194309"><ele>427.0</ele><time>2026-03-22T10:03:24.344Z</time></trkpt><trkpt lat="36.9915415" lon="15.019347"><ele>427.0</ele><time>2026-03-22T10:03:32.352Z</time></trkpt><trkpt lat="36.9914781" lon="15.0193578"><ele>427.0</ele><time>2026-03-22T10:04:33.358Z</time></trkpt><trkpt lat="36.9914036" lon="15.0192641"><ele>427.00000000000006</ele><time>2026-03-22T10:05:43.359Z</time></trkpt><trkpt lat="36.9914466" lon="15.0191965"><ele>427.0</ele><time>2026-03-22T10:06:22.358Z</time></trkpt><trkpt lat="36.9915168" lon="15.0191973"><ele>427.0</ele><time>2026-03-22T10:07:05.351Z</time></trkpt><trkpt lat="36.9914504" lon="15.0191513"><ele>427.0</ele><time>2026-03-22T10:07:11.369Z</time></trkpt><trkpt lat="36.9914159" lon="15.019085"><ele>427.0</ele><time>2026-03-22T10:07:25.366Z</time></trkpt><trkpt lat="36.9913859" lon="15.0190025"><ele>427.0</ele><time>2026-03-22T10:07:34.337Z</time></trkpt><trkpt lat="36.9913786" lon="15.0189235"><ele>427.0</ele><time>2026-03-22T10:07:42.345Z</time></trkpt><trkpt lat="36.9913473" lon="15.0188473"><ele>427.0</ele><time>2026-03-22T10:07:54.317Z</time></trkpt><trkpt lat="36.9912896" lon="15.0188156"><ele>427.0</ele><time>2026-03-22T10:08:00.342Z</time></trkpt><trkpt lat="36.9912398" lon="15.0187452"><ele>427.57142857142856</ele><time>2026-03-22T10:08:10.334Z</time></trkpt><trkpt lat="36.9912111" lon="15.0186661"><ele>428.1428571428571</ele><time>2026-03-22T10:08:19.349Z</time></trkpt><trkpt lat="36.9912068" lon="15.018585"><ele>428.7142857142857</ele><time>2026-03-22T10:09:07.362Z</time></trkpt><trkpt lat="36.9912159" lon="15.0185052"><ele>429.2857142857143</ele><time>2026-03-22T10:09:49.367Z</time></trkpt><trkpt lat="36.9912021" lon="15.0184095"><ele>429.85714285714283</ele><time>2026-03-22T10:10:07.349Z</time></trkpt><trkpt lat="36.9911981" lon="15.018323"><ele>430.42857142857144</ele><time>2026-03-22T10:10:12.354Z</time></trkpt><trkpt lat="36.9912113" lon="15.0182292"><ele>431.0</ele><time>2026-03-22T10:10:42.347Z</time></trkpt><trkpt lat="36.9912536" lon="15.0181683"><ele>431.16666666666663</ele><time>2026-03-22T10:10:51.366Z</time></trkpt><trkpt lat="36.9912663" lon="15.0180847"><ele>431.3333333333333</ele><time>2026-03-22T10:11:28.353Z</time></trkpt><trkpt lat="36.9911934" lon="15.0180096"><ele>431.5</ele><time>2026-03-22T10:16:27.345Z</time></trkpt><trkpt lat="36.9912601" lon="15.018094"><ele>431.66666666666663</ele><time>2026-03-22T10:19:00.351Z</time></trkpt><trkpt lat="36.9912572" lon="15.0180053"><ele>431.8333333333333</ele><time>2026-03-22T10:24:24.34Z</time></trkpt><trkpt lat="36.9911988" lon="15.0179358"><ele>432.0</ele><time>2026-03-22T10:24:26.343Z</time></trkpt><trkpt lat="36.9911358" lon="15.0179018"><ele>432.0</ele><time>2026-03-22T10:25:29.342Z</time></trkpt><trkpt lat="36.9911991" lon="15.0178991"><ele>432.0</ele><time>2026-03-22T10:28:02.367Z</time></trkpt><trkpt lat="36.9911367" lon="15.017876"><ele>432.0</ele><time>2026-03-22T10:31:18.374Z</time></trkpt><trkpt lat="36.9911838" lon="15.0178212"><ele>432.0</ele><time>2026-03-22T10:33:50.343Z</time></trkpt><trkpt lat="36.9912313" lon="15.0177151"><ele>432.0</ele><time>2026-03-22T10:34:20.358Z</time></trkpt><trkpt lat="36.9912894" lon="15.0176585"><ele>432.0</ele><time>2026-03-22T10:35:04.35Z</time></trkpt><trkpt lat="36.991362" lon="15.0176887"><ele>432.0</ele><time>2026-03-22T10:35:49.336Z</time></trkpt><trkpt lat="36.9914184" lon="15.0177376"><ele>432.0</ele><time>2026-03-22T10:36:07.349Z</time></trkpt><trkpt lat="36.9914769" lon="15.0176906"><ele>432.0</ele><time>2026-03-22T10:36:17.364Z</time></trkpt><trkpt lat="36.9915371" lon="15.0176133"><ele>432.0</ele><time>2026-03-22T10:37:00.344Z</time></trkpt><trkpt lat="36.9915674" lon="15.0175397"><ele>432.0</ele><time>2026-03-22T10:37:10.332Z</time></trkpt><trkpt lat="36.9915892" lon="15.0174615"><ele>432.0</ele><time>2026-03-22T10:37:17.358Z</time></trkpt><trkpt lat="36.9915926" lon="15.0173802"><ele>432.0</ele><time>2026-03-22T10:37:23.323Z</time></trkpt><trkpt lat="36.9915938" lon="15.0173011"><ele>432.0</ele><time>2026-03-22T10:38:09.351Z</time></trkpt><trkpt lat="36.9916097" lon="15.0172122"><ele>432.1428571428571</ele><time>2026-03-22T10:39:38.355Z</time></trkpt><trkpt lat="36.9916185" lon="15.0171178"><ele>432.2857142857143</ele><time>2026-03-22T10:39:41.372Z</time></trkpt><trkpt lat="36.9916588" lon="15.0170504"><ele>432.42857142857144</ele><time>2026-03-22T10:39:48.349Z</time></trkpt><trkpt lat="36.9916637" lon="15.0169697"><ele>432.57142857142856</ele><time>2026-03-22T10:39:59.351Z</time></trkpt><trkpt lat="36.9916286" lon="15.0168489"><ele>432.7142857142857</ele><time>2026-03-22T10:42:07.378Z</time></trkpt><trkpt lat="36.9915984" lon="15.0167783"><ele>432.85714285714283</ele><time>2026-03-22T10:42:56.363Z</time></trkpt><trkpt lat="36.9916408" lon="15.0167182"><ele>433.0</ele><time>2026-03-22T10:46:36.342Z</time></trkpt><trkpt lat="36.9917279" lon="15.0167262"><ele>433.99999999999994</ele><time>2026-03-22T10:47:41.361Z</time></trkpt><trkpt lat="36.9917829" lon="15.0166826"><ele>435.0</ele><time>2026-03-22T10:48:09.346Z</time></trkpt><trkpt lat="36.9918441" lon="15.0166341"><ele>436.0</ele><time>2026-03-22T10:48:14.364Z</time></trkpt><trkpt lat="36.9919175" lon="15.0166827"><ele>437.0</ele><time>2026-03-22T10:48:18.343Z</time></trkpt><trkpt lat="36.9919781" lon="15.0167186"><ele>438.0</ele><time>2026-03-22T10:48:22.369Z</time></trkpt><trkpt lat="36.9920298" lon="15.0167661"><ele>438.99999999999994</ele><time>2026-03-22T10:49:13.357Z</time></trkpt><trkpt lat="36.9921067" lon="15.0168284"><ele>440.0</ele><time>2026-03-22T10:49:16.355Z</time></trkpt><trkpt lat="36.992155" lon="15.0168867"><ele>439.99999999999994</ele><time>2026-03-22T10:49:20.362Z</time></trkpt><trkpt lat="36.9922248" lon="15.0169323"><ele>440.0</ele><time>2026-03-22T10:49:23.377Z</time></trkpt><trkpt lat="36.9922853" lon="15.0169891"><ele>440.0</ele><time>2026-03-22T10:49:26.365Z</time></trkpt><trkpt lat="36.9923524" lon="15.0170045"><ele>440.0</ele><time>2026-03-22T10:49:58.362Z</time></trkpt><trkpt lat="36.9924366" lon="15.0170325"><ele>439.99999999999994</ele><time>2026-03-22T10:50:00.352Z</time></trkpt><trkpt lat="36.9925406" lon="15.0170216"><ele>440.0</ele><time>2026-03-22T10:50:02.359Z</time></trkpt><trkpt lat="36.9926312" lon="15.0170308"><ele>440.0</ele><time>2026-03-22T10:50:04.361Z</time></trkpt><trkpt lat="36.9927254" lon="15.0170429"><ele>440.0</ele><time>2026-03-22T10:50:06.357Z</time></trkpt><trkpt lat="36.9928292" lon="15.0170466"><ele>440.0</ele><time>2026-03-22T10:50:08.375Z</time></trkpt><trkpt lat="36.9929366" lon="15.0170354"><ele>440.0</ele><time>2026-03-22T10:50:10.37Z</time></trkpt><trkpt lat="36.9930557" lon="15.0170253"><ele>440.0</ele><time>2026-03-22T10:50:12.351Z</time></trkpt><trkpt lat="36.9931557" lon="15.0170462"><ele>439.99999999999994</ele><time>2026-03-22T10:50:14.384Z</time></trkpt><trkpt lat="36.9932204" lon="15.0171008"><ele>440.0</ele><time>2026-03-22T10:50:16.342Z</time></trkpt><trkpt lat="36.9932683" lon="15.0171619"><ele>440.0</ele><time>2026-03-22T10:50:17.358Z</time></trkpt><trkpt lat="36.9933246" lon="15.0172225"><ele>440.0</ele><time>2026-03-22T10:50:18.365Z</time></trkpt><trkpt lat="36.9934009" lon="15.0172986"><ele>439.99999999999994</ele><time>2026-03-22T10:50:19.369Z</time></trkpt><trkpt lat="36.9934848" lon="15.017367"><ele>440.0</ele><time>2026-03-22T10:50:20.367Z</time></trkpt><trkpt lat="36.9935623" lon="15.0174342"><ele>439.8333333333333</ele><time>2026-03-22T10:50:21.374Z</time></trkpt><trkpt lat="36.993619" lon="15.017505"><ele>439.66666666666663</ele><time>2026-03-22T10:50:22.357Z</time></trkpt><trkpt lat="36.9936676" lon="15.0175565"><ele>439.5</ele><time>2026-03-22T10:50:23.364Z</time></trkpt><trkpt lat="36.9937274" lon="15.0175936"><ele>439.33333333333337</ele><time>2026-03-22T10:50:24.354Z</time></trkpt><trkpt lat="36.9938079" lon="15.017636"><ele>439.1666666666667</ele><time>2026-03-22T10:50:25.366Z</time></trkpt><trkpt lat="36.9939079" lon="15.0176743"><ele>439.0</ele><time>2026-03-22T10:50:26.377Z</time></trkpt><trkpt lat="36.9939938" lon="15.0177113"><ele>439.00000000000006</ele><time>2026-03-22T10:50:27.369Z</time></trkpt><trkpt lat="36.9940664" lon="15.0177692"><ele>439.0</ele><time>2026-03-22T10:50:29.374Z</time></trkpt><trkpt lat="36.9940666" lon="15.0179007"><ele>439.0</ele><time>2026-03-22T10:50:31.355Z</time></trkpt><trkpt lat="36.9940909" lon="15.0180009"><ele>439.0</ele><time>2026-03-22T10:50:32.391Z</time></trkpt><trkpt lat="36.9941265" lon="15.0180966"><ele>439.00000000000006</ele><time>2026-03-22T10:50:33.347Z</time></trkpt><trkpt lat="36.9941566" lon="15.0181956"><ele>439.0</ele><time>2026-03-22T10:50:34.389Z</time></trkpt><trkpt lat="36.9941804" lon="15.018294"><ele>438.00000000000006</ele><time>2026-03-22T10:50:35.373Z</time></trkpt><trkpt lat="36.9942141" lon="15.0183957"><ele>437.0</ele><time>2026-03-22T10:50:36.354Z</time></trkpt><trkpt lat="36.9942486" lon="15.0184903"><ele>436.0</ele><time>2026-03-22T10:50:37.373Z</time></trkpt><trkpt lat="36.994295" lon="15.0185752"><ele>435.0</ele><time>2026-03-22T10:50:38.365Z</time></trkpt><trkpt lat="36.9943406" lon="15.0186561"><ele>434.00000000000006</ele><time>2026-03-22T10:50:39.32Z</time></trkpt><trkpt lat="36.9943851" lon="15.0187264"><ele>433.0</ele><time>2026-03-22T10:50:40.361Z</time></trkpt><trkpt lat="36.9944558" lon="15.0188285"><ele>433.0</ele><time>2026-03-22T10:50:42.365Z</time></trkpt><trkpt lat="36.9945747" lon="15.0188607"><ele>433.0</ele><time>2026-03-22T10:50:45.338Z</time></trkpt><trkpt lat="36.9946539" lon="15.018812"><ele>433.0</ele><time>2026-03-22T10:50:47.379Z</time></trkpt><trkpt lat="36.9947206" lon="15.0187682"><ele>433.0</ele><time>2026-03-22T10:50:48.519Z</time></trkpt><trkpt lat="36.9949005" lon="15.0186364"><ele>433.00000000000006</ele><time>2026-03-22T10:50:50.374Z</time></trkpt><trkpt lat="36.9949706" lon="15.0185823"><ele>433.0</ele><time>2026-03-22T10:50:51.377Z</time></trkpt><trkpt lat="36.9950235" lon="15.0185353"><ele>433.0</ele><time>2026-03-22T10:50:52.369Z</time></trkpt><trkpt lat="36.9950717" lon="15.0184799"><ele>433.0</ele><time>2026-03-22T10:50:55.349Z</time></trkpt><trkpt lat="36.9951115" lon="15.018575"><ele>433.00000000000006</ele><time>2026-03-22T10:51:02.356Z</time></trkpt><trkpt lat="36.9951234" lon="15.0187089"><ele>433.0</ele><time>2026-03-22T10:51:04.353Z</time></trkpt><trkpt lat="36.9951306" lon="15.0188886"><ele>431.83333333333337</ele><time>2026-03-22T10:51:07.365Z</time></trkpt><trkpt lat="36.9951453" lon="15.0189814"><ele>430.6666666666667</ele><time>2026-03-22T10:51:09.347Z</time></trkpt><trkpt lat="36.9951744" lon="15.0190634"><ele>429.5</ele><time>2026-03-22T10:51:11.354Z</time></trkpt><trkpt lat="36.9951926" lon="15.0191688"><ele>428.33333333333337</ele><time>2026-03-22T10:51:14.357Z</time></trkpt><trkpt lat="36.9951934" lon="15.0192647"><ele>427.1666666666667</ele><time>2026-03-22T10:51:17.357Z</time></trkpt><trkpt lat="36.9951921" lon="15.0193533"><ele>426.0</ele><time>2026-03-22T10:51:20.352Z</time></trkpt><trkpt lat="36.9951951" lon="15.0194618"><ele>425.20000000000005</ele><time>2026-03-22T10:51:23.347Z</time></trkpt><trkpt lat="36.9952252" lon="15.0195874"><ele>424.40000000000003</ele><time>2026-03-22T10:51:25.393Z</time></trkpt><trkpt lat="36.9952789" lon="15.0196858"><ele>423.6</ele><time>2026-03-22T10:51:27.368Z</time></trkpt><trkpt lat="36.9953212" lon="15.0197946"><ele>422.8</ele><time>2026-03-22T10:51:29.339Z</time></trkpt><trkpt lat="36.9953585" lon="15.0198994"><ele>422.0</ele><time>2026-03-22T10:51:31.361Z</time></trkpt><trkpt lat="36.9954153" lon="15.0199753"><ele>421.99999999999994</ele><time>2026-03-22T10:51:33.335Z</time></trkpt><trkpt lat="36.9954769" lon="15.020046"><ele>422.0</ele><time>2026-03-22T10:51:35.376Z</time></trkpt><trkpt lat="36.9955269" lon="15.0201414"><ele>422.0</ele><time>2026-03-22T10:51:38.334Z</time></trkpt><trkpt lat="36.9956052" lon="15.0201593"><ele>422.0</ele><time>2026-03-22T10:51:42.356Z</time></trkpt><trkpt lat="36.9956853" lon="15.0200768"><ele>421.99999999999994</ele><time>2026-03-22T10:51:44.357Z</time></trkpt><trkpt lat="36.9957259" lon="15.0200126"><ele>422.0</ele><time>2026-03-22T10:51:45.345Z</time></trkpt><trkpt lat="36.9958264" lon="15.0199417"><ele>422.2857142857143</ele><time>2026-03-22T10:51:47.362Z</time></trkpt><trkpt lat="36.9958864" lon="15.0199035"><ele>422.57142857142856</ele><time>2026-03-22T10:51:48.362Z</time></trkpt><trkpt lat="36.9959471" lon="15.0198789"><ele>422.8571428571429</ele><time>2026-03-22T10:51:49.36Z</time></trkpt><trkpt lat="36.9960167" lon="15.0198628"><ele>423.1428571428571</ele><time>2026-03-22T10:51:50.366Z</time></trkpt><trkpt lat="36.9960877" lon="15.0198481"><ele>423.4285714285714</ele><time>2026-03-22T10:51:51.348Z</time></trkpt><trkpt lat="36.9961613" lon="15.0198389"><ele>423.7142857142857</ele><time>2026-03-22T10:51:52.374Z</time></trkpt><trkpt lat="36.9962248" lon="15.019824"><ele>424.0</ele><time>2026-03-22T10:51:53.351Z</time></trkpt><trkpt lat="36.9963385" lon="15.0197679"><ele>424.0</ele><time>2026-03-22T10:51:55.367Z</time></trkpt><trkpt lat="36.9963973" lon="15.0197042"><ele>424.0</ele><time>2026-03-22T10:51:57.363Z</time></trkpt><trkpt lat="36.996438" lon="15.0196428"><ele>424.0</ele><time>2026-03-22T10:52:00.355Z</time></trkpt><trkpt lat="36.9965089" lon="15.0196543"><ele>424.0</ele><time>2026-03-22T10:52:04.356Z</time></trkpt><trkpt lat="36.9965649" lon="15.0196143"><ele>424.0</ele><time>2026-03-22T10:52:06.338Z</time></trkpt><trkpt lat="36.9966439" lon="15.0195444"><ele>424.0</ele><time>2026-03-22T10:52:09.345Z</time></trkpt><trkpt lat="36.9966996" lon="15.0194981"><ele>424.0</ele><time>2026-03-22T10:52:12.346Z</time></trkpt><trkpt lat="36.996763" lon="15.0195084"><ele>423.83333333333337</ele><time>2026-03-22T10:52:16.355Z</time></trkpt><trkpt lat="36.9968514" lon="15.0194881"><ele>423.6666666666667</ele><time>2026-03-22T10:52:19.353Z</time></trkpt><trkpt lat="36.9969459" lon="15.0194201"><ele>423.5</ele><time>2026-03-22T10:52:21.345Z</time></trkpt><trkpt lat="36.9970027" lon="15.0193784"><ele>423.33333333333337</ele><time>2026-03-22T10:52:22.369Z</time></trkpt><trkpt lat="36.9970808" lon="15.0193287"><ele>423.1666666666667</ele><time>2026-03-22T10:52:24.354Z</time></trkpt><trkpt lat="36.9971562" lon="15.0192947"><ele>423.0</ele><time>2026-03-22T10:52:27.371Z</time></trkpt><trkpt lat="36.9972072" lon="15.019242"><ele>423.0</ele><time>2026-03-22T10:52:30.355Z</time></trkpt><trkpt lat="36.9972699" lon="15.0192062"><ele>423.0</ele><time>2026-03-22T10:52:33.348Z</time></trkpt><trkpt lat="36.9973155" lon="15.0192813"><ele>423.0</ele><time>2026-03-22T10:52:38.376Z</time></trkpt><trkpt lat="36.9973855" lon="15.0192995"><ele>423.0</ele><time>2026-03-22T10:52:42.337Z</time></trkpt><trkpt lat="36.9974595" lon="15.0193099"><ele>423.0</ele><time>2026-03-22T10:52:49.35Z</time></trkpt><trkpt lat="36.9975162" lon="15.0192747"><ele>423.0</ele><time>2026-03-22T10:52:52.362Z</time></trkpt><trkpt lat="36.9975768" lon="15.019229"><ele>423.0</ele><time>2026-03-22T10:52:54.351Z</time></trkpt><trkpt lat="36.9976677" lon="15.0192084"><ele>422.79999999999995</ele><time>2026-03-22T10:52:56.357Z</time></trkpt><trkpt lat="36.9977787" lon="15.0191593"><ele>422.6</ele><time>2026-03-22T10:52:58.355Z</time></trkpt><trkpt lat="36.9978517" lon="15.01906"><ele>422.4</ele><time>2026-03-22T10:53:00.366Z</time></trkpt><trkpt lat="36.9979239" lon="15.0189367"><ele>422.20000000000005</ele><time>2026-03-22T10:53:02.371Z</time></trkpt><trkpt lat="36.9979854" lon="15.0188441"><ele>422.0</ele><time>2026-03-22T10:53:04.348Z</time></trkpt><trkpt lat="36.9980592" lon="15.0188173"><ele>421.99999999999994</ele><time>2026-03-22T10:53:27.347Z</time></trkpt><trkpt lat="36.9981453" lon="15.0187914"><ele>422.0</ele><time>2026-03-22T10:53:30.345Z</time></trkpt><trkpt lat="36.9982137" lon="15.0187637"><ele>422.0</ele><time>2026-03-22T10:53:33.36Z</time></trkpt><trkpt lat="36.9982925" lon="15.0187613"><ele>422.0</ele><time>2026-03-22T10:53:36.364Z</time></trkpt><trkpt lat="36.9983708" lon="15.0187516"><ele>421.99999999999994</ele><time>2026-03-22T10:53:41.343Z</time></trkpt><trkpt lat="36.9984756" lon="15.0187286"><ele>422.0</ele><time>2026-03-22T10:55:24.349Z</time></trkpt><trkpt lat="36.9985395" lon="15.0187299"><ele>424.8333333333333</ele><time>2026-03-22T10:55:30.335Z</time></trkpt><trkpt lat="36.9986038" lon="15.0187232"><ele>427.66666666666663</ele><time>2026-03-22T10:57:15.364Z</time></trkpt><trkpt lat="36.9986684" lon="15.018763"><ele>430.5</ele><time>2026-03-22T10:58:05.376Z</time></trkpt><trkpt lat="36.9986654" lon="15.0188563"><ele>433.33333333333337</ele><time>2026-03-22T10:58:08.381Z</time></trkpt><trkpt lat="36.9986313" lon="15.0189415"><ele>436.1666666666667</ele><time>2026-03-22T10:58:11.366Z</time></trkpt><trkpt lat="36.998632" lon="15.0190512"><ele>439.0</ele><time>2026-03-22T10:58:14.366Z</time></trkpt><trkpt lat="36.9986354" lon="15.0191811"><ele>439.1666666666667</ele><time>2026-03-22T10:58:17.362Z</time></trkpt><trkpt lat="36.9986624" lon="15.0192821"><ele>439.33333333333337</ele><time>2026-03-22T10:58:19.353Z</time></trkpt><trkpt lat="36.9987161" lon="15.0193752"><ele>439.5</ele><time>2026-03-22T10:58:22.368Z</time></trkpt><trkpt lat="36.9987863" lon="15.0194296"><ele>439.66666666666663</ele><time>2026-03-22T10:58:24.369Z</time></trkpt><trkpt lat="36.9988747" lon="15.0194555"><ele>439.8333333333333</ele><time>2026-03-22T10:58:26.364Z</time></trkpt><trkpt lat="36.9989594" lon="15.0194546"><ele>440.0</ele><time>2026-03-22T10:58:28.382Z</time></trkpt><trkpt lat="36.9990464" lon="15.019447"><ele>440.0</ele><time>2026-03-22T10:58:30.344Z</time></trkpt><trkpt lat="36.9991462" lon="15.019443"><ele>440.0</ele><time>2026-03-22T10:58:32.345Z</time></trkpt><trkpt lat="36.9992412" lon="15.0194318"><ele>440.0</ele><time>2026-03-22T10:58:34.349Z</time></trkpt><trkpt lat="36.9993434" lon="15.0194373"><ele>440.0</ele><time>2026-03-22T10:58:36.368Z</time></trkpt><trkpt lat="36.9994501" lon="15.0194584"><ele>440.0</ele><time>2026-03-22T10:58:38.357Z</time></trkpt><trkpt lat="36.9995613" lon="15.0195211"><ele>440.8</ele><time>2026-03-22T10:58:40.363Z</time></trkpt><trkpt lat="36.9996219" lon="15.0195526"><ele>441.6</ele><time>2026-03-22T10:58:41.365Z</time></trkpt><trkpt lat="36.9997227" lon="15.0196088"><ele>442.4</ele><time>2026-03-22T10:58:43.372Z</time></trkpt><trkpt lat="36.9998149" lon="15.0196764"><ele>443.2</ele><time>2026-03-22T10:58:45.354Z</time></trkpt><trkpt lat="36.9998992" lon="15.0197428"><ele>444.0</ele><time>2026-03-22T10:58:47.373Z</time></trkpt><trkpt lat="36.9999771" lon="15.0197889"><ele>444.0</ele><time>2026-03-22T10:58:49.363Z</time></trkpt><trkpt lat="37.0000678" lon="15.0198583"><ele>444.0</ele><time>2026-03-22T10:58:51.389Z</time></trkpt><trkpt lat="37.0001588" lon="15.0199441"><ele>444.0</ele><time>2026-03-22T10:58:53.356Z</time></trkpt><trkpt lat="37.0002143" lon="15.0199951"><ele>444.0</ele><time>2026-03-22T10:58:54.367Z</time></trkpt><trkpt lat="37.0002875" lon="15.0200734"><ele>444.0</ele><time>2026-03-22T10:58:56.383Z</time></trkpt><trkpt lat="37.0002783" lon="15.0201552"><ele>444.0</ele><time>2026-03-22T11:00:05.351Z</time></trkpt><trkpt lat="37.0001754" lon="15.0202038"><ele>444.0</ele><time>2026-03-22T11:00:08.353Z</time></trkpt><trkpt lat="37.0001043" lon="15.0202321"><ele>444.0</ele><time>2026-03-22T11:00:09.363Z</time></trkpt><trkpt lat="37.0000195" lon="15.0202635"><ele>444.0</ele><time>2026-03-22T11:00:10.372Z</time></trkpt><trkpt lat="36.9999348" lon="15.020305"><ele>444.0</ele><time>2026-03-22T11:00:11.386Z</time></trkpt><trkpt lat="36.9998404" lon="15.0203536"><ele>444.0</ele><time>2026-03-22T11:00:12.37Z</time></trkpt><trkpt lat="36.9997331" lon="15.0204208"><ele>444.0</ele><time>2026-03-22T11:00:13.377Z</time></trkpt><trkpt lat="36.9996274" lon="15.0205045"><ele>444.0</ele><time>2026-03-22T11:00:14.378Z</time></trkpt><trkpt lat="36.9995189" lon="15.020597"><ele>444.0</ele><time>2026-03-22T11:00:15.355Z</time></trkpt><trkpt lat="36.9994151" lon="15.0206926"><ele>444.0</ele><time>2026-03-22T11:00:16.36Z</time></trkpt><trkpt lat="36.9993099" lon="15.0207923"><ele>444.0</ele><time>2026-03-22T11:00:17.353Z</time></trkpt><trkpt lat="36.9992097" lon="15.0208875"><ele>444.0</ele><time>2026-03-22T11:00:18.378Z</time></trkpt><trkpt lat="36.9991098" lon="15.0209874"><ele>444.0</ele><time>2026-03-22T11:00:19.39Z</time></trkpt><trkpt lat="36.9990016" lon="15.0210908"><ele>444.0</ele><time>2026-03-22T11:00:20.382Z</time></trkpt><trkpt lat="36.9988983" lon="15.0211896"><ele>444.0</ele><time>2026-03-22T11:00:21.388Z</time></trkpt><trkpt lat="36.9987971" lon="15.0212855"><ele>444.0</ele><time>2026-03-22T11:00:22.482Z</time></trkpt><trkpt lat="36.9986102" lon="15.0214736"><ele>444.0</ele><time>2026-03-22T11:00:24.385Z</time></trkpt><trkpt lat="36.9985235" lon="15.0215598"><ele>444.0</ele><time>2026-03-22T11:00:25.385Z</time></trkpt><trkpt lat="36.9984344" lon="15.0216504"><ele>444.0</ele><time>2026-03-22T11:00:26.378Z</time></trkpt><trkpt lat="36.9983431" lon="15.0217471"><ele>444.0</ele><time>2026-03-22T11:00:27.351Z</time></trkpt><trkpt lat="36.9982464" lon="15.0218407"><ele>443.75</ele><time>2026-03-22T11:00:28.375Z</time></trkpt><trkpt lat="36.9981559" lon="15.0219324"><ele>443.5</ele><time>2026-03-22T11:00:29.358Z</time></trkpt><trkpt lat="36.9980594" lon="15.0220301"><ele>443.25</ele><time>2026-03-22T11:00:30.372Z</time></trkpt><trkpt lat="36.9979654" lon="15.0221226"><ele>443.0</ele><time>2026-03-22T11:00:31.357Z</time></trkpt><trkpt lat="36.9978737" lon="15.0222091"><ele>443.0</ele><time>2026-03-22T11:00:32.355Z</time></trkpt><trkpt lat="36.9977815" lon="15.0222945"><ele>443.0</ele><time>2026-03-22T11:00:33.356Z</time></trkpt><trkpt lat="36.9976903" lon="15.022377"><ele>443.0</ele><time>2026-03-22T11:00:34.374Z</time></trkpt><trkpt lat="36.997597" lon="15.0224582"><ele>443.0</ele><time>2026-03-22T11:00:35.363Z</time></trkpt><trkpt lat="36.9974959" lon="15.0225498"><ele>443.0</ele><time>2026-03-22T11:00:36.362Z</time></trkpt><trkpt lat="36.9973896" lon="15.0226456"><ele>443.0</ele><time>2026-03-22T11:00:37.37Z</time></trkpt><trkpt lat="36.9972762" lon="15.0227509"><ele>443.0</ele><time>2026-03-22T11:00:38.351Z</time></trkpt><trkpt lat="36.9971682" lon="15.0228544"><ele>443.0</ele><time>2026-03-22T11:00:39.372Z</time></trkpt><trkpt lat="36.9970503" lon="15.0229597"><ele>443.0</ele><time>2026-03-22T11:00:40.353Z</time></trkpt><trkpt lat="36.996938" lon="15.0230638"><ele>443.0</ele><time>2026-03-22T11:00:41.369Z</time></trkpt><trkpt lat="36.9968241" lon="15.0231767"><ele>443.0</ele><time>2026-03-22T11:00:42.368Z</time></trkpt><trkpt lat="36.9967058" lon="15.0232848"><ele>443.0</ele><time>2026-03-22T11:00:43.354Z</time></trkpt><trkpt lat="36.9965879" lon="15.0234038"><ele>442.3333333333333</ele><time>2026-03-22T11:00:44.363Z</time></trkpt><trkpt lat="36.99646" lon="15.0235339"><ele>441.66666666666663</ele><time>2026-03-22T11:00:45.354Z</time></trkpt><trkpt lat="36.9963261" lon="15.0236598"><ele>441.0</ele><time>2026-03-22T11:00:46.38Z</time></trkpt><trkpt lat="36.9962022" lon="15.0237849"><ele>441.0</ele><time>2026-03-22T11:00:47.36Z</time></trkpt><trkpt lat="36.996087" lon="15.0239057"><ele>441.0</ele><time>2026-03-22T11:00:48.378Z</time></trkpt><trkpt lat="36.9959749" lon="15.0240198"><ele>441.0</ele><time>2026-03-22T11:00:49.365Z</time></trkpt><trkpt lat="36.9958573" lon="15.0241336"><ele>441.0</ele><time>2026-03-22T11:00:50.37Z</time></trkpt><trkpt lat="36.9957396" lon="15.0242449"><ele>441.25</ele><time>2026-03-22T11:00:51.373Z</time></trkpt><trkpt lat="36.9956263" lon="15.0243516"><ele>441.5</ele><time>2026-03-22T11:00:52.378Z</time></trkpt><trkpt lat="36.995509" lon="15.0244681"><ele>441.75</ele><time>2026-03-22T11:00:53.385Z</time></trkpt><trkpt lat="36.9953881" lon="15.024591"><ele>442.0</ele><time>2026-03-22T11:00:54.368Z</time></trkpt><trkpt lat="36.9952619" lon="15.0247064"><ele>442.0</ele><time>2026-03-22T11:00:55.377Z</time></trkpt><trkpt lat="36.9951291" lon="15.024805"><ele>442.0</ele><time>2026-03-22T11:00:56.387Z</time></trkpt><trkpt lat="36.9949918" lon="15.0248876"><ele>442.0</ele><time>2026-03-22T11:00:57.37Z</time></trkpt><trkpt lat="36.9948461" lon="15.0249564"><ele>442.0</ele><time>2026-03-22T11:00:58.362Z</time></trkpt><trkpt lat="36.9946884" lon="15.0250166"><ele>442.0</ele><time>2026-03-22T11:00:59.356Z</time></trkpt><trkpt lat="36.9945116" lon="15.0250718"><ele>442.0</ele><time>2026-03-22T11:01:00.363Z</time></trkpt><trkpt lat="36.9943385" lon="15.0251218"><ele>442.0</ele><time>2026-03-22T11:01:01.36Z</time></trkpt><trkpt lat="36.9941792" lon="15.0251662"><ele>442.0</ele><time>2026-03-22T11:01:02.362Z</time></trkpt><trkpt lat="36.9940219" lon="15.0252172"><ele>442.0</ele><time>2026-03-22T11:01:03.375Z</time></trkpt><trkpt lat="36.993867" lon="15.0252714"><ele>441.6666666666667</ele><time>2026-03-22T11:01:04.381Z</time></trkpt><trkpt lat="36.9937073" lon="15.0253179"><ele>441.33333333333337</ele><time>2026-03-22T11:01:05.361Z</time></trkpt><trkpt lat="36.9935417" lon="15.0253671"><ele>441.0</ele><time>2026-03-22T11:01:06.36Z</time></trkpt><trkpt lat="36.9933758" lon="15.0254155"><ele>440.0</ele><time>2026-03-22T11:01:07.36Z</time></trkpt><trkpt lat="36.993213" lon="15.0254641"><ele>439.0</ele><time>2026-03-22T11:01:08.347Z</time></trkpt><trkpt lat="36.9930518" lon="15.0255093"><ele>438.0</ele><time>2026-03-22T11:01:09.355Z</time></trkpt><trkpt lat="36.9928897" lon="15.0255576"><ele>438.0</ele><time>2026-03-22T11:01:10.36Z</time></trkpt><trkpt lat="36.9927342" lon="15.0256055"><ele>438.0</ele><time>2026-03-22T11:01:11.373Z</time></trkpt><trkpt lat="36.9925759" lon="15.0256492"><ele>438.0</ele><time>2026-03-22T11:01:12.375Z</time></trkpt><trkpt lat="36.9924136" lon="15.0256961"><ele>438.0</ele><time>2026-03-22T11:01:13.38Z</time></trkpt><trkpt lat="36.9922467" lon="15.0257433"><ele>438.0</ele><time>2026-03-22T11:01:14.379Z</time></trkpt><trkpt lat="36.9920795" lon="15.0257897"><ele>438.0</ele><time>2026-03-22T11:01:15.381Z</time></trkpt><trkpt lat="36.9919067" lon="15.0258458"><ele>438.0</ele><time>2026-03-22T11:01:16.388Z</time></trkpt><trkpt lat="36.9917347" lon="15.0258918"><ele>438.0</ele><time>2026-03-22T11:01:17.386Z</time></trkpt><trkpt lat="36.9915598" lon="15.0259381"><ele>438.0</ele><time>2026-03-22T11:01:18.377Z</time></trkpt><trkpt lat="36.9913892" lon="15.0259813"><ele>437.33333333333337</ele><time>2026-03-22T11:01:19.368Z</time></trkpt><trkpt lat="36.9912212" lon="15.0260297"><ele>436.6666666666667</ele><time>2026-03-22T11:01:20.381Z</time></trkpt><trkpt lat="36.9910446" lon="15.0260811"><ele>436.0</ele><time>2026-03-22T11:01:21.324Z</time></trkpt><trkpt lat="36.9908697" lon="15.0261363"><ele>433.6666666666667</ele><time>2026-03-22T11:01:22.376Z</time></trkpt><trkpt lat="36.9907054" lon="15.0261889"><ele>431.33333333333337</ele><time>2026-03-22T11:01:23.382Z</time></trkpt><trkpt lat="36.9905484" lon="15.0262372"><ele>429.0</ele><time>2026-03-22T11:01:24.366Z</time></trkpt><trkpt lat="36.9904072" lon="15.0262852"><ele>429.0</ele><time>2026-03-22T11:01:25.367Z</time></trkpt><trkpt lat="36.9902763" lon="15.026303"><ele>429.0</ele><time>2026-03-22T11:01:26.365Z</time></trkpt><trkpt lat="36.9901576" lon="15.0262694"><ele>429.0</ele><time>2026-03-22T11:01:27.38Z</time></trkpt><trkpt lat="36.9900434" lon="15.026173"><ele>429.0</ele><time>2026-03-22T11:01:28.365Z</time></trkpt><trkpt lat="36.9899134" lon="15.026048"><ele>427.66666666666663</ele><time>2026-03-22T11:01:29.356Z</time></trkpt><trkpt lat="36.9897884" lon="15.0259101"><ele>426.3333333333333</ele><time>2026-03-22T11:01:30.351Z</time></trkpt><trkpt lat="36.9896729" lon="15.0257582"><ele>425.0</ele><time>2026-03-22T11:01:31.375Z</time></trkpt><trkpt lat="36.9895767" lon="15.0256036"><ele>422.75</ele><time>2026-03-22T11:01:32.358Z</time></trkpt><trkpt lat="36.9894993" lon="15.0254445"><ele>420.5</ele><time>2026-03-22T11:01:33.368Z</time></trkpt><trkpt lat="36.9894509" lon="15.0252813"><ele>418.25</ele><time>2026-03-22T11:01:34.358Z</time></trkpt><trkpt lat="36.9894423" lon="15.0251126"><ele>416.0</ele><time>2026-03-22T11:01:35.363Z</time></trkpt><trkpt lat="36.9894636" lon="15.0249309"><ele>414.75</ele><time>2026-03-22T11:01:36.365Z</time></trkpt><trkpt lat="36.9894855" lon="15.0247374"><ele>413.5</ele><time>2026-03-22T11:01:37.386Z</time></trkpt><trkpt lat="36.9894811" lon="15.0245543"><ele>412.25</ele><time>2026-03-22T11:01:38.349Z</time></trkpt><trkpt lat="36.9894348" lon="15.0244078"><ele>411.0</ele><time>2026-03-22T11:01:39.37Z</time></trkpt><trkpt lat="36.9893488" lon="15.0243357"><ele>411.0</ele><time>2026-03-22T11:01:40.338Z</time></trkpt><trkpt lat="36.9892434" lon="15.0243205"><ele>411.0</ele><time>2026-03-22T11:01:41.36Z</time></trkpt><trkpt lat="36.9891267" lon="15.0243438"><ele>411.0</ele><time>2026-03-22T11:01:42.353Z</time></trkpt><trkpt lat="36.9890013" lon="15.0244065"><ele>411.0</ele><time>2026-03-22T11:01:43.353Z</time></trkpt><trkpt lat="36.988885" lon="15.0244692"><ele>412.0</ele><time>2026-03-22T11:01:44.36Z</time></trkpt><trkpt lat="36.9887629" lon="15.0245264"><ele>413.0</ele><time>2026-03-22T11:01:45.372Z</time></trkpt><trkpt lat="36.9886494" lon="15.0246253"><ele>414.0</ele><time>2026-03-22T11:01:46.358Z</time></trkpt><trkpt lat="36.9885644" lon="15.0247862"><ele>415.0</ele><time>2026-03-22T11:01:47.371Z</time></trkpt><trkpt lat="36.9885131" lon="15.0249622"><ele>416.33333333333337</ele><time>2026-03-22T11:01:48.367Z</time></trkpt><trkpt lat="36.9884913" lon="15.0251612"><ele>417.66666666666663</ele><time>2026-03-22T11:01:49.374Z</time></trkpt><trkpt lat="36.9884697" lon="15.025356"><ele>419.0</ele><time>2026-03-22T11:01:50.385Z</time></trkpt><trkpt lat="36.9884436" lon="15.0255299"><ele>419.0</ele><time>2026-03-22T11:01:51.37Z</time></trkpt><trkpt lat="36.9884187" lon="15.0257205"><ele>419.0</ele><time>2026-03-22T11:01:52.36Z</time></trkpt><trkpt lat="36.9883809" lon="15.025912"><ele>419.0</ele><time>2026-03-22T11:01:53.37Z</time></trkpt><trkpt lat="36.9883211" lon="15.0261057"><ele>415.66666666666663</ele><time>2026-03-22T11:01:54.367Z</time></trkpt><trkpt lat="36.9882374" lon="15.0262919"><ele>412.33333333333337</ele><time>2026-03-22T11:01:55.376Z</time></trkpt><trkpt lat="36.9881563" lon="15.0264793"><ele>409.0</ele><time>2026-03-22T11:01:56.412Z</time></trkpt><trkpt lat="36.988083" lon="15.0266642"><ele>407.6666666666667</ele><time>2026-03-22T11:01:57.376Z</time></trkpt><trkpt lat="36.9880139" lon="15.0268462"><ele>406.33333333333337</ele><time>2026-03-22T11:01:58.378Z</time></trkpt><trkpt lat="36.9879424" lon="15.0270231"><ele>405.0</ele><time>2026-03-22T11:01:59.371Z</time></trkpt><trkpt lat="36.9878736" lon="15.0271885"><ele>405.0</ele><time>2026-03-22T11:02:00.372Z</time></trkpt><trkpt lat="36.9877982" lon="15.027354"><ele>405.0</ele><time>2026-03-22T11:02:01.373Z</time></trkpt><trkpt lat="36.9877132" lon="15.0274932"><ele>405.0</ele><time>2026-03-22T11:02:02.343Z</time></trkpt><trkpt lat="36.9876072" lon="15.0275963"><ele>405.0</ele><time>2026-03-22T11:02:03.369Z</time></trkpt><trkpt lat="36.9874841" lon="15.0276566"><ele>408.0</ele><time>2026-03-22T11:02:04.381Z</time></trkpt><trkpt lat="36.9873449" lon="15.0277224"><ele>411.0</ele><time>2026-03-22T11:02:05.366Z</time></trkpt><trkpt lat="36.987194" lon="15.0277947"><ele>414.0</ele><time>2026-03-22T11:02:06.365Z</time></trkpt><trkpt lat="36.9870396" lon="15.0278792"><ele>414.0</ele><time>2026-03-22T11:02:07.366Z</time></trkpt><trkpt lat="36.9868763" lon="15.0279495"><ele>414.0</ele><time>2026-03-22T11:02:08.37Z</time></trkpt><trkpt lat="36.9867618" lon="15.0279599"><ele>414.0</ele><time>2026-03-22T11:02:09.363Z</time></trkpt><trkpt lat="36.9867107" lon="15.027886"><ele>414.0</ele><time>2026-03-22T11:02:10.321Z</time></trkpt><trkpt lat="36.9867041" lon="15.0277113"><ele>414.0</ele><time>2026-03-22T11:02:12.37Z</time></trkpt><trkpt lat="36.9867329" lon="15.0275818"><ele>414.0</ele><time>2026-03-22T11:02:13.366Z</time></trkpt><trkpt lat="36.9867549" lon="15.0274303"><ele>414.0</ele><time>2026-03-22T11:02:14.372Z</time></trkpt><trkpt lat="36.9867668" lon="15.0272714"><ele>414.0</ele><time>2026-03-22T11:02:15.346Z</time></trkpt><trkpt lat="36.9867604" lon="15.0271092"><ele>415.0</ele><time>2026-03-22T11:02:16.349Z</time></trkpt><trkpt lat="36.9867451" lon="15.02693"><ele>416.0</ele><time>2026-03-22T11:02:17.377Z</time></trkpt><trkpt lat="36.986708" lon="15.0267516"><ele>417.0</ele><time>2026-03-22T11:02:18.379Z</time></trkpt><trkpt lat="36.9866359" lon="15.0266034"><ele>418.0</ele><time>2026-03-22T11:02:19.363Z</time></trkpt><trkpt lat="36.9865448" lon="15.0265021"><ele>418.0</ele><time>2026-03-22T11:02:20.377Z</time></trkpt><trkpt lat="36.9864381" lon="15.0264625"><ele>418.0</ele><time>2026-03-22T11:02:21.36Z</time></trkpt><trkpt lat="36.9863219" lon="15.0264735"><ele>418.0</ele><time>2026-03-22T11:02:22.375Z</time></trkpt><trkpt lat="36.9862268" lon="15.0265343"><ele>418.0</ele><time>2026-03-22T11:02:23.373Z</time></trkpt><trkpt lat="36.986137" lon="15.0266759"><ele>418.5</ele><time>2026-03-22T11:02:24.37Z</time></trkpt><trkpt lat="36.9860817" lon="15.0268437"><ele>419.0</ele><time>2026-03-22T11:02:25.361Z</time></trkpt><trkpt lat="36.9860316" lon="15.0270115"><ele>419.5</ele><time>2026-03-22T11:02:26.342Z</time></trkpt><trkpt lat="36.9859687" lon="15.0271906"><ele>420.0</ele><time>2026-03-22T11:02:27.366Z</time></trkpt><trkpt lat="36.9858882" lon="15.0273798"><ele>422.33333333333337</ele><time>2026-03-22T11:02:28.35Z</time></trkpt><trkpt lat="36.9857863" lon="15.0275496"><ele>424.6666666666667</ele><time>2026-03-22T11:02:29.379Z</time></trkpt><trkpt lat="36.9856831" lon="15.0276974"><ele>427.0</ele><time>2026-03-22T11:02:30.371Z</time></trkpt><trkpt lat="36.9855687" lon="15.0278236"><ele>427.0</ele><time>2026-03-22T11:02:31.373Z</time></trkpt><trkpt lat="36.9854412" lon="15.0279133"><ele>427.0</ele><time>2026-03-22T11:02:32.362Z</time></trkpt><trkpt lat="36.9852958" lon="15.0279714"><ele>427.0</ele><time>2026-03-22T11:02:33.371Z</time></trkpt><trkpt lat="36.9851291" lon="15.0280234"><ele>429.33333333333337</ele><time>2026-03-22T11:02:34.379Z</time></trkpt><trkpt lat="36.9849608" lon="15.0280751"><ele>431.66666666666663</ele><time>2026-03-22T11:02:35.371Z</time></trkpt><trkpt lat="36.9847864" lon="15.0281387"><ele>434.0</ele><time>2026-03-22T11:02:36.366Z</time></trkpt><trkpt lat="36.9846129" lon="15.0281998"><ele>434.0</ele><time>2026-03-22T11:02:37.35Z</time></trkpt><trkpt lat="36.9844408" lon="15.0282718"><ele>434.0</ele><time>2026-03-22T11:02:38.353Z</time></trkpt><trkpt lat="36.9842661" lon="15.0283386"><ele>434.0</ele><time>2026-03-22T11:02:39.361Z</time></trkpt><trkpt lat="36.9840921" lon="15.0284042"><ele>433.66666666666663</ele><time>2026-03-22T11:02:40.374Z</time></trkpt><trkpt lat="36.9839127" lon="15.0284718"><ele>433.33333333333337</ele><time>2026-03-22T11:02:41.365Z</time></trkpt><trkpt lat="36.9837387" lon="15.0285388"><ele>433.0</ele><time>2026-03-22T11:02:42.357Z</time></trkpt><trkpt lat="36.9835753" lon="15.0286003"><ele>433.0</ele><time>2026-03-22T11:02:43.373Z</time></trkpt><trkpt lat="36.9834119" lon="15.0286551"><ele>433.0</ele><time>2026-03-22T11:02:44.359Z</time></trkpt><trkpt lat="36.9832442" lon="15.0287113"><ele>433.0</ele><time>2026-03-22T11:02:45.373Z</time></trkpt><trkpt lat="36.9830808" lon="15.0287701"><ele>433.33333333333337</ele><time>2026-03-22T11:02:46.368Z</time></trkpt><trkpt lat="36.9829195" lon="15.0288313"><ele>433.66666666666663</ele><time>2026-03-22T11:02:47.349Z</time></trkpt><trkpt lat="36.98276" lon="15.0289115"><ele>434.0</ele><time>2026-03-22T11:02:48.371Z</time></trkpt><trkpt lat="36.9826056" lon="15.029004"><ele>433.66666666666663</ele><time>2026-03-22T11:02:49.362Z</time></trkpt><trkpt lat="36.9824543" lon="15.0291097"><ele>433.33333333333337</ele><time>2026-03-22T11:02:50.368Z</time></trkpt><trkpt lat="36.9823025" lon="15.0292089"><ele>433.0</ele><time>2026-03-22T11:02:51.388Z</time></trkpt><trkpt lat="36.9821541" lon="15.0293112"><ele>433.0</ele><time>2026-03-22T11:02:52.388Z</time></trkpt><trkpt lat="36.9820028" lon="15.0294069"><ele>433.0</ele><time>2026-03-22T11:02:53.392Z</time></trkpt><trkpt lat="36.9818557" lon="15.0295044"><ele>433.0</ele><time>2026-03-22T11:02:54.364Z</time></trkpt><trkpt lat="36.9817095" lon="15.0296013"><ele>433.6666666666667</ele><time>2026-03-22T11:02:55.361Z</time></trkpt><trkpt lat="36.9815623" lon="15.0296962"><ele>434.33333333333337</ele><time>2026-03-22T11:02:56.371Z</time></trkpt><trkpt lat="36.9814156" lon="15.0297938"><ele>435.0</ele><time>2026-03-22T11:02:57.375Z</time></trkpt><trkpt lat="36.9812686" lon="15.0298849"><ele>435.0</ele><time>2026-03-22T11:02:58.374Z</time></trkpt><trkpt lat="36.9811277" lon="15.0299789"><ele>435.0</ele><time>2026-03-22T11:02:59.377Z</time></trkpt><trkpt lat="36.9809848" lon="15.030075"><ele>435.0</ele><time>2026-03-22T11:03:00.357Z</time></trkpt><trkpt lat="36.9808431" lon="15.0301742"><ele>435.66666666666663</ele><time>2026-03-22T11:03:01.374Z</time></trkpt><trkpt lat="36.9807013" lon="15.0302688"><ele>436.3333333333333</ele><time>2026-03-22T11:03:02.373Z</time></trkpt><trkpt lat="36.9805572" lon="15.0303637"><ele>437.0</ele><time>2026-03-22T11:03:03.373Z</time></trkpt><trkpt lat="36.9804142" lon="15.0304554"><ele>437.0</ele><time>2026-03-22T11:03:04.342Z</time></trkpt><trkpt lat="36.9802761" lon="15.0305428"><ele>437.0</ele><time>2026-03-22T11:03:05.377Z</time></trkpt><trkpt lat="36.9801398" lon="15.0306264"><ele>437.0</ele><time>2026-03-22T11:03:06.345Z</time></trkpt><trkpt lat="36.9800184" lon="15.0307029"><ele>437.0</ele><time>2026-03-22T11:03:07.377Z</time></trkpt><trkpt lat="36.9799201" lon="15.0307747"><ele>437.0</ele><time>2026-03-22T11:03:08.377Z</time></trkpt><trkpt lat="36.979839" lon="15.0308733"><ele>437.0</ele><time>2026-03-22T11:03:09.368Z</time></trkpt><trkpt lat="36.979809" lon="15.0310059"><ele>437.0</ele><time>2026-03-22T11:03:10.358Z</time></trkpt><trkpt lat="36.9797856" lon="15.0311723"><ele>437.0</ele><time>2026-03-22T11:03:11.371Z</time></trkpt><trkpt lat="36.9797638" lon="15.0313546"><ele>437.0</ele><time>2026-03-22T11:03:12.365Z</time></trkpt><trkpt lat="36.9797317" lon="15.031535"><ele>437.0</ele><time>2026-03-22T11:03:13.371Z</time></trkpt><trkpt lat="36.9797001" lon="15.0317178"><ele>437.0</ele><time>2026-03-22T11:03:14.376Z</time></trkpt><trkpt lat="36.9796815" lon="15.0319166"><ele>435.66666666666663</ele><time>2026-03-22T11:03:15.376Z</time></trkpt><trkpt lat="36.9796679" lon="15.0321103"><ele>434.33333333333337</ele><time>2026-03-22T11:03:16.365Z</time></trkpt><trkpt lat="36.9796526" lon="15.0323031"><ele>433.0</ele><time>2026-03-22T11:03:17.361Z</time></trkpt><trkpt lat="36.9796348" lon="15.0324998"><ele>431.6666666666667</ele><time>2026-03-22T11:03:18.375Z</time></trkpt><trkpt lat="36.9796185" lon="15.0326942"><ele>430.33333333333337</ele><time>2026-03-22T11:03:19.379Z</time></trkpt><trkpt lat="36.9795996" lon="15.03289"><ele>429.0</ele><time>2026-03-22T11:03:20.376Z</time></trkpt><trkpt lat="36.9795678" lon="15.0331001"><ele>428.33333333333337</ele><time>2026-03-22T11:03:21.381Z</time></trkpt><trkpt lat="36.9795263" lon="15.0333096"><ele>427.6666666666667</ele><time>2026-03-22T11:03:22.379Z</time></trkpt><trkpt lat="36.9794709" lon="15.0335045"><ele>427.0</ele><time>2026-03-22T11:03:23.376Z</time></trkpt><trkpt lat="36.9793998" lon="15.0336996"><ele>427.0</ele><time>2026-03-22T11:03:24.377Z</time></trkpt><trkpt lat="36.9793068" lon="15.0338884"><ele>427.0</ele><time>2026-03-22T11:03:25.378Z</time></trkpt><trkpt lat="36.9792082" lon="15.0340725"><ele>427.0</ele><time>2026-03-22T11:03:26.367Z</time></trkpt><trkpt lat="36.9791061" lon="15.0342428"><ele>427.6666666666667</ele><time>2026-03-22T11:03:27.383Z</time></trkpt><trkpt lat="36.9790142" lon="15.0344048"><ele>428.33333333333337</ele><time>2026-03-22T11:03:28.384Z</time></trkpt><trkpt lat="36.9789199" lon="15.0345524"><ele>429.0</ele><time>2026-03-22T11:03:29.375Z</time></trkpt><trkpt lat="36.978834" lon="15.0346993"><ele>429.0</ele><time>2026-03-22T11:03:30.367Z</time></trkpt><trkpt lat="36.9787542" lon="15.034834"><ele>429.0</ele><time>2026-03-22T11:03:31.37Z</time></trkpt><trkpt lat="36.9786812" lon="15.0349661"><ele>429.0</ele><time>2026-03-22T11:03:32.372Z</time></trkpt><trkpt lat="36.9786164" lon="15.0350933"><ele>429.0</ele><time>2026-03-22T11:03:33.391Z</time></trkpt><trkpt lat="36.9785534" lon="15.0352247"><ele>428.75</ele><time>2026-03-22T11:03:34.365Z</time></trkpt><trkpt lat="36.9784846" lon="15.0353619"><ele>428.5</ele><time>2026-03-22T11:03:35.37Z</time></trkpt><trkpt lat="36.9784141" lon="15.0355089"><ele>428.25</ele><time>2026-03-22T11:03:36.358Z</time></trkpt><trkpt lat="36.9783426" lon="15.0356551"><ele>428.0</ele><time>2026-03-22T11:03:37.368Z</time></trkpt><trkpt lat="36.9782702" lon="15.0358034"><ele>427.25</ele><time>2026-03-22T11:03:38.373Z</time></trkpt><trkpt lat="36.9781903" lon="15.035951"><ele>426.5</ele><time>2026-03-22T11:03:39.39Z</time></trkpt><trkpt lat="36.9781109" lon="15.0360954"><ele>425.75</ele><time>2026-03-22T11:03:40.346Z</time></trkpt><trkpt lat="36.9780284" lon="15.0362333"><ele>425.0</ele><time>2026-03-22T11:03:41.374Z</time></trkpt><trkpt lat="36.9779331" lon="15.0363639"><ele>425.0</ele><time>2026-03-22T11:03:42.374Z</time></trkpt><trkpt lat="36.9778239" lon="15.0364885"><ele>425.0</ele><time>2026-03-22T11:03:43.379Z</time></trkpt><trkpt lat="36.9777179" lon="15.036614"><ele>425.0</ele><time>2026-03-22T11:03:44.38Z</time></trkpt><trkpt lat="36.9776083" lon="15.0367473"><ele>425.0</ele><time>2026-03-22T11:03:45.359Z</time></trkpt><trkpt lat="36.9774986" lon="15.0368804"><ele>426.3333333333333</ele><time>2026-03-22T11:03:46.376Z</time></trkpt><trkpt lat="36.977386" lon="15.0370032"><ele>427.66666666666663</ele><time>2026-03-22T11:03:47.365Z</time></trkpt><trkpt lat="36.9772692" lon="15.0371295"><ele>429.0</ele><time>2026-03-22T11:03:48.353Z</time></trkpt><trkpt lat="36.9771517" lon="15.0372529"><ele>429.0</ele><time>2026-03-22T11:03:49.364Z</time></trkpt><trkpt lat="36.9770361" lon="15.0373703"><ele>429.0</ele><time>2026-03-22T11:03:50.38Z</time></trkpt><trkpt lat="36.9769151" lon="15.0374815"><ele>429.0</ele><time>2026-03-22T11:03:51.394Z</time></trkpt><trkpt lat="36.9767944" lon="15.0375912"><ele>429.0</ele><time>2026-03-22T11:03:52.378Z</time></trkpt><trkpt lat="36.9766742" lon="15.0377069"><ele>429.33333333333337</ele><time>2026-03-22T11:03:53.373Z</time></trkpt><trkpt lat="36.9765568" lon="15.0378273"><ele>429.6666666666667</ele><time>2026-03-22T11:03:54.373Z</time></trkpt><trkpt lat="36.9764478" lon="15.0379559"><ele>430.0</ele><time>2026-03-22T11:03:55.37Z</time></trkpt><trkpt lat="36.9763379" lon="15.0381013"><ele>430.0</ele><time>2026-03-22T11:03:56.384Z</time></trkpt><trkpt lat="36.9762349" lon="15.0382422"><ele>430.0</ele><time>2026-03-22T11:03:57.372Z</time></trkpt><trkpt lat="36.9761427" lon="15.038395"><ele>430.0</ele><time>2026-03-22T11:03:58.375Z</time></trkpt><trkpt lat="36.9760592" lon="15.0385653"><ele>431.6666666666667</ele><time>2026-03-22T11:03:59.362Z</time></trkpt><trkpt lat="36.9759789" lon="15.0387337"><ele>433.33333333333337</ele><time>2026-03-22T11:04:00.369Z</time></trkpt><trkpt lat="36.9758982" lon="15.0389015"><ele>435.0</ele><time>2026-03-22T11:04:01.387Z</time></trkpt><trkpt lat="36.9758235" lon="15.0390743"><ele>433.5</ele><time>2026-03-22T11:04:02.373Z</time></trkpt><trkpt lat="36.9757541" lon="15.0392406"><ele>432.0</ele><time>2026-03-22T11:04:03.39Z</time></trkpt><trkpt lat="36.9756886" lon="15.0394031"><ele>430.5</ele><time>2026-03-22T11:04:04.372Z</time></trkpt><trkpt lat="36.975622" lon="15.0395589"><ele>429.0</ele><time>2026-03-22T11:04:05.372Z</time></trkpt><trkpt lat="36.9755508" lon="15.0397118"><ele>429.0</ele><time>2026-03-22T11:04:06.38Z</time></trkpt><trkpt lat="36.9754763" lon="15.0398749"><ele>429.0</ele><time>2026-03-22T11:04:07.355Z</time></trkpt><trkpt lat="36.9754045" lon="15.0400374"><ele>429.0</ele><time>2026-03-22T11:04:08.357Z</time></trkpt><trkpt lat="36.9753336" lon="15.0402007"><ele>429.0</ele><time>2026-03-22T11:04:09.366Z</time></trkpt><trkpt lat="36.9752589" lon="15.0403688"><ele>428.33333333333337</ele><time>2026-03-22T11:04:10.363Z</time></trkpt><trkpt lat="36.9751879" lon="15.0405516"><ele>427.6666666666667</ele><time>2026-03-22T11:04:11.372Z</time></trkpt><trkpt lat="36.9751287" lon="15.0407336"><ele>427.0</ele><time>2026-03-22T11:04:12.384Z</time></trkpt><trkpt lat="36.9750755" lon="15.0409191"><ele>427.0</ele><time>2026-03-22T11:04:13.372Z</time></trkpt><trkpt lat="36.9750236" lon="15.0410946"><ele>427.0</ele><time>2026-03-22T11:04:14.373Z</time></trkpt><trkpt lat="36.9749774" lon="15.0412584"><ele>427.0</ele><time>2026-03-22T11:04:15.355Z</time></trkpt><trkpt lat="36.9749349" lon="15.0414077"><ele>427.0</ele><time>2026-03-22T11:04:16.373Z</time></trkpt><trkpt lat="36.9748944" lon="15.0415328"><ele>427.33333333333337</ele><time>2026-03-22T11:04:17.369Z</time></trkpt><trkpt lat="36.9748646" lon="15.0416454"><ele>427.6666666666667</ele><time>2026-03-22T11:04:18.355Z</time></trkpt><trkpt lat="36.9748412" lon="15.0417267"><ele>428.0</ele><time>2026-03-22T11:04:19.368Z</time></trkpt><trkpt lat="36.9748054" lon="15.0418011"><ele>428.33333333333337</ele><time>2026-03-22T11:04:21.332Z</time></trkpt><trkpt lat="36.9747168" lon="15.0417411"><ele>428.6666666666667</ele><time>2026-03-22T11:04:23.362Z</time></trkpt><trkpt lat="36.9746473" lon="15.0417044"><ele>429.0</ele><time>2026-03-22T11:04:24.352Z</time></trkpt><trkpt lat="36.9745627" lon="15.0416458"><ele>429.2</ele><time>2026-03-22T11:04:25.369Z</time></trkpt><trkpt lat="36.9744606" lon="15.0415651"><ele>429.4</ele><time>2026-03-22T11:04:26.367Z</time></trkpt><trkpt lat="36.9743602" lon="15.0414843"><ele>429.6</ele><time>2026-03-22T11:04:27.359Z</time></trkpt><trkpt lat="36.9742842" lon="15.0413918"><ele>429.8</ele><time>2026-03-22T11:04:28.372Z</time></trkpt><trkpt lat="36.9742286" lon="15.0413013"><ele>430.0</ele><time>2026-03-22T11:04:29.378Z</time></trkpt><trkpt lat="36.9741649" lon="15.0412003"><ele>431.0</ele><time>2026-03-22T11:04:30.375Z</time></trkpt><trkpt lat="36.9740908" lon="15.0410773"><ele>432.0</ele><time>2026-03-22T11:04:31.374Z</time></trkpt><trkpt lat="36.9740133" lon="15.0409549"><ele>433.0</ele><time>2026-03-22T11:04:32.362Z</time></trkpt><trkpt lat="36.973941" lon="15.0408279"><ele>434.0</ele><time>2026-03-22T11:04:33.353Z</time></trkpt><trkpt lat="36.9738822" lon="15.0407142"><ele>434.2857142857143</ele><time>2026-03-22T11:04:34.357Z</time></trkpt><trkpt lat="36.973838" lon="15.0406191"><ele>434.57142857142856</ele><time>2026-03-22T11:04:35.371Z</time></trkpt><trkpt lat="36.9738069" lon="15.0405394"><ele>434.8571428571429</ele><time>2026-03-22T11:04:36.331Z</time></trkpt><trkpt lat="36.9737904" lon="15.0404341"><ele>435.1428571428571</ele><time>2026-03-22T11:04:38.376Z</time></trkpt><trkpt lat="36.9737674" lon="15.040345"><ele>435.42857142857144</ele><time>2026-03-22T11:04:40.326Z</time></trkpt><trkpt lat="36.9737635" lon="15.040263"><ele>435.7142857142857</ele><time>2026-03-22T11:04:42.341Z</time></trkpt><trkpt lat="36.9737857" lon="15.0401882"><ele>436.0</ele><time>2026-03-22T11:04:44.362Z</time></trkpt><trkpt lat="36.9737695" lon="15.0400931"><ele>436.00000000000006</ele><time>2026-03-22T11:04:47.34Z</time></trkpt><trkpt lat="36.9737252" lon="15.0400271"><ele>436.0</ele><time>2026-03-22T11:04:49.366Z</time></trkpt><trkpt lat="36.9737153" lon="15.0399478"><ele>436.0</ele><time>2026-03-22T11:04:52.366Z</time></trkpt><trkpt lat="36.9737161" lon="15.0398122"><ele>436.0</ele><time>2026-03-22T11:04:56.361Z</time></trkpt><trkpt lat="36.9737094" lon="15.039683"><ele>436.00000000000006</ele><time>2026-03-22T11:04:58.374Z</time></trkpt><trkpt lat="36.9736705" lon="15.0396175"><ele>436.0</ele><time>2026-03-22T11:05:00.345Z</time></trkpt><trkpt lat="36.973665" lon="15.0395303"><ele>436.33333333333337</ele><time>2026-03-22T11:05:07.355Z</time></trkpt><trkpt lat="36.9736546" lon="15.0394313"><ele>436.6666666666667</ele><time>2026-03-22T11:05:12.362Z</time></trkpt><trkpt lat="36.9736284" lon="15.0393246"><ele>437.0</ele><time>2026-03-22T11:05:15.367Z</time></trkpt><trkpt lat="36.9736103" lon="15.0392484"><ele>437.33333333333337</ele><time>2026-03-22T11:05:17.371Z</time></trkpt><trkpt lat="36.9736058" lon="15.0391411"><ele>437.6666666666667</ele><time>2026-03-22T11:05:19.362Z</time></trkpt><trkpt lat="36.9736013" lon="15.0390191"><ele>438.0</ele><time>2026-03-22T11:05:21.329Z</time></trkpt><trkpt lat="36.9735914" lon="15.0388779"><ele>438.0</ele><time>2026-03-22T11:05:23.359Z</time></trkpt><trkpt lat="36.9735784" lon="15.0387931"><ele>438.0</ele><time>2026-03-22T11:05:25.34Z</time></trkpt><trkpt lat="36.973564" lon="15.0386956"><ele>438.0</ele><time>2026-03-22T11:05:29.358Z</time></trkpt><trkpt lat="36.9735605" lon="15.0386093"><ele>438.0</ele><time>2026-03-22T11:05:32.342Z</time></trkpt><trkpt lat="36.9735618" lon="15.0385041"><ele>438.0</ele><time>2026-03-22T11:05:35.36Z</time></trkpt><trkpt lat="36.9735491" lon="15.0384182"><ele>438.0</ele><time>2026-03-22T11:05:38.361Z</time></trkpt><trkpt lat="36.9735433" lon="15.0383342"><ele>438.0</ele><time>2026-03-22T11:05:41.37Z</time></trkpt><trkpt lat="36.9735398" lon="15.0382449"><ele>437.2857142857143</ele><time>2026-03-22T11:05:44.362Z</time></trkpt><trkpt lat="36.9735152" lon="15.0381679"><ele>436.57142857142856</ele><time>2026-03-22T11:05:48.379Z</time></trkpt><trkpt lat="36.973475" lon="15.0381072"><ele>435.85714285714283</ele><time>2026-03-22T11:05:53.381Z</time></trkpt><trkpt lat="36.973427" lon="15.0380426"><ele>435.1428571428571</ele><time>2026-03-22T11:05:57.367Z</time></trkpt><trkpt lat="36.9733929" lon="15.0379673"><ele>434.42857142857144</ele><time>2026-03-22T11:05:59.373Z</time></trkpt><trkpt lat="36.9733682" lon="15.0378839"><ele>433.71428571428567</ele><time>2026-03-22T11:06:01.369Z</time></trkpt><trkpt lat="36.9732953" lon="15.0378176"><ele>433.0</ele><time>2026-03-22T11:06:03.368Z</time></trkpt><trkpt lat="36.9731905" lon="15.0377349"><ele>431.59999999999997</ele><time>2026-03-22T11:06:05.377Z</time></trkpt><trkpt lat="36.9730833" lon="15.0376954"><ele>430.19999999999993</ele><time>2026-03-22T11:06:07.321Z</time></trkpt><trkpt lat="36.973001" lon="15.0377095"><ele>428.8</ele><time>2026-03-22T11:06:08.38Z</time></trkpt><trkpt lat="36.9729175" lon="15.0377527"><ele>427.4</ele><time>2026-03-22T11:06:09.368Z</time></trkpt><trkpt lat="36.9728271" lon="15.0378069"><ele>426.0</ele><time>2026-03-22T11:06:10.388Z</time></trkpt><trkpt lat="36.9727388" lon="15.0378711"><ele>426.0</ele><time>2026-03-22T11:06:11.349Z</time></trkpt><trkpt lat="36.9726569" lon="15.0379434"><ele>426.0</ele><time>2026-03-22T11:06:12.349Z</time></trkpt><trkpt lat="36.9725774" lon="15.0380197"><ele>426.0</ele><time>2026-03-22T11:06:13.356Z</time></trkpt><trkpt lat="36.9724947" lon="15.038082"><ele>426.0</ele><time>2026-03-22T11:06:14.358Z</time></trkpt><trkpt lat="36.9724076" lon="15.0381535"><ele>426.0</ele><time>2026-03-22T11:06:15.369Z</time></trkpt><trkpt lat="36.9723312" lon="15.0382166"><ele>426.0</ele><time>2026-03-22T11:06:16.36Z</time></trkpt><trkpt lat="36.9722612" lon="15.0382746"><ele>426.0</ele><time>2026-03-22T11:06:17.365Z</time></trkpt><trkpt lat="36.9722061" lon="15.0383234"><ele>426.0</ele><time>2026-03-22T11:06:18.379Z</time></trkpt><trkpt lat="36.9721433" lon="15.038366"><ele>426.0</ele><time>2026-03-22T11:06:19.374Z</time></trkpt><trkpt lat="36.9720306" lon="15.0383892"><ele>426.0</ele><time>2026-03-22T11:06:21.364Z</time></trkpt><trkpt lat="36.971961" lon="15.0383839"><ele>426.0</ele><time>2026-03-22T11:06:22.366Z</time></trkpt><trkpt lat="36.9718769" lon="15.0383701"><ele>425.4</ele><time>2026-03-22T11:06:23.355Z</time></trkpt><trkpt lat="36.9717789" lon="15.0383577"><ele>424.8</ele><time>2026-03-22T11:06:24.349Z</time></trkpt><trkpt lat="36.9716678" lon="15.0383417"><ele>424.2</ele><time>2026-03-22T11:06:25.372Z</time></trkpt><trkpt lat="36.9715727" lon="15.0383194"><ele>423.59999999999997</ele><time>2026-03-22T11:06:26.365Z</time></trkpt><trkpt lat="36.9714817" lon="15.0382912"><ele>423.0</ele><time>2026-03-22T11:06:27.341Z</time></trkpt><trkpt lat="36.9713933" lon="15.038263"><ele>424.2</ele><time>2026-03-22T11:06:28.392Z</time></trkpt><trkpt lat="36.9713042" lon="15.0382204"><ele>425.4</ele><time>2026-03-22T11:06:29.359Z</time></trkpt><trkpt lat="36.9712063" lon="15.0381657"><ele>426.59999999999997</ele><time>2026-03-22T11:06:30.365Z</time></trkpt><trkpt lat="36.9711042" lon="15.0381155"><ele>427.79999999999995</ele><time>2026-03-22T11:06:31.38Z</time></trkpt><trkpt lat="36.9709995" lon="15.0380699"><ele>429.0</ele><time>2026-03-22T11:06:32.386Z</time></trkpt><trkpt lat="36.9708904" lon="15.0380223"><ele>429.0</ele><time>2026-03-22T11:06:33.378Z</time></trkpt><trkpt lat="36.9707779" lon="15.037983"><ele>429.0</ele><time>2026-03-22T11:06:34.379Z</time></trkpt><trkpt lat="36.9706621" lon="15.0379483"><ele>429.0</ele><time>2026-03-22T11:06:35.38Z</time></trkpt><trkpt lat="36.9705422" lon="15.0379081"><ele>429.0</ele><time>2026-03-22T11:06:36.381Z</time></trkpt><trkpt lat="36.9704293" lon="15.0378623"><ele>429.0</ele><time>2026-03-22T11:06:37.375Z</time></trkpt><trkpt lat="36.9703287" lon="15.0378331"><ele>429.0</ele><time>2026-03-22T11:06:38.373Z</time></trkpt><trkpt lat="36.9702268" lon="15.0378046"><ele>429.0</ele><time>2026-03-22T11:06:39.383Z</time></trkpt><trkpt lat="36.9701253" lon="15.0377776"><ele>429.0</ele><time>2026-03-22T11:06:40.369Z</time></trkpt><trkpt lat="36.9700289" lon="15.0377573"><ele>429.0</ele><time>2026-03-22T11:06:41.367Z</time></trkpt><trkpt lat="36.9699339" lon="15.0377278"><ele>428.25</ele><time>2026-03-22T11:06:42.353Z</time></trkpt><trkpt lat="36.9698287" lon="15.0376839"><ele>427.5</ele><time>2026-03-22T11:06:43.358Z</time></trkpt><trkpt lat="36.9697245" lon="15.0376372"><ele>426.75</ele><time>2026-03-22T11:06:44.368Z</time></trkpt><trkpt lat="36.9696182" lon="15.0375857"><ele>426.0</ele><time>2026-03-22T11:06:45.388Z</time></trkpt><trkpt lat="36.9695103" lon="15.0375158"><ele>425.75</ele><time>2026-03-22T11:06:46.355Z</time></trkpt><trkpt lat="36.9694041" lon="15.0374346"><ele>425.5</ele><time>2026-03-22T11:06:47.373Z</time></trkpt><trkpt lat="36.9692968" lon="15.0373458"><ele>425.25</ele><time>2026-03-22T11:06:48.364Z</time></trkpt><trkpt lat="36.9691985" lon="15.0372434"><ele>425.0</ele><time>2026-03-22T11:06:49.35Z</time></trkpt><trkpt lat="36.9691102" lon="15.0371176"><ele>425.0</ele><time>2026-03-22T11:06:50.342Z</time></trkpt><trkpt lat="36.9690225" lon="15.0369875"><ele>425.0</ele><time>2026-03-22T11:06:56.034Z</time></trkpt><trkpt lat="36.9689318" lon="15.0368509"><ele>425.0</ele><time>2026-03-22T11:06:57.023Z</time></trkpt><trkpt lat="36.968834" lon="15.0367356"><ele>425.0</ele><time>2026-03-22T11:06:58.038Z</time></trkpt><trkpt lat="36.9687215" lon="15.0366108"><ele>426.0</ele><time>2026-03-22T11:06:59.036Z</time></trkpt><trkpt lat="36.9686172" lon="15.0364947"><ele>427.0</ele><time>2026-03-22T11:07:00.04Z</time></trkpt><trkpt lat="36.9685159" lon="15.0363948"><ele>428.0</ele><time>2026-03-22T11:07:01.033Z</time></trkpt><trkpt lat="36.968395" lon="15.036286"><ele>429.0</ele><time>2026-03-22T11:07:02.049Z</time></trkpt><trkpt lat="36.968286" lon="15.0361962"><ele>429.0</ele><time>2026-03-22T11:07:03.054Z</time></trkpt><trkpt lat="36.9681696" lon="15.0361172"><ele>429.0</ele><time>2026-03-22T11:07:04.039Z</time></trkpt><trkpt lat="36.9680604" lon="15.0360251"><ele>429.0</ele><time>2026-03-22T11:07:05.058Z</time></trkpt><trkpt lat="36.9679582" lon="15.0359633"><ele>429.0</ele><time>2026-03-22T11:07:06.071Z</time></trkpt><trkpt lat="36.9678494" lon="15.0358954"><ele>429.0</ele><time>2026-03-22T11:07:07.075Z</time></trkpt><trkpt lat="36.9677371" lon="15.0358434"><ele>429.0</ele><time>2026-03-22T11:07:08.063Z</time></trkpt><trkpt lat="36.9676115" lon="15.0358022"><ele>429.0</ele><time>2026-03-22T11:07:09.08Z</time></trkpt><trkpt lat="36.9674784" lon="15.0357696"><ele>429.0</ele><time>2026-03-22T11:07:10.08Z</time></trkpt><trkpt lat="36.9673402" lon="15.0357431"><ele>430.25</ele><time>2026-03-22T11:07:11.07Z</time></trkpt><trkpt lat="36.9671945" lon="15.0357245"><ele>431.5</ele><time>2026-03-22T11:07:12.083Z</time></trkpt><trkpt lat="36.9670525" lon="15.035704"><ele>432.75</ele><time>2026-03-22T11:07:13.064Z</time></trkpt><trkpt lat="36.9669159" lon="15.0356813"><ele>434.0</ele><time>2026-03-22T11:07:14.082Z</time></trkpt><trkpt lat="36.9668021" lon="15.0356721"><ele>434.0</ele><time>2026-03-22T11:07:15.081Z</time></trkpt><trkpt lat="36.9667023" lon="15.0356593"><ele>434.0</ele><time>2026-03-22T11:07:16.071Z</time></trkpt><trkpt lat="36.9666041" lon="15.0356265"><ele>434.0</ele><time>2026-03-22T11:07:17.079Z</time></trkpt><trkpt lat="36.9665069" lon="15.0355663"><ele>434.0</ele><time>2026-03-22T11:07:18.076Z</time></trkpt><trkpt lat="36.9664224" lon="15.0354858"><ele>434.0</ele><time>2026-03-22T11:07:19.07Z</time></trkpt><trkpt lat="36.9663336" lon="15.0353808"><ele>434.75</ele><time>2026-03-22T11:07:20.057Z</time></trkpt><trkpt lat="36.9662454" lon="15.0352645"><ele>435.5</ele><time>2026-03-22T11:07:21.052Z</time></trkpt><trkpt lat="36.9661589" lon="15.0351388"><ele>436.25</ele><time>2026-03-22T11:07:22.075Z</time></trkpt><trkpt lat="36.9660799" lon="15.0350198"><ele>437.0</ele><time>2026-03-22T11:07:23.079Z</time></trkpt><trkpt lat="36.9660182" lon="15.0349157"><ele>437.20000000000005</ele><time>2026-03-22T11:07:24.06Z</time></trkpt><trkpt lat="36.9659671" lon="15.034804"><ele>437.40000000000003</ele><time>2026-03-22T11:07:25.067Z</time></trkpt><trkpt lat="36.9659274" lon="15.0347054"><ele>437.59999999999997</ele><time>2026-03-22T11:07:26.073Z</time></trkpt><trkpt lat="36.9658526" lon="15.034633"><ele>437.79999999999995</ele><time>2026-03-22T11:07:28.063Z</time></trkpt><trkpt lat="36.9657885" lon="15.0347286"><ele>438.0</ele><time>2026-03-22T11:07:30.068Z</time></trkpt><trkpt lat="36.9657265" lon="15.0347843"><ele>438.0</ele><time>2026-03-22T11:07:31.065Z</time></trkpt><trkpt lat="36.9656401" lon="15.034842"><ele>437.99999999999994</ele><time>2026-03-22T11:07:32.097Z</time></trkpt><trkpt lat="36.9655509" lon="15.0348926"><ele>437.99999999999994</ele><time>2026-03-22T11:07:33.07Z</time></trkpt><trkpt lat="36.9654513" lon="15.0349583"><ele>438.0</ele><time>2026-03-22T11:07:34.084Z</time></trkpt><trkpt lat="36.9653413" lon="15.0350355"><ele>438.0</ele><time>2026-03-22T11:07:35.079Z</time></trkpt><trkpt lat="36.9652267" lon="15.035108"><ele>438.0</ele><time>2026-03-22T11:07:36.087Z</time></trkpt><trkpt lat="36.9651106" lon="15.0351856"><ele>438.0</ele><time>2026-03-22T11:07:37.074Z</time></trkpt><trkpt lat="36.9649929" lon="15.0352629"><ele>438.0</ele><time>2026-03-22T11:07:38.089Z</time></trkpt><trkpt lat="36.964868" lon="15.0353301"><ele>438.0</ele><time>2026-03-22T11:07:39.082Z</time></trkpt><trkpt lat="36.9647574" lon="15.0353889"><ele>438.0</ele><time>2026-03-22T11:07:40.092Z</time></trkpt><trkpt lat="36.9646601" lon="15.0354604"><ele>438.0</ele><time>2026-03-22T11:07:41.094Z</time></trkpt><trkpt lat="36.964563" lon="15.0355593"><ele>438.0</ele><time>2026-03-22T11:07:42.061Z</time></trkpt><trkpt lat="36.9644686" lon="15.0356763"><ele>438.0</ele><time>2026-03-22T11:07:43.058Z</time></trkpt><trkpt lat="36.9643802" lon="15.0357875"><ele>436.75</ele><time>2026-03-22T11:07:44.09Z</time></trkpt><trkpt lat="36.9642941" lon="15.0358964"><ele>435.5</ele><time>2026-03-22T11:07:45.051Z</time></trkpt><trkpt lat="36.9642188" lon="15.0360099"><ele>434.25</ele><time>2026-03-22T11:07:46.067Z</time></trkpt><trkpt lat="36.9641377" lon="15.0361212"><ele>433.0</ele><time>2026-03-22T11:07:47.078Z</time></trkpt><trkpt lat="36.9640523" lon="15.0362357"><ele>432.75</ele><time>2026-03-22T11:07:48.075Z</time></trkpt><trkpt lat="36.9639686" lon="15.0363445"><ele>432.5</ele><time>2026-03-22T11:07:49.073Z</time></trkpt><trkpt lat="36.9638789" lon="15.0364538"><ele>432.25</ele><time>2026-03-22T11:07:50.103Z</time></trkpt><trkpt lat="36.963795" lon="15.0365647"><ele>432.0</ele><time>2026-03-22T11:07:51.089Z</time></trkpt><trkpt lat="36.9637283" lon="15.0366704"><ele>430.25</ele><time>2026-03-22T11:07:52.081Z</time></trkpt><trkpt lat="36.963655" lon="15.0367755"><ele>428.5</ele><time>2026-03-22T11:07:53.069Z</time></trkpt><trkpt lat="36.9635773" lon="15.0368736"><ele>426.75</ele><time>2026-03-22T11:07:54.066Z</time></trkpt><trkpt lat="36.963488" lon="15.0369811"><ele>425.0</ele><time>2026-03-22T11:07:55.078Z</time></trkpt><trkpt lat="36.9633959" lon="15.0370915"><ele>424.0</ele><time>2026-03-22T11:07:56.081Z</time></trkpt><trkpt lat="36.9632987" lon="15.0372034"><ele>423.0</ele><time>2026-03-22T11:07:57.058Z</time></trkpt><trkpt lat="36.9631988" lon="15.0373237"><ele>422.0</ele><time>2026-03-22T11:07:58.085Z</time></trkpt><trkpt lat="36.9631064" lon="15.0374337"><ele>421.0</ele><time>2026-03-22T11:07:59.099Z</time></trkpt><trkpt lat="36.9630232" lon="15.0375396"><ele>420.50000000000006</ele><time>2026-03-22T11:08:00.075Z</time></trkpt><trkpt lat="36.9629388" lon="15.0376199"><ele>420.0</ele><time>2026-03-22T11:08:01.091Z</time></trkpt><trkpt lat="36.9628626" lon="15.037678"><ele>419.5</ele><time>2026-03-22T11:08:02.093Z</time></trkpt><trkpt lat="36.9627921" lon="15.0377211"><ele>419.0</ele><time>2026-03-22T11:08:03.077Z</time></trkpt><trkpt lat="36.9627299" lon="15.0377575"><ele>418.50000000000006</ele><time>2026-03-22T11:08:04.053Z</time></trkpt><trkpt lat="36.9626761" lon="15.0378017"><ele>418.0</ele><time>2026-03-22T11:08:05.087Z</time></trkpt><trkpt lat="36.9626256" lon="15.0378498"><ele>418.0</ele><time>2026-03-22T11:08:06.081Z</time></trkpt><trkpt lat="36.9625694" lon="15.0378933"><ele>418.0</ele><time>2026-03-22T11:08:07.083Z</time></trkpt><trkpt lat="36.9624948" lon="15.0379392"><ele>418.0</ele><time>2026-03-22T11:08:08.076Z</time></trkpt><trkpt lat="36.9624019" lon="15.0379838"><ele>418.0</ele><time>2026-03-22T11:08:09.061Z</time></trkpt><trkpt lat="36.9622998" lon="15.0380343"><ele>418.0</ele><time>2026-03-22T11:08:10.068Z</time></trkpt><trkpt lat="36.9621795" lon="15.0380814"><ele>417.25</ele><time>2026-03-22T11:08:11.086Z</time></trkpt><trkpt lat="36.9620463" lon="15.0381213"><ele>416.5</ele><time>2026-03-22T11:08:12.079Z</time></trkpt><trkpt lat="36.9619189" lon="15.0381702"><ele>415.75</ele><time>2026-03-22T11:08:13.082Z</time></trkpt><trkpt lat="36.9617857" lon="15.0382398"><ele>415.0</ele><time>2026-03-22T11:08:14.083Z</time></trkpt><trkpt lat="36.9616618" lon="15.0383257"><ele>414.0</ele><time>2026-03-22T11:08:15.068Z</time></trkpt><trkpt lat="36.9615456" lon="15.0384114"><ele>413.0</ele><time>2026-03-22T11:08:16.057Z</time></trkpt><trkpt lat="36.9614294" lon="15.0385043"><ele>412.0</ele><time>2026-03-22T11:08:17.036Z</time></trkpt><trkpt lat="36.961321" lon="15.0385985"><ele>411.0</ele><time>2026-03-22T11:08:18.074Z</time></trkpt><trkpt lat="36.9612194" lon="15.0386992"><ele>411.0</ele><time>2026-03-22T11:08:19.073Z</time></trkpt><trkpt lat="36.9611289" lon="15.0388139"><ele>411.0</ele><time>2026-03-22T11:08:20.08Z</time></trkpt><trkpt lat="36.9610469" lon="15.0389238"><ele>411.0</ele><time>2026-03-22T11:08:21.085Z</time></trkpt><trkpt lat="36.9609816" lon="15.0390257"><ele>411.0</ele><time>2026-03-22T11:08:22.073Z</time></trkpt><trkpt lat="36.9609388" lon="15.0391091"><ele>411.0</ele><time>2026-03-22T11:08:23.073Z</time></trkpt><trkpt lat="36.9609333" lon="15.0392603"><ele>410.6</ele><time>2026-03-22T11:08:25.087Z</time></trkpt><trkpt lat="36.9609602" lon="15.0393604"><ele>410.20000000000005</ele><time>2026-03-22T11:08:26.071Z</time></trkpt><trkpt lat="36.9609849" lon="15.0394646"><ele>409.79999999999995</ele><time>2026-03-22T11:08:27.049Z</time></trkpt><trkpt lat="36.9609818" lon="15.0395671"><ele>409.4</ele><time>2026-03-22T11:08:28.069Z</time></trkpt><trkpt lat="36.960958" lon="15.0396968"><ele>409.0</ele><time>2026-03-22T11:08:29.068Z</time></trkpt><trkpt lat="36.9609206" lon="15.039844"><ele>408.0</ele><time>2026-03-22T11:08:30.084Z</time></trkpt><trkpt lat="36.9608967" lon="15.0400154"><ele>407.0</ele><time>2026-03-22T11:08:31.111Z</time></trkpt><trkpt lat="36.960874" lon="15.040179"><ele>406.0</ele><time>2026-03-22T11:08:32.085Z</time></trkpt><trkpt lat="36.9608615" lon="15.0403272"><ele>405.0</ele><time>2026-03-22T11:08:33.088Z</time></trkpt><trkpt lat="36.9608629" lon="15.0404567"><ele>405.0</ele><time>2026-03-22T11:08:34.097Z</time></trkpt><trkpt lat="36.9608637" lon="15.0405886"><ele>405.0</ele><time>2026-03-22T11:08:35.091Z</time></trkpt><trkpt lat="36.9608683" lon="15.0406797"><ele>405.0</ele><time>2026-03-22T11:08:36.054Z</time></trkpt><trkpt lat="36.9608113" lon="15.0407859"><ele>405.0</ele><time>2026-03-22T11:08:38.092Z</time></trkpt><trkpt lat="36.9607649" lon="15.0409325"><ele>405.0</ele><time>2026-03-22T11:08:40.103Z</time></trkpt><trkpt lat="36.9607331" lon="15.0410123"><ele>405.1666666666667</ele><time>2026-03-22T11:08:41.086Z</time></trkpt><trkpt lat="36.9606719" lon="15.041079"><ele>405.33333333333337</ele><time>2026-03-22T11:08:42.093Z</time></trkpt><trkpt lat="36.9605964" lon="15.0411499"><ele>405.5</ele><time>2026-03-22T11:08:43.077Z</time></trkpt><trkpt lat="36.9605156" lon="15.041218"><ele>405.6666666666667</ele><time>2026-03-22T11:08:44.089Z</time></trkpt><trkpt lat="36.9604479" lon="15.0412903"><ele>405.83333333333337</ele><time>2026-03-22T11:08:45.098Z</time></trkpt><trkpt lat="36.9603885" lon="15.0413509"><ele>406.0</ele><time>2026-03-22T11:08:46.089Z</time></trkpt><trkpt lat="36.9603299" lon="15.0414013"><ele>406.00000000000006</ele><time>2026-03-22T11:08:47.074Z</time></trkpt><trkpt lat="36.9602651" lon="15.0414447"><ele>406.0</ele><time>2026-03-22T11:08:48.073Z</time></trkpt><trkpt lat="36.9601968" lon="15.0414933"><ele>406.0</ele><time>2026-03-22T11:08:49.087Z</time></trkpt><trkpt lat="36.9601278" lon="15.0415549"><ele>406.0</ele><time>2026-03-22T11:08:50.083Z</time></trkpt><trkpt lat="36.9600589" lon="15.0416243"><ele>406.00000000000006</ele><time>2026-03-22T11:08:51.088Z</time></trkpt><trkpt lat="36.9600006" lon="15.0417003"><ele>406.0</ele><time>2026-03-22T11:08:52.083Z</time></trkpt><trkpt lat="36.9599563" lon="15.0417667"><ele>405.0</ele><time>2026-03-22T11:08:53.083Z</time></trkpt><trkpt lat="36.9598867" lon="15.0418722"><ele>404.0</ele><time>2026-03-22T11:08:55.089Z</time></trkpt><trkpt lat="36.959804" lon="15.0419776"><ele>403.0</ele><time>2026-03-22T11:08:57.081Z</time></trkpt><trkpt lat="36.9597553" lon="15.0420491"><ele>402.0</ele><time>2026-03-22T11:08:58.07Z</time></trkpt><trkpt lat="36.9597035" lon="15.0421141"><ele>401.0</ele><time>2026-03-22T11:08:59.079Z</time></trkpt><trkpt lat="36.9596492" lon="15.0421824"><ele>401.0</ele><time>2026-03-22T11:09:00.079Z</time></trkpt><trkpt lat="36.9595932" lon="15.0422413"><ele>401.0</ele><time>2026-03-22T11:09:01.078Z</time></trkpt><trkpt lat="36.9595498" lon="15.0423398"><ele>401.0</ele><time>2026-03-22T11:09:03.07Z</time></trkpt><trkpt lat="36.9594533" lon="15.0424249"><ele>401.0</ele><time>2026-03-22T11:09:05.075Z</time></trkpt><trkpt lat="36.959362" lon="15.0424654"><ele>401.0</ele><time>2026-03-22T11:09:06.094Z</time></trkpt><trkpt lat="36.9592771" lon="15.0425166"><ele>399.49999999999994</ele><time>2026-03-22T11:09:07.088Z</time></trkpt><trkpt lat="36.9592081" lon="15.0425678"><ele>398.0</ele><time>2026-03-22T11:09:08.076Z</time></trkpt><trkpt lat="36.9591611" lon="15.042629"><ele>396.5</ele><time>2026-03-22T11:09:09.083Z</time></trkpt><trkpt lat="36.9590981" lon="15.0427139"><ele>395.0</ele><time>2026-03-22T11:09:11.065Z</time></trkpt><trkpt lat="36.9590425" lon="15.0427589"><ele>393.49999999999994</ele><time>2026-03-22T11:09:13.055Z</time></trkpt><trkpt lat="36.9589694" lon="15.0427704"><ele>392.0</ele><time>2026-03-22T11:09:15.073Z</time></trkpt><trkpt lat="36.9588881" lon="15.0427554"><ele>390.3333333333333</ele><time>2026-03-22T11:09:17.049Z</time></trkpt><trkpt lat="36.9588202" lon="15.0427145"><ele>388.66666666666663</ele><time>2026-03-22T11:09:19.067Z</time></trkpt><trkpt lat="36.9587566" lon="15.0427268"><ele>387.0</ele><time>2026-03-22T11:09:22.031Z</time></trkpt><trkpt lat="36.9586828" lon="15.0427451"><ele>385.3333333333333</ele><time>2026-03-22T11:09:24.062Z</time></trkpt><trkpt lat="36.9586202" lon="15.0428045"><ele>383.66666666666663</ele><time>2026-03-22T11:09:27.056Z</time></trkpt><trkpt lat="36.9585922" lon="15.0429063"><ele>382.0</ele><time>2026-03-22T11:09:30.076Z</time></trkpt><trkpt lat="36.9585438" lon="15.0429955"><ele>382.0</ele><time>2026-03-22T11:09:32.081Z</time></trkpt><trkpt lat="36.9585114" lon="15.0430691"><ele>382.0</ele><time>2026-03-22T11:09:33.081Z</time></trkpt><trkpt lat="36.9584583" lon="15.0432029"><ele>382.0</ele><time>2026-03-22T11:09:35.077Z</time></trkpt><trkpt lat="36.9584001" lon="15.0433256"><ele>382.0</ele><time>2026-03-22T11:09:37.038Z</time></trkpt><trkpt lat="36.958352" lon="15.043434"><ele>382.0</ele><time>2026-03-22T11:09:39.097Z</time></trkpt><trkpt lat="36.9583248" lon="15.0435117"><ele>381.3333333333333</ele><time>2026-03-22T11:09:40.082Z</time></trkpt><trkpt lat="36.9582871" lon="15.0435886"><ele>380.66666666666663</ele><time>2026-03-22T11:09:41.062Z</time></trkpt><trkpt lat="36.9582565" lon="15.0436581"><ele>380.0</ele><time>2026-03-22T11:09:42.074Z</time></trkpt><trkpt lat="36.9582261" lon="15.0437381"><ele>379.3333333333333</ele><time>2026-03-22T11:09:43.061Z</time></trkpt><trkpt lat="36.9581889" lon="15.0438487"><ele>378.6666666666667</ele><time>2026-03-22T11:09:44.049Z</time></trkpt><trkpt lat="36.9581628" lon="15.0439406"><ele>378.0</ele><time>2026-03-22T11:09:45.079Z</time></trkpt><trkpt lat="36.9581344" lon="15.0440551"><ele>378.3333333333333</ele><time>2026-03-22T11:09:47.084Z</time></trkpt><trkpt lat="36.9580965" lon="15.0441526"><ele>378.6666666666667</ele><time>2026-03-22T11:09:50.063Z</time></trkpt><trkpt lat="36.9580412" lon="15.044195"><ele>379.0</ele><time>2026-03-22T11:09:52.069Z</time></trkpt><trkpt lat="36.9579561" lon="15.0442399"><ele>379.33333333333337</ele><time>2026-03-22T11:09:55.071Z</time></trkpt><trkpt lat="36.9578675" lon="15.0442809"><ele>379.6666666666667</ele><time>2026-03-22T11:09:57.09Z</time></trkpt><trkpt lat="36.9577996" lon="15.0443141"><ele>380.0</ele><time>2026-03-22T11:09:59.08Z</time></trkpt><trkpt lat="36.9577261" lon="15.044352"><ele>380.0</ele><time>2026-03-22T11:10:01.071Z</time></trkpt><trkpt lat="36.9576499" lon="15.0444169"><ele>380.0</ele><time>2026-03-22T11:10:03.073Z</time></trkpt><trkpt lat="36.957528" lon="15.0444667"><ele>380.0</ele><time>2026-03-22T11:10:05.078Z</time></trkpt><trkpt lat="36.9574649" lon="15.0445107"><ele>380.0</ele><time>2026-03-22T11:10:06.091Z</time></trkpt><trkpt lat="36.9574112" lon="15.0445922"><ele>380.0</ele><time>2026-03-22T11:10:07.075Z</time></trkpt><trkpt lat="36.9573614" lon="15.0446696"><ele>378.4</ele><time>2026-03-22T11:10:08.09Z</time></trkpt><trkpt lat="36.9572832" lon="15.0447591"><ele>376.8</ele><time>2026-03-22T11:10:10.086Z</time></trkpt><trkpt lat="36.9571905" lon="15.0447993"><ele>375.20000000000005</ele><time>2026-03-22T11:10:12.088Z</time></trkpt><trkpt lat="36.9570891" lon="15.0448419"><ele>373.6</ele><time>2026-03-22T11:10:14.096Z</time></trkpt><trkpt lat="36.9570073" lon="15.0448905"><ele>372.0</ele><time>2026-03-22T11:10:16.099Z</time></trkpt><trkpt lat="36.9569493" lon="15.04495"><ele>372.3333333333333</ele><time>2026-03-22T11:10:18.09Z</time></trkpt><trkpt lat="36.9568981" lon="15.0450303"><ele>372.6666666666667</ele><time>2026-03-22T11:10:20.071Z</time></trkpt><trkpt lat="36.9568541" lon="15.0451113"><ele>373.0</ele><time>2026-03-22T11:10:22.077Z</time></trkpt><trkpt lat="36.9568039" lon="15.0451951"><ele>373.33333333333337</ele><time>2026-03-22T11:10:24.041Z</time></trkpt><trkpt lat="36.9567741" lon="15.0453273"><ele>373.6666666666667</ele><time>2026-03-22T11:10:26.083Z</time></trkpt><trkpt lat="36.9567356" lon="15.045407"><ele>374.0</ele><time>2026-03-22T11:10:27.087Z</time></trkpt><trkpt lat="36.9567048" lon="15.0454853"><ele>373.4</ele><time>2026-03-22T11:10:28.076Z</time></trkpt><trkpt lat="36.9566423" lon="15.0455755"><ele>372.79999999999995</ele><time>2026-03-22T11:10:30.087Z</time></trkpt><trkpt lat="36.9565507" lon="15.0456098"><ele>372.20000000000005</ele><time>2026-03-22T11:10:32.07Z</time></trkpt><trkpt lat="36.9564594" lon="15.0455838"><ele>371.6</ele><time>2026-03-22T11:10:34.071Z</time></trkpt><trkpt lat="36.9564062" lon="15.0455319"><ele>371.0</ele><time>2026-03-22T11:10:35.041Z</time></trkpt><trkpt lat="36.9563232" lon="15.0454502"><ele>371.0</ele><time>2026-03-22T11:10:36.091Z</time></trkpt><trkpt lat="36.9562294" lon="15.0453676"><ele>371.0</ele><time>2026-03-22T11:10:37.082Z</time></trkpt><trkpt lat="36.9561263" lon="15.0452786"><ele>371.0</ele><time>2026-03-22T11:10:38.08Z</time></trkpt><trkpt lat="36.9560361" lon="15.0452109"><ele>371.0</ele><time>2026-03-22T11:10:39.08Z</time></trkpt><trkpt lat="36.9559766" lon="15.0451491"><ele>371.0</ele><time>2026-03-22T11:10:40.088Z</time></trkpt><trkpt lat="36.9559311" lon="15.0450654"><ele>370.8</ele><time>2026-03-22T11:10:41.105Z</time></trkpt><trkpt lat="36.9558877" lon="15.0449494"><ele>370.6</ele><time>2026-03-22T11:10:42.087Z</time></trkpt><trkpt lat="36.9558518" lon="15.0447999"><ele>370.4</ele><time>2026-03-22T11:10:43.068Z</time></trkpt><trkpt lat="36.9558154" lon="15.0446774"><ele>370.2</ele><time>2026-03-22T11:10:44.096Z</time></trkpt><trkpt lat="36.955799" lon="15.0445859"><ele>370.0</ele><time>2026-03-22T11:10:45.08Z</time></trkpt><trkpt lat="36.9558204" lon="15.044498"><ele>370.0</ele><time>2026-03-22T11:10:46.076Z</time></trkpt><trkpt lat="36.9558615" lon="15.0443897"><ele>370.0</ele><time>2026-03-22T11:10:47.076Z</time></trkpt><trkpt lat="36.9559288" lon="15.0442674"><ele>370.0</ele><time>2026-03-22T11:10:48.066Z</time></trkpt><trkpt lat="36.9560006" lon="15.044123"><ele>370.0</ele><time>2026-03-22T11:10:49.067Z</time></trkpt><trkpt lat="36.9560559" lon="15.0439468"><ele>369.75</ele><time>2026-03-22T11:10:50.078Z</time></trkpt><trkpt lat="36.9560874" lon="15.0437723"><ele>369.5</ele><time>2026-03-22T11:10:51.081Z</time></trkpt><trkpt lat="36.9560979" lon="15.0436226"><ele>369.25</ele><time>2026-03-22T11:10:52.063Z</time></trkpt><trkpt lat="36.9560971" lon="15.0434546"><ele>369.0</ele><time>2026-03-22T11:10:53.068Z</time></trkpt><trkpt lat="36.9561092" lon="15.0432703"><ele>370.3333333333333</ele><time>2026-03-22T11:10:54.208Z</time></trkpt><trkpt lat="36.9561219" lon="15.04291"><ele>371.66666666666663</ele><time>2026-03-22T11:10:56.099Z</time></trkpt><trkpt lat="36.9561006" lon="15.0427695"><ele>373.0</ele><time>2026-03-22T11:10:57.066Z</time></trkpt><trkpt lat="36.9560536" lon="15.0426522"><ele>373.0</ele><time>2026-03-22T11:10:58.21Z</time></trkpt><trkpt lat="36.9559884" lon="15.0425384"><ele>373.0</ele><time>2026-03-22T11:10:59.169Z</time></trkpt><trkpt lat="36.9558088" lon="15.0423641"><ele>373.0</ele><time>2026-03-22T11:11:01.092Z</time></trkpt><trkpt lat="36.955713" lon="15.0423274"><ele>373.0</ele><time>2026-03-22T11:11:02.16Z</time></trkpt><trkpt lat="36.9556371" lon="15.0422829"><ele>373.79999999999995</ele><time>2026-03-22T11:11:03.072Z</time></trkpt><trkpt lat="36.9555845" lon="15.0422203"><ele>374.6</ele><time>2026-03-22T11:11:04.088Z</time></trkpt><trkpt lat="36.9555372" lon="15.0421179"><ele>375.4</ele><time>2026-03-22T11:11:05.058Z</time></trkpt><trkpt lat="36.9554866" lon="15.0419649"><ele>376.20000000000005</ele><time>2026-03-22T11:11:06.09Z</time></trkpt><trkpt lat="36.9554229" lon="15.0417992"><ele>377.0</ele><time>2026-03-22T11:11:07.086Z</time></trkpt><trkpt lat="36.9553577" lon="15.0416487"><ele>377.6</ele><time>2026-03-22T11:11:08.059Z</time></trkpt><trkpt lat="36.9552912" lon="15.0415413"><ele>378.20000000000005</ele><time>2026-03-22T11:11:09.101Z</time></trkpt><trkpt lat="36.9552405" lon="15.0414692"><ele>378.8</ele><time>2026-03-22T11:11:10.112Z</time></trkpt><trkpt lat="36.9551762" lon="15.0413975"><ele>379.4</ele><time>2026-03-22T11:11:12.087Z</time></trkpt><trkpt lat="36.9550959" lon="15.0414082"><ele>380.0</ele><time>2026-03-22T11:11:22.053Z</time></trkpt><trkpt lat="36.9549969" lon="15.0415448"><ele>377.0</ele><time>2026-03-22T11:11:24.09Z</time></trkpt><trkpt lat="36.9549222" lon="15.0416312"><ele>374.0</ele><time>2026-03-22T11:11:25.08Z</time></trkpt><trkpt lat="36.9548406" lon="15.0417173"><ele>371.0</ele><time>2026-03-22T11:11:26.079Z</time></trkpt><trkpt lat="36.9547521" lon="15.0417866"><ele>368.0</ele><time>2026-03-22T11:11:27.078Z</time></trkpt><trkpt lat="36.9546619" lon="15.0418565"><ele>365.0</ele><time>2026-03-22T11:11:28.083Z</time></trkpt><trkpt lat="36.9545744" lon="15.0419321"><ele>364.8</ele><time>2026-03-22T11:11:29.067Z</time></trkpt><trkpt lat="36.954489" lon="15.0419985"><ele>364.6</ele><time>2026-03-22T11:11:30.038Z</time></trkpt><trkpt lat="36.9544095" lon="15.0420652"><ele>364.4</ele><time>2026-03-22T11:11:31.083Z</time></trkpt><trkpt lat="36.9543268" lon="15.0421421"><ele>364.2</ele><time>2026-03-22T11:11:32.056Z</time></trkpt><trkpt lat="36.9542439" lon="15.0422141"><ele>364.0</ele><time>2026-03-22T11:11:33.079Z</time></trkpt><trkpt lat="36.9541659" lon="15.0422855"><ele>363.25</ele><time>2026-03-22T11:11:34.078Z</time></trkpt><trkpt lat="36.9540826" lon="15.0423561"><ele>362.5</ele><time>2026-03-22T11:11:35.072Z</time></trkpt><trkpt lat="36.9539944" lon="15.0424544"><ele>361.75</ele><time>2026-03-22T11:11:36.094Z</time></trkpt><trkpt lat="36.9539034" lon="15.0425692"><ele>361.0</ele><time>2026-03-22T11:11:37.1Z</time></trkpt><trkpt lat="36.9538135" lon="15.0426886"><ele>361.0</ele><time>2026-03-22T11:11:38.084Z</time></trkpt><trkpt lat="36.9537267" lon="15.0428226"><ele>361.0</ele><time>2026-03-22T11:11:39.072Z</time></trkpt><trkpt lat="36.953644" lon="15.0429595"><ele>361.0</ele><time>2026-03-22T11:11:40.093Z</time></trkpt><trkpt lat="36.9535601" lon="15.043104"><ele>361.0</ele><time>2026-03-22T11:11:41.094Z</time></trkpt><trkpt lat="36.9534706" lon="15.0432363"><ele>360.75</ele><time>2026-03-22T11:11:42.085Z</time></trkpt><trkpt lat="36.9533799" lon="15.0433787"><ele>360.5</ele><time>2026-03-22T11:11:43.051Z</time></trkpt><trkpt lat="36.9532943" lon="15.0435185"><ele>360.25</ele><time>2026-03-22T11:11:44.05Z</time></trkpt><trkpt lat="36.9532092" lon="15.0436546"><ele>360.0</ele><time>2026-03-22T11:11:45.067Z</time></trkpt><trkpt lat="36.9531242" lon="15.0437982"><ele>360.0</ele><time>2026-03-22T11:11:46.087Z</time></trkpt><trkpt lat="36.9530425" lon="15.043943"><ele>360.0</ele><time>2026-03-22T11:11:47.08Z</time></trkpt><trkpt lat="36.9529534" lon="15.0440912"><ele>360.0</ele><time>2026-03-22T11:11:48.087Z</time></trkpt><trkpt lat="36.9528691" lon="15.0442356"><ele>360.0</ele><time>2026-03-22T11:11:49.082Z</time></trkpt><trkpt lat="36.952784" lon="15.0443773"><ele>360.0</ele><time>2026-03-22T11:11:50.079Z</time></trkpt><trkpt lat="36.952697" lon="15.0445187"><ele>360.0</ele><time>2026-03-22T11:11:51.075Z</time></trkpt><trkpt lat="36.9526108" lon="15.0446578"><ele>360.0</ele><time>2026-03-22T11:11:52.079Z</time></trkpt><trkpt lat="36.9525312" lon="15.0447978"><ele>360.0</ele><time>2026-03-22T11:11:53.097Z</time></trkpt><trkpt lat="36.9524546" lon="15.044928"><ele>360.8</ele><time>2026-03-22T11:11:54.087Z</time></trkpt><trkpt lat="36.9523895" lon="15.045042"><ele>361.6</ele><time>2026-03-22T11:11:55.066Z</time></trkpt><trkpt lat="36.9523294" lon="15.0451423"><ele>362.4</ele><time>2026-03-22T11:11:56.091Z</time></trkpt><trkpt lat="36.9522766" lon="15.0452281"><ele>363.2</ele><time>2026-03-22T11:11:57.09Z</time></trkpt><trkpt lat="36.9522036" lon="15.0452887"><ele>364.0</ele><time>2026-03-22T11:11:59.086Z</time></trkpt><trkpt lat="36.9521373" lon="15.0452412"><ele>364.0</ele><time>2026-03-22T11:12:01.085Z</time></trkpt><trkpt lat="36.9520792" lon="15.045139"><ele>364.0</ele><time>2026-03-22T11:12:03.069Z</time></trkpt><trkpt lat="36.952037" lon="15.0450705"><ele>364.0</ele><time>2026-03-22T11:12:04.083Z</time></trkpt><trkpt lat="36.9519809" lon="15.0449949"><ele>364.0</ele><time>2026-03-22T11:12:05.074Z</time></trkpt><trkpt lat="36.9519222" lon="15.044901"><ele>364.0</ele><time>2026-03-22T11:12:07.071Z</time></trkpt><trkpt lat="36.9519159" lon="15.0447885"><ele>364.0</ele><time>2026-03-22T11:12:09.062Z</time></trkpt><trkpt lat="36.9519482" lon="15.0447045"><ele>364.3333333333333</ele><time>2026-03-22T11:12:10.08Z</time></trkpt><trkpt lat="36.9519926" lon="15.0445931"><ele>364.66666666666663</ele><time>2026-03-22T11:12:11.06Z</time></trkpt><trkpt lat="36.9520236" lon="15.0444885"><ele>365.0</ele><time>2026-03-22T11:12:12.1Z</time></trkpt><trkpt lat="36.9520149" lon="15.0443942"><ele>365.3333333333333</ele><time>2026-03-22T11:12:13.064Z</time></trkpt><trkpt lat="36.9519713" lon="15.0443053"><ele>365.6666666666667</ele><time>2026-03-22T11:12:14.077Z</time></trkpt><trkpt lat="36.9519319" lon="15.0442347"><ele>366.0</ele><time>2026-03-22T11:12:15.05Z</time></trkpt><trkpt lat="36.9518336" lon="15.0441801"><ele>366.0</ele><time>2026-03-22T11:12:17.048Z</time></trkpt><trkpt lat="36.9517151" lon="15.0441571"><ele>366.0</ele><time>2026-03-22T11:12:19.067Z</time></trkpt><trkpt lat="36.9516237" lon="15.044105"><ele>366.0</ele><time>2026-03-22T11:12:21.074Z</time></trkpt><trkpt lat="36.9516104" lon="15.0440157"><ele>366.0</ele><time>2026-03-22T11:12:25.075Z</time></trkpt><trkpt lat="36.9516456" lon="15.0439181"><ele>366.0</ele><time>2026-03-22T11:12:28.067Z</time></trkpt><trkpt lat="36.9516832" lon="15.0438413"><ele>366.0</ele><time>2026-03-22T11:12:33.087Z</time></trkpt><trkpt lat="36.9517304" lon="15.0437709"><ele>366.0</ele><time>2026-03-22T11:12:37.075Z</time></trkpt><trkpt lat="36.9517705" lon="15.0436886"><ele>366.0</ele><time>2026-03-22T11:12:40.085Z</time></trkpt><trkpt lat="36.9518033" lon="15.0436168"><ele>366.0</ele><time>2026-03-22T11:12:51.063Z</time></trkpt><trkpt lat="36.95176" lon="15.0435293"><ele>366.0</ele><time>2026-03-22T11:12:56.067Z</time></trkpt><trkpt lat="36.9516874" lon="15.0435222"><ele>366.0</ele><time>2026-03-22T11:12:59.071Z</time></trkpt><trkpt lat="36.9516254" lon="15.0434949"><ele>366.0</ele><time>2026-03-22T11:13:13.082Z</time></trkpt><trkpt lat="36.9515599" lon="15.0434948"><ele>365.20000000000005</ele><time>2026-03-22T11:13:44.086Z</time></trkpt><trkpt lat="36.9514666" lon="15.0434741"><ele>364.40000000000003</ele><time>2026-03-22T11:13:47.055Z</time></trkpt><trkpt lat="36.9513845" lon="15.0435117"><ele>363.6</ele><time>2026-03-22T11:13:49.081Z</time></trkpt><trkpt lat="36.9513048" lon="15.0435727"><ele>362.8</ele><time>2026-03-22T11:13:51.076Z</time></trkpt><trkpt lat="36.9512435" lon="15.0436496"><ele>362.0</ele><time>2026-03-22T11:13:53.085Z</time></trkpt><trkpt lat="36.9512419" lon="15.0437604"><ele>362.0</ele><time>2026-03-22T11:13:55.073Z</time></trkpt><trkpt lat="36.9512587" lon="15.0438599"><ele>362.0</ele><time>2026-03-22T11:13:57.083Z</time></trkpt><trkpt lat="36.9511891" lon="15.0439186"><ele>362.0</ele><time>2026-03-22T11:14:00.106Z</time></trkpt><trkpt lat="36.9512243" lon="15.0440057"><ele>362.0</ele><time>2026-03-22T11:14:06.093Z</time></trkpt><trkpt lat="36.9513032" lon="15.0440287"><ele>362.0</ele><time>2026-03-22T11:14:08.108Z</time></trkpt><trkpt lat="36.9512413" lon="15.0440516"><ele>362.0</ele><time>2026-03-22T11:14:14.081Z</time></trkpt><trkpt lat="36.9511499" lon="15.0440085"><ele>362.0</ele><time>2026-03-22T11:14:16.074Z</time></trkpt><trkpt lat="36.9510883" lon="15.0440834"><ele>362.0</ele><time>2026-03-22T11:14:43.084Z</time></trkpt><trkpt lat="36.9510757" lon="15.0441735"><ele>362.0</ele><time>2026-03-22T11:14:45.058Z</time></trkpt><trkpt lat="36.951141" lon="15.0442388"><ele>362.0</ele><time>2026-03-22T11:14:48.082Z</time></trkpt><trkpt lat="36.9512196" lon="15.0442841"><ele>362.0</ele><time>2026-03-22T11:14:50.077Z</time></trkpt><trkpt lat="36.9512793" lon="15.0443394"><ele>362.0</ele><time>2026-03-22T11:14:54.06Z</time></trkpt><trkpt lat="36.9513191" lon="15.044422"><ele>362.1666666666667</ele><time>2026-03-22T11:14:56.059Z</time></trkpt><trkpt lat="36.9513623" lon="15.0444908"><ele>362.33333333333337</ele><time>2026-03-22T11:17:50.067Z</time></trkpt><trkpt lat="36.9513354" lon="15.0445768"><ele>362.5</ele><time>2026-03-22T11:17:54.061Z</time></trkpt><trkpt lat="36.9512762" lon="15.0446537"><ele>362.6666666666667</ele><time>2026-03-22T11:17:56.08Z</time></trkpt><trkpt lat="36.9512269" lon="15.0447276"><ele>362.8333333333333</ele><time>2026-03-22T11:17:59.085Z</time></trkpt><trkpt lat="36.9511652" lon="15.0447783"><ele>363.0</ele><time>2026-03-22T11:18:01.083Z</time></trkpt><trkpt lat="36.951058" lon="15.0447777"><ele>363.0</ele><time>2026-03-22T11:18:03.065Z</time></trkpt><trkpt lat="36.9509955" lon="15.0447585"><ele>363.0</ele><time>2026-03-22T11:18:04.09Z</time></trkpt><trkpt lat="36.9509304" lon="15.0447491"><ele>363.0</ele><time>2026-03-22T11:18:05.078Z</time></trkpt><trkpt lat="36.9508442" lon="15.0447728"><ele>363.0</ele><time>2026-03-22T11:18:07.095Z</time></trkpt><trkpt lat="36.9507361" lon="15.0448446"><ele>363.0</ele><time>2026-03-22T11:18:09.068Z</time></trkpt><trkpt lat="36.9506719" lon="15.0448767"><ele>363.0</ele><time>2026-03-22T11:18:10.086Z</time></trkpt><trkpt lat="36.9506032" lon="15.0449081"><ele>362.1666666666667</ele><time>2026-03-22T11:18:11.085Z</time></trkpt><trkpt lat="36.9505239" lon="15.0449383"><ele>361.3333333333333</ele><time>2026-03-22T11:18:12.039Z</time></trkpt><trkpt lat="36.9504387" lon="15.0449668"><ele>360.5</ele><time>2026-03-22T11:18:13.096Z</time></trkpt><trkpt lat="36.9503543" lon="15.045012"><ele>359.66666666666663</ele><time>2026-03-22T11:18:14.082Z</time></trkpt><trkpt lat="36.9502789" lon="15.0450544"><ele>358.8333333333333</ele><time>2026-03-22T11:18:15.073Z</time></trkpt><trkpt lat="36.9502112" lon="15.0450814"><ele>358.0</ele><time>2026-03-22T11:18:16.094Z</time></trkpt><trkpt lat="36.9501206" lon="15.0451358"><ele>358.0</ele><time>2026-03-22T11:18:18.1Z</time></trkpt><trkpt lat="36.950047" lon="15.0452531"><ele>358.0</ele><time>2026-03-22T11:18:20.086Z</time></trkpt><trkpt lat="36.9499918" lon="15.045331"><ele>358.0</ele><time>2026-03-22T11:18:21.065Z</time></trkpt><trkpt lat="36.9499078" lon="15.0453941"><ele>358.0</ele><time>2026-03-22T11:18:23.078Z</time></trkpt><trkpt lat="36.9498346" lon="15.0453639"><ele>358.0</ele><time>2026-03-22T11:18:25.08Z</time></trkpt><trkpt lat="36.9497715" lon="15.0453215"><ele>358.0</ele><time>2026-03-22T11:18:27.069Z</time></trkpt><trkpt lat="36.9497941" lon="15.045197"><ele>356.5</ele><time>2026-03-22T11:18:31.06Z</time></trkpt><trkpt lat="36.9498518" lon="15.0451343"><ele>355.0</ele><time>2026-03-22T11:18:32.072Z</time></trkpt><trkpt lat="36.9499046" lon="15.0450455"><ele>353.5</ele><time>2026-03-22T11:18:33.071Z</time></trkpt><trkpt lat="36.9499495" lon="15.0449515"><ele>352.0</ele><time>2026-03-22T11:18:34.081Z</time></trkpt><trkpt lat="36.9499898" lon="15.0448565"><ele>350.5</ele><time>2026-03-22T11:18:35.076Z</time></trkpt><trkpt lat="36.950015" lon="15.0447636"><ele>349.0</ele><time>2026-03-22T11:18:36.084Z</time></trkpt><trkpt lat="36.9500295" lon="15.0446598"><ele>348.6</ele><time>2026-03-22T11:18:37.078Z</time></trkpt><trkpt lat="36.9500364" lon="15.0445388"><ele>348.2</ele><time>2026-03-22T11:18:38.057Z</time></trkpt><trkpt lat="36.9500394" lon="15.0444149"><ele>347.8</ele><time>2026-03-22T11:18:39.089Z</time></trkpt><trkpt lat="36.9500453" lon="15.0442872"><ele>347.40000000000003</ele><time>2026-03-22T11:18:40.076Z</time></trkpt><trkpt lat="36.9500474" lon="15.0441578"><ele>347.0</ele><time>2026-03-22T11:18:41.107Z</time></trkpt><trkpt lat="36.9500406" lon="15.044024"><ele>346.40000000000003</ele><time>2026-03-22T11:18:42.077Z</time></trkpt><trkpt lat="36.9500313" lon="15.0438878"><ele>345.8</ele><time>2026-03-22T11:18:43.083Z</time></trkpt><trkpt lat="36.9500243" lon="15.0437448"><ele>345.2</ele><time>2026-03-22T11:18:44.104Z</time></trkpt><trkpt lat="36.9500135" lon="15.0436077"><ele>344.6</ele><time>2026-03-22T11:18:45.08Z</time></trkpt><trkpt lat="36.9500077" lon="15.0434734"><ele>344.0</ele><time>2026-03-22T11:18:46.071Z</time></trkpt><trkpt lat="36.9500145" lon="15.0433252"><ele>344.5</ele><time>2026-03-22T11:18:47.161Z</time></trkpt><trkpt lat="36.9500262" lon="15.0431771"><ele>345.0</ele><time>2026-03-22T11:18:48.097Z</time></trkpt><trkpt lat="36.950036" lon="15.0430253"><ele>345.5</ele><time>2026-03-22T11:18:49.089Z</time></trkpt><trkpt lat="36.9500541" lon="15.042872"><ele>346.0</ele><time>2026-03-22T11:18:50.097Z</time></trkpt><trkpt lat="36.9500646" lon="15.0427168"><ele>347.25</ele><time>2026-03-22T11:18:51.097Z</time></trkpt><trkpt lat="36.9500713" lon="15.0425661"><ele>348.5</ele><time>2026-03-22T11:18:52.072Z</time></trkpt><trkpt lat="36.9500815" lon="15.0424141"><ele>349.75</ele><time>2026-03-22T11:18:53.09Z</time></trkpt><trkpt lat="36.9500922" lon="15.0422669"><ele>351.0</ele><time>2026-03-22T11:18:54.091Z</time></trkpt><trkpt lat="36.9501042" lon="15.0421106"><ele>351.0</ele><time>2026-03-22T11:18:55.081Z</time></trkpt><trkpt lat="36.9501181" lon="15.041953"><ele>351.0</ele><time>2026-03-22T11:18:56.071Z</time></trkpt><trkpt lat="36.9501305" lon="15.0418006"><ele>351.0</ele><time>2026-03-22T11:18:57.079Z</time></trkpt><trkpt lat="36.9501358" lon="15.0416426"><ele>351.0</ele><time>2026-03-22T11:18:58.085Z</time></trkpt><trkpt lat="36.9501317" lon="15.0414839"><ele>351.25</ele><time>2026-03-22T11:18:59.085Z</time></trkpt><trkpt lat="36.9501226" lon="15.0413316"><ele>351.5</ele><time>2026-03-22T11:19:00.083Z</time></trkpt><trkpt lat="36.9501155" lon="15.0411734"><ele>351.75</ele><time>2026-03-22T11:19:01.08Z</time></trkpt><trkpt lat="36.9501081" lon="15.0410189"><ele>352.0</ele><time>2026-03-22T11:19:02.078Z</time></trkpt><trkpt lat="36.9501007" lon="15.0408708"><ele>352.25</ele><time>2026-03-22T11:19:03.083Z</time></trkpt><trkpt lat="36.9500859" lon="15.0407329"><ele>352.5</ele><time>2026-03-22T11:19:04.074Z</time></trkpt><trkpt lat="36.9500478" lon="15.0405916"><ele>352.75</ele><time>2026-03-22T11:19:05.1Z</time></trkpt><trkpt lat="36.949991" lon="15.0404499"><ele>353.0</ele><time>2026-03-22T11:19:06.099Z</time></trkpt><trkpt lat="36.9499334" lon="15.0403027"><ele>352.0</ele><time>2026-03-22T11:19:07.09Z</time></trkpt><trkpt lat="36.9498752" lon="15.0401571"><ele>351.0</ele><time>2026-03-22T11:19:08.102Z</time></trkpt><trkpt lat="36.9498175" lon="15.0400273"><ele>350.0</ele><time>2026-03-22T11:19:09.091Z</time></trkpt><trkpt lat="36.9497575" lon="15.0398976"><ele>349.0</ele><time>2026-03-22T11:19:10.081Z</time></trkpt><trkpt lat="36.9497011" lon="15.0397697"><ele>348.79999999999995</ele><time>2026-03-22T11:19:11.09Z</time></trkpt><trkpt lat="36.94965" lon="15.0396597"><ele>348.59999999999997</ele><time>2026-03-22T11:19:12.088Z</time></trkpt><trkpt lat="36.9496161" lon="15.0395646"><ele>348.4</ele><time>2026-03-22T11:19:13.089Z</time></trkpt><trkpt lat="36.9496643" lon="15.0393875"><ele>348.2</ele><time>2026-03-22T11:19:15.083Z</time></trkpt><trkpt lat="36.9496839" lon="15.0392636"><ele>348.0</ele><time>2026-03-22T11:19:16.092Z</time></trkpt><trkpt lat="36.9496808" lon="15.0391233"><ele>348.0</ele><time>2026-03-22T11:19:17.083Z</time></trkpt><trkpt lat="36.9496714" lon="15.0390045"><ele>348.0</ele><time>2026-03-22T11:19:18.074Z</time></trkpt><trkpt lat="36.9496591" lon="15.0389147"><ele>348.0</ele><time>2026-03-22T11:19:19.076Z</time></trkpt><trkpt lat="36.9495885" lon="15.0388709"><ele>348.0</ele><time>2026-03-22T11:19:21.072Z</time></trkpt><trkpt lat="36.9495217" lon="15.0388833"><ele>348.0</ele><time>2026-03-22T11:19:22.091Z</time></trkpt><trkpt lat="36.9494392" lon="15.0388952"><ele>348.0</ele><time>2026-03-22T11:19:23.064Z</time></trkpt><trkpt lat="36.9493311" lon="15.0389201"><ele>347.0</ele><time>2026-03-22T11:19:24.059Z</time></trkpt><trkpt lat="36.949203" lon="15.0389043"><ele>346.0</ele><time>2026-03-22T11:19:25.086Z</time></trkpt><trkpt lat="36.94905" lon="15.0388543"><ele>345.0</ele><time>2026-03-22T11:19:26.08Z</time></trkpt><trkpt lat="36.9489017" lon="15.0388103"><ele>344.0</ele><time>2026-03-22T11:19:27.072Z</time></trkpt><trkpt lat="36.9487575" lon="15.0387626"><ele>344.0</ele><time>2026-03-22T11:19:28.064Z</time></trkpt><trkpt lat="36.9486214" lon="15.0387226"><ele>344.0</ele><time>2026-03-22T11:19:29.065Z</time></trkpt><trkpt lat="36.9484913" lon="15.0386798"><ele>344.0</ele><time>2026-03-22T11:19:30.085Z</time></trkpt><trkpt lat="36.9483664" lon="15.0386595"><ele>344.0</ele><time>2026-03-22T11:19:31.062Z</time></trkpt><trkpt lat="36.9482337" lon="15.0386554"><ele>344.0</ele><time>2026-03-22T11:19:32.067Z</time></trkpt><trkpt lat="36.9481079" lon="15.0386632"><ele>344.0</ele><time>2026-03-22T11:19:33.069Z</time></trkpt><trkpt lat="36.9479926" lon="15.0387106"><ele>344.0</ele><time>2026-03-22T11:19:34.075Z</time></trkpt><trkpt lat="36.9478744" lon="15.0387695"><ele>344.0</ele><time>2026-03-22T11:19:35.078Z</time></trkpt><trkpt lat="36.9477509" lon="15.0388412"><ele>344.0</ele><time>2026-03-22T11:19:36.059Z</time></trkpt><trkpt lat="36.9476257" lon="15.0389056"><ele>344.0</ele><time>2026-03-22T11:19:37.089Z</time></trkpt><trkpt lat="36.9475089" lon="15.0389837"><ele>344.0</ele><time>2026-03-22T11:19:38.094Z</time></trkpt><trkpt lat="36.9474114" lon="15.0390941"><ele>344.0</ele><time>2026-03-22T11:19:39.067Z</time></trkpt><trkpt lat="36.947316" lon="15.0392133"><ele>342.33333333333337</ele><time>2026-03-22T11:19:40.073Z</time></trkpt><trkpt lat="36.9472033" lon="15.0393003"><ele>340.6666666666667</ele><time>2026-03-22T11:19:41.044Z</time></trkpt><trkpt lat="36.9470579" lon="15.0393602"><ele>339.0</ele><time>2026-03-22T11:19:42.092Z</time></trkpt><trkpt lat="36.9468995" lon="15.0394194"><ele>339.0</ele><time>2026-03-22T11:19:43.052Z</time></trkpt><trkpt lat="36.946758" lon="15.0394878"><ele>339.0</ele><time>2026-03-22T11:19:44.089Z</time></trkpt><trkpt lat="36.9466206" lon="15.0395542"><ele>339.0</ele><time>2026-03-22T11:19:45.077Z</time></trkpt><trkpt lat="36.9464908" lon="15.0396402"><ele>339.0</ele><time>2026-03-22T11:19:46.086Z</time></trkpt><trkpt lat="36.9463649" lon="15.0397224"><ele>340.0</ele><time>2026-03-22T11:19:47.082Z</time></trkpt><trkpt lat="36.9462314" lon="15.039801"><ele>341.0</ele><time>2026-03-22T11:19:48.091Z</time></trkpt><trkpt lat="36.9461028" lon="15.0398785"><ele>342.0</ele><time>2026-03-22T11:19:49.09Z</time></trkpt><trkpt lat="36.9459747" lon="15.0399688"><ele>343.0</ele><time>2026-03-22T11:19:50.088Z</time></trkpt><trkpt lat="36.9458569" lon="15.0400783"><ele>345.0</ele><time>2026-03-22T11:19:51.079Z</time></trkpt><trkpt lat="36.9457424" lon="15.0401864"><ele>347.0</ele><time>2026-03-22T11:19:52.088Z</time></trkpt><trkpt lat="36.9456258" lon="15.0402938"><ele>349.0</ele><time>2026-03-22T11:19:53.091Z</time></trkpt><trkpt lat="36.9455079" lon="15.0403911"><ele>351.0</ele><time>2026-03-22T11:19:54.074Z</time></trkpt><trkpt lat="36.9453884" lon="15.0404835"><ele>351.0</ele><time>2026-03-22T11:19:55.075Z</time></trkpt><trkpt lat="36.9452738" lon="15.0405778"><ele>351.0</ele><time>2026-03-22T11:19:56.081Z</time></trkpt><trkpt lat="36.9451644" lon="15.0406792"><ele>351.0</ele><time>2026-03-22T11:19:57.079Z</time></trkpt><trkpt lat="36.945045" lon="15.0407887"><ele>351.0</ele><time>2026-03-22T11:19:58.078Z</time></trkpt><trkpt lat="36.9449294" lon="15.0409"><ele>350.3333333333333</ele><time>2026-03-22T11:19:59.06Z</time></trkpt><trkpt lat="36.9448103" lon="15.0410253"><ele>349.66666666666663</ele><time>2026-03-22T11:20:00.072Z</time></trkpt><trkpt lat="36.9446957" lon="15.0411477"><ele>349.0</ele><time>2026-03-22T11:20:01.089Z</time></trkpt><trkpt lat="36.9445883" lon="15.0412739"><ele>349.0</ele><time>2026-03-22T11:20:02.085Z</time></trkpt><trkpt lat="36.9444823" lon="15.0414069"><ele>349.0</ele><time>2026-03-22T11:20:03.074Z</time></trkpt><trkpt lat="36.9443837" lon="15.0415333"><ele>349.0</ele><time>2026-03-22T11:20:04.077Z</time></trkpt><trkpt lat="36.9442835" lon="15.041662"><ele>349.0</ele><time>2026-03-22T11:20:05.085Z</time></trkpt><trkpt lat="36.9441813" lon="15.0417741"><ele>347.75</ele><time>2026-03-22T11:20:06.087Z</time></trkpt><trkpt lat="36.9440713" lon="15.0418697"><ele>346.5</ele><time>2026-03-22T11:20:07.084Z</time></trkpt><trkpt lat="36.9439447" lon="15.0419703"><ele>345.25</ele><time>2026-03-22T11:20:08.072Z</time></trkpt><trkpt lat="36.9438121" lon="15.0420723"><ele>344.0</ele><time>2026-03-22T11:20:09.099Z</time></trkpt><trkpt lat="36.9436759" lon="15.0421705"><ele>344.0</ele><time>2026-03-22T11:20:10.1Z</time></trkpt><trkpt lat="36.9435346" lon="15.042255"><ele>344.0</ele><time>2026-03-22T11:20:11.096Z</time></trkpt><trkpt lat="36.9433963" lon="15.042345"><ele>344.0</ele><time>2026-03-22T11:20:12.093Z</time></trkpt><trkpt lat="36.9432623" lon="15.0424462"><ele>343.0</ele><time>2026-03-22T11:20:13.094Z</time></trkpt><trkpt lat="36.9431308" lon="15.0425483"><ele>342.0</ele><time>2026-03-22T11:20:14.068Z</time></trkpt><trkpt lat="36.9430064" lon="15.0426634"><ele>341.0</ele><time>2026-03-22T11:20:15.108Z</time></trkpt><trkpt lat="36.9428902" lon="15.0427751"><ele>341.0</ele><time>2026-03-22T11:20:16.065Z</time></trkpt><trkpt lat="36.9427843" lon="15.0429045"><ele>341.0</ele><time>2026-03-22T11:20:17.088Z</time></trkpt><trkpt lat="36.9426916" lon="15.0430467"><ele>341.0</ele><time>2026-03-22T11:20:18.104Z</time></trkpt><trkpt lat="36.9426142" lon="15.0431949"><ele>341.0</ele><time>2026-03-22T11:20:19.084Z</time></trkpt><trkpt lat="36.9425455" lon="15.0433553"><ele>341.0</ele><time>2026-03-22T11:20:20.109Z</time></trkpt><trkpt lat="36.9424827" lon="15.0435252"><ele>341.0</ele><time>2026-03-22T11:20:21.082Z</time></trkpt><trkpt lat="36.9424255" lon="15.0436926"><ele>341.0</ele><time>2026-03-22T11:20:22.072Z</time></trkpt><trkpt lat="36.9423602" lon="15.0438589"><ele>341.0</ele><time>2026-03-22T11:20:23.049Z</time></trkpt><trkpt lat="36.9422819" lon="15.044023"><ele>339.75</ele><time>2026-03-22T11:20:24.089Z</time></trkpt><trkpt lat="36.9421936" lon="15.044177"><ele>338.5</ele><time>2026-03-22T11:20:25.069Z</time></trkpt><trkpt lat="36.9421004" lon="15.0443198"><ele>337.25</ele><time>2026-03-22T11:20:26.079Z</time></trkpt><trkpt lat="36.9420043" lon="15.0444582"><ele>336.0</ele><time>2026-03-22T11:20:27.071Z</time></trkpt><trkpt lat="36.9419115" lon="15.0446033"><ele>336.0</ele><time>2026-03-22T11:20:28.088Z</time></trkpt><trkpt lat="36.9418184" lon="15.0447433"><ele>336.0</ele><time>2026-03-22T11:20:29.05Z</time></trkpt><trkpt lat="36.9417227" lon="15.0448821"><ele>336.0</ele><time>2026-03-22T11:20:30.079Z</time></trkpt><trkpt lat="36.9416179" lon="15.0450093"><ele>336.0</ele><time>2026-03-22T11:20:31.061Z</time></trkpt><trkpt lat="36.9415005" lon="15.0451254"><ele>336.5</ele><time>2026-03-22T11:20:32.053Z</time></trkpt><trkpt lat="36.9413743" lon="15.0452279"><ele>337.0</ele><time>2026-03-22T11:20:33.066Z</time></trkpt><trkpt lat="36.9412548" lon="15.0453213"><ele>337.5</ele><time>2026-03-22T11:20:34.078Z</time></trkpt><trkpt lat="36.9411372" lon="15.0454114"><ele>338.0</ele><time>2026-03-22T11:20:35.04Z</time></trkpt><trkpt lat="36.941042" lon="15.0454795"><ele>338.0</ele><time>2026-03-22T11:20:36.087Z</time></trkpt><trkpt lat="36.9409526" lon="15.0455314"><ele>338.0</ele><time>2026-03-22T11:20:37.058Z</time></trkpt><trkpt lat="36.9408612" lon="15.0455686"><ele>338.0</ele><time>2026-03-22T11:20:38.044Z</time></trkpt><trkpt lat="36.940748" lon="15.0456137"><ele>338.0</ele><time>2026-03-22T11:20:39.078Z</time></trkpt><trkpt lat="36.94062" lon="15.045659"><ele>338.0</ele><time>2026-03-22T11:20:40.092Z</time></trkpt><trkpt lat="36.9404871" lon="15.0457009"><ele>337.5</ele><time>2026-03-22T11:20:41.077Z</time></trkpt><trkpt lat="36.9403505" lon="15.0457547"><ele>337.0</ele><time>2026-03-22T11:20:42.095Z</time></trkpt><trkpt lat="36.9402121" lon="15.0458236"><ele>336.5</ele><time>2026-03-22T11:20:43.105Z</time></trkpt><trkpt lat="36.940074" lon="15.0458919"><ele>336.0</ele><time>2026-03-22T11:20:44.11Z</time></trkpt><trkpt lat="36.939935" lon="15.0459473"><ele>337.0</ele><time>2026-03-22T11:20:45.097Z</time></trkpt><trkpt lat="36.9398032" lon="15.0460051"><ele>338.0</ele><time>2026-03-22T11:20:46.092Z</time></trkpt><trkpt lat="36.9396613" lon="15.046074"><ele>339.0</ele><time>2026-03-22T11:20:47.096Z</time></trkpt><trkpt lat="36.9395204" lon="15.0461438"><ele>340.0</ele><time>2026-03-22T11:20:48.069Z</time></trkpt><trkpt lat="36.9393913" lon="15.0462059"><ele>340.0</ele><time>2026-03-22T11:20:49.083Z</time></trkpt><trkpt lat="36.9392686" lon="15.0462475"><ele>340.0</ele><time>2026-03-22T11:20:50.088Z</time></trkpt><trkpt lat="36.9391415" lon="15.0462711"><ele>340.0</ele><time>2026-03-22T11:20:51.075Z</time></trkpt><trkpt lat="36.9389946" lon="15.0462849"><ele>340.0</ele><time>2026-03-22T11:20:52.098Z</time></trkpt><trkpt lat="36.9388483" lon="15.0463017"><ele>340.75</ele><time>2026-03-22T11:20:53.099Z</time></trkpt><trkpt lat="36.9387019" lon="15.0463386"><ele>341.5</ele><time>2026-03-22T11:20:54.105Z</time></trkpt><trkpt lat="36.9385764" lon="15.0463754"><ele>342.25</ele><time>2026-03-22T11:20:55.108Z</time></trkpt><trkpt lat="36.938446" lon="15.0464005"><ele>343.0</ele><time>2026-03-22T11:20:56.084Z</time></trkpt><trkpt lat="36.9383181" lon="15.0464278"><ele>343.0</ele><time>2026-03-22T11:20:57.075Z</time></trkpt><trkpt lat="36.9382006" lon="15.0464492"><ele>343.0</ele><time>2026-03-22T11:20:58.085Z</time></trkpt><trkpt lat="36.938099" lon="15.0464607"><ele>343.0</ele><time>2026-03-22T11:20:59.09Z</time></trkpt><trkpt lat="36.9380021" lon="15.04645"><ele>343.0</ele><time>2026-03-22T11:21:00.091Z</time></trkpt><trkpt lat="36.9379062" lon="15.0464339"><ele>343.0</ele><time>2026-03-22T11:21:01.076Z</time></trkpt><trkpt lat="36.9378273" lon="15.0464364"><ele>343.0</ele><time>2026-03-22T11:21:02.076Z</time></trkpt><trkpt lat="36.9377483" lon="15.0464666"><ele>343.0</ele><time>2026-03-22T11:21:03.098Z</time></trkpt><trkpt lat="36.9376725" lon="15.0465452"><ele>343.0</ele><time>2026-03-22T11:21:04.086Z</time></trkpt><trkpt lat="36.9375875" lon="15.0466396"><ele>343.0</ele><time>2026-03-22T11:21:05.097Z</time></trkpt><trkpt lat="36.9375006" lon="15.0467444"><ele>343.0</ele><time>2026-03-22T11:21:06.084Z</time></trkpt><trkpt lat="36.9373983" lon="15.0468254"><ele>341.25</ele><time>2026-03-22T11:21:07.079Z</time></trkpt><trkpt lat="36.9372895" lon="15.0468895"><ele>339.5</ele><time>2026-03-22T11:21:08.099Z</time></trkpt><trkpt lat="36.9371909" lon="15.0469603"><ele>337.75</ele><time>2026-03-22T11:21:09.069Z</time></trkpt><trkpt lat="36.9371008" lon="15.0470456"><ele>336.0</ele><time>2026-03-22T11:21:10.099Z</time></trkpt><trkpt lat="36.9369973" lon="15.0471423"><ele>336.0</ele><time>2026-03-22T11:21:11.107Z</time></trkpt><trkpt lat="36.9368808" lon="15.0472526"><ele>336.0</ele><time>2026-03-22T11:21:12.084Z</time></trkpt><trkpt lat="36.9367744" lon="15.0473567"><ele>336.0</ele><time>2026-03-22T11:21:13.082Z</time></trkpt><trkpt lat="36.9366837" lon="15.0474691"><ele>336.0</ele><time>2026-03-22T11:21:14.093Z</time></trkpt><trkpt lat="36.9365967" lon="15.0475949"><ele>334.0</ele><time>2026-03-22T11:21:15.087Z</time></trkpt><trkpt lat="36.9365094" lon="15.0477231"><ele>332.0</ele><time>2026-03-22T11:21:16.078Z</time></trkpt><trkpt lat="36.9364259" lon="15.0478566"><ele>330.0</ele><time>2026-03-22T11:21:17.088Z</time></trkpt><trkpt lat="36.9363525" lon="15.0479659"><ele>328.0</ele><time>2026-03-22T11:21:18.082Z</time></trkpt><trkpt lat="36.9362965" lon="15.0480619"><ele>328.0</ele><time>2026-03-22T11:21:19.076Z</time></trkpt><trkpt lat="36.9362515" lon="15.0481588"><ele>328.0</ele><time>2026-03-22T11:21:20.099Z</time></trkpt><trkpt lat="36.9362076" lon="15.0482572"><ele>328.0</ele><time>2026-03-22T11:21:21.097Z</time></trkpt><trkpt lat="36.9361621" lon="15.0483606"><ele>328.0</ele><time>2026-03-22T11:21:22.093Z</time></trkpt><trkpt lat="36.9361122" lon="15.0484522"><ele>328.0</ele><time>2026-03-22T11:21:23.072Z</time></trkpt><trkpt lat="36.9360656" lon="15.0485498"><ele>328.0</ele><time>2026-03-22T11:21:24.08Z</time></trkpt><trkpt lat="36.9360291" lon="15.0486361"><ele>328.0</ele><time>2026-03-22T11:21:25.076Z</time></trkpt><trkpt lat="36.9359882" lon="15.0486987"><ele>328.0</ele><time>2026-03-22T11:21:26.077Z</time></trkpt><trkpt lat="36.9359165" lon="15.0487275"><ele>328.0</ele><time>2026-03-22T11:21:28.048Z</time></trkpt><trkpt lat="36.9357873" lon="15.0487074"><ele>328.0</ele><time>2026-03-22T11:21:30.084Z</time></trkpt><trkpt lat="36.9356975" lon="15.048681"><ele>328.0</ele><time>2026-03-22T11:21:31.062Z</time></trkpt><trkpt lat="36.9355952" lon="15.0486391"><ele>328.0</ele><time>2026-03-22T11:21:32.091Z</time></trkpt><trkpt lat="36.9354978" lon="15.0485804"><ele>328.0</ele><time>2026-03-22T11:21:33.078Z</time></trkpt><trkpt lat="36.9354068" lon="15.0485087"><ele>328.0</ele><time>2026-03-22T11:21:34.076Z</time></trkpt><trkpt lat="36.9353228" lon="15.0484421"><ele>328.0</ele><time>2026-03-22T11:21:35.088Z</time></trkpt><trkpt lat="36.9352377" lon="15.0483822"><ele>328.0</ele><time>2026-03-22T11:21:36.082Z</time></trkpt><trkpt lat="36.9351433" lon="15.0483468"><ele>327.5</ele><time>2026-03-22T11:21:37.09Z</time></trkpt><trkpt lat="36.9350336" lon="15.0483139"><ele>327.0</ele><time>2026-03-22T11:21:38.091Z</time></trkpt><trkpt lat="36.9349241" lon="15.048279"><ele>326.5</ele><time>2026-03-22T11:21:39.078Z</time></trkpt><trkpt lat="36.9348153" lon="15.0482588"><ele>326.0</ele><time>2026-03-22T11:21:40.058Z</time></trkpt><trkpt lat="36.9346929" lon="15.0482442"><ele>326.0</ele><time>2026-03-22T11:21:41.086Z</time></trkpt><trkpt lat="36.934564" lon="15.0482357"><ele>326.0</ele><time>2026-03-22T11:21:42.084Z</time></trkpt><trkpt lat="36.9344409" lon="15.0482219"><ele>326.0</ele><time>2026-03-22T11:21:43.084Z</time></trkpt><trkpt lat="36.9343204" lon="15.0482159"><ele>326.0</ele><time>2026-03-22T11:21:44.086Z</time></trkpt><trkpt lat="36.9341874" lon="15.0482158"><ele>325.8</ele><time>2026-03-22T11:21:45.086Z</time></trkpt><trkpt lat="36.9340636" lon="15.0482019"><ele>325.6</ele><time>2026-03-22T11:21:46.107Z</time></trkpt><trkpt lat="36.9339616" lon="15.0481805"><ele>325.4</ele><time>2026-03-22T11:21:47.096Z</time></trkpt><trkpt lat="36.9338717" lon="15.0481476"><ele>325.2</ele><time>2026-03-22T11:21:48.093Z</time></trkpt><trkpt lat="36.9337828" lon="15.0481006"><ele>325.0</ele><time>2026-03-22T11:21:49.087Z</time></trkpt><trkpt lat="36.9337046" lon="15.0480464"><ele>325.0</ele><time>2026-03-22T11:21:50.075Z</time></trkpt><trkpt lat="36.9336272" lon="15.0479852"><ele>325.0</ele><time>2026-03-22T11:21:51.088Z</time></trkpt><trkpt lat="36.9335499" lon="15.0479328"><ele>325.0</ele><time>2026-03-22T11:21:52.107Z</time></trkpt><trkpt lat="36.9334732" lon="15.0478797"><ele>325.0</ele><time>2026-03-22T11:21:53.089Z</time></trkpt><trkpt lat="36.933389" lon="15.0478288"><ele>325.0</ele><time>2026-03-22T11:21:54.084Z</time></trkpt><trkpt lat="36.9333237" lon="15.0477852"><ele>325.0</ele><time>2026-03-22T11:21:55.088Z</time></trkpt><trkpt lat="36.9332735" lon="15.04769"><ele>325.0</ele><time>2026-03-22T11:21:57.106Z</time></trkpt><trkpt lat="36.933225" lon="15.0476003"><ele>325.0</ele><time>2026-03-22T11:21:59.075Z</time></trkpt><trkpt lat="36.9331708" lon="15.0475357"><ele>325.0</ele><time>2026-03-22T11:22:01.083Z</time></trkpt><trkpt lat="36.9331147" lon="15.0474776"><ele>325.0</ele><time>2026-03-22T11:22:03.045Z</time></trkpt><trkpt lat="36.9330602" lon="15.0474135"><ele>325.0</ele><time>2026-03-22T11:22:06.051Z</time></trkpt><trkpt lat="36.9330055" lon="15.0473424"><ele>325.0</ele><time>2026-03-22T11:22:09.078Z</time></trkpt><trkpt lat="36.9329238" lon="15.0472901"><ele>324.16666666666663</ele><time>2026-03-22T11:22:12.078Z</time></trkpt><trkpt lat="36.9327979" lon="15.0472538"><ele>323.3333333333333</ele><time>2026-03-22T11:22:16.09Z</time></trkpt><trkpt lat="36.9327261" lon="15.0472325"><ele>322.5</ele><time>2026-03-22T11:22:18.079Z</time></trkpt><trkpt lat="36.9326454" lon="15.0472364"><ele>321.6666666666667</ele><time>2026-03-22T11:22:20.089Z</time></trkpt><trkpt lat="36.9325712" lon="15.047249"><ele>320.83333333333337</ele><time>2026-03-22T11:22:22.069Z</time></trkpt><trkpt lat="36.9324946" lon="15.0472578"><ele>320.0</ele><time>2026-03-22T11:22:24.064Z</time></trkpt><trkpt lat="36.9324106" lon="15.0472606"><ele>319.1666666666667</ele><time>2026-03-22T11:22:26.086Z</time></trkpt><trkpt lat="36.9323307" lon="15.0472855"><ele>318.33333333333337</ele><time>2026-03-22T11:22:28.083Z</time></trkpt><trkpt lat="36.9322546" lon="15.0472988"><ele>317.5</ele><time>2026-03-22T11:22:30.059Z</time></trkpt><trkpt lat="36.9321711" lon="15.0473034"><ele>316.6666666666667</ele><time>2026-03-22T11:22:32.074Z</time></trkpt><trkpt lat="36.9320959" lon="15.0473086"><ele>315.8333333333333</ele><time>2026-03-22T11:22:34.073Z</time></trkpt><trkpt lat="36.9320183" lon="15.0473065"><ele>315.0</ele><time>2026-03-22T11:22:36.098Z</time></trkpt><trkpt lat="36.9319364" lon="15.0473079"><ele>315.0</ele><time>2026-03-22T11:22:38.07Z</time></trkpt><trkpt lat="36.9318302" lon="15.0473072"><ele>315.0</ele><time>2026-03-22T11:22:40.059Z</time></trkpt><trkpt lat="36.9317359" lon="15.0473133"><ele>315.0</ele><time>2026-03-22T11:22:42.093Z</time></trkpt><trkpt lat="36.9316616" lon="15.0473335"><ele>315.0</ele><time>2026-03-22T11:22:44.054Z</time></trkpt><trkpt lat="36.9315894" lon="15.0473475"><ele>315.0</ele><time>2026-03-22T11:22:46.088Z</time></trkpt><trkpt lat="36.9315175" lon="15.0473489"><ele>315.0</ele><time>2026-03-22T11:22:48.098Z</time></trkpt><trkpt lat="36.9314273" lon="15.0473795"><ele>314.2</ele><time>2026-03-22T11:22:50.049Z</time></trkpt><trkpt lat="36.9313117" lon="15.0474162"><ele>313.4</ele><time>2026-03-22T11:22:52.08Z</time></trkpt><trkpt lat="36.9312174" lon="15.0474519"><ele>312.6</ele><time>2026-03-22T11:22:54.088Z</time></trkpt><trkpt lat="36.9311367" lon="15.0475208"><ele>311.8</ele><time>2026-03-22T11:22:56.098Z</time></trkpt><trkpt lat="36.9310722" lon="15.0475801"><ele>311.0</ele><time>2026-03-22T11:22:58.074Z</time></trkpt><trkpt lat="36.9310206" lon="15.0476566"><ele>311.0</ele><time>2026-03-22T11:23:00.092Z</time></trkpt><trkpt lat="36.9309368" lon="15.0477515"><ele>311.0</ele><time>2026-03-22T11:23:02.074Z</time></trkpt><trkpt lat="36.930849" lon="15.0478351"><ele>311.0</ele><time>2026-03-22T11:23:04.084Z</time></trkpt><trkpt lat="36.9307554" lon="15.047896"><ele>311.0</ele><time>2026-03-22T11:23:06.075Z</time></trkpt><trkpt lat="36.9306539" lon="15.047976"><ele>311.0</ele><time>2026-03-22T11:23:08.085Z</time></trkpt><trkpt lat="36.9305919" lon="15.0480148"><ele>310.1666666666667</ele><time>2026-03-22T11:23:09.075Z</time></trkpt><trkpt lat="36.9305206" lon="15.0480522"><ele>309.33333333333337</ele><time>2026-03-22T11:23:10.073Z</time></trkpt><trkpt lat="36.9303941" lon="15.048051"><ele>308.5</ele><time>2026-03-22T11:23:12.088Z</time></trkpt><trkpt lat="36.9303292" lon="15.048064"><ele>307.6666666666667</ele><time>2026-03-22T11:23:13.09Z</time></trkpt><trkpt lat="36.9302671" lon="15.0480826"><ele>306.8333333333333</ele><time>2026-03-22T11:23:14.083Z</time></trkpt><trkpt lat="36.9301992" lon="15.0480893"><ele>306.0</ele><time>2026-03-22T11:23:15.088Z</time></trkpt><trkpt lat="36.9301343" lon="15.0480758"><ele>306.0</ele><time>2026-03-22T11:23:16.081Z</time></trkpt><trkpt lat="36.9300674" lon="15.0480436"><ele>306.0</ele><time>2026-03-22T11:23:17.173Z</time></trkpt><trkpt lat="36.9299286" lon="15.0479946"><ele>306.0</ele><time>2026-03-22T11:23:19.09Z</time></trkpt><trkpt lat="36.9298648" lon="15.0479723"><ele>306.0</ele><time>2026-03-22T11:23:20.112Z</time></trkpt><trkpt lat="36.9297941" lon="15.0479535"><ele>306.0</ele><time>2026-03-22T11:23:21.069Z</time></trkpt><trkpt lat="36.9297023" lon="15.0479354"><ele>306.0</ele><time>2026-03-22T11:23:22.062Z</time></trkpt><trkpt lat="36.9296095" lon="15.0479065"><ele>306.2</ele><time>2026-03-22T11:23:23.083Z</time></trkpt><trkpt lat="36.9295173" lon="15.0478754"><ele>306.40000000000003</ele><time>2026-03-22T11:23:24.052Z</time></trkpt><trkpt lat="36.929418" lon="15.0478451"><ele>306.6</ele><time>2026-03-22T11:23:25.089Z</time></trkpt><trkpt lat="36.929325" lon="15.0478117"><ele>306.8</ele><time>2026-03-22T11:23:26.087Z</time></trkpt><trkpt lat="36.9292301" lon="15.0477775"><ele>307.0</ele><time>2026-03-22T11:23:27.075Z</time></trkpt><trkpt lat="36.929133" lon="15.0477426"><ele>305.4</ele><time>2026-03-22T11:23:28.071Z</time></trkpt><trkpt lat="36.9290226" lon="15.0476909"><ele>303.79999999999995</ele><time>2026-03-22T11:23:29.067Z</time></trkpt><trkpt lat="36.9289292" lon="15.0476548"><ele>302.2</ele><time>2026-03-22T11:23:30.091Z</time></trkpt><trkpt lat="36.9288503" lon="15.0476259"><ele>300.59999999999997</ele><time>2026-03-22T11:23:31.072Z</time></trkpt><trkpt lat="36.9287832" lon="15.0475964"><ele>299.0</ele><time>2026-03-22T11:23:32.074Z</time></trkpt><trkpt lat="36.9286653" lon="15.0475328"><ele>299.0</ele><time>2026-03-22T11:23:34.078Z</time></trkpt><trkpt lat="36.928594" lon="15.0474998"><ele>299.0</ele><time>2026-03-22T11:23:35.076Z</time></trkpt><trkpt lat="36.9285023" lon="15.0474981"><ele>299.0</ele><time>2026-03-22T11:23:36.085Z</time></trkpt><trkpt lat="36.9284003" lon="15.047518"><ele>299.0</ele><time>2026-03-22T11:23:37.068Z</time></trkpt><trkpt lat="36.9283139" lon="15.0475432"><ele>299.0</ele><time>2026-03-22T11:23:38.084Z</time></trkpt><trkpt lat="36.9282492" lon="15.0475487"><ele>299.0</ele><time>2026-03-22T11:23:39.087Z</time></trkpt><trkpt lat="36.928127" lon="15.0475256"><ele>299.1666666666667</ele><time>2026-03-22T11:23:41.073Z</time></trkpt><trkpt lat="36.9280573" lon="15.0475103"><ele>299.33333333333337</ele><time>2026-03-22T11:23:42.082Z</time></trkpt><trkpt lat="36.9279916" lon="15.0474985"><ele>299.5</ele><time>2026-03-22T11:23:43.064Z</time></trkpt><trkpt lat="36.9278732" lon="15.0474478"><ele>299.6666666666667</ele><time>2026-03-22T11:23:45.052Z</time></trkpt><trkpt lat="36.9278094" lon="15.0474265"><ele>299.8333333333333</ele><time>2026-03-22T11:23:46.087Z</time></trkpt><trkpt lat="36.9277461" lon="15.0474108"><ele>300.0</ele><time>2026-03-22T11:23:47.081Z</time></trkpt><trkpt lat="36.9275986" lon="15.0474394"><ele>299.0</ele><time>2026-03-22T11:23:49.072Z</time></trkpt><trkpt lat="36.9275013" lon="15.0474747"><ele>298.0</ele><time>2026-03-22T11:23:50.094Z</time></trkpt><trkpt lat="36.9274094" lon="15.0475259"><ele>297.0</ele><time>2026-03-22T11:23:51.088Z</time></trkpt><trkpt lat="36.9273097" lon="15.0475975"><ele>296.0</ele><time>2026-03-22T11:23:52.096Z</time></trkpt><trkpt lat="36.9272062" lon="15.0477055"><ele>296.0</ele><time>2026-03-22T11:23:53.09Z</time></trkpt><trkpt lat="36.9270965" lon="15.0478178"><ele>296.0</ele><time>2026-03-22T11:23:54.095Z</time></trkpt><trkpt lat="36.9269861" lon="15.0479277"><ele>296.0</ele><time>2026-03-22T11:23:55.055Z</time></trkpt><trkpt lat="36.9268764" lon="15.048035"><ele>296.0</ele><time>2026-03-22T11:23:56.1Z</time></trkpt><trkpt lat="36.9267705" lon="15.048129"><ele>294.5</ele><time>2026-03-22T11:23:57.094Z</time></trkpt><trkpt lat="36.9266608" lon="15.0482092"><ele>293.0</ele><time>2026-03-22T11:23:58.082Z</time></trkpt><trkpt lat="36.9265591" lon="15.0482795"><ele>291.5</ele><time>2026-03-22T11:23:59.097Z</time></trkpt><trkpt lat="36.9264561" lon="15.0483533"><ele>290.0</ele><time>2026-03-22T11:24:00.069Z</time></trkpt><trkpt lat="36.9263368" lon="15.0484256"><ele>291.0</ele><time>2026-03-22T11:24:01.054Z</time></trkpt><trkpt lat="36.9262005" lon="15.0484781"><ele>292.0</ele><time>2026-03-22T11:24:02.084Z</time></trkpt><trkpt lat="36.9260578" lon="15.0485399"><ele>293.0</ele><time>2026-03-22T11:24:03.055Z</time></trkpt><trkpt lat="36.925914" lon="15.0486081"><ele>294.0</ele><time>2026-03-22T11:24:04.088Z</time></trkpt><trkpt lat="36.9257824" lon="15.0486573"><ele>294.0</ele><time>2026-03-22T11:24:05.084Z</time></trkpt><trkpt lat="36.9256659" lon="15.0487106"><ele>294.0</ele><time>2026-03-22T11:24:06.082Z</time></trkpt><trkpt lat="36.925553" lon="15.0487587"><ele>294.0</ele><time>2026-03-22T11:24:07.097Z</time></trkpt><trkpt lat="36.9254443" lon="15.0487929"><ele>294.0</ele><time>2026-03-22T11:24:08.077Z</time></trkpt><trkpt lat="36.9253458" lon="15.0488031"><ele>294.0</ele><time>2026-03-22T11:24:09.098Z</time></trkpt><trkpt lat="36.9252498" lon="15.048798"><ele>294.0</ele><time>2026-03-22T11:24:10.088Z</time></trkpt><trkpt lat="36.9251502" lon="15.048767"><ele>294.0</ele><time>2026-03-22T11:24:11.072Z</time></trkpt><trkpt lat="36.9250539" lon="15.0487244"><ele>294.0</ele><time>2026-03-22T11:24:12.245Z</time></trkpt><trkpt lat="36.9249426" lon="15.048703"><ele>294.0</ele><time>2026-03-22T11:24:14.088Z</time></trkpt><trkpt lat="36.9248705" lon="15.0487119"><ele>293.0</ele><time>2026-03-22T11:24:15.068Z</time></trkpt><trkpt lat="36.9247931" lon="15.0487172"><ele>292.0</ele><time>2026-03-22T11:24:16.086Z</time></trkpt><trkpt lat="36.9247196" lon="15.0487219"><ele>291.0</ele><time>2026-03-22T11:24:17.08Z</time></trkpt><trkpt lat="36.9246364" lon="15.0487401"><ele>290.0</ele><time>2026-03-22T11:24:18.089Z</time></trkpt><trkpt lat="36.924547" lon="15.0487646"><ele>289.0</ele><time>2026-03-22T11:24:19.113Z</time></trkpt><trkpt lat="36.9244548" lon="15.048794"><ele>288.0</ele><time>2026-03-22T11:24:20.117Z</time></trkpt><trkpt lat="36.9243671" lon="15.0488151"><ele>288.0</ele><time>2026-03-22T11:24:21.094Z</time></trkpt><trkpt lat="36.9242751" lon="15.0488249"><ele>288.0</ele><time>2026-03-22T11:24:22.093Z</time></trkpt><trkpt lat="36.9241802" lon="15.0488406"><ele>288.0</ele><time>2026-03-22T11:24:23.089Z</time></trkpt><trkpt lat="36.9240826" lon="15.0488612"><ele>288.0</ele><time>2026-03-22T11:24:24.06Z</time></trkpt><trkpt lat="36.9239911" lon="15.0488913"><ele>288.0</ele><time>2026-03-22T11:24:25.055Z</time></trkpt><trkpt lat="36.9239095" lon="15.0489448"><ele>288.6</ele><time>2026-03-22T11:24:26.085Z</time></trkpt><trkpt lat="36.923848" lon="15.0490399"><ele>289.20000000000005</ele><time>2026-03-22T11:24:27.084Z</time></trkpt><trkpt lat="36.9237865" lon="15.0491411"><ele>289.8</ele><time>2026-03-22T11:24:28.107Z</time></trkpt><trkpt lat="36.9237227" lon="15.0492379"><ele>290.40000000000003</ele><time>2026-03-22T11:24:29.083Z</time></trkpt><trkpt lat="36.9236581" lon="15.0493518"><ele>291.0</ele><time>2026-03-22T11:24:30.089Z</time></trkpt><trkpt lat="36.9235944" lon="15.0494756"><ele>291.0</ele><time>2026-03-22T11:24:31.092Z</time></trkpt><trkpt lat="36.9235345" lon="15.0496038"><ele>291.0</ele><time>2026-03-22T11:24:32.092Z</time></trkpt><trkpt lat="36.9234845" lon="15.0497103"><ele>291.0</ele><time>2026-03-22T11:24:33.106Z</time></trkpt><trkpt lat="36.9234298" lon="15.0497983"><ele>291.0</ele><time>2026-03-22T11:24:34.073Z</time></trkpt><trkpt lat="36.9233528" lon="15.0498621"><ele>291.0</ele><time>2026-03-22T11:24:35.079Z</time></trkpt><trkpt lat="36.9232693" lon="15.049919"><ele>292.6</ele><time>2026-03-22T11:24:36.077Z</time></trkpt><trkpt lat="36.9231738" lon="15.0499604"><ele>294.20000000000005</ele><time>2026-03-22T11:24:37.077Z</time></trkpt><trkpt lat="36.9230826" lon="15.0499866"><ele>295.79999999999995</ele><time>2026-03-22T11:24:38.084Z</time></trkpt><trkpt lat="36.9229902" lon="15.0499906"><ele>297.4</ele><time>2026-03-22T11:24:39.089Z</time></trkpt><trkpt lat="36.9228855" lon="15.0499728"><ele>299.0</ele><time>2026-03-22T11:24:40.06Z</time></trkpt><trkpt lat="36.9227664" lon="15.0499679"><ele>299.0</ele><time>2026-03-22T11:24:41.084Z</time></trkpt><trkpt lat="36.9226239" lon="15.0499585"><ele>299.0</ele><time>2026-03-22T11:24:42.07Z</time></trkpt><trkpt lat="36.9224588" lon="15.0499506"><ele>299.0</ele><time>2026-03-22T11:24:43.072Z</time></trkpt><trkpt lat="36.9223046" lon="15.0499467"><ele>297.25</ele><time>2026-03-22T11:24:44.072Z</time></trkpt><trkpt lat="36.9221579" lon="15.049944"><ele>295.5</ele><time>2026-03-22T11:24:45.081Z</time></trkpt><trkpt lat="36.9220369" lon="15.0499183"><ele>293.75</ele><time>2026-03-22T11:24:46.084Z</time></trkpt><trkpt lat="36.9219013" lon="15.0498842"><ele>292.0</ele><time>2026-03-22T11:24:47.072Z</time></trkpt><trkpt lat="36.9217507" lon="15.0498433"><ele>291.0</ele><time>2026-03-22T11:24:48.092Z</time></trkpt><trkpt lat="36.9215962" lon="15.0497937"><ele>290.0</ele><time>2026-03-22T11:24:49.094Z</time></trkpt><trkpt lat="36.9214518" lon="15.0497541"><ele>289.0</ele><time>2026-03-22T11:24:50.087Z</time></trkpt><trkpt lat="36.9213074" lon="15.0497056"><ele>289.0</ele><time>2026-03-22T11:24:51.054Z</time></trkpt><trkpt lat="36.9211848" lon="15.04967"><ele>289.0</ele><time>2026-03-22T11:24:52.099Z</time></trkpt><trkpt lat="36.9210651" lon="15.0496452"><ele>289.0</ele><time>2026-03-22T11:24:53.09Z</time></trkpt><trkpt lat="36.9209445" lon="15.0496241"><ele>289.0</ele><time>2026-03-22T11:24:54.107Z</time></trkpt><trkpt lat="36.9208178" lon="15.0496237"><ele>289.25</ele><time>2026-03-22T11:24:55.103Z</time></trkpt><trkpt lat="36.9206972" lon="15.0496144"><ele>289.5</ele><time>2026-03-22T11:24:56.096Z</time></trkpt><trkpt lat="36.9205838" lon="15.0496022"><ele>289.75</ele><time>2026-03-22T11:24:57.082Z</time></trkpt><trkpt lat="36.92048" lon="15.0495727"><ele>290.0</ele><time>2026-03-22T11:24:58.092Z</time></trkpt><trkpt lat="36.9203723" lon="15.0495295"><ele>290.0</ele><time>2026-03-22T11:24:59.093Z</time></trkpt><trkpt lat="36.9202713" lon="15.0494818"><ele>290.0</ele><time>2026-03-22T11:25:00.089Z</time></trkpt><trkpt lat="36.9201827" lon="15.0494365"><ele>290.0</ele><time>2026-03-22T11:25:01.089Z</time></trkpt><trkpt lat="36.9201238" lon="15.049388"><ele>290.0</ele><time>2026-03-22T11:25:02.09Z</time></trkpt><trkpt lat="36.9200701" lon="15.0492477"><ele>290.0</ele><time>2026-03-22T11:25:04.068Z</time></trkpt><trkpt lat="36.9200246" lon="15.0491886"><ele>289.6</ele><time>2026-03-22T11:25:05.091Z</time></trkpt><trkpt lat="36.9199527" lon="15.0491422"><ele>289.2</ele><time>2026-03-22T11:25:06.084Z</time></trkpt><trkpt lat="36.9198561" lon="15.0490938"><ele>288.8</ele><time>2026-03-22T11:25:07.066Z</time></trkpt><trkpt lat="36.9197313" lon="15.0490389"><ele>288.4</ele><time>2026-03-22T11:25:08.062Z</time></trkpt><trkpt lat="36.9196131" lon="15.048997"><ele>288.0</ele><time>2026-03-22T11:25:09.093Z</time></trkpt><trkpt lat="36.9194972" lon="15.0489617"><ele>285.75</ele><time>2026-03-22T11:25:10.084Z</time></trkpt><trkpt lat="36.9193825" lon="15.0489415"><ele>283.5</ele><time>2026-03-22T11:25:11.076Z</time></trkpt><trkpt lat="36.9192639" lon="15.0489177"><ele>281.25</ele><time>2026-03-22T11:25:12.074Z</time></trkpt><trkpt lat="36.919146" lon="15.0488841"><ele>279.0</ele><time>2026-03-22T11:25:13.04Z</time></trkpt><trkpt lat="36.9190262" lon="15.0488436"><ele>279.0</ele><time>2026-03-22T11:25:14.072Z</time></trkpt><trkpt lat="36.9189082" lon="15.0488062"><ele>279.0</ele><time>2026-03-22T11:25:15.07Z</time></trkpt><trkpt lat="36.9187872" lon="15.0487688"><ele>279.0</ele><time>2026-03-22T11:25:16.081Z</time></trkpt><trkpt lat="36.9186669" lon="15.0487231"><ele>279.0</ele><time>2026-03-22T11:25:17.07Z</time></trkpt><trkpt lat="36.9185492" lon="15.0486644"><ele>279.0</ele><time>2026-03-22T11:25:18.078Z</time></trkpt><trkpt lat="36.9184259" lon="15.0486086"><ele>279.0</ele><time>2026-03-22T11:25:19.083Z</time></trkpt><trkpt lat="36.9183007" lon="15.0485608"><ele>279.0</ele><time>2026-03-22T11:25:20.085Z</time></trkpt><trkpt lat="36.918177" lon="15.0485079"><ele>279.0</ele><time>2026-03-22T11:25:21.101Z</time></trkpt><trkpt lat="36.9180605" lon="15.0484602"><ele>279.0</ele><time>2026-03-22T11:25:22.174Z</time></trkpt><trkpt lat="36.917946" lon="15.0484088"><ele>279.0</ele><time>2026-03-22T11:25:23.089Z</time></trkpt><trkpt lat="36.9178362" lon="15.0483428"><ele>279.0</ele><time>2026-03-22T11:25:24.085Z</time></trkpt><trkpt lat="36.9177324" lon="15.0482516"><ele>279.0</ele><time>2026-03-22T11:25:25.09Z</time></trkpt><trkpt lat="36.9176379" lon="15.0481503"><ele>277.0</ele><time>2026-03-22T11:25:26.093Z</time></trkpt><trkpt lat="36.9175433" lon="15.0480482"><ele>275.0</ele><time>2026-03-22T11:25:27.044Z</time></trkpt><trkpt lat="36.9174449" lon="15.0479551"><ele>273.0</ele><time>2026-03-22T11:25:28.07Z</time></trkpt><trkpt lat="36.9173433" lon="15.0478656"><ele>271.0</ele><time>2026-03-22T11:25:29.065Z</time></trkpt><trkpt lat="36.9172365" lon="15.0477792"><ele>271.0</ele><time>2026-03-22T11:25:30.058Z</time></trkpt><trkpt lat="36.9171298" lon="15.047696"><ele>271.0</ele><time>2026-03-22T11:25:31.08Z</time></trkpt><trkpt lat="36.9170186" lon="15.0476237"><ele>271.0</ele><time>2026-03-22T11:25:32.056Z</time></trkpt><trkpt lat="36.9169051" lon="15.047566"><ele>271.0</ele><time>2026-03-22T11:25:33.05Z</time></trkpt><trkpt lat="36.9167897" lon="15.0475195"><ele>269.25</ele><time>2026-03-22T11:25:34.047Z</time></trkpt><trkpt lat="36.9166756" lon="15.0474857"><ele>267.5</ele><time>2026-03-22T11:25:35.074Z</time></trkpt><trkpt lat="36.9165633" lon="15.0474551"><ele>265.75</ele><time>2026-03-22T11:25:36.089Z</time></trkpt><trkpt lat="36.9164458" lon="15.0474269"><ele>264.0</ele><time>2026-03-22T11:25:37.057Z</time></trkpt><trkpt lat="36.9163241" lon="15.0474014"><ele>264.0</ele><time>2026-03-22T11:25:38.091Z</time></trkpt><trkpt lat="36.9162066" lon="15.0473787"><ele>264.0</ele><time>2026-03-22T11:25:39.079Z</time></trkpt><trkpt lat="36.916097" lon="15.0473355"><ele>264.0</ele><time>2026-03-22T11:25:40.069Z</time></trkpt><trkpt lat="36.9159838" lon="15.0472647"><ele>264.0</ele><time>2026-03-22T11:25:41.094Z</time></trkpt><trkpt lat="36.9158657" lon="15.0471997"><ele>268.0</ele><time>2026-03-22T11:25:42.1Z</time></trkpt><trkpt lat="36.9157393" lon="15.0471391"><ele>272.0</ele><time>2026-03-22T11:25:43.074Z</time></trkpt><trkpt lat="36.9156108" lon="15.0470762"><ele>276.0</ele><time>2026-03-22T11:25:44.09Z</time></trkpt><trkpt lat="36.9154799" lon="15.0470227"><ele>280.0</ele><time>2026-03-22T11:25:45.075Z</time></trkpt><trkpt lat="36.9153407" lon="15.0469684"><ele>280.0</ele><time>2026-03-22T11:25:46.07Z</time></trkpt><trkpt lat="36.9152058" lon="15.0469207"><ele>280.0</ele><time>2026-03-22T11:25:47.053Z</time></trkpt><trkpt lat="36.9150724" lon="15.0468696"><ele>280.0</ele><time>2026-03-22T11:25:48.091Z</time></trkpt><trkpt lat="36.9149435" lon="15.0468215"><ele>280.0</ele><time>2026-03-22T11:25:49.086Z</time></trkpt><trkpt lat="36.9148204" lon="15.0467695"><ele>278.75</ele><time>2026-03-22T11:25:50.095Z</time></trkpt><trkpt lat="36.9146976" lon="15.0467229"><ele>277.5</ele><time>2026-03-22T11:25:51.051Z</time></trkpt><trkpt lat="36.9145755" lon="15.046679"><ele>276.25</ele><time>2026-03-22T11:25:52.072Z</time></trkpt><trkpt lat="36.9144542" lon="15.0466399"><ele>275.0</ele><time>2026-03-22T11:25:53.066Z</time></trkpt><trkpt lat="36.9143317" lon="15.0465965"><ele>271.75</ele><time>2026-03-22T11:25:54.066Z</time></trkpt><trkpt lat="36.9142052" lon="15.0465548"><ele>268.5</ele><time>2026-03-22T11:25:55.083Z</time></trkpt><trkpt lat="36.9140769" lon="15.0465176"><ele>265.25</ele><time>2026-03-22T11:25:56.079Z</time></trkpt><trkpt lat="36.9139497" lon="15.0464702"><ele>262.0</ele><time>2026-03-22T11:25:57.052Z</time></trkpt><trkpt lat="36.9138214" lon="15.0464227"><ele>262.0</ele><time>2026-03-22T11:25:58.054Z</time></trkpt><trkpt lat="36.9136904" lon="15.0463764"><ele>262.0</ele><time>2026-03-22T11:25:59.068Z</time></trkpt><trkpt lat="36.9135547" lon="15.0463355"><ele>262.0</ele><time>2026-03-22T11:26:00.057Z</time></trkpt><trkpt lat="36.9134213" lon="15.0462957"><ele>262.0</ele><time>2026-03-22T11:26:01.063Z</time></trkpt><trkpt lat="36.9132872" lon="15.0462577"><ele>262.6</ele><time>2026-03-22T11:26:02.075Z</time></trkpt><trkpt lat="36.9131583" lon="15.0462207"><ele>263.2</ele><time>2026-03-22T11:26:03.077Z</time></trkpt><trkpt lat="36.9130509" lon="15.0461838"><ele>263.8</ele><time>2026-03-22T11:26:04.08Z</time></trkpt><trkpt lat="36.9129591" lon="15.0461564"><ele>264.4</ele><time>2026-03-22T11:26:05.09Z</time></trkpt><trkpt lat="36.9128839" lon="15.046139"><ele>265.0</ele><time>2026-03-22T11:26:06.105Z</time></trkpt><trkpt lat="36.9127776" lon="15.0461737"><ele>265.0</ele><time>2026-03-22T11:26:08.068Z</time></trkpt><trkpt lat="36.9127277" lon="15.0463378"><ele>265.0</ele><time>2026-03-22T11:26:10.091Z</time></trkpt><trkpt lat="36.9127253" lon="15.0464662"><ele>265.0</ele><time>2026-03-22T11:26:11.083Z</time></trkpt><trkpt lat="36.9127085" lon="15.046591"><ele>265.0</ele><time>2026-03-22T11:26:12.088Z</time></trkpt><trkpt lat="36.9126598" lon="15.0467043"><ele>265.0</ele><time>2026-03-22T11:26:13.086Z</time></trkpt><trkpt lat="36.9125873" lon="15.0467976"><ele>256.5</ele><time>2026-03-22T11:26:14.247Z</time></trkpt><trkpt lat="36.9124102" lon="15.0469582"><ele>248.0</ele><time>2026-03-22T11:26:16.099Z</time></trkpt><trkpt lat="36.9123349" lon="15.0470394"><ele>239.5</ele><time>2026-03-22T11:26:17.078Z</time></trkpt><trkpt lat="36.9122986" lon="15.0471133"><ele>231.0</ele><time>2026-03-22T11:26:18.091Z</time></trkpt><trkpt lat="36.9122883" lon="15.0471914"><ele>231.0</ele><time>2026-03-22T11:26:19.086Z</time></trkpt><trkpt lat="36.9122884" lon="15.0473002"><ele>231.00000000000003</ele><time>2026-03-22T11:26:20.045Z</time></trkpt><trkpt lat="36.9123004" lon="15.0474413"><ele>231.00000000000003</ele><time>2026-03-22T11:26:21.046Z</time></trkpt><trkpt lat="36.9123129" lon="15.0475816"><ele>231.0</ele><time>2026-03-22T11:26:22.149Z</time></trkpt><trkpt lat="36.9123096" lon="15.047703"><ele>231.0</ele><time>2026-03-22T11:26:23.058Z</time></trkpt><trkpt lat="36.9122802" lon="15.0477966"><ele>232.66666666666666</ele><time>2026-03-22T11:26:24.058Z</time></trkpt><trkpt lat="36.9122286" lon="15.0478552"><ele>234.33333333333331</ele><time>2026-03-22T11:26:25.073Z</time></trkpt><trkpt lat="36.9121683" lon="15.0479051"><ele>236.0</ele><time>2026-03-22T11:26:26.166Z</time></trkpt><trkpt lat="36.9120948" lon="15.0479546"><ele>237.66666666666666</ele><time>2026-03-22T11:26:27.081Z</time></trkpt><trkpt lat="36.912008" lon="15.0479958"><ele>239.33333333333331</ele><time>2026-03-22T11:26:28.089Z</time></trkpt><trkpt lat="36.9119257" lon="15.0480446"><ele>241.0</ele><time>2026-03-22T11:26:29.045Z</time></trkpt><trkpt lat="36.9118505" lon="15.0480832"><ele>241.0</ele><time>2026-03-22T11:26:30.077Z</time></trkpt><trkpt lat="36.9117669" lon="15.0481005"><ele>241.00000000000003</ele><time>2026-03-22T11:26:31.075Z</time></trkpt><trkpt lat="36.9116661" lon="15.0480888"><ele>241.00000000000003</ele><time>2026-03-22T11:26:32.073Z</time></trkpt><trkpt lat="36.9115631" lon="15.048075"><ele>241.0</ele><time>2026-03-22T11:26:33.083Z</time></trkpt><trkpt lat="36.9114523" lon="15.0480464"><ele>241.0</ele><time>2026-03-22T11:26:34.073Z</time></trkpt><trkpt lat="36.9113474" lon="15.048001"><ele>234.5</ele><time>2026-03-22T11:26:35.085Z</time></trkpt><trkpt lat="36.911243" lon="15.0479263"><ele>228.0</ele><time>2026-03-22T11:26:36.076Z</time></trkpt><trkpt lat="36.911141" lon="15.047862"><ele>221.5</ele><time>2026-03-22T11:26:37.089Z</time></trkpt><trkpt lat="36.9110368" lon="15.047817"><ele>215.0</ele><time>2026-03-22T11:26:38.097Z</time></trkpt><trkpt lat="36.9109252" lon="15.0477682"><ele>212.6</ele><time>2026-03-22T11:26:39.08Z</time></trkpt><trkpt lat="36.910814" lon="15.0477353"><ele>210.2</ele><time>2026-03-22T11:26:40.089Z</time></trkpt><trkpt lat="36.9107042" lon="15.0477224"><ele>207.8</ele><time>2026-03-22T11:26:41.075Z</time></trkpt><trkpt lat="36.9106013" lon="15.0477263"><ele>205.4</ele><time>2026-03-22T11:26:42.078Z</time></trkpt><trkpt lat="36.9104964" lon="15.0477475"><ele>203.0</ele><time>2026-03-22T11:26:43.063Z</time></trkpt><trkpt lat="36.9104005" lon="15.0477744"><ele>203.0</ele><time>2026-03-22T11:26:44.082Z</time></trkpt><trkpt lat="36.9102971" lon="15.0477998"><ele>203.0</ele><time>2026-03-22T11:26:45.084Z</time></trkpt><trkpt lat="36.9101928" lon="15.0478188"><ele>203.0</ele><time>2026-03-22T11:26:46.084Z</time></trkpt><trkpt lat="36.9100985" lon="15.0478409"><ele>203.0</ele><time>2026-03-22T11:26:47.087Z</time></trkpt><trkpt lat="36.9100132" lon="15.0478533"><ele>203.0</ele><time>2026-03-22T11:26:48.095Z</time></trkpt><trkpt lat="36.9099289" lon="15.0478582"><ele>201.16666666666669</ele><time>2026-03-22T11:26:49.082Z</time></trkpt><trkpt lat="36.9098513" lon="15.047851"><ele>199.33333333333334</ele><time>2026-03-22T11:26:50.099Z</time></trkpt><trkpt lat="36.9097763" lon="15.0478423"><ele>197.5</ele><time>2026-03-22T11:26:51.069Z</time></trkpt><trkpt lat="36.9097027" lon="15.0478427"><ele>195.66666666666669</ele><time>2026-03-22T11:26:52.087Z</time></trkpt><trkpt lat="36.9096159" lon="15.0478692"><ele>193.83333333333334</ele><time>2026-03-22T11:26:53.089Z</time></trkpt><trkpt lat="36.909529" lon="15.0479087"><ele>192.0</ele><time>2026-03-22T11:26:54.105Z</time></trkpt><trkpt lat="36.9094451" lon="15.047936"><ele>192.0</ele><time>2026-03-22T11:26:55.103Z</time></trkpt><trkpt lat="36.9093774" lon="15.0479608"><ele>192.0</ele><time>2026-03-22T11:26:56.093Z</time></trkpt><trkpt lat="36.9093162" lon="15.0479965"><ele>192.0</ele><time>2026-03-22T11:26:57.079Z</time></trkpt><trkpt lat="36.9092431" lon="15.0480448"><ele>192.0</ele><time>2026-03-22T11:26:58.069Z</time></trkpt><trkpt lat="36.9091445" lon="15.0481187"><ele>192.0</ele><time>2026-03-22T11:26:59.11Z</time></trkpt><trkpt lat="36.9090406" lon="15.0481954"><ele>192.0</ele><time>2026-03-22T11:27:00.086Z</time></trkpt><trkpt lat="36.9089404" lon="15.0482608"><ele>192.0</ele><time>2026-03-22T11:27:01.078Z</time></trkpt><trkpt lat="36.9088502" lon="15.0483168"><ele>192.0</ele><time>2026-03-22T11:27:02.092Z</time></trkpt><trkpt lat="36.9087698" lon="15.0483691"><ele>192.0</ele><time>2026-03-22T11:27:03.084Z</time></trkpt><trkpt lat="36.9086928" lon="15.0484185"><ele>192.0</ele><time>2026-03-22T11:27:04.099Z</time></trkpt><trkpt lat="36.9086204" lon="15.0484711"><ele>192.0</ele><time>2026-03-22T11:27:05.09Z</time></trkpt><trkpt lat="36.9085518" lon="15.0485234"><ele>192.0</ele><time>2026-03-22T11:27:06.103Z</time></trkpt><trkpt lat="36.9084954" lon="15.0485826"><ele>192.0</ele><time>2026-03-22T11:27:07.089Z</time></trkpt><trkpt lat="36.9084383" lon="15.0486647"><ele>192.0</ele><time>2026-03-22T11:27:08.065Z</time></trkpt><trkpt lat="36.9083704" lon="15.0487962"><ele>192.0</ele><time>2026-03-22T11:27:09.064Z</time></trkpt><trkpt lat="36.9082889" lon="15.0489301"><ele>185.75</ele><time>2026-03-22T11:27:10.09Z</time></trkpt><trkpt lat="36.908204" lon="15.0490648"><ele>179.5</ele><time>2026-03-22T11:27:11.064Z</time></trkpt><trkpt lat="36.9081261" lon="15.0491801"><ele>173.25</ele><time>2026-03-22T11:27:12.066Z</time></trkpt><trkpt lat="36.9080458" lon="15.0492796"><ele>167.0</ele><time>2026-03-22T11:27:13.082Z</time></trkpt><trkpt lat="36.9079663" lon="15.0493803"><ele>167.0</ele><time>2026-03-22T11:27:14.103Z</time></trkpt><trkpt lat="36.907874" lon="15.0494901"><ele>167.0</ele><time>2026-03-22T11:27:15.112Z</time></trkpt><trkpt lat="36.9077837" lon="15.049604"><ele>167.0</ele><time>2026-03-22T11:27:16.084Z</time></trkpt><trkpt lat="36.9077059" lon="15.0497048"><ele>167.0</ele><time>2026-03-22T11:27:17.087Z</time></trkpt><trkpt lat="36.9076251" lon="15.0497952"><ele>163.66666666666666</ele><time>2026-03-22T11:27:18.14Z</time></trkpt><trkpt lat="36.907555" lon="15.0498861"><ele>160.33333333333331</ele><time>2026-03-22T11:27:19.091Z</time></trkpt><trkpt lat="36.9074946" lon="15.0499646"><ele>157.0</ele><time>2026-03-22T11:27:20.083Z</time></trkpt><trkpt lat="36.9074374" lon="15.0500353"><ele>153.66666666666666</ele><time>2026-03-22T11:27:21.092Z</time></trkpt><trkpt lat="36.907387" lon="15.0500886"><ele>150.33333333333334</ele><time>2026-03-22T11:27:22.081Z</time></trkpt><trkpt lat="36.9072924" lon="15.0500805"><ele>147.0</ele><time>2026-03-22T11:27:24.107Z</time></trkpt><trkpt lat="36.9072364" lon="15.0499768"><ele>147.0</ele><time>2026-03-22T11:27:26.057Z</time></trkpt><trkpt lat="36.9072145" lon="15.0499009"><ele>147.0</ele><time>2026-03-22T11:27:28.085Z</time></trkpt><trkpt lat="36.9071492" lon="15.04994"><ele>147.0</ele><time>2026-03-22T11:27:32.064Z</time></trkpt><trkpt lat="36.9071454" lon="15.0500231"><ele>147.0</ele><time>2026-03-22T11:27:35.086Z</time></trkpt><trkpt lat="36.9071256" lon="15.050128"><ele>147.0</ele><time>2026-03-22T11:27:38.09Z</time></trkpt><trkpt lat="36.9071093" lon="15.0502245"><ele>147.0</ele><time>2026-03-22T11:27:40.071Z</time></trkpt><trkpt lat="36.9070802" lon="15.0503582"><ele>147.0</ele><time>2026-03-22T11:27:42.077Z</time></trkpt><trkpt lat="36.9070649" lon="15.0504462"><ele>147.0</ele><time>2026-03-22T11:27:43.076Z</time></trkpt><trkpt lat="36.9070496" lon="15.0505498"><ele>147.0</ele><time>2026-03-22T11:27:44.082Z</time></trkpt><trkpt lat="36.9070259" lon="15.0506685"><ele>147.0</ele><time>2026-03-22T11:27:45.071Z</time></trkpt><trkpt lat="36.9070075" lon="15.0507889"><ele>147.0</ele><time>2026-03-22T11:27:46.099Z</time></trkpt><trkpt lat="36.9069846" lon="15.0509063"><ele>147.0</ele><time>2026-03-22T11:27:47.093Z</time></trkpt><trkpt lat="36.9069541" lon="15.0510288"><ele>146.0</ele><time>2026-03-22T11:27:48.084Z</time></trkpt><trkpt lat="36.9069216" lon="15.0511427"><ele>145.0</ele><time>2026-03-22T11:27:49.091Z</time></trkpt><trkpt lat="36.9068836" lon="15.0512513"><ele>144.0</ele><time>2026-03-22T11:27:50.093Z</time></trkpt><trkpt lat="36.9068223" lon="15.0513461"><ele>143.0</ele><time>2026-03-22T11:27:51.072Z</time></trkpt><trkpt lat="36.9067526" lon="15.0514418"><ele>142.0</ele><time>2026-03-22T11:27:52.096Z</time></trkpt><trkpt lat="36.906678" lon="15.0515274"><ele>139.2</ele><time>2026-03-22T11:27:53.103Z</time></trkpt><trkpt lat="36.9066031" lon="15.0516114"><ele>136.39999999999998</ele><time>2026-03-22T11:27:54.094Z</time></trkpt><trkpt lat="36.9065368" lon="15.0517032"><ele>133.60000000000002</ele><time>2026-03-22T11:27:55.104Z</time></trkpt><trkpt lat="36.9064679" lon="15.05179"><ele>130.8</ele><time>2026-03-22T11:27:56.106Z</time></trkpt><trkpt lat="36.9063901" lon="15.0518957"><ele>128.0</ele><time>2026-03-22T11:27:57.103Z</time></trkpt><trkpt lat="36.9063053" lon="15.0520045"><ele>127.0</ele><time>2026-03-22T11:27:58.096Z</time></trkpt><trkpt lat="36.9062136" lon="15.0521275"><ele>126.0</ele><time>2026-03-22T11:27:59.094Z</time></trkpt><trkpt lat="36.9061163" lon="15.052257"><ele>125.0</ele><time>2026-03-22T11:28:00.093Z</time></trkpt><trkpt lat="36.9060199" lon="15.0523841"><ele>124.0</ele><time>2026-03-22T11:28:01.106Z</time></trkpt><trkpt lat="36.9059288" lon="15.0525123"><ele>121.75</ele><time>2026-03-22T11:28:02.093Z</time></trkpt><trkpt lat="36.9058342" lon="15.0526458"><ele>119.5</ele><time>2026-03-22T11:28:03.094Z</time></trkpt><trkpt lat="36.9057327" lon="15.0527816"><ele>117.25</ele><time>2026-03-22T11:28:04.09Z</time></trkpt><trkpt lat="36.9056301" lon="15.0529176"><ele>115.0</ele><time>2026-03-22T11:28:05.081Z</time></trkpt><trkpt lat="36.905521" lon="15.0530607"><ele>115.0</ele><time>2026-03-22T11:28:06.069Z</time></trkpt><trkpt lat="36.9054128" lon="15.0532032"><ele>115.0</ele><time>2026-03-22T11:28:07.075Z</time></trkpt><trkpt lat="36.9052936" lon="15.0533549"><ele>115.0</ele><time>2026-03-22T11:28:08.088Z</time></trkpt><trkpt lat="36.9051762" lon="15.0535108"><ele>114.0</ele><time>2026-03-22T11:28:09.087Z</time></trkpt><trkpt lat="36.9050611" lon="15.0536607"><ele>113.0</ele><time>2026-03-22T11:28:10.083Z</time></trkpt><trkpt lat="36.9049514" lon="15.0538009"><ele>112.0</ele><time>2026-03-22T11:28:11.085Z</time></trkpt><trkpt lat="36.9048459" lon="15.0539445"><ele>112.0</ele><time>2026-03-22T11:28:12.058Z</time></trkpt><trkpt lat="36.9047379" lon="15.0540931"><ele>112.0</ele><time>2026-03-22T11:28:13.073Z</time></trkpt><trkpt lat="36.9046252" lon="15.054235"><ele>112.0</ele><time>2026-03-22T11:28:14.081Z</time></trkpt><trkpt lat="36.9045163" lon="15.0543686"><ele>113.33333333333334</ele><time>2026-03-22T11:28:15.077Z</time></trkpt><trkpt lat="36.9044128" lon="15.0545045"><ele>114.66666666666666</ele><time>2026-03-22T11:28:16.075Z</time></trkpt><trkpt lat="36.9043211" lon="15.0546618"><ele>116.0</ele><time>2026-03-22T11:28:17.066Z</time></trkpt><trkpt lat="36.9042445" lon="15.0548379"><ele>114.33333333333333</ele><time>2026-03-22T11:28:18.076Z</time></trkpt><trkpt lat="36.9041849" lon="15.0550333"><ele>112.66666666666666</ele><time>2026-03-22T11:28:19.105Z</time></trkpt><trkpt lat="36.9041374" lon="15.055225"><ele>111.0</ele><time>2026-03-22T11:28:20.086Z</time></trkpt><trkpt lat="36.9040907" lon="15.0554078"><ele>111.0</ele><time>2026-03-22T11:28:21.081Z</time></trkpt><trkpt lat="36.9040416" lon="15.0555944"><ele>111.0</ele><time>2026-03-22T11:28:22.087Z</time></trkpt><trkpt lat="36.9039898" lon="15.0557817"><ele>111.0</ele><time>2026-03-22T11:28:23.084Z</time></trkpt><trkpt lat="36.9039339" lon="15.0559693"><ele>111.66666666666666</ele><time>2026-03-22T11:28:24.082Z</time></trkpt><trkpt lat="36.9038835" lon="15.0561505"><ele>112.33333333333333</ele><time>2026-03-22T11:28:25.089Z</time></trkpt><trkpt lat="36.9038209" lon="15.0563366"><ele>113.0</ele><time>2026-03-22T11:28:26.068Z</time></trkpt><trkpt lat="36.9037443" lon="15.0565252"><ele>114.66666666666666</ele><time>2026-03-22T11:28:27.089Z</time></trkpt><trkpt lat="36.9036647" lon="15.0567135"><ele>116.33333333333334</ele><time>2026-03-22T11:28:28.1Z</time></trkpt><trkpt lat="36.9035898" lon="15.0568989"><ele>118.0</ele><time>2026-03-22T11:28:29.094Z</time></trkpt><trkpt lat="36.9035096" lon="15.0570833"><ele>118.0</ele><time>2026-03-22T11:28:30.092Z</time></trkpt><trkpt lat="36.9034413" lon="15.0572691"><ele>118.0</ele><time>2026-03-22T11:28:31.097Z</time></trkpt><trkpt lat="36.9033692" lon="15.0574627"><ele>118.0</ele><time>2026-03-22T11:28:32.097Z</time></trkpt><trkpt lat="36.9032979" lon="15.0576538"><ele>118.0</ele><time>2026-03-22T11:28:33.057Z</time></trkpt><trkpt lat="36.9032298" lon="15.057838"><ele>118.0</ele><time>2026-03-22T11:28:34.095Z</time></trkpt><trkpt lat="36.9031639" lon="15.0580159"><ele>118.0</ele><time>2026-03-22T11:28:35.096Z</time></trkpt><trkpt lat="36.9030916" lon="15.0581912"><ele>121.33333333333334</ele><time>2026-03-22T11:28:36.095Z</time></trkpt><trkpt lat="36.9030144" lon="15.0583646"><ele>124.66666666666666</ele><time>2026-03-22T11:28:37.092Z</time></trkpt><trkpt lat="36.9029274" lon="15.0585335"><ele>128.0</ele><time>2026-03-22T11:28:38.068Z</time></trkpt><trkpt lat="36.9028176" lon="15.0586865"><ele>128.0</ele><time>2026-03-22T11:28:39.095Z</time></trkpt><trkpt lat="36.9026981" lon="15.0588203"><ele>128.0</ele><time>2026-03-22T11:28:40.095Z</time></trkpt><trkpt lat="36.9025764" lon="15.0589513"><ele>128.0</ele><time>2026-03-22T11:28:41.078Z</time></trkpt><trkpt lat="36.9024494" lon="15.0590815"><ele>129.33333333333331</ele><time>2026-03-22T11:28:42.077Z</time></trkpt><trkpt lat="36.9023235" lon="15.0592111"><ele>130.66666666666666</ele><time>2026-03-22T11:28:43.08Z</time></trkpt><trkpt lat="36.902195" lon="15.0593415"><ele>132.0</ele><time>2026-03-22T11:28:44.074Z</time></trkpt><trkpt lat="36.9020633" lon="15.0594685"><ele>132.0</ele><time>2026-03-22T11:28:45.044Z</time></trkpt><trkpt lat="36.9019329" lon="15.0595902"><ele>132.0</ele><time>2026-03-22T11:28:46.097Z</time></trkpt><trkpt lat="36.9018018" lon="15.0597106"><ele>132.0</ele><time>2026-03-22T11:28:47.08Z</time></trkpt><trkpt lat="36.9016694" lon="15.0598275"><ele>133.33333333333334</ele><time>2026-03-22T11:28:48.093Z</time></trkpt><trkpt lat="36.9015341" lon="15.0599391"><ele>134.66666666666669</ele><time>2026-03-22T11:28:49.086Z</time></trkpt><trkpt lat="36.9014043" lon="15.0600466"><ele>136.0</ele><time>2026-03-22T11:28:50.087Z</time></trkpt><trkpt lat="36.9012756" lon="15.0601499"><ele>136.0</ele><time>2026-03-22T11:28:51.064Z</time></trkpt><trkpt lat="36.9011424" lon="15.0602447"><ele>136.0</ele><time>2026-03-22T11:28:52.084Z</time></trkpt><trkpt lat="36.9010117" lon="15.0603484"><ele>136.0</ele><time>2026-03-22T11:28:53.066Z</time></trkpt><trkpt lat="36.9008771" lon="15.060455"><ele>134.0</ele><time>2026-03-22T11:28:54.094Z</time></trkpt><trkpt lat="36.9007448" lon="15.0605585"><ele>132.0</ele><time>2026-03-22T11:28:55.085Z</time></trkpt><trkpt lat="36.900621" lon="15.0606684"><ele>130.0</ele><time>2026-03-22T11:28:56.106Z</time></trkpt><trkpt lat="36.9004971" lon="15.0607708"><ele>132.0</ele><time>2026-03-22T11:28:57.102Z</time></trkpt><trkpt lat="36.9003765" lon="15.0608715"><ele>134.0</ele><time>2026-03-22T11:28:58.097Z</time></trkpt><trkpt lat="36.9002588" lon="15.0609728"><ele>136.0</ele><time>2026-03-22T11:28:59.087Z</time></trkpt><trkpt lat="36.9001342" lon="15.0610797"><ele>138.0</ele><time>2026-03-22T11:29:00.082Z</time></trkpt><trkpt lat="36.9000045" lon="15.0611945"><ele>138.0</ele><time>2026-03-22T11:29:01.095Z</time></trkpt><trkpt lat="36.8998778" lon="15.0613254"><ele>138.0</ele><time>2026-03-22T11:29:02.055Z</time></trkpt><trkpt lat="36.8997654" lon="15.0614675"><ele>138.0</ele><time>2026-03-22T11:29:03.064Z</time></trkpt><trkpt lat="36.899641" lon="15.0615985"><ele>137.33333333333334</ele><time>2026-03-22T11:29:04.066Z</time></trkpt><trkpt lat="36.8995063" lon="15.0617182"><ele>136.66666666666669</ele><time>2026-03-22T11:29:05.075Z</time></trkpt><trkpt lat="36.8993641" lon="15.061821"><ele>136.0</ele><time>2026-03-22T11:29:06.088Z</time></trkpt><trkpt lat="36.8992093" lon="15.0618972"><ele>135.0</ele><time>2026-03-22T11:29:07.077Z</time></trkpt><trkpt lat="36.8990488" lon="15.061963"><ele>134.0</ele><time>2026-03-22T11:29:08.079Z</time></trkpt><trkpt lat="36.8988887" lon="15.0619987"><ele>133.0</ele><time>2026-03-22T11:29:09.082Z</time></trkpt><trkpt lat="36.898716" lon="15.0619926"><ele>133.0</ele><time>2026-03-22T11:29:10.081Z</time></trkpt><trkpt lat="36.8985403" lon="15.0619752"><ele>133.0</ele><time>2026-03-22T11:29:11.09Z</time></trkpt><trkpt lat="36.8983702" lon="15.0619521"><ele>133.0</ele><time>2026-03-22T11:29:12.062Z</time></trkpt><trkpt lat="36.8982008" lon="15.0619336"><ele>131.66666666666669</ele><time>2026-03-22T11:29:13.09Z</time></trkpt><trkpt lat="36.8980329" lon="15.0619268"><ele>130.33333333333334</ele><time>2026-03-22T11:29:14.078Z</time></trkpt><trkpt lat="36.8978597" lon="15.0619192"><ele>129.0</ele><time>2026-03-22T11:29:15.066Z</time></trkpt><trkpt lat="36.8976941" lon="15.0619083"><ele>125.66666666666666</ele><time>2026-03-22T11:29:16.097Z</time></trkpt><trkpt lat="36.8975266" lon="15.0618976"><ele>122.33333333333333</ele><time>2026-03-22T11:29:17.083Z</time></trkpt><trkpt lat="36.8973605" lon="15.0618778"><ele>119.0</ele><time>2026-03-22T11:29:18.204Z</time></trkpt><trkpt lat="36.8971997" lon="15.0618562"><ele>119.0</ele><time>2026-03-22T11:29:19.143Z</time></trkpt><trkpt lat="36.897034" lon="15.0618382"><ele>119.0</ele><time>2026-03-22T11:29:20.061Z</time></trkpt><trkpt lat="36.8968632" lon="15.0618177"><ele>119.0</ele><time>2026-03-22T11:29:21.037Z</time></trkpt><trkpt lat="36.8966893" lon="15.0618047"><ele>115.33333333333333</ele><time>2026-03-22T11:29:22.061Z</time></trkpt><trkpt lat="36.8965133" lon="15.0617873"><ele>111.66666666666666</ele><time>2026-03-22T11:29:23.08Z</time></trkpt><trkpt lat="36.8963373" lon="15.0617732"><ele>108.0</ele><time>2026-03-22T11:29:24.094Z</time></trkpt><trkpt lat="36.8961609" lon="15.0617572"><ele>108.0</ele><time>2026-03-22T11:29:25.071Z</time></trkpt><trkpt lat="36.8959799" lon="15.0617402"><ele>108.0</ele><time>2026-03-22T11:29:26.082Z</time></trkpt><trkpt lat="36.8957974" lon="15.0617638"><ele>108.0</ele><time>2026-03-22T11:29:27.078Z</time></trkpt><trkpt lat="36.8956219" lon="15.0618101"><ele>109.0</ele><time>2026-03-22T11:29:28.083Z</time></trkpt><trkpt lat="36.8954545" lon="15.0618528"><ele>110.0</ele><time>2026-03-22T11:29:29.199Z</time></trkpt><trkpt lat="36.8951632" lon="15.0619163"><ele>110.0</ele><time>2026-03-22T11:29:31.098Z</time></trkpt><trkpt lat="36.895018" lon="15.061927"><ele>110.0</ele><time>2026-03-22T11:29:32.073Z</time></trkpt><trkpt lat="36.8948755" lon="15.0619332"><ele>110.0</ele><time>2026-03-22T11:29:33.084Z</time></trkpt><trkpt lat="36.8947383" lon="15.061942"><ele>110.0</ele><time>2026-03-22T11:29:34.094Z</time></trkpt><trkpt lat="36.8946043" lon="15.0619575"><ele>110.0</ele><time>2026-03-22T11:29:35.086Z</time></trkpt><trkpt lat="36.894476" lon="15.0619698"><ele>110.0</ele><time>2026-03-22T11:29:36.083Z</time></trkpt><trkpt lat="36.89436" lon="15.0619777"><ele>110.0</ele><time>2026-03-22T11:29:37.081Z</time></trkpt><trkpt lat="36.8942486" lon="15.0619757"><ele>110.0</ele><time>2026-03-22T11:29:38.081Z</time></trkpt><trkpt lat="36.8941456" lon="15.06197"><ele>110.2</ele><time>2026-03-22T11:29:39.082Z</time></trkpt><trkpt lat="36.8940502" lon="15.0619585"><ele>110.4</ele><time>2026-03-22T11:29:40.096Z</time></trkpt><trkpt lat="36.8939564" lon="15.0619481"><ele>110.6</ele><time>2026-03-22T11:29:41.102Z</time></trkpt><trkpt lat="36.8938662" lon="15.0619289"><ele>110.8</ele><time>2026-03-22T11:29:42.109Z</time></trkpt><trkpt lat="36.893778" lon="15.061905"><ele>111.0</ele><time>2026-03-22T11:29:43.079Z</time></trkpt><trkpt lat="36.893697" lon="15.0618767"><ele>111.0</ele><time>2026-03-22T11:29:44.098Z</time></trkpt><trkpt lat="36.8936201" lon="15.0618427"><ele>111.0</ele><time>2026-03-22T11:29:45.076Z</time></trkpt><trkpt lat="36.8935303" lon="15.0618006"><ele>111.0</ele><time>2026-03-22T11:29:46.082Z</time></trkpt><trkpt lat="36.8934258" lon="15.0617493"><ele>111.0</ele><time>2026-03-22T11:29:47.077Z</time></trkpt><trkpt lat="36.893318" lon="15.0617056"><ele>111.0</ele><time>2026-03-22T11:29:48.077Z</time></trkpt><trkpt lat="36.8932181" lon="15.0616582"><ele>108.25</ele><time>2026-03-22T11:29:49.118Z</time></trkpt><trkpt lat="36.8931105" lon="15.061608"><ele>105.5</ele><time>2026-03-22T11:29:50.08Z</time></trkpt><trkpt lat="36.8930015" lon="15.0615633"><ele>102.75</ele><time>2026-03-22T11:29:51.065Z</time></trkpt><trkpt lat="36.8928935" lon="15.0615276"><ele>100.0</ele><time>2026-03-22T11:29:52.1Z</time></trkpt><trkpt lat="36.8927829" lon="15.0615043"><ele>100.0</ele><time>2026-03-22T11:29:53.05Z</time></trkpt><trkpt lat="36.8926547" lon="15.0614979"><ele>100.0</ele><time>2026-03-22T11:29:54.065Z</time></trkpt><trkpt lat="36.8925234" lon="15.0615106"><ele>100.0</ele><time>2026-03-22T11:29:55.09Z</time></trkpt><trkpt lat="36.8923913" lon="15.0615533"><ele>100.0</ele><time>2026-03-22T11:29:56.078Z</time></trkpt><trkpt lat="36.8922496" lon="15.0616101"><ele>101.66666666666667</ele><time>2026-03-22T11:29:57.076Z</time></trkpt><trkpt lat="36.8921069" lon="15.0616846"><ele>103.33333333333334</ele><time>2026-03-22T11:29:58.075Z</time></trkpt><trkpt lat="36.8919633" lon="15.0617723"><ele>105.0</ele><time>2026-03-22T11:29:59.079Z</time></trkpt><trkpt lat="36.8918173" lon="15.0618644"><ele>102.0</ele><time>2026-03-22T11:30:00.071Z</time></trkpt><trkpt lat="36.8916757" lon="15.0619578"><ele>99.0</ele><time>2026-03-22T11:30:01.091Z</time></trkpt><trkpt lat="36.8915377" lon="15.0620543"><ele>96.0</ele><time>2026-03-22T11:30:02.082Z</time></trkpt><trkpt lat="36.891399" lon="15.0621461"><ele>96.0</ele><time>2026-03-22T11:30:03.075Z</time></trkpt><trkpt lat="36.8912557" lon="15.0622394"><ele>96.0</ele><time>2026-03-22T11:30:04.09Z</time></trkpt><trkpt lat="36.8911051" lon="15.0623378"><ele>96.0</ele><time>2026-03-22T11:30:05.079Z</time></trkpt><trkpt lat="36.8909583" lon="15.0624404"><ele>95.4</ele><time>2026-03-22T11:30:06.104Z</time></trkpt><trkpt lat="36.89083" lon="15.0625318"><ele>94.8</ele><time>2026-03-22T11:30:07.108Z</time></trkpt><trkpt lat="36.8907318" lon="15.0626106"><ele>94.2</ele><time>2026-03-22T11:30:08.09Z</time></trkpt><trkpt lat="36.8906601" lon="15.0626727"><ele>93.60000000000001</ele><time>2026-03-22T11:30:09.092Z</time></trkpt><trkpt lat="36.8906036" lon="15.0627243"><ele>93.0</ele><time>2026-03-22T11:30:10.094Z</time></trkpt><trkpt lat="36.8905622" lon="15.0627977"><ele>93.0</ele><time>2026-03-22T11:30:11.093Z</time></trkpt><trkpt lat="36.890535" lon="15.0628856"><ele>93.0</ele><time>2026-03-22T11:30:12.092Z</time></trkpt><trkpt lat="36.8905177" lon="15.0629727"><ele>93.0</ele><time>2026-03-22T11:30:13.1Z</time></trkpt><trkpt lat="36.8904951" lon="15.0630702"><ele>93.0</ele><time>2026-03-22T11:30:14.075Z</time></trkpt><trkpt lat="36.8904635" lon="15.0631769"><ele>93.0</ele><time>2026-03-22T11:30:15.09Z</time></trkpt><trkpt lat="36.890435" lon="15.0632976"><ele>93.0</ele><time>2026-03-22T11:30:16.083Z</time></trkpt><trkpt lat="36.8904222" lon="15.0634183"><ele>94.0</ele><time>2026-03-22T11:30:17.058Z</time></trkpt><trkpt lat="36.8904031" lon="15.063534"><ele>95.0</ele><time>2026-03-22T11:30:18.05Z</time></trkpt><trkpt lat="36.8903865" lon="15.0636247"><ele>96.0</ele><time>2026-03-22T11:30:19.085Z</time></trkpt><trkpt lat="36.8903692" lon="15.063712"><ele>97.0</ele><time>2026-03-22T11:30:20.079Z</time></trkpt><trkpt lat="36.8903556" lon="15.0637891"><ele>98.0</ele><time>2026-03-22T11:30:21.066Z</time></trkpt><trkpt lat="36.8903176" lon="15.0639019"><ele>99.0</ele><time>2026-03-22T11:30:23.095Z</time></trkpt><trkpt lat="36.8902982" lon="15.0639922"><ele>99.0</ele><time>2026-03-22T11:30:25.076Z</time></trkpt><trkpt lat="36.8902942" lon="15.0640741"><ele>99.0</ele><time>2026-03-22T11:30:28.077Z</time></trkpt><trkpt lat="36.8902511" lon="15.0641404"><ele>99.0</ele><time>2026-03-22T11:32:28.076Z</time></trkpt><trkpt lat="36.8902311" lon="15.0642343"><ele>99.0</ele><time>2026-03-22T11:36:44.073Z</time></trkpt><trkpt lat="36.890157" lon="15.0642369"><ele>99.0</ele><time>2026-03-22T11:38:44.07Z</time></trkpt><trkpt lat="36.890215" lon="15.0641899"><ele>99.0</ele><time>2026-03-22T11:44:36.08Z</time></trkpt><trkpt lat="36.8902243" lon="15.0641073"><ele>99.0</ele><time>2026-03-22T11:45:46.086Z</time></trkpt><trkpt lat="36.8901558" lon="15.0641073"><ele>100.0</ele><time>2026-03-22T11:50:32.216Z</time></trkpt><trkpt lat="36.8901958" lon="15.0641902"><ele>101.0</ele><time>2026-03-22T11:51:42.109Z</time></trkpt><trkpt lat="36.8901823" lon="15.0642738"><ele>102.0</ele><time>2026-03-22T11:51:44.058Z</time></trkpt><trkpt lat="36.8901882" lon="15.0643927"><ele>103.0</ele><time>2026-03-22T11:51:46.091Z</time></trkpt><trkpt lat="36.8901492" lon="15.0645016"><ele>104.0</ele><time>2026-03-22T11:51:48.083Z</time></trkpt><trkpt lat="36.8901434" lon="15.0646492"><ele>104.0</ele><time>2026-03-22T11:51:50.072Z</time></trkpt><trkpt lat="36.8901301" lon="15.0648072"><ele>104.0</ele><time>2026-03-22T11:51:52.079Z</time></trkpt><trkpt lat="36.8901145" lon="15.0648917"><ele>104.0</ele><time>2026-03-22T11:51:53.072Z</time></trkpt><trkpt lat="36.8900991" lon="15.0649776"><ele>104.0</ele><time>2026-03-22T11:51:54.079Z</time></trkpt><trkpt lat="36.890076" lon="15.065137"><ele>104.0</ele><time>2026-03-22T11:51:56.063Z</time></trkpt><trkpt lat="36.8900756" lon="15.0652791"><ele>104.0</ele><time>2026-03-22T11:51:58.101Z</time></trkpt><trkpt lat="36.8900472" lon="15.0654208"><ele>104.0</ele><time>2026-03-22T11:52:00.084Z</time></trkpt><trkpt lat="36.8900191" lon="15.0654982"><ele>104.0</ele><time>2026-03-22T11:52:01.089Z</time></trkpt><trkpt lat="36.890003" lon="15.0655811"><ele>104.0</ele><time>2026-03-22T11:52:02.096Z</time></trkpt><trkpt lat="36.8899664" lon="15.0657369"><ele>104.0</ele><time>2026-03-22T11:52:04.092Z</time></trkpt><trkpt lat="36.8899467" lon="15.0658231"><ele>104.16666666666666</ele><time>2026-03-22T11:52:05.093Z</time></trkpt><trkpt lat="36.8899285" lon="15.0658988"><ele>104.33333333333333</ele><time>2026-03-22T11:52:06.074Z</time></trkpt><trkpt lat="36.8898966" lon="15.0660208"><ele>104.5</ele><time>2026-03-22T11:52:08.075Z</time></trkpt><trkpt lat="36.889877" lon="15.0661029"><ele>104.66666666666666</ele><time>2026-03-22T11:52:09.092Z</time></trkpt><trkpt lat="36.8898559" lon="15.0662085"><ele>104.83333333333333</ele><time>2026-03-22T11:52:10.085Z</time></trkpt><trkpt lat="36.8898292" lon="15.0663151"><ele>105.0</ele><time>2026-03-22T11:52:11.056Z</time></trkpt><trkpt lat="36.8898005" lon="15.0664375"><ele>105.0</ele><time>2026-03-22T11:52:12.066Z</time></trkpt><trkpt lat="36.8897621" lon="15.066568"><ele>105.0</ele><time>2026-03-22T11:52:13.078Z</time></trkpt><trkpt lat="36.8897259" lon="15.0667078"><ele>105.0</ele><time>2026-03-22T11:52:14.073Z</time></trkpt><trkpt lat="36.8896865" lon="15.0668429"><ele>105.0</ele><time>2026-03-22T11:52:15.067Z</time></trkpt><trkpt lat="36.8896534" lon="15.0669766"><ele>105.2</ele><time>2026-03-22T11:52:16.06Z</time></trkpt><trkpt lat="36.8896102" lon="15.0670949"><ele>105.4</ele><time>2026-03-22T11:52:17.074Z</time></trkpt><trkpt lat="36.8895776" lon="15.0671927"><ele>105.6</ele><time>2026-03-22T11:52:19.083Z</time></trkpt><trkpt lat="36.8895531" lon="15.0673338"><ele>105.8</ele><time>2026-03-22T11:52:23.058Z</time></trkpt><trkpt lat="36.8895164" lon="15.0674204"><ele>106.0</ele><time>2026-03-22T11:52:24.092Z</time></trkpt><trkpt lat="36.8894824" lon="15.0675231"><ele>106.83333333333334</ele><time>2026-03-22T11:52:25.074Z</time></trkpt><trkpt lat="36.8894573" lon="15.0676349"><ele>107.66666666666667</ele><time>2026-03-22T11:52:26.068Z</time></trkpt><trkpt lat="36.889438" lon="15.0677422"><ele>108.5</ele><time>2026-03-22T11:52:27.085Z</time></trkpt><trkpt lat="36.8894333" lon="15.0678346"><ele>109.33333333333334</ele><time>2026-03-22T11:52:28.08Z</time></trkpt><trkpt lat="36.8894037" lon="15.0679129"><ele>110.16666666666667</ele><time>2026-03-22T11:52:29.088Z</time></trkpt><trkpt lat="36.8893616" lon="15.068046"><ele>111.0</ele><time>2026-03-22T11:52:31.084Z</time></trkpt><trkpt lat="36.8893365" lon="15.0681902"><ele>110.4</ele><time>2026-03-22T11:52:33.082Z</time></trkpt><trkpt lat="36.8893071" lon="15.0683211"><ele>109.8</ele><time>2026-03-22T11:52:35.094Z</time></trkpt><trkpt lat="36.8892799" lon="15.0684008"><ele>109.20000000000002</ele><time>2026-03-22T11:52:36.098Z</time></trkpt><trkpt lat="36.889234" lon="15.0685157"><ele>108.60000000000001</ele><time>2026-03-22T11:52:37.096Z</time></trkpt><trkpt lat="36.8891903" lon="15.0686506"><ele>108.0</ele><time>2026-03-22T11:52:38.094Z</time></trkpt><trkpt lat="36.8891434" lon="15.0688019"><ele>107.5</ele><time>2026-03-22T11:52:39.089Z</time></trkpt><trkpt lat="36.889093" lon="15.0689507"><ele>107.0</ele><time>2026-03-22T11:52:40.097Z</time></trkpt><trkpt lat="36.8890463" lon="15.0690816"><ele>106.5</ele><time>2026-03-22T11:52:41.085Z</time></trkpt><trkpt lat="36.889002" lon="15.0692174"><ele>106.0</ele><time>2026-03-22T11:52:42.097Z</time></trkpt><trkpt lat="36.8889664" lon="15.0693565"><ele>105.19999999999999</ele><time>2026-03-22T11:52:43.084Z</time></trkpt><trkpt lat="36.8889231" lon="15.0694682"><ele>104.39999999999999</ele><time>2026-03-22T11:52:44.075Z</time></trkpt><trkpt lat="36.888881" lon="15.0695728"><ele>103.6</ele><time>2026-03-22T11:52:45.086Z</time></trkpt><trkpt lat="36.8888344" lon="15.0696858"><ele>102.8</ele><time>2026-03-22T11:52:46.045Z</time></trkpt><trkpt lat="36.8887748" lon="15.0698079"><ele>102.0</ele><time>2026-03-22T11:52:47.062Z</time></trkpt><trkpt lat="36.8887111" lon="15.0699204"><ele>101.5</ele><time>2026-03-22T11:52:48.066Z</time></trkpt><trkpt lat="36.8886496" lon="15.0700053"><ele>101.0</ele><time>2026-03-22T11:52:49.075Z</time></trkpt><trkpt lat="36.8885871" lon="15.0700817"><ele>100.5</ele><time>2026-03-22T11:52:50.087Z</time></trkpt><trkpt lat="36.888534" lon="15.0701593"><ele>100.0</ele><time>2026-03-22T11:52:51.08Z</time></trkpt><trkpt lat="36.8884834" lon="15.0702282"><ele>99.5</ele><time>2026-03-22T11:52:52.084Z</time></trkpt><trkpt lat="36.888438" lon="15.070288"><ele>99.0</ele><time>2026-03-22T11:52:53.084Z</time></trkpt><trkpt lat="36.8883965" lon="15.0703477"><ele>98.28571428571429</ele><time>2026-03-22T11:52:54.072Z</time></trkpt><trkpt lat="36.8883553" lon="15.0704082"><ele>97.57142857142857</ele><time>2026-03-22T11:52:55.093Z</time></trkpt><trkpt lat="36.8883132" lon="15.0704673"><ele>96.85714285714286</ele><time>2026-03-22T11:52:56.084Z</time></trkpt><trkpt lat="36.8882659" lon="15.0705296"><ele>96.14285714285714</ele><time>2026-03-22T11:52:57.089Z</time></trkpt><trkpt lat="36.8882134" lon="15.0705998"><ele>95.42857142857142</ele><time>2026-03-22T11:52:58.076Z</time></trkpt><trkpt lat="36.8881576" lon="15.0706733"><ele>94.71428571428571</ele><time>2026-03-22T11:52:59.062Z</time></trkpt><trkpt lat="36.8881016" lon="15.070743"><ele>94.0</ele><time>2026-03-22T11:53:00.075Z</time></trkpt><trkpt lat="36.888039" lon="15.0708159"><ele>94.0</ele><time>2026-03-22T11:53:01.086Z</time></trkpt><trkpt lat="36.8879836" lon="15.0708853"><ele>94.0</ele><time>2026-03-22T11:53:02.082Z</time></trkpt><trkpt lat="36.8879324" lon="15.0709388"><ele>94.0</ele><time>2026-03-22T11:53:03.078Z</time></trkpt><trkpt lat="36.887859" lon="15.0710147"><ele>94.0</ele><time>2026-03-22T11:53:05.086Z</time></trkpt><trkpt lat="36.8877932" lon="15.0711015"><ele>94.0</ele><time>2026-03-22T11:53:07.087Z</time></trkpt><trkpt lat="36.887709" lon="15.0712088"><ele>94.0</ele><time>2026-03-22T11:53:09.068Z</time></trkpt><trkpt lat="36.8876502" lon="15.0712709"><ele>94.0</ele><time>2026-03-22T11:53:10.079Z</time></trkpt><trkpt lat="36.8875846" lon="15.0713386"><ele>94.0</ele><time>2026-03-22T11:53:11.095Z</time></trkpt><trkpt lat="36.8875308" lon="15.0713885"><ele>94.0</ele><time>2026-03-22T11:53:12.053Z</time></trkpt><trkpt lat="36.8874319" lon="15.0714658"><ele>94.0</ele><time>2026-03-22T11:53:14.087Z</time></trkpt><trkpt lat="36.8873229" lon="15.0715093"><ele>93.66666666666666</ele><time>2026-03-22T11:53:16.081Z</time></trkpt><trkpt lat="36.8872619" lon="15.0715334"><ele>93.33333333333333</ele><time>2026-03-22T11:53:17.079Z</time></trkpt><trkpt lat="36.887186" lon="15.0715663"><ele>93.0</ele><time>2026-03-22T11:53:18.092Z</time></trkpt><trkpt lat="36.8870913" lon="15.0715989"><ele>92.66666666666667</ele><time>2026-03-22T11:53:19.067Z</time></trkpt><trkpt lat="36.8870185" lon="15.0716273"><ele>92.33333333333334</ele><time>2026-03-22T11:53:20.081Z</time></trkpt><trkpt lat="36.8869437" lon="15.0716511"><ele>92.0</ele><time>2026-03-22T11:53:24.056Z</time></trkpt><trkpt lat="36.8869056" lon="15.071714"><ele>92.0</ele><time>2026-03-22T11:53:27.082Z</time></trkpt><trkpt lat="36.8868939" lon="15.0718135"><ele>92.0</ele><time>2026-03-22T11:53:30.083Z</time></trkpt><trkpt lat="36.8868736" lon="15.0718991"><ele>92.0</ele><time>2026-03-22T11:53:32.086Z</time></trkpt><trkpt lat="36.886829" lon="15.0719934"><ele>92.0</ele><time>2026-03-22T11:53:34.072Z</time></trkpt><trkpt lat="36.8868099" lon="15.0720713"><ele>92.0</ele><time>2026-03-22T11:53:36.091Z</time></trkpt><trkpt lat="36.8867797" lon="15.0721635"><ele>92.0</ele><time>2026-03-22T11:53:38.085Z</time></trkpt><trkpt lat="36.8867515" lon="15.0722353"><ele>92.0</ele><time>2026-03-22T11:53:41.071Z</time></trkpt><trkpt lat="36.8866983" lon="15.0721887"><ele>92.0</ele><time>2026-03-22T11:54:51.045Z</time></trkpt><trkpt lat="36.8866757" lon="15.0721104"><ele>92.0</ele><time>2026-03-22T11:54:55.071Z</time></trkpt><trkpt lat="36.8866911" lon="15.0720111"><ele>92.0</ele><time>2026-03-22T11:55:01.079Z</time></trkpt><trkpt lat="36.8867427" lon="15.0719472"><ele>92.0</ele><time>2026-03-22T11:55:04.044Z</time></trkpt><trkpt lat="36.8867879" lon="15.0718668"><ele>92.0</ele><time>2026-03-22T11:55:06.084Z</time></trkpt><trkpt lat="36.8868242" lon="15.0718012"><ele>92.0</ele><time>2026-03-22T11:55:07.065Z</time></trkpt><trkpt lat="36.8868587" lon="15.0717249"><ele>92.0</ele><time>2026-03-22T11:55:08.06Z</time></trkpt><trkpt lat="36.8869196" lon="15.0716128"><ele>91.8</ele><time>2026-03-22T11:55:10.056Z</time></trkpt><trkpt lat="36.8869965" lon="15.0715038"><ele>91.6</ele><time>2026-03-22T11:55:12.07Z</time></trkpt><trkpt lat="36.8870607" lon="15.0714321"><ele>91.39999999999999</ele><time>2026-03-22T11:55:13.059Z</time></trkpt><trkpt lat="36.8871975" lon="15.0714226"><ele>91.19999999999999</ele><time>2026-03-22T11:55:15.054Z</time></trkpt><trkpt lat="36.8872605" lon="15.0713755"><ele>91.0</ele><time>2026-03-22T11:55:17.026Z</time></trkpt><trkpt lat="36.8872922" lon="15.0712836"><ele>91.0</ele><time>2026-03-22T11:55:21.025Z</time></trkpt></trkseg></trk></gpx>